<?xml version='1.0' encoding='UTF-8'?><gpx version="1.1" creator="JPX - https://github.com/jenetics/jpx" xmlns="http://www.topografix.com/GPX/1/1"><trk><trkseg><trkpt lat="44.73992898351761" lon="9.665169226285004"><ele>927.0</ele><time>2026-04-06T07:33:58Z</time></trkpt><trkpt lat="44.739831213104274" lon="9.665139963903583"><ele>927.0</ele><time>2026-04-06T07:39:14Z</time></trkpt><trkpt lat="44.739770487512125" lon="9.665168475852912"><ele>927.0</ele><time>2026-04-06T07:39:16Z</time></trkpt><trkpt lat="44.73969160430475" lon="9.665205247735244"><ele>927.0</ele><time>2026-04-06T07:39:18Z</time></trkpt><trkpt lat="44.739618770706315" lon="9.66525771702194"><ele>927.0</ele><time>2026-04-06T07:39:20Z</time></trkpt><trkpt lat="44.73950363981476" lon="9.665401284009382"><ele>926.8333333333334</ele><time>2026-04-06T07:39:22Z</time></trkpt><trkpt lat="44.73945660914725" lon="9.665472653463919"><ele>926.6666666666667</ele><time>2026-04-06T07:39:23Z</time></trkpt><trkpt lat="44.7394129984237" lon="9.665548385869501"><ele>926.5</ele><time>2026-04-06T07:39:24Z</time></trkpt><trkpt lat="44.73936722136852" lon="9.665630537047791"><ele>926.3333333333334</ele><time>2026-04-06T07:39:25Z</time></trkpt><trkpt lat="44.73931839857629" lon="9.665714181510927"><ele>926.1666666666667</ele><time>2026-04-06T07:39:26Z</time></trkpt><trkpt lat="44.73926544531413" lon="9.665802223334039"><ele>926.0</ele><time>2026-04-06T07:39:27Z</time></trkpt><trkpt lat="44.739204654349244" lon="9.665893248946542"><ele>927.75</ele><time>2026-04-06T07:39:28Z</time></trkpt><trkpt lat="44.73913595848607" lon="9.665986797390214"><ele>929.5</ele><time>2026-04-06T07:39:29Z</time></trkpt><trkpt lat="44.73905854217039" lon="9.6660882397157"><ele>931.25</ele><time>2026-04-06T07:39:30Z</time></trkpt><trkpt lat="44.73897786575892" lon="9.666200869809105"><ele>933.0</ele><time>2026-04-06T07:39:31Z</time></trkpt><trkpt lat="44.738883284603695" lon="9.666348800720822"><ele>933.0</ele><time>2026-04-06T07:39:32Z</time></trkpt><trkpt lat="44.73879692784974" lon="9.666489261328564"><ele>933.0</ele><time>2026-04-06T07:39:33Z</time></trkpt><trkpt lat="44.73871168283711" lon="9.666619066830059"><ele>933.0</ele><time>2026-04-06T07:39:34Z</time></trkpt><trkpt lat="44.73862879777963" lon="9.666732037420822"><ele>933.0</ele><time>2026-04-06T07:39:35Z</time></trkpt><trkpt lat="44.7385465453177" lon="9.666837287284231"><ele>935.5999999999999</ele><time>2026-04-06T07:39:36Z</time></trkpt><trkpt lat="44.73846908959895" lon="9.666945496693513"><ele>938.1999999999999</ele><time>2026-04-06T07:39:37Z</time></trkpt><trkpt lat="44.738398889772725" lon="9.667068076489242"><ele>940.8</ele><time>2026-04-06T07:39:38Z</time></trkpt><trkpt lat="44.7383432662154" lon="9.66720596737693"><ele>943.4</ele><time>2026-04-06T07:39:39Z</time></trkpt><trkpt lat="44.73831431116143" lon="9.667352544061577"><ele>946.0</ele><time>2026-04-06T07:39:40Z</time></trkpt><trkpt lat="44.73831504465837" lon="9.667511610343405"><ele>946.0</ele><time>2026-04-06T07:39:41Z</time></trkpt><trkpt lat="44.7383286749621" lon="9.667667344379751"><ele>945.9999999999999</ele><time>2026-04-06T07:39:42Z</time></trkpt><trkpt lat="44.73832660550589" lon="9.667801088633674"><ele>945.9999999999999</ele><time>2026-04-06T07:39:43Z</time></trkpt><trkpt lat="44.73829626322343" lon="9.667911717795556"><ele>946.0</ele><time>2026-04-06T07:39:44Z</time></trkpt><trkpt lat="44.73822650577709" lon="9.66799083280185"><ele>946.0</ele><time>2026-04-06T07:39:45Z</time></trkpt><trkpt lat="44.73812960438992" lon="9.668048532886461"><ele>946.5</ele><time>2026-04-06T07:39:46Z</time></trkpt><trkpt lat="44.7380237846544" lon="9.668102644546988"><ele>947.0</ele><time>2026-04-06T07:39:47Z</time></trkpt><trkpt lat="44.737917416894454" lon="9.668209236730783"><ele>947.5</ele><time>2026-04-06T07:39:48Z</time></trkpt><trkpt lat="44.73780630980322" lon="9.668308255898799"><ele>948.0</ele><time>2026-04-06T07:39:49Z</time></trkpt><trkpt lat="44.73768996216545" lon="9.668409406479668"><ele>949.0</ele><time>2026-04-06T07:39:50Z</time></trkpt><trkpt lat="44.73757759459521" lon="9.66851046054958"><ele>950.0</ele><time>2026-04-06T07:39:51Z</time></trkpt><trkpt lat="44.737468335078084" lon="9.668621133109728"><ele>951.0</ele><time>2026-04-06T07:39:52Z</time></trkpt><trkpt lat="44.73736074716634" lon="9.66874135364261"><ele>952.0</ele><time>2026-04-06T07:39:53Z</time></trkpt><trkpt lat="44.737249098742495" lon="9.668856040971544"><ele>952.0</ele><time>2026-04-06T07:39:54Z</time></trkpt><trkpt lat="44.73713790709787" lon="9.668954498569663"><ele>952.0</ele><time>2026-04-06T07:39:55Z</time></trkpt><trkpt lat="44.73702376163939" lon="9.669043616511162"><ele>952.0</ele><time>2026-04-06T07:39:56Z</time></trkpt><trkpt lat="44.73690521285896" lon="9.669130608788342"><ele>952.0</ele><time>2026-04-06T07:39:57Z</time></trkpt><trkpt lat="44.73679118485805" lon="9.66920685737418"><ele>954.0</ele><time>2026-04-06T07:39:58Z</time></trkpt><trkpt lat="44.736673009805045" lon="9.669281090548505"><ele>956.0</ele><time>2026-04-06T07:39:59Z</time></trkpt><trkpt lat="44.73655720216914" lon="9.669358542750086"><ele>958.0</ele><time>2026-04-06T07:40:00Z</time></trkpt><trkpt lat="44.73644299682877" lon="9.669444235399718"><ele>960.0</ele><time>2026-04-06T07:40:01Z</time></trkpt><trkpt lat="44.73633736347039" lon="9.669531021268497"><ele>960.0</ele><time>2026-04-06T07:40:02Z</time></trkpt><trkpt lat="44.73623399249337" lon="9.669597263204462"><ele>960.0</ele><time>2026-04-06T07:40:03Z</time></trkpt><trkpt lat="44.73612318126848" lon="9.669641975482495"><ele>960.0</ele><time>2026-04-06T07:40:04Z</time></trkpt><trkpt lat="44.73600449882591" lon="9.669664280045025"><ele>960.0</ele><time>2026-04-06T07:40:05Z</time></trkpt><trkpt lat="44.73588150472144" lon="9.669681728370543"><ele>963.5</ele><time>2026-04-06T07:40:06Z</time></trkpt><trkpt lat="44.735754947023445" lon="9.669691616129649"><ele>967.0</ele><time>2026-04-06T07:40:07Z</time></trkpt><trkpt lat="44.73562743810392" lon="9.669680133517687"><ele>970.5</ele><time>2026-04-06T07:40:08Z</time></trkpt><trkpt lat="44.73550568564418" lon="9.669667052469276"><ele>974.0</ele><time>2026-04-06T07:40:09Z</time></trkpt><trkpt lat="44.73539444535437" lon="9.669673255634716"><ele>974.0</ele><time>2026-04-06T07:40:10Z</time></trkpt><trkpt lat="44.735279572772946" lon="9.669689461916391"><ele>974.0</ele><time>2026-04-06T07:40:11Z</time></trkpt><trkpt lat="44.7351628763678" lon="9.669699122034206"><ele>974.0</ele><time>2026-04-06T07:40:12Z</time></trkpt><trkpt lat="44.73504478012626" lon="9.669684590237956"><ele>974.0</ele><time>2026-04-06T07:40:13Z</time></trkpt><trkpt lat="44.73493029763746" lon="9.66965123320917"><ele>976.0</ele><time>2026-04-06T07:40:14Z</time></trkpt><trkpt lat="44.73481898521226" lon="9.669614019132013"><ele>978.0</ele><time>2026-04-06T07:40:15Z</time></trkpt><trkpt lat="44.734704946517304" lon="9.66959141769068"><ele>980.0</ele><time>2026-04-06T07:40:16Z</time></trkpt><trkpt lat="44.73459552836957" lon="9.669545321370842"><ele>982.0</ele><time>2026-04-06T07:40:17Z</time></trkpt><trkpt lat="44.7344876653192" lon="9.669544058009302"><ele>983.4000000000001</ele><time>2026-04-06T07:40:18Z</time></trkpt><trkpt lat="44.73438384323159" lon="9.669516373786688"><ele>984.8000000000001</ele><time>2026-04-06T07:40:19Z</time></trkpt><trkpt lat="44.734282612204225" lon="9.669521302244707"><ele>986.2</ele><time>2026-04-06T07:40:20Z</time></trkpt><trkpt lat="44.73417659293786" lon="9.669576339138612"><ele>987.6</ele><time>2026-04-06T07:40:21Z</time></trkpt><trkpt lat="44.734072911524656" lon="9.66965080434968"><ele>989.0</ele><time>2026-04-06T07:40:22Z</time></trkpt><trkpt lat="44.733968007913916" lon="9.669737916737235"><ele>989.0</ele><time>2026-04-06T07:40:23Z</time></trkpt><trkpt lat="44.73386488892008" lon="9.66982059351147"><ele>989.0000000000001</ele><time>2026-04-06T07:40:24Z</time></trkpt><trkpt lat="44.73376989801049" lon="9.669895132882264"><ele>989.0000000000001</ele><time>2026-04-06T07:40:25Z</time></trkpt><trkpt lat="44.73367235896322" lon="9.66995485930441"><ele>989.0</ele><time>2026-04-06T07:40:26Z</time></trkpt><trkpt lat="44.73357014969649" lon="9.669996206737595"><ele>989.0</ele><time>2026-04-06T07:40:27Z</time></trkpt><trkpt lat="44.73346292644071" lon="9.670018208468722"><ele>988.8000000000001</ele><time>2026-04-06T07:40:28Z</time></trkpt><trkpt lat="44.733350353709625" lon="9.670021180218694"><ele>988.6000000000001</ele><time>2026-04-06T07:40:29Z</time></trkpt><trkpt lat="44.73324056007901" lon="9.670014725111777"><ele>988.4</ele><time>2026-04-06T07:40:30Z</time></trkpt><trkpt lat="44.73313389818327" lon="9.670006008938032"><ele>988.2</ele><time>2026-04-06T07:40:31Z</time></trkpt><trkpt lat="44.733035907173154" lon="9.669998420729627"><ele>988.0</ele><time>2026-04-06T07:40:32Z</time></trkpt><trkpt lat="44.732947337514126" lon="9.669984872635798"><ele>988.0</ele><time>2026-04-06T07:40:33Z</time></trkpt><trkpt lat="44.73286191466935" lon="9.66993555029878"><ele>988.0</ele><time>2026-04-06T07:40:34Z</time></trkpt><trkpt lat="44.73277970859829" lon="9.669883173717395"><ele>988.0</ele><time>2026-04-06T07:40:35Z</time></trkpt><trkpt lat="44.73270013196216" lon="9.66982018732057"><ele>988.0</ele><time>2026-04-06T07:40:36Z</time></trkpt><trkpt lat="44.73261076129497" lon="9.669768157926985"><ele>988.0</ele><time>2026-04-06T07:40:37Z</time></trkpt><trkpt lat="44.73253974453519" lon="9.6696819649"><ele>987.5999999999999</ele><time>2026-04-06T07:40:38Z</time></trkpt><trkpt lat="44.73246728602024" lon="9.669594392853213"><ele>987.1999999999999</ele><time>2026-04-06T07:40:39Z</time></trkpt><trkpt lat="44.73239393903986" lon="9.669490180481302"><ele>986.8</ele><time>2026-04-06T07:40:40Z</time></trkpt><trkpt lat="44.732333202628716" lon="9.669363501621273"><ele>986.4</ele><time>2026-04-06T07:40:41Z</time></trkpt><trkpt lat="44.73226261785563" lon="9.669228376031764"><ele>986.0</ele><time>2026-04-06T07:40:42Z</time></trkpt><trkpt lat="44.732199503932826" lon="9.669085393181117"><ele>984.5</ele><time>2026-04-06T07:40:43Z</time></trkpt><trkpt lat="44.73213983872423" lon="9.668933551645186"><ele>983.0</ele><time>2026-04-06T07:40:44Z</time></trkpt><trkpt lat="44.73207683202314" lon="9.668786516603468"><ele>981.5</ele><time>2026-04-06T07:40:45Z</time></trkpt><trkpt lat="44.7320115983885" lon="9.668658417171125"><ele>980.0</ele><time>2026-04-06T07:40:46Z</time></trkpt><trkpt lat="44.731944122600055" lon="9.66853747920345"><ele>980.8</ele><time>2026-04-06T07:40:47Z</time></trkpt><trkpt lat="44.73186912559404" lon="9.668431831710425"><ele>981.6</ele><time>2026-04-06T07:40:48Z</time></trkpt><trkpt lat="44.73179587325478" lon="9.668333136379356"><ele>982.4000000000001</ele><time>2026-04-06T07:40:49Z</time></trkpt><trkpt lat="44.73172504690672" lon="9.668246105776802"><ele>983.2</ele><time>2026-04-06T07:40:50Z</time></trkpt><trkpt lat="44.731651171130274" lon="9.668174146071829"><ele>984.0</ele><time>2026-04-06T07:40:51Z</time></trkpt><trkpt lat="44.73157263841591" lon="9.668115584933167"><ele>984.0</ele><time>2026-04-06T07:40:52Z</time></trkpt><trkpt lat="44.73149850951789" lon="9.668068102517687"><ele>984.0</ele><time>2026-04-06T07:40:53Z</time></trkpt><trkpt lat="44.73143300033146" lon="9.668034477433212"><ele>984.0</ele><time>2026-04-06T07:40:54Z</time></trkpt><trkpt lat="44.73136950248896" lon="9.668017865828737"><ele>984.0</ele><time>2026-04-06T07:40:55Z</time></trkpt><trkpt lat="44.731318164990356" lon="9.667961205970776"><ele>984.0</ele><time>2026-04-06T07:40:56Z</time></trkpt><trkpt lat="44.73123796670706" lon="9.66787705852959"><ele>984.0</ele><time>2026-04-06T07:40:58Z</time></trkpt><trkpt lat="44.73118694086226" lon="9.667753251360784"><ele>983.8333333333334</ele><time>2026-04-06T07:41:00Z</time></trkpt><trkpt lat="44.73121093136413" lon="9.66765964682835"><ele>983.6666666666667</ele><time>2026-04-06T07:41:01Z</time></trkpt><trkpt lat="44.731191513561186" lon="9.667528920565243"><ele>983.5</ele><time>2026-04-06T07:41:03Z</time></trkpt><trkpt lat="44.731139162789525" lon="9.667465510657761"><ele>983.3333333333334</ele><time>2026-04-06T07:41:05Z</time></trkpt><trkpt lat="44.73104531852856" lon="9.667414671882767"><ele>983.1666666666667</ele><time>2026-04-06T07:41:07Z</time></trkpt><trkpt lat="44.73104296373949" lon="9.667305658844187"><ele>983.0</ele><time>2026-04-06T07:41:08Z</time></trkpt><trkpt lat="44.73099178895378" lon="9.667242234127286"><ele>983.0</ele><time>2026-04-06T07:41:09Z</time></trkpt><trkpt lat="44.73091320548465" lon="9.66718510629358"><ele>983.0</ele><time>2026-04-06T07:41:10Z</time></trkpt><trkpt lat="44.730804669219474" lon="9.667158682127932"><ele>983.0</ele><time>2026-04-06T07:41:11Z</time></trkpt><trkpt lat="44.73071143064013" lon="9.667119070978579"><ele>983.0</ele><time>2026-04-06T07:41:12Z</time></trkpt><trkpt lat="44.7306344691781" lon="9.667067961248526"><ele>983.0</ele><time>2026-04-06T07:41:13Z</time></trkpt><trkpt lat="44.73055946116872" lon="9.666993454512259"><ele>984.0</ele><time>2026-04-06T07:41:14Z</time></trkpt><trkpt lat="44.730500063465136" lon="9.666893141205449"><ele>985.0</ele><time>2026-04-06T07:41:15Z</time></trkpt><trkpt lat="44.730458940334906" lon="9.666768506459716"><ele>986.0</ele><time>2026-04-06T07:41:16Z</time></trkpt><trkpt lat="44.730419403994745" lon="9.666625501368905"><ele>987.0</ele><time>2026-04-06T07:41:17Z</time></trkpt><trkpt lat="44.73038020363777" lon="9.66646027453356"><ele>988.0</ele><time>2026-04-06T07:41:18Z</time></trkpt><trkpt lat="44.73032421980707" lon="9.666301797728243"><ele>986.75</ele><time>2026-04-06T07:41:19Z</time></trkpt><trkpt lat="44.73022065094128" lon="9.666185677118603"><ele>985.5</ele><time>2026-04-06T07:41:20Z</time></trkpt><trkpt lat="44.73010845904446" lon="9.666070125680378"><ele>984.25</ele><time>2026-04-06T07:41:21Z</time></trkpt><trkpt lat="44.7300179496576" lon="9.665932529029567"><ele>983.0</ele><time>2026-04-06T07:41:22Z</time></trkpt><trkpt lat="44.729930633167484" lon="9.665810671710883"><ele>983.0</ele><time>2026-04-06T07:41:23Z</time></trkpt><trkpt lat="44.72984656518771" lon="9.665691362786722"><ele>983.0</ele><time>2026-04-06T07:41:24Z</time></trkpt><trkpt lat="44.72976725735964" lon="9.665565683153972"><ele>983.0</ele><time>2026-04-06T07:41:25Z</time></trkpt><trkpt lat="44.72969076503187" lon="9.665435148339869"><ele>983.0</ele><time>2026-04-06T07:41:26Z</time></trkpt><trkpt lat="44.72962069456592" lon="9.665307518778409"><ele>984.0</ele><time>2026-04-06T07:41:27Z</time></trkpt><trkpt lat="44.72955361029158" lon="9.665177600631333"><ele>985.0</ele><time>2026-04-06T07:41:28Z</time></trkpt><trkpt lat="44.729486682772084" lon="9.66504837702509"><ele>986.0</ele><time>2026-04-06T07:41:29Z</time></trkpt><trkpt lat="44.72942104009078" lon="9.664916051108335"><ele>987.0</ele><time>2026-04-06T07:41:30Z</time></trkpt><trkpt lat="44.72937501142775" lon="9.664770887436063"><ele>985.0</ele><time>2026-04-06T07:41:31Z</time></trkpt><trkpt lat="44.72935370845487" lon="9.664628673565305"><ele>983.0</ele><time>2026-04-06T07:41:32Z</time></trkpt><trkpt lat="44.72934647062885" lon="9.66448984853273"><ele>981.0</ele><time>2026-04-06T07:41:33Z</time></trkpt><trkpt lat="44.72931868955541" lon="9.664360260039638"><ele>979.0</ele><time>2026-04-06T07:41:34Z</time></trkpt><trkpt lat="44.729263411497826" lon="9.664240830011236"><ele>977.0</ele><time>2026-04-06T07:41:35Z</time></trkpt><trkpt lat="44.72916404222032" lon="9.664158209343034"><ele>977.0</ele><time>2026-04-06T07:41:36Z</time></trkpt><trkpt lat="44.729045621576276" lon="9.66412959708308"><ele>977.0</ele><time>2026-04-06T07:41:37Z</time></trkpt><trkpt lat="44.72894354910487" lon="9.664142379033054"><ele>977.0</ele><time>2026-04-06T07:41:38Z</time></trkpt><trkpt lat="44.72885929586229" lon="9.664154338199802"><ele>977.0</ele><time>2026-04-06T07:41:39Z</time></trkpt><trkpt lat="44.72878231248762" lon="9.664161876830871"><ele>977.0</ele><time>2026-04-06T07:41:40Z</time></trkpt><trkpt lat="44.72869517339452" lon="9.664161776644553"><ele>977.0</ele><time>2026-04-06T07:41:41Z</time></trkpt><trkpt lat="44.72860518977263" lon="9.664150584583245"><ele>977.0</ele><time>2026-04-06T07:41:42Z</time></trkpt><trkpt lat="44.72851460074212" lon="9.664136709998507"><ele>977.0</ele><time>2026-04-06T07:41:43Z</time></trkpt><trkpt lat="44.728421602115056" lon="9.664119854556207"><ele>977.0</ele><time>2026-04-06T07:41:44Z</time></trkpt><trkpt lat="44.72832831700075" lon="9.664115885631618"><ele>977.0</ele><time>2026-04-06T07:41:45Z</time></trkpt><trkpt lat="44.7282418391609" lon="9.66407775950439"><ele>978.6</ele><time>2026-04-06T07:41:46Z</time></trkpt><trkpt lat="44.72817871173752" lon="9.663995959998818"><ele>980.2</ele><time>2026-04-06T07:41:47Z</time></trkpt><trkpt lat="44.728131557217694" lon="9.66391204791982"><ele>981.8</ele><time>2026-04-06T07:41:48Z</time></trkpt><trkpt lat="44.728074493812585" lon="9.663842049940092"><ele>983.4</ele><time>2026-04-06T07:41:49Z</time></trkpt><trkpt lat="44.72802059602546" lon="9.663717203397148"><ele>985.0</ele><time>2026-04-06T07:41:51Z</time></trkpt><trkpt lat="44.727868150361346" lon="9.663537371517231"><ele>985.2</ele><time>2026-04-06T07:41:52Z</time></trkpt><trkpt lat="44.72778011733001" lon="9.663470624584562"><ele>985.4</ele><time>2026-04-06T07:41:53Z</time></trkpt><trkpt lat="44.72768047467525" lon="9.663438486089746"><ele>985.5999999999999</ele><time>2026-04-06T07:41:54Z</time></trkpt><trkpt lat="44.72757837862134" lon="9.6634104488077"><ele>985.8</ele><time>2026-04-06T07:41:55Z</time></trkpt><trkpt lat="44.727479636860586" lon="9.663374216006664"><ele>986.0</ele><time>2026-04-06T07:41:56Z</time></trkpt><trkpt lat="44.72738406992617" lon="9.66333962891673"><ele>988.4</ele><time>2026-04-06T07:41:57Z</time></trkpt><trkpt lat="44.72729297512937" lon="9.663290463262458"><ele>990.8</ele><time>2026-04-06T07:41:58Z</time></trkpt><trkpt lat="44.72719685789411" lon="9.663251570029608"><ele>993.1999999999999</ele><time>2026-04-06T07:41:59Z</time></trkpt><trkpt lat="44.7271058097651" lon="9.66317838415225"><ele>995.5999999999999</ele><time>2026-04-06T07:42:00Z</time></trkpt><trkpt lat="44.72700920839427" lon="9.663110881810534"><ele>998.0</ele><time>2026-04-06T07:42:01Z</time></trkpt><trkpt lat="44.7269217407061" lon="9.663039109609024"><ele>998.6666666666667</ele><time>2026-04-06T07:42:02Z</time></trkpt><trkpt lat="44.726846138159125" lon="9.662961098535652"><ele>999.3333333333334</ele><time>2026-04-06T07:42:03Z</time></trkpt><trkpt lat="44.72676598534676" lon="9.662926460420968"><ele>1000.0</ele><time>2026-04-06T07:42:04Z</time></trkpt><trkpt lat="44.72670717948109" lon="9.662877751346421"><ele>1000.6666666666667</ele><time>2026-04-06T07:42:05Z</time></trkpt><trkpt lat="44.72668479799661" lon="9.662785686188435"><ele>1001.3333333333334</ele><time>2026-04-06T07:42:06Z</time></trkpt><trkpt lat="44.7266426637282" lon="9.66271193177918"><ele>1002.0</ele><time>2026-04-06T07:42:07Z</time></trkpt><trkpt lat="44.72661409590468" lon="9.662621588186308"><ele>1003.6</ele><time>2026-04-06T07:42:08Z</time></trkpt><trkpt lat="44.7265913038064" lon="9.662473918848182"><ele>1005.2</ele><time>2026-04-06T07:42:10Z</time></trkpt><trkpt lat="44.72645925217748" lon="9.66249610460119"><ele>1006.8</ele><time>2026-04-06T07:42:12Z</time></trkpt><trkpt lat="44.72634901224942" lon="9.662609096364871"><ele>1008.4</ele><time>2026-04-06T07:42:14.001Z</time></trkpt><trkpt lat="44.72628452037641" lon="9.662629750452414"><ele>1010.0</ele><time>2026-04-06T07:42:15.001Z</time></trkpt><trkpt lat="44.72622028607337" lon="9.662612483768706"><ele>1010.0000000000001</ele><time>2026-04-06T07:42:16.001Z</time></trkpt><trkpt lat="44.72616120395628" lon="9.662559582291168"><ele>1010.0</ele><time>2026-04-06T07:42:17.001Z</time></trkpt><trkpt lat="44.72612293816651" lon="9.662479363450363"><ele>1010.0</ele><time>2026-04-06T07:42:18.001Z</time></trkpt><trkpt lat="44.72607256734103" lon="9.662384720669264"><ele>1010.0</ele><time>2026-04-06T07:42:19.001Z</time></trkpt><trkpt lat="44.72600319892425" lon="9.662302039409251"><ele>1010.0000000000001</ele><time>2026-04-06T07:42:20.001Z</time></trkpt><trkpt lat="44.72591933730365" lon="9.662251073119728"><ele>1010.0</ele><time>2026-04-06T07:42:21.001Z</time></trkpt><trkpt lat="44.72582228669646" lon="9.662214921896439"><ele>1013.6</ele><time>2026-04-06T07:42:22.001Z</time></trkpt><trkpt lat="44.72572802382197" lon="9.662186671316919"><ele>1017.2</ele><time>2026-04-06T07:42:23.001Z</time></trkpt><trkpt lat="44.72562630093517" lon="9.662205570529615"><ele>1020.8</ele><time>2026-04-06T07:42:25.001Z</time></trkpt><trkpt lat="44.72557726409979" lon="9.66234044174836"><ele>1024.4</ele><time>2026-04-06T07:42:27.001Z</time></trkpt><trkpt lat="44.72555547581968" lon="9.662457164555294"><ele>1028.0</ele><time>2026-04-06T07:42:28.001Z</time></trkpt><trkpt lat="44.725527937967215" lon="9.662564757871934"><ele>1028.0</ele><time>2026-04-06T07:42:29.001Z</time></trkpt><trkpt lat="44.725508055027284" lon="9.662649654181353"><ele>1028.0</ele><time>2026-04-06T07:42:30Z</time></trkpt><trkpt lat="44.72546390640465" lon="9.66275146806641"><ele>1028.0</ele><time>2026-04-06T07:42:31Z</time></trkpt><trkpt lat="44.725422906319544" lon="9.662822527586341"><ele>1028.0</ele><time>2026-04-06T07:42:32Z</time></trkpt><trkpt lat="44.72536700698868" lon="9.662877724661904"><ele>1028.0</ele><time>2026-04-06T07:42:33Z</time></trkpt><trkpt lat="44.72528859408119" lon="9.662914410945387"><ele>1028.0</ele><time>2026-04-06T07:42:34Z</time></trkpt><trkpt lat="44.72520210087236" lon="9.662943067847257"><ele>1032.6</ele><time>2026-04-06T07:42:35Z</time></trkpt><trkpt lat="44.72511322446293" lon="9.662977292825698"><ele>1037.1999999999998</ele><time>2026-04-06T07:42:36Z</time></trkpt><trkpt lat="44.72502133679306" lon="9.663004545309375"><ele>1041.8</ele><time>2026-04-06T07:42:37Z</time></trkpt><trkpt lat="44.72496026505129" lon="9.662941550446547"><ele>1046.3999999999999</ele><time>2026-04-06T07:42:39Z</time></trkpt><trkpt lat="44.724859037290706" lon="9.662999848445184"><ele>1051.0</ele><time>2026-04-06T07:43:09Z</time></trkpt><trkpt lat="44.72480083141527" lon="9.663074880329921"><ele>1051.0</ele><time>2026-04-06T07:43:10Z</time></trkpt><trkpt lat="44.72473198896591" lon="9.663129463398311"><ele>1051.0</ele><time>2026-04-06T07:43:11Z</time></trkpt><trkpt lat="44.72465677102771" lon="9.663167993228406"><ele>1051.0</ele><time>2026-04-06T07:43:12Z</time></trkpt><trkpt lat="44.724548993998084" lon="9.663219670653081"><ele>1051.0</ele><time>2026-04-06T07:43:13Z</time></trkpt><trkpt lat="44.72444163021047" lon="9.663267848483805"><ele>1051.0</ele><time>2026-04-06T07:43:14Z</time></trkpt><trkpt lat="44.72435910205607" lon="9.663314598102074"><ele>1054.8</ele><time>2026-04-06T07:43:15Z</time></trkpt><trkpt lat="44.72429123163609" lon="9.663403086345985"><ele>1058.6</ele><time>2026-04-06T07:43:17Z</time></trkpt><trkpt lat="44.724314269818585" lon="9.663489120529123"><ele>1062.4</ele><time>2026-04-06T07:43:19Z</time></trkpt><trkpt lat="44.72427427825011" lon="9.663615160457075"><ele>1066.2</ele><time>2026-04-06T07:43:21Z</time></trkpt><trkpt lat="44.724240461415796" lon="9.663777670742155"><ele>1070.0</ele><time>2026-04-06T07:43:23Z</time></trkpt><trkpt lat="44.72423146405478" lon="9.663880944445152"><ele>1070.0</ele><time>2026-04-06T07:43:24Z</time></trkpt><trkpt lat="44.72421563073217" lon="9.663996819779172"><ele>1070.0</ele><time>2026-04-06T07:43:25Z</time></trkpt><trkpt lat="44.724203450970585" lon="9.66411560712485"><ele>1070.0</ele><time>2026-04-06T07:43:26Z</time></trkpt><trkpt lat="44.72417847460747" lon="9.664204349463455"><ele>1070.0</ele><time>2026-04-06T07:43:27Z</time></trkpt><trkpt lat="44.724080416589125" lon="9.664192296038049"><ele>1070.0</ele><time>2026-04-06T07:43:29Z</time></trkpt><trkpt lat="44.72403479600718" lon="9.664119915115242"><ele>1070.0</ele><time>2026-04-06T07:43:30Z</time></trkpt><trkpt lat="44.72399065122347" lon="9.663975406591142"><ele>1070.0</ele><time>2026-04-06T07:43:32Z</time></trkpt><trkpt lat="44.723971066578095" lon="9.663883603182853"><ele>1070.0</ele><time>2026-04-06T07:43:33Z</time></trkpt><trkpt lat="44.723944211293755" lon="9.663779145653914"><ele>1070.0</ele><time>2026-04-06T07:43:35Z</time></trkpt><trkpt lat="44.72386335147203" lon="9.66370764216063"><ele>1070.0</ele><time>2026-04-06T07:43:37Z</time></trkpt><trkpt lat="44.72377009276909" lon="9.663766916174536"><ele>1070.0</ele><time>2026-04-06T07:43:39Z</time></trkpt><trkpt lat="44.72374421656645" lon="9.663851938743909"><ele>1070.0</ele><time>2026-04-06T07:43:40Z</time></trkpt><trkpt lat="44.72368376822918" lon="9.663973024207943"><ele>1070.0</ele><time>2026-04-06T07:43:42Z</time></trkpt><trkpt lat="44.723589291639804" lon="9.663939648289704"><ele>1070.0</ele><time>2026-04-06T07:43:44Z</time></trkpt><trkpt lat="44.723485491767384" lon="9.663894113574665"><ele>1070.0</ele><time>2026-04-06T07:43:46Z</time></trkpt><trkpt lat="44.72339401844527" lon="9.663872105598228"><ele>1070.0</ele><time>2026-04-06T07:43:48Z</time></trkpt><trkpt lat="44.723278567473315" lon="9.663987117164481"><ele>1070.0</ele><time>2026-04-06T07:43:50Z</time></trkpt><trkpt lat="44.72318436090922" lon="9.664116850797125"><ele>1073.6666666666667</ele><time>2026-04-06T07:43:52Z</time></trkpt><trkpt lat="44.72313735201431" lon="9.664199705365927"><ele>1077.3333333333335</ele><time>2026-04-06T07:43:53Z</time></trkpt><trkpt lat="44.72311582552702" lon="9.664295960055883"><ele>1081.0</ele><time>2026-04-06T07:43:54Z</time></trkpt><trkpt lat="44.723099106843286" lon="9.664407184130202"><ele>1084.6666666666667</ele><time>2026-04-06T07:43:55Z</time></trkpt><trkpt lat="44.72308637995795" lon="9.664500357868194"><ele>1088.3333333333333</ele><time>2026-04-06T07:43:56Z</time></trkpt><trkpt lat="44.72306178966698" lon="9.664588809634887"><ele>1092.0</ele><time>2026-04-06T07:43:57Z</time></trkpt><trkpt lat="44.722967821685856" lon="9.664595010944218"><ele>1092.0</ele><time>2026-04-06T07:43:59Z</time></trkpt><trkpt lat="44.722869810295286" lon="9.664541421753107"><ele>1092.0</ele><time>2026-04-06T07:44:01Z</time></trkpt><trkpt lat="44.72279826947719" lon="9.664413863921649"><ele>1092.0</ele><time>2026-04-06T07:44:03Z</time></trkpt><trkpt lat="44.72274271417724" lon="9.66435276517772"><ele>1092.0</ele><time>2026-04-06T07:44:04Z</time></trkpt><trkpt lat="44.72267990220392" lon="9.664320422738863"><ele>1092.0</ele><time>2026-04-06T07:44:05Z</time></trkpt><trkpt lat="44.722581476348196" lon="9.664247857713368"><ele>1096.8333333333333</ele><time>2026-04-06T07:44:07Z</time></trkpt><trkpt lat="44.72252186040707" lon="9.664280495584459"><ele>1101.6666666666667</ele><time>2026-04-06T07:44:09Z</time></trkpt><trkpt lat="44.72252438253463" lon="9.66438492117511"><ele>1106.5</ele><time>2026-04-06T07:44:11Z</time></trkpt><trkpt lat="44.72255259681764" lon="9.664470770432393"><ele>1111.3333333333335</ele><time>2026-04-06T07:44:13Z</time></trkpt><trkpt lat="44.72257180973942" lon="9.664596702656599"><ele>1116.1666666666667</ele><time>2026-04-06T07:44:15Z</time></trkpt><trkpt lat="44.72257531669099" lon="9.664773247344321"><ele>1121.0</ele><time>2026-04-06T07:44:17Z</time></trkpt><trkpt lat="44.7225287814909" lon="9.664957717164786"><ele>1122.0</ele><time>2026-04-06T07:44:19.001Z</time></trkpt><trkpt lat="44.72247930412454" lon="9.665057727846404"><ele>1123.0</ele><time>2026-04-06T07:44:20.001Z</time></trkpt><trkpt lat="44.722398487635154" lon="9.66517857544573"><ele>1124.0</ele><time>2026-04-06T07:44:21.001Z</time></trkpt><trkpt lat="44.7223319415573" lon="9.665263968043174"><ele>1125.0</ele><time>2026-04-06T07:44:22.001Z</time></trkpt><trkpt lat="44.72226566026275" lon="9.665319414258821"><ele>1126.0</ele><time>2026-04-06T07:44:23.001Z</time></trkpt><trkpt lat="44.722178492152956" lon="9.665414660193482"><ele>1126.8333333333333</ele><time>2026-04-06T07:44:25.001Z</time></trkpt><trkpt lat="44.722108578116575" lon="9.665463783587219"><ele>1127.6666666666665</ele><time>2026-04-06T07:44:26.001Z</time></trkpt><trkpt lat="44.72203044552839" lon="9.665493920990547"><ele>1128.5</ele><time>2026-04-06T07:44:27.001Z</time></trkpt><trkpt lat="44.72195687034402" lon="9.66551660509927"><ele>1129.3333333333333</ele><time>2026-04-06T07:44:28.001Z</time></trkpt><trkpt lat="44.72186803807104" lon="9.665504759740875"><ele>1130.1666666666667</ele><time>2026-04-06T07:44:29.001Z</time></trkpt><trkpt lat="44.72179680551767" lon="9.66553023662055"><ele>1131.0</ele><time>2026-04-06T07:44:30.001Z</time></trkpt><trkpt lat="44.72172660692589" lon="9.665562518901393"><ele>1131.0</ele><time>2026-04-06T07:44:31.001Z</time></trkpt><trkpt lat="44.721645835430714" lon="9.66553749934717"><ele>1131.0</ele><time>2026-04-06T07:44:33.001Z</time></trkpt><trkpt lat="44.72166117129211" lon="9.665395443627377"><ele>1131.0</ele><time>2026-04-06T07:44:35.001Z</time></trkpt><trkpt lat="44.72169727204058" lon="9.66531133163669"><ele>1131.0</ele><time>2026-04-06T07:44:36.001Z</time></trkpt><trkpt lat="44.721756900413105" lon="9.66517664208659"><ele>1131.0</ele><time>2026-04-06T07:44:38Z</time></trkpt><trkpt lat="44.7217998324684" lon="9.665064257229147"><ele>1134.1666666666667</ele><time>2026-04-06T07:44:40Z</time></trkpt><trkpt lat="44.72177721820498" lon="9.664974486156337"><ele>1137.3333333333333</ele><time>2026-04-06T07:44:42Z</time></trkpt><trkpt lat="44.72167591751268" lon="9.664957720751435"><ele>1140.5</ele><time>2026-04-06T07:44:45Z</time></trkpt><trkpt lat="44.72158375118584" lon="9.664907199200458"><ele>1143.6666666666665</ele><time>2026-04-06T07:44:47Z</time></trkpt><trkpt lat="44.72150634409384" lon="9.664834066439022"><ele>1146.8333333333333</ele><time>2026-04-06T07:44:49Z</time></trkpt><trkpt lat="44.721453756356155" lon="9.664767165045015"><ele>1150.0</ele><time>2026-04-06T07:44:50Z</time></trkpt><trkpt lat="44.72138827069456" lon="9.664692858292156"><ele>1150.0</ele><time>2026-04-06T07:44:51Z</time></trkpt><trkpt lat="44.72131705748887" lon="9.664653744689303"><ele>1150.0</ele><time>2026-04-06T07:44:52Z</time></trkpt><trkpt lat="44.721240751894925" lon="9.664627656680505"><ele>1150.0</ele><time>2026-04-06T07:44:53Z</time></trkpt><trkpt lat="44.72118309492468" lon="9.664586100154322"><ele>1150.0</ele><time>2026-04-06T07:44:54Z</time></trkpt><trkpt lat="44.72109617763012" lon="9.66451678498988"><ele>1150.0</ele><time>2026-04-06T07:44:55Z</time></trkpt><trkpt lat="44.72101016848939" lon="9.664473032389152"><ele>1150.0</ele><time>2026-04-06T07:44:56Z</time></trkpt><trkpt lat="44.72093032418465" lon="9.664439851560964"><ele>1154.8</ele><time>2026-04-06T07:44:57Z</time></trkpt><trkpt lat="44.72086017103235" lon="9.664419015611971"><ele>1159.6</ele><time>2026-04-06T07:44:58Z</time></trkpt><trkpt lat="44.72079000195885" lon="9.66439770715258"><ele>1164.4</ele><time>2026-04-06T07:44:59Z</time></trkpt><trkpt lat="44.720653880258205" lon="9.664283535303984"><ele>1169.2</ele><time>2026-04-06T07:45:01Z</time></trkpt><trkpt lat="44.720563853205306" lon="9.6642052616064"><ele>1174.0</ele><time>2026-04-06T07:45:02Z</time></trkpt><trkpt lat="44.720470948892476" lon="9.664140264902304"><ele>1174.0</ele><time>2026-04-06T07:45:03Z</time></trkpt><trkpt lat="44.72039598160914" lon="9.664068054810038"><ele>1174.0</ele><time>2026-04-06T07:45:05Z</time></trkpt><trkpt lat="44.7203334015078" lon="9.6640280196802"><ele>1174.0</ele><time>2026-04-06T07:45:07Z</time></trkpt><trkpt lat="44.7202672734333" lon="9.66395117449995"><ele>1174.0</ele><time>2026-04-06T07:45:09Z</time></trkpt><trkpt lat="44.72018081240085" lon="9.66386673475263"><ele>1174.0</ele><time>2026-04-06T07:45:11Z</time></trkpt><trkpt lat="44.72012854549437" lon="9.663815948670708"><ele>1174.0</ele><time>2026-04-06T07:45:12Z</time></trkpt><trkpt lat="44.720063335883275" lon="9.663683859866424"><ele>1176.8333333333333</ele><time>2026-04-06T07:45:14Z</time></trkpt><trkpt lat="44.72004117514732" lon="9.663583509999071"><ele>1179.6666666666665</ele><time>2026-04-06T07:45:15Z</time></trkpt><trkpt lat="44.72002671786916" lon="9.6634708264994"><ele>1182.5</ele><time>2026-04-06T07:45:16Z</time></trkpt><trkpt lat="44.72001252504121" lon="9.66334789333796"><ele>1185.3333333333333</ele><time>2026-04-06T07:45:17Z</time></trkpt><trkpt lat="44.71999507685663" lon="9.663234235855473"><ele>1188.1666666666667</ele><time>2026-04-06T07:45:18Z</time></trkpt><trkpt lat="44.719973622370745" lon="9.663116692077995"><ele>1191.0</ele><time>2026-04-06T07:45:19Z</time></trkpt><trkpt lat="44.71995553207101" lon="9.66298742484702"><ele>1191.0</ele><time>2026-04-06T07:45:20Z</time></trkpt><trkpt lat="44.719933109756745" lon="9.662848913808235"><ele>1191.0</ele><time>2026-04-06T07:45:21Z</time></trkpt><trkpt lat="44.719926246959815" lon="9.662707466666115"><ele>1191.0</ele><time>2026-04-06T07:45:22Z</time></trkpt><trkpt lat="44.71995426885873" lon="9.662568895136092"><ele>1191.0</ele><time>2026-04-06T07:45:23Z</time></trkpt><trkpt lat="44.71996364563318" lon="9.66238810975389"><ele>1191.0</ele><time>2026-04-06T07:45:24Z</time></trkpt><trkpt lat="44.71999346190558" lon="9.662220543630765"><ele>1192.0</ele><time>2026-04-06T07:45:25Z</time></trkpt><trkpt lat="44.72001436207325" lon="9.662075391888466"><ele>1193.0</ele><time>2026-04-06T07:45:26Z</time></trkpt><trkpt lat="44.72003508604124" lon="9.661948925569579"><ele>1194.0</ele><time>2026-04-06T07:45:27Z</time></trkpt><trkpt lat="44.72004403807072" lon="9.661837544621221"><ele>1195.0</ele><time>2026-04-06T07:45:28Z</time></trkpt><trkpt lat="44.720057661394854" lon="9.661725437830894"><ele>1196.0</ele><time>2026-04-06T07:45:29Z</time></trkpt><trkpt lat="44.72003858378016" lon="9.661627314693282"><ele>1197.0</ele><time>2026-04-06T07:45:30Z</time></trkpt><trkpt lat="44.71997573036816" lon="9.661569460353356"><ele>1197.6</ele><time>2026-04-06T07:45:31Z</time></trkpt><trkpt lat="44.71994066411901" lon="9.661492473790878"><ele>1198.2</ele><time>2026-04-06T07:45:32Z</time></trkpt><trkpt lat="44.71988670985236" lon="9.661417642435339"><ele>1198.8</ele><time>2026-04-06T07:45:33Z</time></trkpt><trkpt lat="44.71983248247542" lon="9.661312821250478"><ele>1199.4</ele><time>2026-04-06T07:45:34Z</time></trkpt><trkpt lat="44.71977705169088" lon="9.661188363088316"><ele>1200.0</ele><time>2026-04-06T07:45:35Z</time></trkpt><trkpt lat="44.71972291968165" lon="9.661044386921331"><ele>1200.75</ele><time>2026-04-06T07:45:36Z</time></trkpt><trkpt lat="44.71966449241205" lon="9.660883579880585"><ele>1201.5</ele><time>2026-04-06T07:45:37Z</time></trkpt><trkpt lat="44.71959899787278" lon="9.660705843303214"><ele>1202.25</ele><time>2026-04-06T07:45:38Z</time></trkpt><trkpt lat="44.719512979307844" lon="9.660525477038092"><ele>1203.0</ele><time>2026-04-06T07:45:39Z</time></trkpt><trkpt lat="44.71944536813548" lon="9.660342311183793"><ele>1207.6666666666667</ele><time>2026-04-06T07:45:40Z</time></trkpt><trkpt lat="44.719376260355915" lon="9.660137560465659"><ele>1212.3333333333335</ele><time>2026-04-06T07:45:41Z</time></trkpt><trkpt lat="44.71933190859246" lon="9.659905596528903"><ele>1217.0</ele><time>2026-04-06T07:45:42Z</time></trkpt><trkpt lat="44.71927860702452" lon="9.65969795247613"><ele>1217.0</ele><time>2026-04-06T07:45:43Z</time></trkpt><trkpt lat="44.71923033969489" lon="9.659509919590619"><ele>1217.0</ele><time>2026-04-06T07:45:44Z</time></trkpt><trkpt lat="44.71918312115387" lon="9.659322077133194"><ele>1217.0</ele><time>2026-04-06T07:45:45Z</time></trkpt><trkpt lat="44.71914360959505" lon="9.65913311817168"><ele>1217.0</ele><time>2026-04-06T07:45:46Z</time></trkpt><trkpt lat="44.71911252109438" lon="9.658945103530204"><ele>1219.0</ele><time>2026-04-06T07:45:47Z</time></trkpt><trkpt lat="44.71907953968245" lon="9.658752536010503"><ele>1221.0</ele><time>2026-04-06T07:45:48Z</time></trkpt><trkpt lat="44.71902913526438" lon="9.658577775105275"><ele>1223.0</ele><time>2026-04-06T07:45:49Z</time></trkpt><trkpt lat="44.718979240710645" lon="9.658398223932409"><ele>1225.0</ele><time>2026-04-06T07:45:50Z</time></trkpt><trkpt lat="44.718912329637604" lon="9.658217100583824"><ele>1225.6</ele><time>2026-04-06T07:45:51Z</time></trkpt><trkpt lat="44.71886353091025" lon="9.658056041633523"><ele>1226.2</ele><time>2026-04-06T07:45:52Z</time></trkpt><trkpt lat="44.71880801388498" lon="9.657935593359145"><ele>1226.8</ele><time>2026-04-06T07:45:53Z</time></trkpt><trkpt lat="44.71876671761251" lon="9.657849808605693"><ele>1227.4</ele><time>2026-04-06T07:45:54Z</time></trkpt><trkpt lat="44.718732564809855" lon="9.657775028953619"><ele>1228.0</ele><time>2026-04-06T07:45:55Z</time></trkpt><trkpt lat="44.71864656098842" lon="9.657671152259946"><ele>1230.0</ele><time>2026-04-06T07:45:57Z</time></trkpt><trkpt lat="44.718549560567865" lon="9.657560153084106"><ele>1232.0</ele><time>2026-04-06T07:45:59Z</time></trkpt><trkpt lat="44.71849858318984" lon="9.657491688449031"><ele>1234.0</ele><time>2026-04-06T07:46:00Z</time></trkpt><trkpt lat="44.71865110581908" lon="9.657081407665727"><ele>1234.0</ele><time>2026-04-06T07:46:01Z</time></trkpt><trkpt lat="44.71865477619499" lon="9.6569853119887"><ele>1234.0</ele><time>2026-04-06T07:46:02Z</time></trkpt><trkpt lat="44.71859127982244" lon="9.65686147430745"><ele>1234.0</ele><time>2026-04-06T07:46:04Z</time></trkpt><trkpt lat="44.71852898132192" lon="9.65672058226329"><ele>1234.0</ele><time>2026-04-06T07:46:06Z</time></trkpt><trkpt lat="44.71847842451959" lon="9.656607596834212"><ele>1234.0</ele><time>2026-04-06T07:46:07Z</time></trkpt><trkpt lat="44.71841925331055" lon="9.656542213688576"><ele>1239.4</ele><time>2026-04-06T07:46:08Z</time></trkpt><trkpt lat="44.71833495594595" lon="9.656498840268345"><ele>1244.8000000000002</ele><time>2026-04-06T07:46:09Z</time></trkpt><trkpt lat="44.71823901947037" lon="9.656421524400944"><ele>1250.1999999999998</ele><time>2026-04-06T07:46:10Z</time></trkpt><trkpt lat="44.71816788455396" lon="9.656376467371551"><ele>1255.6</ele><time>2026-04-06T07:46:11Z</time></trkpt><trkpt lat="44.71814616578517" lon="9.656278513876924"><ele>1261.0</ele><time>2026-04-06T07:46:13Z</time></trkpt><trkpt lat="44.718117176253905" lon="9.65608101296074"><ele>1262.5</ele><time>2026-04-06T07:46:15Z</time></trkpt><trkpt lat="44.71813021828526" lon="9.655971516288625"><ele>1264.0</ele><time>2026-04-06T07:46:16Z</time></trkpt><trkpt lat="44.718113760917774" lon="9.65585363267637"><ele>1265.5</ele><time>2026-04-06T07:46:18Z</time></trkpt><trkpt lat="44.71806563151392" lon="9.655794124225942"><ele>1267.0</ele><time>2026-04-06T07:46:19Z</time></trkpt><trkpt lat="44.71801874153681" lon="9.655696448734885"><ele>1268.5</ele><time>2026-04-06T07:46:21Z</time></trkpt><trkpt lat="44.71793246429696" lon="9.655611332856175"><ele>1270.0</ele><time>2026-04-06T07:46:23Z</time></trkpt><trkpt lat="44.71787047881063" lon="9.655502940607189"><ele>1270.0</ele><time>2026-04-06T07:46:24Z</time></trkpt><trkpt lat="44.71780574131436" lon="9.655441678770737"><ele>1270.0</ele><time>2026-04-06T07:46:25.001Z</time></trkpt><trkpt lat="44.717726366106575" lon="9.655413322430233"><ele>1270.0</ele><time>2026-04-06T07:46:26.001Z</time></trkpt><trkpt lat="44.717634618721185" lon="9.655384746240046"><ele>1270.0</ele><time>2026-04-06T07:46:27.001Z</time></trkpt><trkpt lat="44.717558574503" lon="9.655333318842205"><ele>1270.0</ele><time>2026-04-06T07:46:28.001Z</time></trkpt><trkpt lat="44.71750021807195" lon="9.65529837714583"><ele>1270.0</ele><time>2026-04-06T07:46:29.001Z</time></trkpt><trkpt lat="44.71739322963413" lon="9.655303315823057"><ele>1272.5</ele><time>2026-04-06T07:46:31.001Z</time></trkpt><trkpt lat="44.71733609889203" lon="9.655235931311854"><ele>1275.0</ele><time>2026-04-06T07:46:33.001Z</time></trkpt><trkpt lat="44.717260019073414" lon="9.655162062576855"><ele>1277.5</ele><time>2026-04-06T07:46:35.001Z</time></trkpt><trkpt lat="44.71720355762244" lon="9.655116059578953"><ele>1280.0</ele><time>2026-04-06T07:46:37.001Z</time></trkpt><trkpt lat="44.71717700762765" lon="9.655020330148105"><ele>1282.5</ele><time>2026-04-06T07:46:39.001Z</time></trkpt><trkpt lat="44.71713157931927" lon="9.654958784794614"><ele>1285.0</ele><time>2026-04-06T07:46:43Z</time></trkpt><trkpt lat="44.71704092810007" lon="9.654852575598206"><ele>1285.0</ele><time>2026-04-06T07:46:45Z</time></trkpt><trkpt lat="44.71698513055945" lon="9.654787692370043"><ele>1285.0</ele><time>2026-04-06T07:46:46Z</time></trkpt><trkpt lat="44.71689678122074" lon="9.654716377524236"><ele>1285.0</ele><time>2026-04-06T07:46:48Z</time></trkpt><trkpt lat="44.7168215118446" lon="9.65466925652809"><ele>1285.0</ele><time>2026-04-06T07:47:30Z</time></trkpt><trkpt lat="44.716731368129686" lon="9.654619991710055"><ele>1285.0</ele><time>2026-04-06T07:47:33Z</time></trkpt><trkpt lat="44.716628998141" lon="9.654573778760568"><ele>1284.0</ele><time>2026-04-06T07:47:35Z</time></trkpt><trkpt lat="44.71655610242452" lon="9.654573906829153"><ele>1283.0</ele><time>2026-04-06T07:47:36Z</time></trkpt><trkpt lat="44.71648263854637" lon="9.654546373400128"><ele>1282.0</ele><time>2026-04-06T07:47:37Z</time></trkpt><trkpt lat="44.71642918680561" lon="9.654455551846084"><ele>1281.0</ele><time>2026-04-06T07:47:40Z</time></trkpt><trkpt lat="44.71637618796744" lon="9.654396069929255"><ele>1280.0</ele><time>2026-04-06T07:47:41Z</time></trkpt><trkpt lat="44.716270422146806" lon="9.654355316505443"><ele>1279.0</ele><time>2026-04-06T07:47:43Z</time></trkpt><trkpt lat="44.716208760082985" lon="9.654323999799022"><ele>1279.6666666666665</ele><time>2026-04-06T07:47:44Z</time></trkpt><trkpt lat="44.71613729994286" lon="9.6542714073761"><ele>1280.3333333333333</ele><time>2026-04-06T07:47:45Z</time></trkpt><trkpt lat="44.71606101445803" lon="9.654219453896268"><ele>1281.0</ele><time>2026-04-06T07:47:46Z</time></trkpt><trkpt lat="44.71597487489491" lon="9.654164426851048"><ele>1281.6666666666667</ele><time>2026-04-06T07:47:47Z</time></trkpt><trkpt lat="44.71588449321932" lon="9.654116090092026"><ele>1282.3333333333335</ele><time>2026-04-06T07:47:49Z</time></trkpt><trkpt lat="44.7158147222104" lon="9.654108226476215"><ele>1283.0</ele><time>2026-04-06T07:47:51Z</time></trkpt><trkpt lat="44.71575190383307" lon="9.654065588636442"><ele>1283.0</ele><time>2026-04-06T07:47:53Z</time></trkpt><trkpt lat="44.71565726326028" lon="9.654002593237895"><ele>1283.0</ele><time>2026-04-06T07:47:57Z</time></trkpt><trkpt lat="44.71557129780876" lon="9.654034157916032"><ele>1283.0</ele><time>2026-04-06T07:47:59Z</time></trkpt><trkpt lat="44.71549710911998" lon="9.654063570203881"><ele>1283.0</ele><time>2026-04-06T07:48:15Z</time></trkpt><trkpt lat="44.715426088717976" lon="9.654025700372918"><ele>1283.0</ele><time>2026-04-06T07:48:18Z</time></trkpt><trkpt lat="44.71535231318285" lon="9.654012162173826"><ele>1283.0</ele><time>2026-04-06T07:48:20Z</time></trkpt><trkpt lat="44.71527615545291" lon="9.6540272086745"><ele>1282.0</ele><time>2026-04-06T07:48:21Z</time></trkpt><trkpt lat="44.715187573684965" lon="9.654066459884026"><ele>1281.0</ele><time>2026-04-06T07:48:23Z</time></trkpt><trkpt lat="44.715123259511486" lon="9.654074753169471"><ele>1280.0</ele><time>2026-04-06T07:48:25Z</time></trkpt><trkpt lat="44.71506129301334" lon="9.654021768499819"><ele>1279.0</ele><time>2026-04-06T07:48:28Z</time></trkpt><trkpt lat="44.71503096294678" lon="9.653866684253712"><ele>1278.0</ele><time>2026-04-06T07:48:30Z</time></trkpt><trkpt lat="44.71500449345074" lon="9.653730970822943"><ele>1277.0</ele><time>2026-04-06T07:48:32Z</time></trkpt><trkpt lat="44.71498146169203" lon="9.653631268957588"><ele>1276.5</ele><time>2026-04-06T07:48:34Z</time></trkpt><trkpt lat="44.71496040156588" lon="9.653544149012061"><ele>1276.0</ele><time>2026-04-06T07:49:21Z</time></trkpt><trkpt lat="44.71491726736738" lon="9.653464202346097"><ele>1275.5</ele><time>2026-04-06T07:49:26Z</time></trkpt><trkpt lat="44.7149597070743" lon="9.65354127630701"><ele>1275.0</ele><time>2026-04-06T07:49:56Z</time></trkpt><trkpt lat="44.71492993067638" lon="9.653418099298198"><ele>1274.5</ele><time>2026-04-06T07:49:59Z</time></trkpt><trkpt lat="44.71490368103291" lon="9.653309511713434"><ele>1274.0</ele><time>2026-04-06T07:50:01Z</time></trkpt><trkpt lat="44.714705796529735" lon="9.653327771273291"><ele>1274.0</ele><time>2026-04-06T07:50:07Z</time></trkpt><trkpt lat="44.71463641010541" lon="9.653357539679941"><ele>1274.0</ele><time>2026-04-06T07:50:10Z</time></trkpt><trkpt lat="44.714576867509685" lon="9.65340793301287"><ele>1274.0</ele><time>2026-04-06T07:50:16Z</time></trkpt><trkpt lat="44.71452531205534" lon="9.653463013916344"><ele>1274.0</ele><time>2026-04-06T07:50:22Z</time></trkpt><trkpt lat="44.71447031627126" lon="9.653573002562686"><ele>1274.0</ele><time>2026-04-06T07:50:28Z</time></trkpt><trkpt lat="44.71440538936354" lon="9.653638496930535"><ele>1274.0</ele><time>2026-04-06T07:50:30Z</time></trkpt><trkpt lat="44.71433609122683" lon="9.653708688185704"><ele>1273.5</ele><time>2026-04-06T07:50:33Z</time></trkpt><trkpt lat="44.714262852183964" lon="9.65373445124541"><ele>1273.0</ele><time>2026-04-06T07:50:35Z</time></trkpt><trkpt lat="44.71419285373826" lon="9.653723543650248"><ele>1272.5</ele><time>2026-04-06T07:50:38Z</time></trkpt><trkpt lat="44.714125638610334" lon="9.653694071809394"><ele>1272.0</ele><time>2026-04-06T07:51:05Z</time></trkpt><trkpt lat="44.71405625018941" lon="9.653651075497772"><ele>1271.5</ele><time>2026-04-06T07:51:07Z</time></trkpt><trkpt lat="44.713928317869296" lon="9.653633468206069"><ele>1271.0</ele><time>2026-04-06T07:51:09Z</time></trkpt><trkpt lat="44.71385718231639" lon="9.65362519283669"><ele>1271.0</ele><time>2026-04-06T07:51:10Z</time></trkpt><trkpt lat="44.713804181574034" lon="9.653682625736751"><ele>1271.0</ele><time>2026-04-06T07:51:11Z</time></trkpt><trkpt lat="44.713741782180286" lon="9.653706644940417"><ele>1271.0</ele><time>2026-04-06T07:51:12Z</time></trkpt><trkpt lat="44.713623955023714" lon="9.65365193363608"><ele>1271.0</ele><time>2026-04-06T07:51:14Z</time></trkpt><trkpt lat="44.71353778582906" lon="9.653617266180415"><ele>1271.0</ele><time>2026-04-06T07:51:15Z</time></trkpt><trkpt lat="44.71346225158167" lon="9.65359288657885"><ele>1271.0</ele><time>2026-04-06T07:51:16Z</time></trkpt><trkpt lat="44.71338965625273" lon="9.653581812206005"><ele>1270.1428571428573</ele><time>2026-04-06T07:51:17Z</time></trkpt><trkpt lat="44.71332514956188" lon="9.653570581364377"><ele>1269.2857142857142</ele><time>2026-04-06T07:51:18Z</time></trkpt><trkpt lat="44.713261804897364" lon="9.65355158558631"><ele>1268.4285714285716</ele><time>2026-04-06T07:51:20Z</time></trkpt><trkpt lat="44.713200082892556" lon="9.653529000105477"><ele>1267.5714285714287</ele><time>2026-04-06T07:51:37Z</time></trkpt><trkpt lat="44.713133827320725" lon="9.65357120407973"><ele>1266.7142857142858</ele><time>2026-04-06T07:51:41Z</time></trkpt><trkpt lat="44.71307056843855" lon="9.65357785110351"><ele>1265.857142857143</ele><time>2026-04-06T07:51:43Z</time></trkpt><trkpt lat="44.712985334870936" lon="9.653581523713711"><ele>1265.0</ele><time>2026-04-06T07:51:45Z</time></trkpt><trkpt lat="44.71290577625343" lon="9.653662136321593"><ele>1265.0</ele><time>2026-04-06T07:51:47Z</time></trkpt><trkpt lat="44.71282686144583" lon="9.653730659426287"><ele>1265.0</ele><time>2026-04-06T07:51:48Z</time></trkpt><trkpt lat="44.712752960126046" lon="9.653772967066494"><ele>1265.0</ele><time>2026-04-06T07:51:49Z</time></trkpt><trkpt lat="44.71268668017399" lon="9.653813905942007"><ele>1265.0</ele><time>2026-04-06T07:51:50Z</time></trkpt><trkpt lat="44.71262076241097" lon="9.653846606702524"><ele>1265.0</ele><time>2026-04-06T07:51:51Z</time></trkpt><trkpt lat="44.712549514475505" lon="9.653877183398617"><ele>1265.0</ele><time>2026-04-06T07:51:52Z</time></trkpt><trkpt lat="44.71248855249562" lon="9.653903893272394"><ele>1266.0</ele><time>2026-04-06T07:51:53Z</time></trkpt><trkpt lat="44.71239431108516" lon="9.653910565066464"><ele>1267.0</ele><time>2026-04-06T07:51:55Z</time></trkpt><trkpt lat="44.71233358083156" lon="9.653832838182023"><ele>1268.0</ele><time>2026-04-06T07:51:58Z</time></trkpt><trkpt lat="44.712297087949324" lon="9.653751846731915"><ele>1269.0</ele><time>2026-04-06T07:52:01Z</time></trkpt><trkpt lat="44.71225332247245" lon="9.653685234799072"><ele>1270.0</ele><time>2026-04-06T07:52:03Z</time></trkpt><trkpt lat="44.71223209760222" lon="9.6535745592068"><ele>1271.0</ele><time>2026-04-06T07:52:05Z</time></trkpt><trkpt lat="44.7123111386357" lon="9.653559962255322"><ele>1271.0</ele><time>2026-04-06T07:52:11Z</time></trkpt><trkpt lat="44.712368453310035" lon="9.653619505618492"><ele>1271.0</ele><time>2026-04-06T07:52:13Z</time></trkpt><trkpt lat="44.71244582260513" lon="9.653653337893564"><ele>1271.0</ele><time>2026-04-06T07:52:15Z</time></trkpt><trkpt lat="44.712533147604866" lon="9.653670054601486"><ele>1271.0</ele><time>2026-04-06T07:52:18Z</time></trkpt><trkpt lat="44.7126022373232" lon="9.653704190530442"><ele>1271.0</ele><time>2026-04-06T07:52:20Z</time></trkpt><trkpt lat="44.71266661571787" lon="9.653727282623885"><ele>1271.0</ele><time>2026-04-06T07:52:22Z</time></trkpt><trkpt lat="44.71274852700267" lon="9.653689515616591"><ele>1270.0</ele><time>2026-04-06T07:52:24Z</time></trkpt><trkpt lat="44.71285779007198" lon="9.65362948028824"><ele>1269.0</ele><time>2026-04-06T07:52:25Z</time></trkpt><trkpt lat="44.71290065759105" lon="9.653527088157887"><ele>1268.0</ele><time>2026-04-06T07:52:27Z</time></trkpt><trkpt lat="44.712886065243026" lon="9.653440661829036"><ele>1267.0</ele><time>2026-04-06T07:52:29Z</time></trkpt><trkpt lat="44.71279756412858" lon="9.653379860010677"><ele>1266.0</ele><time>2026-04-06T07:52:58Z</time></trkpt><trkpt lat="44.71274235020383" lon="9.65333047303777"><ele>1265.0</ele><time>2026-04-06T07:52:59Z</time></trkpt><trkpt lat="44.712645279714145" lon="9.653249708019903"><ele>1261.2</ele><time>2026-04-06T07:53:01Z</time></trkpt><trkpt lat="44.71252741132317" lon="9.65320116394032"><ele>1257.4</ele><time>2026-04-06T07:53:03Z</time></trkpt><trkpt lat="44.71245062355519" lon="9.653159999844776"><ele>1253.6</ele><time>2026-04-06T07:53:04Z</time></trkpt><trkpt lat="44.7123987104976" lon="9.65310767113282"><ele>1249.8</ele><time>2026-04-06T07:53:05Z</time></trkpt><trkpt lat="44.712331685533286" lon="9.652994859299927"><ele>1246.0</ele><time>2026-04-06T07:53:06Z</time></trkpt><trkpt lat="44.71224377722835" lon="9.652859529540564"><ele>1246.0</ele><time>2026-04-06T07:53:07Z</time></trkpt><trkpt lat="44.712190437365265" lon="9.652796849560515"><ele>1246.0</ele><time>2026-04-06T07:53:08Z</time></trkpt><trkpt lat="44.71212069226979" lon="9.652755180879346"><ele>1246.0</ele><time>2026-04-06T07:53:09Z</time></trkpt><trkpt lat="44.71204699219263" lon="9.65271844873655"><ele>1246.0</ele><time>2026-04-06T07:53:10Z</time></trkpt><trkpt lat="44.71195279406197" lon="9.65268790690484"><ele>1246.0</ele><time>2026-04-06T07:53:11Z</time></trkpt><trkpt lat="44.711842479842886" lon="9.6526628185766"><ele>1246.0</ele><time>2026-04-06T07:53:12Z</time></trkpt><trkpt lat="44.71176133176603" lon="9.652637639163828"><ele>1244.3999999999999</ele><time>2026-04-06T07:53:13Z</time></trkpt><trkpt lat="44.71170093603545" lon="9.65254842783111"><ele>1242.8</ele><time>2026-04-06T07:53:14Z</time></trkpt><trkpt lat="44.71161440153403" lon="9.652524139400015"><ele>1241.1999999999998</ele><time>2026-04-06T07:53:15Z</time></trkpt><trkpt lat="44.71151204124152" lon="9.652483856813449"><ele>1239.6</ele><time>2026-04-06T07:53:16Z</time></trkpt><trkpt lat="44.711434402650475" lon="9.652476575140556"><ele>1238.0</ele><time>2026-04-06T07:53:17Z</time></trkpt><trkpt lat="44.71134861137576" lon="9.65253734260781"><ele>1238.0</ele><time>2026-04-06T07:53:19Z</time></trkpt><trkpt lat="44.711281953064706" lon="9.652602954181805"><ele>1238.0</ele><time>2026-04-06T07:53:24Z</time></trkpt><trkpt lat="44.71122913695971" lon="9.65267395205937"><ele>1238.0</ele><time>2026-04-06T07:53:28Z</time></trkpt><trkpt lat="44.71117664236349" lon="9.65272887608326"><ele>1238.0</ele><time>2026-04-06T07:53:32Z</time></trkpt><trkpt lat="44.7111046861697" lon="9.65276947059447"><ele>1238.0</ele><time>2026-04-06T07:53:36Z</time></trkpt><trkpt lat="44.7110387083699" lon="9.65279032178959"><ele>1238.0</ele><time>2026-04-06T07:53:38Z</time></trkpt><trkpt lat="44.71096939194544" lon="9.65281563160555"><ele>1238.0</ele><time>2026-04-06T07:53:40Z</time></trkpt><trkpt lat="44.7109041522754" lon="9.652826166919757"><ele>1237.3333333333335</ele><time>2026-04-06T07:53:42Z</time></trkpt><trkpt lat="44.710827800195986" lon="9.652787663044995"><ele>1236.6666666666667</ele><time>2026-04-06T07:53:45Z</time></trkpt><trkpt lat="44.710737020131994" lon="9.652806115304045"><ele>1236.0</ele><time>2026-04-06T07:53:48Z</time></trkpt><trkpt lat="44.71066929388983" lon="9.652792202447568"><ele>1235.3333333333333</ele><time>2026-04-06T07:53:50Z</time></trkpt><trkpt lat="44.71059003300992" lon="9.652753192757146"><ele>1234.6666666666665</ele><time>2026-04-06T07:53:52Z</time></trkpt><trkpt lat="44.71051843925222" lon="9.65278981367302"><ele>1234.0</ele><time>2026-04-06T07:53:54Z</time></trkpt><trkpt lat="44.710413100736645" lon="9.652857040869256"><ele>1234.0</ele><time>2026-04-06T07:53:56Z</time></trkpt><trkpt lat="44.710351330476335" lon="9.652810581677992"><ele>1234.0</ele><time>2026-04-06T07:53:58Z</time></trkpt><trkpt lat="44.71028067742959" lon="9.652781266012097"><ele>1234.0</ele><time>2026-04-06T07:54:00Z</time></trkpt><trkpt lat="44.71019489836146" lon="9.652832996018924"><ele>1234.0</ele><time>2026-04-06T07:54:02Z</time></trkpt><trkpt lat="44.710098304671924" lon="9.652867445050704"><ele>1234.0</ele><time>2026-04-06T07:54:04Z</time></trkpt><trkpt lat="44.7100349320221" lon="9.652899557151397"><ele>1234.0</ele><time>2026-04-06T07:54:05Z</time></trkpt><trkpt lat="44.70997719970219" lon="9.652939359240733"><ele>1236.6000000000001</ele><time>2026-04-06T07:54:06Z</time></trkpt><trkpt lat="44.70990329426869" lon="9.652984175566422"><ele>1239.2</ele><time>2026-04-06T07:54:07Z</time></trkpt><trkpt lat="44.7098178178053" lon="9.653019156551391"><ele>1241.8000000000002</ele><time>2026-04-06T07:54:09Z</time></trkpt><trkpt lat="44.70975328555425" lon="9.653122710664523"><ele>1244.4</ele><time>2026-04-06T07:54:11Z</time></trkpt><trkpt lat="44.70971109551636" lon="9.653259618556197"><ele>1247.0</ele><time>2026-04-06T07:54:13Z</time></trkpt><trkpt lat="44.70965435308468" lon="9.653339436348464"><ele>1247.0</ele><time>2026-04-06T07:54:17Z</time></trkpt><trkpt lat="44.7095850535317" lon="9.653420247933791"><ele>1247.0</ele><time>2026-04-06T07:54:23Z</time></trkpt><trkpt lat="44.70954334972631" lon="9.65349409178012"><ele>1247.0</ele><time>2026-04-06T07:54:25Z</time></trkpt><trkpt lat="44.7094757772139" lon="9.653485894038846"><ele>1247.0</ele><time>2026-04-06T07:54:29Z</time></trkpt><trkpt lat="44.709432963665975" lon="9.653385210825771"><ele>1247.0</ele><time>2026-04-06T07:54:32Z</time></trkpt><trkpt lat="44.709358729238446" lon="9.653266933138799"><ele>1247.0</ele><time>2026-04-06T07:54:34Z</time></trkpt><trkpt lat="44.70927397958607" lon="9.653183632265023"><ele>1245.6666666666667</ele><time>2026-04-06T07:54:36Z</time></trkpt><trkpt lat="44.70920231927255" lon="9.653134472271974"><ele>1244.3333333333335</ele><time>2026-04-06T07:54:37Z</time></trkpt><trkpt lat="44.70913008783643" lon="9.653069449046765"><ele>1243.0</ele><time>2026-04-06T07:54:38Z</time></trkpt><trkpt lat="44.709057775317135" lon="9.653048260026319"><ele>1241.6666666666667</ele><time>2026-04-06T07:54:39Z</time></trkpt><trkpt lat="44.708995032943854" lon="9.653106619935418"><ele>1240.3333333333333</ele><time>2026-04-06T07:54:40Z</time></trkpt><trkpt lat="44.708924493567075" lon="9.653158138777728"><ele>1239.0</ele><time>2026-04-06T07:54:41Z</time></trkpt><trkpt lat="44.70884571619844" lon="9.65319346088818"><ele>1239.0</ele><time>2026-04-06T07:54:42Z</time></trkpt><trkpt lat="44.70876161853272" lon="9.653223044008085"><ele>1239.0</ele><time>2026-04-06T07:54:43Z</time></trkpt><trkpt lat="44.70868196642858" lon="9.653264800967737"><ele>1239.0</ele><time>2026-04-06T07:54:44Z</time></trkpt><trkpt lat="44.708599737679855" lon="9.653315391219298"><ele>1239.0</ele><time>2026-04-06T07:54:46Z</time></trkpt><trkpt lat="44.708518629184645" lon="9.653315739357023"><ele>1239.0</ele><time>2026-04-06T07:54:49Z</time></trkpt><trkpt lat="44.70845636810461" lon="9.653283936925991"><ele>1239.0</ele><time>2026-04-06T07:54:51Z</time></trkpt><trkpt lat="44.708372278925765" lon="9.653262146218413"><ele>1238.6666666666667</ele><time>2026-04-06T07:54:53Z</time></trkpt><trkpt lat="44.70829533699555" lon="9.653265333285116"><ele>1238.3333333333335</ele><time>2026-04-06T07:54:56Z</time></trkpt><trkpt lat="44.70795636114523" lon="9.65323721559786"><ele>1238.0</ele><time>2026-04-06T07:54:59Z</time></trkpt><trkpt lat="44.70785504126347" lon="9.653225447992925"><ele>1238.0</ele><time>2026-04-06T07:55:00Z</time></trkpt><trkpt lat="44.707768738250486" lon="9.65324099779407"><ele>1238.0</ele><time>2026-04-06T07:55:01Z</time></trkpt><trkpt lat="44.707690683490036" lon="9.653258131143717"><ele>1238.0</ele><time>2026-04-06T07:55:02Z</time></trkpt><trkpt lat="44.707614832237724" lon="9.653243147926371"><ele>1238.0</ele><time>2026-04-06T07:55:03Z</time></trkpt><trkpt lat="44.70754026657593" lon="9.653229180886173"><ele>1238.0</ele><time>2026-04-06T07:55:04Z</time></trkpt><trkpt lat="44.70746644646587" lon="9.65325454729543"><ele>1238.0</ele><time>2026-04-06T07:55:05Z</time></trkpt><trkpt lat="44.70740549220017" lon="9.653319157556613"><ele>1238.0</ele><time>2026-04-06T07:55:06Z</time></trkpt><trkpt lat="44.707337940435465" lon="9.65344869097511"><ele>1238.0</ele><time>2026-04-06T07:55:08Z</time></trkpt><trkpt lat="44.7072795304392" lon="9.653606253244712"><ele>1238.0</ele><time>2026-04-06T07:55:10Z</time></trkpt><trkpt lat="44.70724590777007" lon="9.653703459116855"><ele>1238.0</ele><time>2026-04-06T07:55:11Z</time></trkpt><trkpt lat="44.707218259016706" lon="9.653805777172122"><ele>1238.0</ele><time>2026-04-06T07:55:12Z</time></trkpt><trkpt lat="44.70717342885737" lon="9.653934924876628"><ele>1238.8</ele><time>2026-04-06T07:55:13Z</time></trkpt><trkpt lat="44.707100591963155" lon="9.654105607673404"><ele>1239.6</ele><time>2026-04-06T07:55:14Z</time></trkpt><trkpt lat="44.70705134366644" lon="9.654242184278006"><ele>1240.4</ele><time>2026-04-06T07:55:15Z</time></trkpt><trkpt lat="44.70702577553243" lon="9.65437532983911"><ele>1241.2</ele><time>2026-04-06T07:55:16Z</time></trkpt><trkpt lat="44.70703314679348" lon="9.654503907688731"><ele>1242.0</ele><time>2026-04-06T07:55:17Z</time></trkpt><trkpt lat="44.707046041325846" lon="9.65464054052401"><ele>1242.0</ele><time>2026-04-06T07:55:18Z</time></trkpt><trkpt lat="44.7070485971542" lon="9.654800112912273"><ele>1242.0</ele><time>2026-04-06T07:55:19Z</time></trkpt><trkpt lat="44.70703124089415" lon="9.65492606035647"><ele>1242.0</ele><time>2026-04-06T07:55:20Z</time></trkpt><trkpt lat="44.707007592051504" lon="9.655054122467355"><ele>1242.0</ele><time>2026-04-06T07:55:21Z</time></trkpt><trkpt lat="44.70700548997727" lon="9.655175125311905"><ele>1242.0</ele><time>2026-04-06T07:55:22Z</time></trkpt><trkpt lat="44.707009212150524" lon="9.655264157686934"><ele>1242.0</ele><time>2026-04-06T07:55:24Z</time></trkpt><trkpt lat="44.70698494859369" lon="9.655351921016134"><ele>1242.0</ele><time>2026-04-06T07:55:27Z</time></trkpt><trkpt lat="44.70695876911809" lon="9.655470988641273"><ele>1242.0</ele><time>2026-04-06T07:55:29Z</time></trkpt><trkpt lat="44.70695601610651" lon="9.655606010885439"><ele>1242.0</ele><time>2026-04-06T07:55:31Z</time></trkpt><trkpt lat="44.70693021119388" lon="9.655731647591892"><ele>1242.0</ele><time>2026-04-06T07:55:32Z</time></trkpt><trkpt lat="44.7068985717717" lon="9.655872046243"><ele>1242.0</ele><time>2026-04-06T07:55:33Z</time></trkpt><trkpt lat="44.706866089327974" lon="9.65602092039776"><ele>1242.8333333333333</ele><time>2026-04-06T07:55:34Z</time></trkpt><trkpt lat="44.70684193280352" lon="9.656133379386665"><ele>1243.6666666666667</ele><time>2026-04-06T07:55:35Z</time></trkpt><trkpt lat="44.70683033108688" lon="9.656255844626822"><ele>1244.5</ele><time>2026-04-06T07:55:36Z</time></trkpt><trkpt lat="44.70680998239625" lon="9.656350685386544"><ele>1245.3333333333335</ele><time>2026-04-06T07:55:37Z</time></trkpt><trkpt lat="44.706792151849065" lon="9.65647371873511"><ele>1246.1666666666667</ele><time>2026-04-06T07:55:38Z</time></trkpt><trkpt lat="44.70677097686747" lon="9.656565637618375"><ele>1247.0</ele><time>2026-04-06T07:55:39Z</time></trkpt><trkpt lat="44.706780240970666" lon="9.656658257801668"><ele>1247.0</ele><time>2026-04-06T07:55:40Z</time></trkpt><trkpt lat="44.70670634184116" lon="9.656754285082279"><ele>1247.0</ele><time>2026-04-06T07:55:42Z</time></trkpt><trkpt lat="44.70665057425767" lon="9.656836560422986"><ele>1247.0</ele><time>2026-04-06T07:55:44Z</time></trkpt><trkpt lat="44.70658688590768" lon="9.656943042131498"><ele>1247.0</ele><time>2026-04-06T07:55:47Z</time></trkpt><trkpt lat="44.70651114921228" lon="9.65703777508607"><ele>1247.0</ele><time>2026-04-06T07:55:49Z</time></trkpt><trkpt lat="44.70641265993559" lon="9.657104567945794"><ele>1247.8333333333335</ele><time>2026-04-06T07:55:51Z</time></trkpt><trkpt lat="44.706360553785615" lon="9.657178588273634"><ele>1248.6666666666667</ele><time>2026-04-06T07:55:52Z</time></trkpt><trkpt lat="44.706312317393156" lon="9.65728465693116"><ele>1249.5</ele><time>2026-04-06T07:55:53Z</time></trkpt><trkpt lat="44.706284232789685" lon="9.65737718250418"><ele>1250.3333333333333</ele><time>2026-04-06T07:55:54Z</time></trkpt><trkpt lat="44.7062428434653" lon="9.657548522310062"><ele>1251.1666666666665</ele><time>2026-04-06T07:55:56Z</time></trkpt><trkpt lat="44.70621778268964" lon="9.657659361606195"><ele>1252.0</ele><time>2026-04-06T07:55:57Z</time></trkpt><trkpt lat="44.70619604898296" lon="9.657760168149133"><ele>1249.8333333333333</ele><time>2026-04-06T07:55:58Z</time></trkpt><trkpt lat="44.70616773191942" lon="9.657856349379296"><ele>1247.6666666666665</ele><time>2026-04-06T07:55:59Z</time></trkpt><trkpt lat="44.706146665408326" lon="9.657959410814996"><ele>1245.5</ele><time>2026-04-06T07:56:00Z</time></trkpt><trkpt lat="44.70612847798686" lon="9.658053016513762"><ele>1243.3333333333333</ele><time>2026-04-06T07:56:01Z</time></trkpt><trkpt lat="44.70609265032329" lon="9.658139325141391"><ele>1241.1666666666667</ele><time>2026-04-06T07:56:02Z</time></trkpt><trkpt lat="44.706044855315874" lon="9.658233189117073"><ele>1239.0</ele><time>2026-04-06T07:56:03Z</time></trkpt><trkpt lat="44.70602455847847" lon="9.6583522220559"><ele>1238.8333333333333</ele><time>2026-04-06T07:56:04Z</time></trkpt><trkpt lat="44.706011539847616" lon="9.658455265529419"><ele>1238.6666666666667</ele><time>2026-04-06T07:56:05Z</time></trkpt><trkpt lat="44.70598504247912" lon="9.65854559861591"><ele>1238.5</ele><time>2026-04-06T07:56:06Z</time></trkpt><trkpt lat="44.70596243074045" lon="9.658640004441631"><ele>1238.3333333333335</ele><time>2026-04-06T07:56:07Z</time></trkpt><trkpt lat="44.705944763580334" lon="9.65873336626986"><ele>1238.1666666666667</ele><time>2026-04-06T07:56:08Z</time></trkpt><trkpt lat="44.705864181680234" lon="9.658866406757657"><ele>1238.0</ele><time>2026-04-06T07:56:10Z</time></trkpt><trkpt lat="44.7057805530721" lon="9.658964959384846"><ele>1237.6666666666667</ele><time>2026-04-06T07:56:12Z</time></trkpt><trkpt lat="44.70579357209753" lon="9.659063753115767"><ele>1237.3333333333335</ele><time>2026-04-06T07:56:13Z</time></trkpt><trkpt lat="44.70580427542596" lon="9.659176306719413"><ele>1237.0</ele><time>2026-04-06T07:56:14Z</time></trkpt><trkpt lat="44.70580394148927" lon="9.659312233466375"><ele>1236.6666666666667</ele><time>2026-04-06T07:56:15Z</time></trkpt><trkpt lat="44.70580884612574" lon="9.659431411265992"><ele>1236.3333333333333</ele><time>2026-04-06T07:56:16Z</time></trkpt><trkpt lat="44.705800280766184" lon="9.659542361292107"><ele>1236.0</ele><time>2026-04-06T07:56:17Z</time></trkpt><trkpt lat="44.705723777901426" lon="9.659644881980691"><ele>1236.0</ele><time>2026-04-06T07:56:19Z</time></trkpt><trkpt lat="44.70563376673741" lon="9.65976557394887"><ele>1236.0</ele><time>2026-04-06T07:56:21Z</time></trkpt><trkpt lat="44.70557978030035" lon="9.659838252823764"><ele>1236.0</ele><time>2026-04-06T07:56:22Z</time></trkpt><trkpt lat="44.70556436508126" lon="9.659927943968745"><ele>1236.0</ele><time>2026-04-06T07:56:23Z</time></trkpt><trkpt lat="44.70557391409837" lon="9.660061364330318"><ele>1236.0</ele><time>2026-04-06T07:56:24Z</time></trkpt><trkpt lat="44.70556693540541" lon="9.660210296368723"><ele>1237.6</ele><time>2026-04-06T07:56:25Z</time></trkpt><trkpt lat="44.705563200340485" lon="9.660335290490815"><ele>1239.1999999999998</ele><time>2026-04-06T07:56:26Z</time></trkpt><trkpt lat="44.70552238742819" lon="9.660516536191034"><ele>1240.8000000000002</ele><time>2026-04-06T07:56:28Z</time></trkpt><trkpt lat="44.70549125295679" lon="9.660624753430163"><ele>1242.4</ele><time>2026-04-06T07:56:29Z</time></trkpt><trkpt lat="44.705478163735194" lon="9.660722289269428"><ele>1244.0</ele><time>2026-04-06T07:56:30Z</time></trkpt><trkpt lat="44.70549405244654" lon="9.66082611610486"><ele>1244.0</ele><time>2026-04-06T07:56:31Z</time></trkpt><trkpt lat="44.70551913232946" lon="9.66095729567318"><ele>1244.0</ele><time>2026-04-06T07:56:33Z</time></trkpt><trkpt lat="44.70550702912015" lon="9.661162998930719"><ele>1244.0</ele><time>2026-04-06T07:56:35Z</time></trkpt><trkpt lat="44.705534142494564" lon="9.661252045874553"><ele>1244.0</ele><time>2026-04-06T07:56:36Z</time></trkpt><trkpt lat="44.70559553981187" lon="9.66139275792937"><ele>1244.0</ele><time>2026-04-06T07:56:38Z</time></trkpt><trkpt lat="44.70562543025423" lon="9.661569457303532"><ele>1243.8</ele><time>2026-04-06T07:56:40Z</time></trkpt><trkpt lat="44.70559213084088" lon="9.661674807296526"><ele>1243.6000000000001</ele><time>2026-04-06T07:56:41Z</time></trkpt><trkpt lat="44.70552717752905" lon="9.661780279459288"><ele>1243.4</ele><time>2026-04-06T07:56:42Z</time></trkpt><trkpt lat="44.70545572025783" lon="9.661914216544593"><ele>1243.2</ele><time>2026-04-06T07:56:43Z</time></trkpt><trkpt lat="44.70543134399856" lon="9.662034978244083"><ele>1243.0</ele><time>2026-04-06T07:56:44Z</time></trkpt><trkpt lat="44.705408328501" lon="9.662129071917056"><ele>1243.8</ele><time>2026-04-06T07:56:45Z</time></trkpt><trkpt lat="44.7053798077979" lon="9.662215407948958"><ele>1244.6</ele><time>2026-04-06T07:56:46Z</time></trkpt><trkpt lat="44.70530685264718" lon="9.662351830146331"><ele>1245.4</ele><time>2026-04-06T07:56:48Z</time></trkpt><trkpt lat="44.70524206016098" lon="9.662452443726268"><ele>1246.2</ele><time>2026-04-06T07:56:49Z</time></trkpt><trkpt lat="44.705179985887966" lon="9.662554733454465"><ele>1247.0</ele><time>2026-04-06T07:56:50Z</time></trkpt><trkpt lat="44.70513930789388" lon="9.662656118963028"><ele>1244.5</ele><time>2026-04-06T07:56:51Z</time></trkpt><trkpt lat="44.70510630254178" lon="9.66276231522272"><ele>1242.0</ele><time>2026-04-06T07:56:52Z</time></trkpt><trkpt lat="44.70506003421965" lon="9.66284901220588"><ele>1239.5</ele><time>2026-04-06T07:56:53Z</time></trkpt><trkpt lat="44.705015692364185" lon="9.662941626879876"><ele>1237.0</ele><time>2026-04-06T07:56:54Z</time></trkpt><trkpt lat="44.705000786903746" lon="9.663048416018913"><ele>1234.5</ele><time>2026-04-06T07:56:55Z</time></trkpt><trkpt lat="44.70500157035757" lon="9.663143645602206"><ele>1232.0</ele><time>2026-04-06T07:56:56Z</time></trkpt><trkpt lat="44.70501738855143" lon="9.663256524744115"><ele>1232.0</ele><time>2026-04-06T07:56:57Z</time></trkpt><trkpt lat="44.70502211975047" lon="9.663355836536484"><ele>1232.0</ele><time>2026-04-06T07:56:58Z</time></trkpt><trkpt lat="44.70499024842543" lon="9.663473190680088"><ele>1232.0</ele><time>2026-04-06T07:56:59Z</time></trkpt><trkpt lat="44.7049656935439" lon="9.663593779269338"><ele>1232.0</ele><time>2026-04-06T07:57:00Z</time></trkpt><trkpt lat="44.70497346814955" lon="9.663739576771404"><ele>1232.0</ele><time>2026-04-06T07:57:02Z</time></trkpt><trkpt lat="44.70491513204598" lon="9.663858131508654"><ele>1231.8333333333335</ele><time>2026-04-06T07:57:04Z</time></trkpt><trkpt lat="44.70492999248066" lon="9.664002367645109"><ele>1231.6666666666667</ele><time>2026-04-06T07:57:06Z</time></trkpt><trkpt lat="44.70487188859423" lon="9.664097682004032"><ele>1231.5</ele><time>2026-04-06T07:57:08Z</time></trkpt><trkpt lat="44.70485563365375" lon="9.664188172427867"><ele>1231.3333333333333</ele><time>2026-04-06T07:57:09Z</time></trkpt><trkpt lat="44.70486695102825" lon="9.664314678874266"><ele>1231.1666666666665</ele><time>2026-04-06T07:57:11Z</time></trkpt><trkpt lat="44.70488338710456" lon="9.664409181393369"><ele>1231.0</ele><time>2026-04-06T07:57:14Z</time></trkpt><trkpt lat="44.704876445576026" lon="9.664520766156281"><ele>1231.0</ele><time>2026-04-06T07:57:17Z</time></trkpt><trkpt lat="44.70492079938428" lon="9.664893420114769"><ele>1231.0</ele><time>2026-04-06T07:57:20Z</time></trkpt><trkpt lat="44.70490319095595" lon="9.665003800700147"><ele>1231.0</ele><time>2026-04-06T07:57:21Z</time></trkpt><trkpt lat="44.704858285067274" lon="9.665085201261371"><ele>1231.0</ele><time>2026-04-06T07:57:22Z</time></trkpt><trkpt lat="44.70479048761757" lon="9.66517563045332"><ele>1229.75</ele><time>2026-04-06T07:57:24Z</time></trkpt><trkpt lat="44.70472471111753" lon="9.665318780049164"><ele>1228.5</ele><time>2026-04-06T07:57:26Z</time></trkpt><trkpt lat="44.704683139837414" lon="9.665457816150106"><ele>1227.25</ele><time>2026-04-06T07:57:28Z</time></trkpt><trkpt lat="44.70464124459978" lon="9.665577137209388"><ele>1226.0</ele><time>2026-04-06T07:57:31Z</time></trkpt><trkpt lat="44.70458381505227" lon="9.665738187281976"><ele>1226.0</ele><time>2026-04-06T07:57:33Z</time></trkpt><trkpt lat="44.70456636069699" lon="9.66583521360583"><ele>1226.0</ele><time>2026-04-06T07:57:34Z</time></trkpt><trkpt lat="44.70454201754168" lon="9.66593411231836"><ele>1226.0</ele><time>2026-04-06T07:57:35Z</time></trkpt><trkpt lat="44.70452333035007" lon="9.66602476469919"><ele>1226.0</ele><time>2026-04-06T07:57:36Z</time></trkpt><trkpt lat="44.70449324074551" lon="9.666117217234188"><ele>1226.0</ele><time>2026-04-06T07:57:37Z</time></trkpt><trkpt lat="44.70447121339978" lon="9.666247386144711"><ele>1226.0</ele><time>2026-04-06T07:57:39Z</time></trkpt><trkpt lat="44.704443742256515" lon="9.666427174431737"><ele>1223.8333333333335</ele><time>2026-04-06T07:57:41Z</time></trkpt><trkpt lat="44.70437717761613" lon="9.666539155454538"><ele>1221.6666666666667</ele><time>2026-04-06T07:57:43Z</time></trkpt><trkpt lat="44.704303137021725" lon="9.666574285785698"><ele>1219.5</ele><time>2026-04-06T07:57:45Z</time></trkpt><trkpt lat="44.70424935172374" lon="9.666640903386973"><ele>1217.3333333333333</ele><time>2026-04-06T07:57:48Z</time></trkpt><trkpt lat="44.704188237792266" lon="9.666731449882231"><ele>1215.1666666666665</ele><time>2026-04-06T07:57:50Z</time></trkpt><trkpt lat="44.70413005515733" lon="9.666791079222696"><ele>1213.0</ele><time>2026-04-06T07:57:51Z</time></trkpt><trkpt lat="44.704035397866306" lon="9.666869875717927"><ele>1213.0</ele><time>2026-04-06T07:57:52Z</time></trkpt><trkpt lat="44.703951768126814" lon="9.666882245519892"><ele>1213.0</ele><time>2026-04-06T07:57:54Z</time></trkpt><trkpt lat="44.703894494501576" lon="9.667011217073094"><ele>1213.0</ele><time>2026-04-06T07:57:56Z</time></trkpt><trkpt lat="44.703872255114504" lon="9.667113082452111"><ele>1213.0</ele><time>2026-04-06T07:57:58Z</time></trkpt><trkpt lat="44.70379884513178" lon="9.667184196513888"><ele>1213.0</ele><time>2026-04-06T07:58:00Z</time></trkpt><trkpt lat="44.70371393619277" lon="9.667253189972158"><ele>1212.0</ele><time>2026-04-06T07:58:01Z</time></trkpt><trkpt lat="44.70364539631046" lon="9.667321312143788"><ele>1211.0</ele><time>2026-04-06T07:58:02Z</time></trkpt><trkpt lat="44.70355779120058" lon="9.66732363823901"><ele>1210.0</ele><time>2026-04-06T07:58:05Z</time></trkpt><trkpt lat="44.703470051590635" lon="9.667324923051279"><ele>1209.0</ele><time>2026-04-06T07:58:07Z</time></trkpt><trkpt lat="44.70338649689323" lon="9.667365605997453"><ele>1208.0</ele><time>2026-04-06T07:58:09Z</time></trkpt><trkpt lat="44.70334528732945" lon="9.667434072517022"><ele>1207.0</ele><time>2026-04-06T07:58:10Z</time></trkpt><trkpt lat="44.70325422677935" lon="9.667495534690758"><ele>1205.6666666666665</ele><time>2026-04-06T07:58:12Z</time></trkpt><trkpt lat="44.703182917870066" lon="9.66750462343843"><ele>1204.3333333333333</ele><time>2026-04-06T07:58:14Z</time></trkpt><trkpt lat="44.703109310681825" lon="9.667491741588076"><ele>1203.0</ele><time>2026-04-06T07:58:16Z</time></trkpt><trkpt lat="44.70302513970972" lon="9.667500172834814"><ele>1201.6666666666667</ele><time>2026-04-06T07:58:18Z</time></trkpt><trkpt lat="44.70294614885529" lon="9.66753670319041"><ele>1200.3333333333335</ele><time>2026-04-06T07:58:19Z</time></trkpt><trkpt lat="44.70286608090117" lon="9.667594988067078"><ele>1199.0</ele><time>2026-04-06T07:58:29Z</time></trkpt><trkpt lat="44.70281234840258" lon="9.667706363430762"><ele>1199.0</ele><time>2026-04-06T07:58:32Z</time></trkpt><trkpt lat="44.70277031353994" lon="9.667779044797113"><ele>1199.0</ele><time>2026-04-06T07:58:33Z</time></trkpt><trkpt lat="44.70264724572963" lon="9.667872063729938"><ele>1199.0</ele><time>2026-04-06T07:58:35Z</time></trkpt><trkpt lat="44.70258544052904" lon="9.667906749719593"><ele>1199.0</ele><time>2026-04-06T07:58:36Z</time></trkpt><trkpt lat="44.70250655943576" lon="9.66792104068363"><ele>1199.0</ele><time>2026-04-06T07:58:37Z</time></trkpt><trkpt lat="44.702452916826125" lon="9.66796972639915"><ele>1199.0</ele><time>2026-04-06T07:58:38Z</time></trkpt><trkpt lat="44.70238972355955" lon="9.668076991625638"><ele>1199.0</ele><time>2026-04-06T07:58:40Z</time></trkpt><trkpt lat="44.702312759542664" lon="9.668123925662153"><ele>1199.0</ele><time>2026-04-06T07:58:42Z</time></trkpt><trkpt lat="44.70221976658629" lon="9.668127734854068"><ele>1199.0</ele><time>2026-04-06T07:58:43.999Z</time></trkpt><trkpt lat="44.702173331206424" lon="9.668215513525325"><ele>1199.0</ele><time>2026-04-06T07:58:46.999Z</time></trkpt><trkpt lat="44.70212393051511" lon="9.668308474293534"><ele>1199.0</ele><time>2026-04-06T07:58:48.999Z</time></trkpt><trkpt lat="44.70205842045584" lon="9.668400967502686"><ele>1199.0</ele><time>2026-04-06T07:58:50.999Z</time></trkpt><trkpt lat="44.7019779138208" lon="9.668468529463686"><ele>1199.0</ele><time>2026-04-06T07:58:52.999Z</time></trkpt><trkpt lat="44.70192837153836" lon="9.668542348834633"><ele>1199.0</ele><time>2026-04-06T07:58:54.999Z</time></trkpt><trkpt lat="44.70181676668302" lon="9.668619707191764"><ele>1199.0</ele><time>2026-04-06T07:58:57.999Z</time></trkpt><trkpt lat="44.701748830660335" lon="9.66862846943348"><ele>1199.0</ele><time>2026-04-06T07:58:58.999Z</time></trkpt><trkpt lat="44.70167291928357" lon="9.668671678503836"><ele>1199.0</ele><time>2026-04-06T07:59:01Z</time></trkpt><trkpt lat="44.701626849206775" lon="9.668736492826062"><ele>1199.0</ele><time>2026-04-06T07:59:02Z</time></trkpt><trkpt lat="44.701594134034345" lon="9.66883094128198"><ele>1200.0</ele><time>2026-04-06T07:59:04Z</time></trkpt><trkpt lat="44.70154633342557" lon="9.668889397901511"><ele>1201.0</ele><time>2026-04-06T07:59:06Z</time></trkpt><trkpt lat="44.701472236315034" lon="9.668894664339454"><ele>1202.0</ele><time>2026-04-06T07:59:09Z</time></trkpt><trkpt lat="44.701380347919134" lon="9.668839703013548"><ele>1203.0</ele><time>2026-04-06T07:59:13Z</time></trkpt><trkpt lat="44.70128298683354" lon="9.668902036474092"><ele>1204.0</ele><time>2026-04-06T07:59:15Z</time></trkpt><trkpt lat="44.70123884800716" lon="9.668983477860554"><ele>1205.0</ele><time>2026-04-06T07:59:19Z</time></trkpt><trkpt lat="44.7011838299703" lon="9.669049659034682"><ele>1207.6</ele><time>2026-04-06T07:59:25Z</time></trkpt><trkpt lat="44.70108083755318" lon="9.669111445498828"><ele>1210.2</ele><time>2026-04-06T07:59:28Z</time></trkpt><trkpt lat="44.70101750811773" lon="9.669161677265176"><ele>1212.8</ele><time>2026-04-06T07:59:31Z</time></trkpt><trkpt lat="44.700909710252176" lon="9.66924950483071"><ele>1215.4</ele><time>2026-04-06T07:59:34Z</time></trkpt><trkpt lat="44.70085261719971" lon="9.669320555825598"><ele>1218.0</ele><time>2026-04-06T07:59:35Z</time></trkpt><trkpt lat="44.700748183425574" lon="9.66943145386515"><ele>1217.6666666666667</ele><time>2026-04-06T07:59:37Z</time></trkpt><trkpt lat="44.70069101393928" lon="9.669473112964484"><ele>1217.3333333333333</ele><time>2026-04-06T07:59:38Z</time></trkpt><trkpt lat="44.700641421313854" lon="9.669589164265302"><ele>1217.0</ele><time>2026-04-06T07:59:40Z</time></trkpt><trkpt lat="44.700624450051" lon="9.669703225075336"><ele>1216.6666666666665</ele><time>2026-04-06T07:59:42Z</time></trkpt><trkpt lat="44.700578349378404" lon="9.669805281745905"><ele>1216.3333333333333</ele><time>2026-04-06T07:59:43Z</time></trkpt><trkpt lat="44.70053619638456" lon="9.669874104012498"><ele>1216.0</ele><time>2026-04-06T07:59:44Z</time></trkpt><trkpt lat="44.700451205571696" lon="9.669899567372177"><ele>1216.0</ele><time>2026-04-06T07:59:47Z</time></trkpt><trkpt lat="44.700381127902006" lon="9.669922759778446"><ele>1216.0</ele><time>2026-04-06T07:59:49Z</time></trkpt><trkpt lat="44.700269180710286" lon="9.669859763461028"><ele>1216.0</ele><time>2026-04-06T07:59:51Z</time></trkpt><trkpt lat="44.700198065283956" lon="9.669782578354734"><ele>1216.0</ele><time>2026-04-06T07:59:53Z</time></trkpt><trkpt lat="44.700078090079714" lon="9.669740227786406"><ele>1216.0</ele><time>2026-04-06T07:59:55Z</time></trkpt><trkpt lat="44.700003000431906" lon="9.669749958443896"><ele>1218.8333333333333</ele><time>2026-04-06T07:59:56Z</time></trkpt><trkpt lat="44.69993484424037" lon="9.669788450913847"><ele>1221.6666666666665</ele><time>2026-04-06T07:59:58Z</time></trkpt><trkpt lat="44.69985435433703" lon="9.669796922097357"><ele>1224.5</ele><time>2026-04-06T08:00:08Z</time></trkpt><trkpt lat="44.69976449376105" lon="9.66975146957288"><ele>1227.3333333333333</ele><time>2026-04-06T08:00:11Z</time></trkpt><trkpt lat="44.69968569076853" lon="9.66970760760368"><ele>1230.1666666666667</ele><time>2026-04-06T08:00:13Z</time></trkpt><trkpt lat="44.69961643730275" lon="9.669642190980413"><ele>1233.0</ele><time>2026-04-06T08:00:16Z</time></trkpt><trkpt lat="44.6995473956983" lon="9.669627163780243"><ele>1233.0</ele><time>2026-04-06T08:00:18Z</time></trkpt><trkpt lat="44.69946947797797" lon="9.669516821709934"><ele>1233.0</ele><time>2026-04-06T08:00:20Z</time></trkpt><trkpt lat="44.69941543452039" lon="9.669430754790678"><ele>1233.0</ele><time>2026-04-06T08:00:21Z</time></trkpt><trkpt lat="44.699335566024565" lon="9.66940829245188"><ele>1233.0</ele><time>2026-04-06T08:00:23Z</time></trkpt><trkpt lat="44.699270432173385" lon="9.66939588826399"><ele>1233.0</ele><time>2026-04-06T08:00:25Z</time></trkpt><trkpt lat="44.69921452484471" lon="9.669350107406295"><ele>1233.0</ele><time>2026-04-06T08:00:27Z</time></trkpt><trkpt lat="44.699136244126095" lon="9.669329029744736"><ele>1235.2</ele><time>2026-04-06T08:00:30Z</time></trkpt><trkpt lat="44.69905253258768" lon="9.669270815758813"><ele>1237.4</ele><time>2026-04-06T08:00:33Z</time></trkpt><trkpt lat="44.69894550269598" lon="9.66923583729984"><ele>1239.6000000000001</ele><time>2026-04-06T08:00:35Z</time></trkpt><trkpt lat="44.69891045569496" lon="9.669158170879276"><ele>1241.8</ele><time>2026-04-06T08:00:37Z</time></trkpt><trkpt lat="44.69884517885244" lon="9.66907901328799"><ele>1244.0</ele><time>2026-04-06T08:00:38Z</time></trkpt><trkpt lat="44.698779309113306" lon="9.668967242340122"><ele>1244.0</ele><time>2026-04-06T08:00:40Z</time></trkpt><trkpt lat="44.69869031642282" lon="9.66894746679099"><ele>1244.0</ele><time>2026-04-06T08:00:43Z</time></trkpt><trkpt lat="44.69862759003584" lon="9.668900011038513"><ele>1244.0</ele><time>2026-04-06T08:00:45.999Z</time></trkpt><trkpt lat="44.69853782968539" lon="9.668849762948296"><ele>1244.0</ele><time>2026-04-06T08:00:48.999Z</time></trkpt><trkpt lat="44.698456630150815" lon="9.668840831684665"><ele>1244.0</ele><time>2026-04-06T08:00:51.999Z</time></trkpt><trkpt lat="44.69836056092618" lon="9.668838418928019"><ele>1244.0</ele><time>2026-04-06T08:00:54.999Z</time></trkpt><trkpt lat="44.69826502533101" lon="9.668832714726108"><ele>1244.0</ele><time>2026-04-06T08:00:56.999Z</time></trkpt><trkpt lat="44.69818327778861" lon="9.668785649832603"><ele>1244.0</ele><time>2026-04-06T08:00:58.999Z</time></trkpt><trkpt lat="44.698074177434165" lon="9.668747038390192"><ele>1244.0</ele><time>2026-04-06T08:01:01.999Z</time></trkpt><trkpt lat="44.69801731586546" lon="9.66869155970868"><ele>1244.0</ele><time>2026-04-06T08:01:02.999Z</time></trkpt><trkpt lat="44.697873146150116" lon="9.668556870971463"><ele>1244.0</ele><time>2026-04-06T08:01:04.999Z</time></trkpt><trkpt lat="44.697820605958135" lon="9.668507916553274"><ele>1244.857142857143</ele><time>2026-04-06T08:01:08Z</time></trkpt><trkpt lat="44.69775091928964" lon="9.668523832583857"><ele>1245.7142857142858</ele><time>2026-04-06T08:01:10Z</time></trkpt><trkpt lat="44.69768129804205" lon="9.668555964203046"><ele>1246.5714285714287</ele><time>2026-04-06T08:01:12Z</time></trkpt><trkpt lat="44.697641770341114" lon="9.668461511920663"><ele>1247.4285714285716</ele><time>2026-04-06T08:01:15Z</time></trkpt><trkpt lat="44.69756777011298" lon="9.668447407526823"><ele>1248.2857142857142</ele><time>2026-04-06T08:01:18Z</time></trkpt><trkpt lat="44.6974869073564" lon="9.668449131359754"><ele>1249.1428571428573</ele><time>2026-04-06T08:01:20Z</time></trkpt><trkpt lat="44.69742072922197" lon="9.668419865035483"><ele>1250.0</ele><time>2026-04-06T08:01:21Z</time></trkpt><trkpt lat="44.69729242379316" lon="9.668406622897837"><ele>1250.0</ele><time>2026-04-06T08:01:23Z</time></trkpt><trkpt lat="44.69718284928975" lon="9.668435649736233"><ele>1250.0</ele><time>2026-04-06T08:01:24Z</time></trkpt><trkpt lat="44.697109238350805" lon="9.668428503027554"><ele>1250.0</ele><time>2026-04-06T08:01:25Z</time></trkpt><trkpt lat="44.697022891380975" lon="9.668398077913054"><ele>1250.0</ele><time>2026-04-06T08:01:26Z</time></trkpt><trkpt lat="44.69694378202171" lon="9.668345581655831"><ele>1250.0</ele><time>2026-04-06T08:01:28Z</time></trkpt><trkpt lat="44.69688243666859" lon="9.668297449050927"><ele>1250.0</ele><time>2026-04-06T08:01:30Z</time></trkpt><trkpt lat="44.69680976336547" lon="9.6683148994958"><ele>1249.8333333333335</ele><time>2026-04-06T08:01:31Z</time></trkpt><trkpt lat="44.696722187884895" lon="9.668280887455516"><ele>1249.6666666666667</ele><time>2026-04-06T08:01:34Z</time></trkpt><trkpt lat="44.69662443302345" lon="9.668353287578013"><ele>1249.5</ele><time>2026-04-06T08:01:36Z</time></trkpt><trkpt lat="44.69655470776051" lon="9.668345580537258"><ele>1249.3333333333333</ele><time>2026-04-06T08:01:37Z</time></trkpt><trkpt lat="44.69648474941096" lon="9.668315627940789"><ele>1249.1666666666665</ele><time>2026-04-06T08:01:38Z</time></trkpt><trkpt lat="44.69640805287914" lon="9.668271483738076"><ele>1249.0</ele><time>2026-04-06T08:01:39Z</time></trkpt><trkpt lat="44.69630455722117" lon="9.668226378782458"><ele>1249.0</ele><time>2026-04-06T08:01:41Z</time></trkpt><trkpt lat="44.696219236501385" lon="9.66830705022682"><ele>1249.0</ele><time>2026-04-06T08:01:43Z</time></trkpt><trkpt lat="44.69616254918385" lon="9.668366535174908"><ele>1249.0</ele><time>2026-04-06T08:01:45Z</time></trkpt><trkpt lat="44.696081843047494" lon="9.668373440045103"><ele>1249.0</ele><time>2026-04-06T08:01:47Z</time></trkpt><trkpt lat="44.69606176544309" lon="9.668523051900943"><ele>1249.0</ele><time>2026-04-06T08:01:50Z</time></trkpt><trkpt lat="44.69603471869656" lon="9.668674144386827"><ele>1247.6666666666665</ele><time>2026-04-06T08:01:52Z</time></trkpt><trkpt lat="44.69601871847501" lon="9.668779128698356"><ele>1246.3333333333333</ele><time>2026-04-06T08:01:55Z</time></trkpt><trkpt lat="44.696018523400454" lon="9.668879250630113"><ele>1245.0</ele><time>2026-04-06T08:01:57Z</time></trkpt><trkpt lat="44.69602646896268" lon="9.669012208969752"><ele>1243.6666666666667</ele><time>2026-04-06T08:01:59Z</time></trkpt><trkpt lat="44.69600680262295" lon="9.669101951608146"><ele>1242.3333333333335</ele><time>2026-04-06T08:02:01Z</time></trkpt><trkpt lat="44.695943866337515" lon="9.669168650585902"><ele>1241.0</ele><time>2026-04-06T08:02:04Z</time></trkpt><trkpt lat="44.6959089786049" lon="9.669247786102233"><ele>1241.0</ele><time>2026-04-06T08:02:06Z</time></trkpt><trkpt lat="44.695884156873866" lon="9.669382079689363"><ele>1241.0</ele><time>2026-04-06T08:02:08Z</time></trkpt><trkpt lat="44.695821911319804" lon="9.669450409429059"><ele>1241.0</ele><time>2026-04-06T08:02:10Z</time></trkpt><trkpt lat="44.695767328548605" lon="9.66950971192688"><ele>1241.0</ele><time>2026-04-06T08:02:12Z</time></trkpt><trkpt lat="44.695709789339766" lon="9.66960787956245"><ele>1241.0</ele><time>2026-04-06T08:02:14Z</time></trkpt><trkpt lat="44.69561938954978" lon="9.669634949738755"><ele>1241.0</ele><time>2026-04-06T08:02:17Z</time></trkpt><trkpt lat="44.69561965755535" lon="9.66973052327316"><ele>1244.2</ele><time>2026-04-06T08:02:19Z</time></trkpt><trkpt lat="44.69562229216632" lon="9.66989327884103"><ele>1247.3999999999999</ele><time>2026-04-06T08:02:21Z</time></trkpt><trkpt lat="44.69555250599848" lon="9.670031189890462"><ele>1250.6</ele><time>2026-04-06T08:02:23Z</time></trkpt><trkpt lat="44.69551300541617" lon="9.670125109268348"><ele>1253.8</ele><time>2026-04-06T08:02:25Z</time></trkpt><trkpt lat="44.69544421190506" lon="9.670253224419948"><ele>1257.0</ele><time>2026-04-06T08:02:27Z</time></trkpt><trkpt lat="44.695377154459294" lon="9.67028861423408"><ele>1258.1666666666667</ele><time>2026-04-06T08:02:28Z</time></trkpt><trkpt lat="44.69532514935189" lon="9.670340018241271"><ele>1259.3333333333333</ele><time>2026-04-06T08:02:29Z</time></trkpt><trkpt lat="44.69527721612478" lon="9.670478632047187"><ele>1260.5</ele><time>2026-04-06T08:02:31Z</time></trkpt><trkpt lat="44.69523865709911" lon="9.670576760806973"><ele>1261.6666666666665</ele><time>2026-04-06T08:02:32.999Z</time></trkpt><trkpt lat="44.69519288548145" lon="9.670681642491322"><ele>1262.8333333333333</ele><time>2026-04-06T08:02:35.999Z</time></trkpt><trkpt lat="44.69514155343324" lon="9.67079903307501"><ele>1264.0</ele><time>2026-04-06T08:02:38.999Z</time></trkpt><trkpt lat="44.695063537594564" lon="9.670811421927219"><ele>1258.3333333333333</ele><time>2026-04-06T08:02:41.999Z</time></trkpt><trkpt lat="44.694983387433645" lon="9.670863580424443"><ele>1252.6666666666665</ele><time>2026-04-06T08:02:44.999Z</time></trkpt><trkpt lat="44.694922808420415" lon="9.670927818612268"><ele>1247.0</ele><time>2026-04-06T08:02:46.999Z</time></trkpt><trkpt lat="44.69482889167292" lon="9.67098363569512"><ele>1241.3333333333333</ele><time>2026-04-06T08:02:48.999Z</time></trkpt><trkpt lat="44.69476363943338" lon="9.671018958779669"><ele>1235.6666666666667</ele><time>2026-04-06T08:02:50.999Z</time></trkpt><trkpt lat="44.694666747349636" lon="9.671070709342496"><ele>1230.0</ele><time>2026-04-06T08:02:52.999Z</time></trkpt><trkpt lat="44.694589386258436" lon="9.671045763813927"><ele>1230.0</ele><time>2026-04-06T08:02:54.999Z</time></trkpt><trkpt lat="44.69453348520229" lon="9.671163707874674"><ele>1230.0</ele><time>2026-04-06T08:02:57.999Z</time></trkpt><trkpt lat="44.69446483830068" lon="9.6712124398876"><ele>1230.0</ele><time>2026-04-06T08:02:59.999Z</time></trkpt><trkpt lat="44.69438903828059" lon="9.671209373906251"><ele>1230.0</ele><time>2026-04-06T08:03:38Z</time></trkpt><trkpt lat="44.69432697579183" lon="9.671230558439396"><ele>1230.0</ele><time>2026-04-06T08:03:40Z</time></trkpt><trkpt lat="44.694245005233725" lon="9.67124081790707"><ele>1230.0</ele><time>2026-04-06T08:03:43Z</time></trkpt><trkpt lat="44.694159415200275" lon="9.671263645239135"><ele>1230.0</ele><time>2026-04-06T08:03:47Z</time></trkpt><trkpt lat="44.69409578238559" lon="9.671264100795783"><ele>1230.0</ele><time>2026-04-06T08:03:48Z</time></trkpt><trkpt lat="44.69402868139194" lon="9.67128958180972"><ele>1230.0</ele><time>2026-04-06T08:03:50Z</time></trkpt><trkpt lat="44.69396939761973" lon="9.671370711990855"><ele>1230.0</ele><time>2026-04-06T08:03:52Z</time></trkpt><trkpt lat="44.6938804994039" lon="9.671382546283686"><ele>1230.0</ele><time>2026-04-06T08:03:55Z</time></trkpt><trkpt lat="44.69382041063094" lon="9.671498191958117"><ele>1230.0</ele><time>2026-04-06T08:03:58Z</time></trkpt><trkpt lat="44.69376055512039" lon="9.671553124125635"><ele>1230.0</ele><time>2026-04-06T08:04:03Z</time></trkpt><trkpt lat="44.693720067044836" lon="9.671662528398796"><ele>1230.0</ele><time>2026-04-06T08:04:06Z</time></trkpt><trkpt lat="44.693686610231396" lon="9.671752126774024"><ele>1230.0</ele><time>2026-04-06T08:04:07Z</time></trkpt><trkpt lat="44.693654913436866" lon="9.671844424517195"><ele>1230.0</ele><time>2026-04-06T08:04:08Z</time></trkpt><trkpt lat="44.693637107872696" lon="9.671960472816975"><ele>1230.0</ele><time>2026-04-06T08:04:10Z</time></trkpt><trkpt lat="44.69356504734293" lon="9.671994677689655"><ele>1230.0</ele><time>2026-04-06T08:04:12Z</time></trkpt><trkpt lat="44.69350116896937" lon="9.672107279771685"><ele>1228.6666666666667</ele><time>2026-04-06T08:04:14Z</time></trkpt><trkpt lat="44.693452156054775" lon="9.672171814706674"><ele>1227.3333333333333</ele><time>2026-04-06T08:04:16Z</time></trkpt><trkpt lat="44.69335368899757" lon="9.672180763870594"><ele>1226.0</ele><time>2026-04-06T08:04:18Z</time></trkpt><trkpt lat="44.6932845094139" lon="9.67222970912673"><ele>1224.6666666666665</ele><time>2026-04-06T08:04:20Z</time></trkpt><trkpt lat="44.69323119604003" lon="9.67236349710217"><ele>1223.3333333333333</ele><time>2026-04-06T08:04:22Z</time></trkpt><trkpt lat="44.69317563642776" lon="9.67246269687099"><ele>1222.0</ele><time>2026-04-06T08:04:23.999Z</time></trkpt><trkpt lat="44.69315739435962" lon="9.672567370634155"><ele>1222.0000000000002</ele><time>2026-04-06T08:04:25.999Z</time></trkpt><trkpt lat="44.693181157468665" lon="9.672665245867458"><ele>1222.0</ele><time>2026-04-06T08:04:27.999Z</time></trkpt><trkpt lat="44.69314112804089" lon="9.672775808472599"><ele>1222.0</ele><time>2026-04-06T08:04:33.999Z</time></trkpt><trkpt lat="44.69314222895789" lon="9.67288099082774"><ele>1222.0</ele><time>2026-04-06T08:04:36.999Z</time></trkpt><trkpt lat="44.693082370279065" lon="9.672935588204824"><ele>1222.0</ele><time>2026-04-06T08:04:41.999Z</time></trkpt><trkpt lat="44.693027102797316" lon="9.67297896264079"><ele>1222.0000000000002</ele><time>2026-04-06T08:04:44.999Z</time></trkpt><trkpt lat="44.69295709734761" lon="9.67294914972992"><ele>1222.0</ele><time>2026-04-06T08:04:47.999Z</time></trkpt><trkpt lat="44.69289452699531" lon="9.672922868002603"><ele>1223.1666666666665</ele><time>2026-04-06T08:04:48.999Z</time></trkpt><trkpt lat="44.69284198083143" lon="9.67300620979846"><ele>1224.3333333333333</ele><time>2026-04-06T08:04:52.999Z</time></trkpt><trkpt lat="44.69281987548588" lon="9.673093647393165"><ele>1225.5</ele><time>2026-04-06T08:05:04.999Z</time></trkpt><trkpt lat="44.69279157492745" lon="9.673246930566046"><ele>1226.6666666666667</ele><time>2026-04-06T08:05:06.999Z</time></trkpt><trkpt lat="44.69278915003076" lon="9.673376556392144"><ele>1227.8333333333335</ele><time>2026-04-06T08:05:07.999Z</time></trkpt><trkpt lat="44.69278897094702" lon="9.673499084014841"><ele>1229.0</ele><time>2026-04-06T08:05:08.999Z</time></trkpt><trkpt lat="44.69276192371013" lon="9.673638167441085"><ele>1229.0</ele><time>2026-04-06T08:05:10.999Z</time></trkpt><trkpt lat="44.69274617203387" lon="9.673789923705856"><ele>1229.0</ele><time>2026-04-06T08:05:12.999Z</time></trkpt><trkpt lat="44.69273509014508" lon="9.673940647301833"><ele>1229.0</ele><time>2026-04-06T08:05:14.999Z</time></trkpt><trkpt lat="44.69276057083196" lon="9.674034786001606"><ele>1229.0</ele><time>2026-04-06T08:05:15.999Z</time></trkpt><trkpt lat="44.69277437335209" lon="9.674125937374088"><ele>1229.0</ele><time>2026-04-06T08:05:16.999Z</time></trkpt><trkpt lat="44.69282298927644" lon="9.674188634555415"><ele>1229.0</ele><time>2026-04-06T08:05:19Z</time></trkpt><trkpt lat="44.692913589883496" lon="9.67424678123373"><ele>1229.0</ele><time>2026-04-06T08:05:21Z</time></trkpt><trkpt lat="44.69300304615943" lon="9.674229941787209"><ele>1229.0</ele><time>2026-04-06T08:06:10Z</time></trkpt><trkpt lat="44.69310918964835" lon="9.674195729632753"><ele>1229.0</ele><time>2026-04-06T08:06:12Z</time></trkpt><trkpt lat="44.693159466191666" lon="9.674127597526175"><ele>1229.0</ele><time>2026-04-06T08:06:14Z</time></trkpt><trkpt lat="44.69318711059437" lon="9.674030096134361"><ele>1229.0</ele><time>2026-04-06T08:06:18Z</time></trkpt><trkpt lat="44.69325572211401" lon="9.674007218973976"><ele>1229.0</ele><time>2026-04-06T08:06:22.999Z</time></trkpt><trkpt lat="44.69332745933591" lon="9.673934917351612"><ele>1229.0000000000002</ele><time>2026-04-06T08:06:25.999Z</time></trkpt><trkpt lat="44.6933951726192" lon="9.67391892975937"><ele>1229.0</ele><time>2026-04-06T08:06:27.999Z</time></trkpt><trkpt lat="44.693375780694765" lon="9.673829103666312"><ele>1229.0</ele><time>2026-04-06T08:06:30.999Z</time></trkpt><trkpt lat="44.69342190143118" lon="9.673764193192506"><ele>1229.0</ele><time>2026-04-06T08:06:33.999Z</time></trkpt><trkpt lat="44.693503750676236" lon="9.673761930562025"><ele>1229.0</ele><time>2026-04-06T08:06:35.999Z</time></trkpt><trkpt lat="44.69353307485789" lon="9.673669465886736"><ele>1229.0000000000002</ele><time>2026-04-06T08:06:42.999Z</time></trkpt><trkpt lat="44.693578403997286" lon="9.67359403151121"><ele>1229.0</ele><time>2026-04-06T08:06:49.999Z</time></trkpt><trkpt lat="44.69360698965214" lon="9.67349444559361"><ele>1234.4285714285716</ele><time>2026-04-06T08:06:58.999Z</time></trkpt><trkpt lat="44.69367108858112" lon="9.673500629031741"><ele>1239.857142857143</ele><time>2026-04-06T08:07:20.999Z</time></trkpt><trkpt lat="44.693743831600564" lon="9.673505328448332"><ele>1245.2857142857142</ele><time>2026-04-06T08:08:58.999Z</time></trkpt><trkpt lat="44.69380799254728" lon="9.673524014617604"><ele>1250.7142857142858</ele><time>2026-04-06T08:09:13.999Z</time></trkpt><trkpt lat="44.69384347749957" lon="9.673433399501798"><ele>1256.142857142857</ele><time>2026-04-06T08:09:38Z</time></trkpt><trkpt lat="44.69390826901867" lon="9.673461689617014"><ele>1261.5714285714287</ele><time>2026-04-06T08:09:54Z</time></trkpt><trkpt lat="44.693983745260425" lon="9.67345337276349"><ele>1267.0</ele><time>2026-04-06T08:12:11.999Z</time></trkpt><trkpt lat="44.69403664191958" lon="9.673401159751204"><ele>1267.0</ele><time>2026-04-06T08:13:05.999Z</time></trkpt><trkpt lat="44.69397957692156" lon="9.67344875836866"><ele>1267.0</ele><time>2026-04-06T08:17:10Z</time></trkpt><trkpt lat="44.693916251628245" lon="9.673453715379699"><ele>1267.0</ele><time>2026-04-06T08:17:28Z</time></trkpt><trkpt lat="44.693854927277286" lon="9.673432389061137"><ele>1267.0</ele><time>2026-04-06T08:17:51Z</time></trkpt><trkpt lat="44.693788683493466" lon="9.673463606205612"><ele>1267.0</ele><time>2026-04-06T08:18:06Z</time></trkpt><trkpt lat="44.69371412269567" lon="9.67346304093032"><ele>1267.0</ele><time>2026-04-06T08:18:11Z</time></trkpt><trkpt lat="44.693648715793174" lon="9.673503421412578"><ele>1267.0</ele><time>2026-04-06T08:18:18Z</time></trkpt><trkpt lat="44.69361457640878" lon="9.673580519252946"><ele>1261.5714285714287</ele><time>2026-04-06T08:18:27Z</time></trkpt><trkpt lat="44.69355622330419" lon="9.67362468819335"><ele>1256.142857142857</ele><time>2026-04-06T08:18:42Z</time></trkpt><trkpt lat="44.69350676142987" lon="9.673683506864476"><ele>1250.7142857142858</ele><time>2026-04-06T08:18:52Z</time></trkpt><trkpt lat="44.69344125454575" lon="9.673739610846056"><ele>1245.2857142857142</ele><time>2026-04-06T08:18:56Z</time></trkpt><trkpt lat="44.69340174049642" lon="9.673842698000707"><ele>1239.857142857143</ele><time>2026-04-06T08:18:59Z</time></trkpt><trkpt lat="44.69333824650822" lon="9.673887177944472"><ele>1234.4285714285716</ele><time>2026-04-06T08:19:04Z</time></trkpt><trkpt lat="44.693301777118116" lon="9.67395995304215"><ele>1229.0</ele><time>2026-04-06T08:19:09Z</time></trkpt><trkpt lat="44.693235298051555" lon="9.673992716759889"><ele>1229.0</ele><time>2026-04-06T08:22:09Z</time></trkpt><trkpt lat="44.69318111506696" lon="9.674063630354077"><ele>1229.0</ele><time>2026-04-06T08:22:15Z</time></trkpt><trkpt lat="44.69313593125354" lon="9.674157937511529"><ele>1229.0</ele><time>2026-04-06T08:22:19Z</time></trkpt><trkpt lat="44.69306951196462" lon="9.674184347461047"><ele>1229.0</ele><time>2026-04-06T08:22:21Z</time></trkpt><trkpt lat="44.69298107840493" lon="9.674207932172967"><ele>1229.0</ele><time>2026-04-06T08:22:23Z</time></trkpt><trkpt lat="44.69292618598303" lon="9.674287983653391"><ele>1229.0</ele><time>2026-04-06T08:22:45Z</time></trkpt><trkpt lat="44.69295485622981" lon="9.674375166746653"><ele>1227.6666666666667</ele><time>2026-04-06T08:22:47Z</time></trkpt><trkpt lat="44.693000719957986" lon="9.674509498211012"><ele>1226.3333333333335</ele><time>2026-04-06T08:22:49Z</time></trkpt><trkpt lat="44.69302922011053" lon="9.674595701497937"><ele>1225.0</ele><time>2026-04-06T08:22:50Z</time></trkpt><trkpt lat="44.69306413362423" lon="9.674677969885632"><ele>1223.6666666666667</ele><time>2026-04-06T08:22:51Z</time></trkpt><trkpt lat="44.69308776549107" lon="9.674764999116919"><ele>1222.3333333333333</ele><time>2026-04-06T08:22:52Z</time></trkpt><trkpt lat="44.6930892637676" lon="9.67485786837594"><ele>1221.0</ele><time>2026-04-06T08:22:53Z</time></trkpt><trkpt lat="44.69311382165583" lon="9.674960390736446"><ele>1221.0</ele><time>2026-04-06T08:22:54Z</time></trkpt><trkpt lat="44.6931418115192" lon="9.675062585067467"><ele>1221.0</ele><time>2026-04-06T08:22:55Z</time></trkpt><trkpt lat="44.69315948971592" lon="9.675153362412672"><ele>1221.0</ele><time>2026-04-06T08:22:56Z</time></trkpt><trkpt lat="44.693228100282326" lon="9.67525879511882"><ele>1221.0</ele><time>2026-04-06T08:22:58Z</time></trkpt><trkpt lat="44.69329526768484" lon="9.675383506907067"><ele>1221.0</ele><time>2026-04-06T08:23:00Z</time></trkpt><trkpt lat="44.69330797105356" lon="9.67549408413652"><ele>1221.0</ele><time>2026-04-06T08:23:02Z</time></trkpt><trkpt lat="44.69338073826867" lon="9.675558294526232"><ele>1218.8333333333333</ele><time>2026-04-06T08:23:05Z</time></trkpt><trkpt lat="44.69344637653188" lon="9.675633457610894"><ele>1216.6666666666667</ele><time>2026-04-06T08:23:07Z</time></trkpt><trkpt lat="44.6935345595964" lon="9.675689433852273"><ele>1214.5</ele><time>2026-04-06T08:23:09Z</time></trkpt><trkpt lat="44.69362554831134" lon="9.675746806359875"><ele>1212.3333333333335</ele><time>2026-04-06T08:23:11Z</time></trkpt><trkpt lat="44.6936777457237" lon="9.67580381843353"><ele>1210.1666666666667</ele><time>2026-04-06T08:23:12Z</time></trkpt><trkpt lat="44.69370963611507" lon="9.67588523887934"><ele>1208.0</ele><time>2026-04-06T08:23:13Z</time></trkpt><trkpt lat="44.69378930097708" lon="9.675995903857597"><ele>1205.0</ele><time>2026-04-06T08:23:15Z</time></trkpt><trkpt lat="44.69385942105738" lon="9.676135462674267"><ele>1202.0</ele><time>2026-04-06T08:23:17Z</time></trkpt><trkpt lat="44.69391229099819" lon="9.676194497021926"><ele>1199.0</ele><time>2026-04-06T08:23:18Z</time></trkpt><trkpt lat="44.693957040054784" lon="9.676265218567865"><ele>1196.0</ele><time>2026-04-06T08:23:19Z</time></trkpt><trkpt lat="44.69400903155755" lon="9.676351615953543"><ele>1193.0</ele><time>2026-04-06T08:23:20Z</time></trkpt><trkpt lat="44.69407326448793" lon="9.676373295533724"><ele>1190.0</ele><time>2026-04-06T08:23:21Z</time></trkpt><trkpt lat="44.69411175451643" lon="9.676453435596994"><ele>1190.0</ele><time>2026-04-06T08:23:23Z</time></trkpt><trkpt lat="44.69411953983789" lon="9.676548059129162"><ele>1190.0</ele><time>2026-04-06T08:23:25Z</time></trkpt><trkpt lat="44.69415933286904" lon="9.676634268006248"><ele>1190.0</ele><time>2026-04-06T08:23:28Z</time></trkpt><trkpt lat="44.69411590057569" lon="9.676535091927192"><ele>1190.0</ele><time>2026-04-06T08:23:32Z</time></trkpt><trkpt lat="44.69406706610573" lon="9.676407311708488"><ele>1190.0</ele><time>2026-04-06T08:23:34Z</time></trkpt><trkpt lat="44.6940242258615" lon="9.676342176291417"><ele>1190.0</ele><time>2026-04-06T08:23:44Z</time></trkpt><trkpt lat="44.693952897992894" lon="9.676315924629552"><ele>1190.0</ele><time>2026-04-06T08:23:46Z</time></trkpt><trkpt lat="44.6940259022035" lon="9.676334212317881"><ele>1190.0</ele><time>2026-04-06T08:23:58Z</time></trkpt><trkpt lat="44.69405993468432" lon="9.676259116066001"><ele>1190.0</ele><time>2026-04-06T08:24:42Z</time></trkpt><trkpt lat="44.69409795383127" lon="9.676177485246725"><ele>1190.0</ele><time>2026-04-06T08:34:11Z</time></trkpt><trkpt lat="44.694144466115844" lon="9.676113281328078"><ele>1190.0</ele><time>2026-04-06T08:35:10Z</time></trkpt><trkpt lat="44.69417806336311" lon="9.67602950582966"><ele>1190.0</ele><time>2026-04-06T08:35:27Z</time></trkpt><trkpt lat="44.69420970127249" lon="9.675896913258873"><ele>1190.0</ele><time>2026-04-06T08:36:17Z</time></trkpt><trkpt lat="44.69423027073147" lon="9.675992537747701"><ele>1190.0</ele><time>2026-04-06T08:37:07Z</time></trkpt><trkpt lat="44.69427674905957" lon="9.676063757033845"><ele>1190.0</ele><time>2026-04-06T08:37:13Z</time></trkpt><trkpt lat="44.694226913353866" lon="9.676141962921964"><ele>1190.0</ele><time>2026-04-06T08:37:48Z</time></trkpt><trkpt lat="44.69417920782517" lon="9.676207597341483"><ele>1190.0</ele><time>2026-04-06T08:37:52Z</time></trkpt><trkpt lat="44.6941665516011" lon="9.676305501591425"><ele>1190.0</ele><time>2026-04-06T08:37:56Z</time></trkpt><trkpt lat="44.69412287112037" lon="9.676387064789346"><ele>1190.0</ele><time>2026-04-06T08:38:01Z</time></trkpt><trkpt lat="44.69413310658299" lon="9.676493681356456"><ele>1190.0</ele><time>2026-04-06T08:38:04Z</time></trkpt><trkpt lat="44.6941821662434" lon="9.676568502920643"><ele>1190.0</ele><time>2026-04-06T08:38:06Z</time></trkpt><trkpt lat="44.69425995286775" lon="9.676575213533104"><ele>1190.0</ele><time>2026-04-06T08:38:08Z</time></trkpt><trkpt lat="44.694327184585816" lon="9.676589402232159"><ele>1190.0</ele><time>2026-04-06T08:38:12Z</time></trkpt><trkpt lat="44.694380857029806" lon="9.676670229644168"><ele>1190.0</ele><time>2026-04-06T08:38:33Z</time></trkpt><trkpt lat="44.69441181281574" lon="9.67677910968741"><ele>1190.0</ele><time>2026-04-06T08:41:08Z</time></trkpt><trkpt lat="44.694458435159895" lon="9.676869875438445"><ele>1190.0</ele><time>2026-04-06T08:41:10Z</time></trkpt><trkpt lat="44.69452700880362" lon="9.676927189215508"><ele>1190.0</ele><time>2026-04-06T08:41:13Z</time></trkpt><trkpt lat="44.694494963689195" lon="9.676839075427539"><ele>1190.0</ele><time>2026-04-06T08:41:18Z</time></trkpt><trkpt lat="44.69442532290138" lon="9.676836317116646"><ele>1190.0</ele><time>2026-04-06T08:41:20Z</time></trkpt><trkpt lat="44.69439605749757" lon="9.676753624091209"><ele>1190.0</ele><time>2026-04-06T08:41:22Z</time></trkpt><trkpt lat="44.69438044879775" lon="9.676667522238645"><ele>1190.0</ele><time>2026-04-06T08:41:24Z</time></trkpt><trkpt lat="44.69432486149671" lon="9.67661730471289"><ele>1190.0</ele><time>2026-04-06T08:41:27Z</time></trkpt><trkpt lat="44.694254931888004" lon="9.67661738806226"><ele>1190.0</ele><time>2026-04-06T08:41:29Z</time></trkpt><trkpt lat="44.69437325844827" lon="9.676604769729504"><ele>1190.0</ele><time>2026-04-06T08:41:56Z</time></trkpt><trkpt lat="44.694437844903895" lon="9.676596435247898"><ele>1190.0</ele><time>2026-04-06T08:41:57Z</time></trkpt><trkpt lat="44.69449143296673" lon="9.676674061770978"><ele>1190.0</ele><time>2026-04-06T08:42:02Z</time></trkpt><trkpt lat="44.69450045466302" lon="9.67677774256262"><ele>1190.0</ele><time>2026-04-06T08:42:04Z</time></trkpt><trkpt lat="44.69449364354658" lon="9.676883679933255"><ele>1190.0</ele><time>2026-04-06T08:42:08Z</time></trkpt><trkpt lat="44.694399357894355" lon="9.676833083190003"><ele>1190.0</ele><time>2026-04-06T08:42:11Z</time></trkpt><trkpt lat="44.69437356520341" lon="9.676724124210319"><ele>1190.0</ele><time>2026-04-06T08:42:13Z</time></trkpt><trkpt lat="44.694337140915074" lon="9.676592431925995"><ele>1190.0</ele><time>2026-04-06T08:42:29Z</time></trkpt><trkpt lat="44.694274911046556" lon="9.676575599788295"><ele>1190.0</ele><time>2026-04-06T08:42:31Z</time></trkpt><trkpt lat="44.69420123250087" lon="9.676599083641602"><ele>1190.0</ele><time>2026-04-06T08:42:33Z</time></trkpt><trkpt lat="44.69430274541472" lon="9.676587750507625"><ele>1190.0</ele><time>2026-04-06T08:42:41Z</time></trkpt><trkpt lat="44.69437179684474" lon="9.676577294687693"><ele>1190.0</ele><time>2026-04-06T08:42:42Z</time></trkpt><trkpt lat="44.694434494807446" lon="9.676586388022102"><ele>1190.0</ele><time>2026-04-06T08:42:50Z</time></trkpt><trkpt lat="44.694498568560455" lon="9.676628749830085"><ele>1190.0</ele><time>2026-04-06T08:43:02Z</time></trkpt><trkpt lat="44.69451160803679" lon="9.676743010567371"><ele>1190.0</ele><time>2026-04-06T08:43:05Z</time></trkpt><trkpt lat="44.69451791877994" lon="9.67683194172525"><ele>1190.0</ele><time>2026-04-06T08:43:08Z</time></trkpt><trkpt lat="44.694456807818916" lon="9.676869587673574"><ele>1190.0</ele><time>2026-04-06T08:43:11Z</time></trkpt><trkpt lat="44.694410009933335" lon="9.67679178046712"><ele>1190.0</ele><time>2026-04-06T08:43:14Z</time></trkpt><trkpt lat="44.69437991507428" lon="9.676700010248132"><ele>1190.0</ele><time>2026-04-06T08:43:37Z</time></trkpt><trkpt lat="44.69437029746555" lon="9.676574003690503"><ele>1190.0</ele><time>2026-04-06T08:44:58Z</time></trkpt><trkpt lat="44.69435685384626" lon="9.676468918366087"><ele>1190.0</ele><time>2026-04-06T08:45:03Z</time></trkpt><trkpt lat="44.69431430107392" lon="9.67633977505759"><ele>1190.0</ele><time>2026-04-06T08:45:07Z</time></trkpt><trkpt lat="44.69430962740283" lon="9.676239767356705"><ele>1190.0</ele><time>2026-04-06T08:45:18Z</time></trkpt><trkpt lat="44.694271197158876" lon="9.676164777890575"><ele>1190.0</ele><time>2026-04-06T08:45:34Z</time></trkpt><trkpt lat="44.69420399745801" lon="9.676191595294194"><ele>1190.0</ele><time>2026-04-06T08:45:48Z</time></trkpt><trkpt lat="44.69416004040965" lon="9.67626158308124"><ele>1190.0</ele><time>2026-04-06T08:45:51Z</time></trkpt><trkpt lat="44.694158755712955" lon="9.676358582828529"><ele>1190.0</ele><time>2026-04-06T08:45:55Z</time></trkpt><trkpt lat="44.69415328621773" lon="9.676476597682306"><ele>1190.0</ele><time>2026-04-06T08:46:00Z</time></trkpt><trkpt lat="44.69418423069674" lon="9.676562592766683"><ele>1190.0</ele><time>2026-04-06T08:46:02Z</time></trkpt><trkpt lat="44.69425582683016" lon="9.676537235177705"><ele>1190.0</ele><time>2026-04-06T08:46:05Z</time></trkpt><trkpt lat="44.694315218570885" lon="9.676601020077488"><ele>1190.0</ele><time>2026-04-06T08:46:49Z</time></trkpt><trkpt lat="44.69436832961831" lon="9.676671304843607"><ele>1190.0</ele><time>2026-04-06T08:46:51Z</time></trkpt><trkpt lat="44.69438743504328" lon="9.676789613438485"><ele>1191.2</ele><time>2026-04-06T08:46:53Z</time></trkpt><trkpt lat="44.69446646383038" lon="9.676901776594008"><ele>1192.4</ele><time>2026-04-06T08:46:55Z</time></trkpt><trkpt lat="44.69455422507124" lon="9.677011006799773"><ele>1193.6</ele><time>2026-04-06T08:46:57Z</time></trkpt><trkpt lat="44.69465065606095" lon="9.677091561341031"><ele>1194.8</ele><time>2026-04-06T08:46:59Z</time></trkpt><trkpt lat="44.694714970803325" lon="9.677152254689485"><ele>1196.0</ele><time>2026-04-06T08:47:01Z</time></trkpt><trkpt lat="44.69471566671515" lon="9.677253389843093"><ele>1196.0</ele><time>2026-04-06T08:47:03Z</time></trkpt><trkpt lat="44.6946834577971" lon="9.677372475027889"><ele>1196.0</ele><time>2026-04-06T08:47:05Z</time></trkpt><trkpt lat="44.69461707856131" lon="9.677497744976595"><ele>1196.0</ele><time>2026-04-06T08:47:07Z</time></trkpt><trkpt lat="44.69458591161739" lon="9.6776110222338"><ele>1196.0</ele><time>2026-04-06T08:47:09Z</time></trkpt><trkpt lat="44.6946160880511" lon="9.677738709896769"><ele>1196.0</ele><time>2026-04-06T08:47:11Z</time></trkpt><trkpt lat="44.6946034419654" lon="9.677863051363818"><ele>1193.1666666666667</ele><time>2026-04-06T08:47:13Z</time></trkpt><trkpt lat="44.694620202508816" lon="9.67797952904304"><ele>1190.3333333333335</ele><time>2026-04-06T08:47:15Z</time></trkpt><trkpt lat="44.69469835059838" lon="9.678061295725447"><ele>1187.5</ele><time>2026-04-06T08:47:17Z</time></trkpt><trkpt lat="44.69478404393669" lon="9.678142469430934"><ele>1184.6666666666667</ele><time>2026-04-06T08:47:19Z</time></trkpt><trkpt lat="44.694808418973594" lon="9.678239462367932"><ele>1181.8333333333333</ele><time>2026-04-06T08:47:22Z</time></trkpt><trkpt lat="44.69483434233405" lon="9.678356096099598"><ele>1179.0</ele><time>2026-04-06T08:47:27Z</time></trkpt><trkpt lat="44.69485830757206" lon="9.678475980515497"><ele>1176.4</ele><time>2026-04-06T08:47:29Z</time></trkpt><trkpt lat="44.69487642462421" lon="9.678614803429774"><ele>1173.8000000000002</ele><time>2026-04-06T08:47:31Z</time></trkpt><trkpt lat="44.69492081063231" lon="9.678748083377931"><ele>1171.1999999999998</ele><time>2026-04-06T08:47:33Z</time></trkpt><trkpt lat="44.69497288692871" lon="9.678838903005909"><ele>1168.6</ele><time>2026-04-06T08:47:35Z</time></trkpt><trkpt lat="44.69497873835669" lon="9.678974049109097"><ele>1166.0</ele><time>2026-04-06T08:47:37Z</time></trkpt><trkpt lat="44.6949333779056" lon="9.679099565909077"><ele>1166.0</ele><time>2026-04-06T08:47:39Z</time></trkpt><trkpt lat="44.69494717365765" lon="9.679222914557299"><ele>1166.0</ele><time>2026-04-06T08:47:41Z</time></trkpt><trkpt lat="44.694988835527774" lon="9.679292012528942"><ele>1166.0</ele><time>2026-04-06T08:47:43Z</time></trkpt><trkpt lat="44.695030233902216" lon="9.67936688831923"><ele>1166.0</ele><time>2026-04-06T08:47:47Z</time></trkpt><trkpt lat="44.69507850755451" lon="9.679290437075199"><ele>1166.0</ele><time>2026-04-06T08:48:28Z</time></trkpt><trkpt lat="44.69511783302225" lon="9.679188849233162"><ele>1166.0</ele><time>2026-04-06T08:48:31Z</time></trkpt><trkpt lat="44.69515305876873" lon="9.67907595770676"><ele>1166.0000000000002</ele><time>2026-04-06T08:48:35Z</time></trkpt><trkpt lat="44.69521626125147" lon="9.67905825136867"><ele>1166.0</ele><time>2026-04-06T08:48:37Z</time></trkpt><trkpt lat="44.69528541489265" lon="9.679009710316892"><ele>1166.0</ele><time>2026-04-06T08:48:47Z</time></trkpt><trkpt lat="44.69528294148581" lon="9.678914865274828"><ele>1166.0</ele><time>2026-04-06T08:49:10Z</time></trkpt><trkpt lat="44.69534669125419" lon="9.678876760081776"><ele>1166.0</ele><time>2026-04-06T08:49:28Z</time></trkpt><trkpt lat="44.69539420543558" lon="9.678794317844012"><ele>1166.0000000000002</ele><time>2026-04-06T08:49:40Z</time></trkpt><trkpt lat="44.69548712935388" lon="9.678798770494339"><ele>1166.0</ele><time>2026-04-06T08:49:56Z</time></trkpt><trkpt lat="44.69555162767777" lon="9.678845565467341"><ele>1171.857142857143</ele><time>2026-04-06T08:50:01Z</time></trkpt><trkpt lat="44.695615345133895" lon="9.678815566540626"><ele>1177.7142857142858</ele><time>2026-04-06T08:50:08Z</time></trkpt><trkpt lat="44.69562703070428" lon="9.67870147990088"><ele>1183.5714285714284</ele><time>2026-04-06T08:51:41Z</time></trkpt><trkpt lat="44.69566869606074" lon="9.67862890811176"><ele>1189.4285714285716</ele><time>2026-04-06T08:51:50Z</time></trkpt><trkpt lat="44.69565866755725" lon="9.678522205868484"><ele>1195.2857142857142</ele><time>2026-04-06T08:52:27Z</time></trkpt><trkpt lat="44.6957107486667" lon="9.67847067248801"><ele>1201.142857142857</ele><time>2026-04-06T08:55:49Z</time></trkpt><trkpt lat="44.6957760796917" lon="9.678484160560384"><ele>1207.0</ele><time>2026-04-06T08:59:21Z</time></trkpt><trkpt lat="44.69568332219105" lon="9.678492432225395"><ele>1206.9999999999998</ele><time>2026-04-06T09:05:03.999Z</time></trkpt><trkpt lat="44.69565471845445" lon="9.67857161888464"><ele>1207.0</ele><time>2026-04-06T09:05:41Z</time></trkpt><trkpt lat="44.695636983080455" lon="9.67871879608143"><ele>1207.0</ele><time>2026-04-06T09:06:14.999Z</time></trkpt><trkpt lat="44.695604485909264" lon="9.678817756364746"><ele>1207.0</ele><time>2026-04-06T09:06:19.999Z</time></trkpt><trkpt lat="44.69555811585005" lon="9.678889992064475"><ele>1207.0</ele><time>2026-04-06T09:06:29.999Z</time></trkpt><trkpt lat="44.695496131690064" lon="9.678855036876515"><ele>1206.9999999999998</ele><time>2026-04-06T09:06:41Z</time></trkpt><trkpt lat="44.69543522859476" lon="9.678821083079715"><ele>1207.0</ele><time>2026-04-06T09:06:51Z</time></trkpt><trkpt lat="44.69537173139406" lon="9.678858798857368"><ele>1206.9999999999998</ele><time>2026-04-06T09:06:55Z</time></trkpt><trkpt lat="44.69531008719613" lon="9.678923254320571"><ele>1207.0</ele><time>2026-04-06T09:06:59Z</time></trkpt><trkpt lat="44.69526334702157" lon="9.678993126331775"><ele>1207.0</ele><time>2026-04-06T09:07:02Z</time></trkpt><trkpt lat="44.695223619671424" lon="9.679079643754537"><ele>1207.0</ele><time>2026-04-06T09:07:06Z</time></trkpt><trkpt lat="44.69514310643213" lon="9.679119855629947"><ele>1207.0</ele><time>2026-04-06T09:07:09Z</time></trkpt><trkpt lat="44.69510985201432" lon="9.679210390802421"><ele>1206.9999999999998</ele><time>2026-04-06T09:07:13Z</time></trkpt><trkpt lat="44.695077846196995" lon="9.679287802000552"><ele>1207.0</ele><time>2026-04-06T09:07:16Z</time></trkpt><trkpt lat="44.69503010317751" lon="9.679368248975296"><ele>1199.0</ele><time>2026-04-06T09:07:20Z</time></trkpt><trkpt lat="44.695038795935396" lon="9.67947246604094"><ele>1191.0</ele><time>2026-04-06T09:07:45Z</time></trkpt><trkpt lat="44.69501298865282" lon="9.679588712226487"><ele>1183.0</ele><time>2026-04-06T09:07:48Z</time></trkpt><trkpt lat="44.69499656700867" lon="9.67967931602004"><ele>1175.0</ele><time>2026-04-06T09:07:50Z</time></trkpt><trkpt lat="44.694982784268745" lon="9.679827302002085"><ele>1167.0</ele><time>2026-04-06T09:07:52Z</time></trkpt><trkpt lat="44.69497235683083" lon="9.679950454082933"><ele>1159.0</ele><time>2026-04-06T09:07:54Z</time></trkpt><trkpt lat="44.695031966940775" lon="9.680024754751946"><ele>1159.0</ele><time>2026-04-06T09:07:56Z</time></trkpt><trkpt lat="44.69508698245351" lon="9.680103090340356"><ele>1159.0</ele><time>2026-04-06T09:07:58Z</time></trkpt><trkpt lat="44.69506140869908" lon="9.68020513311376"><ele>1159.0</ele><time>2026-04-06T09:08:01Z</time></trkpt><trkpt lat="44.69503725489925" lon="9.680316138519416"><ele>1159.0</ele><time>2026-04-06T09:08:03Z</time></trkpt><trkpt lat="44.69502087464165" lon="9.680474632139049"><ele>1159.0</ele><time>2026-04-06T09:08:06Z</time></trkpt><trkpt lat="44.69504658742193" lon="9.680617232569242"><ele>1157.0</ele><time>2026-04-06T09:08:08Z</time></trkpt><trkpt lat="44.69511044228315" lon="9.680752073320557"><ele>1155.0</ele><time>2026-04-06T09:08:10Z</time></trkpt><trkpt lat="44.695137307766444" lon="9.680839917773604"><ele>1153.0</ele><time>2026-04-06T09:08:11Z</time></trkpt><trkpt lat="44.695122086263964" lon="9.681002325026334"><ele>1151.0</ele><time>2026-04-06T09:08:13Z</time></trkpt><trkpt lat="44.695091732390175" lon="9.681145518456164"><ele>1149.0</ele><time>2026-04-06T09:08:15Z</time></trkpt><trkpt lat="44.69507814915981" lon="9.68131816898264"><ele>1146.8</ele><time>2026-04-06T09:08:17Z</time></trkpt><trkpt lat="44.6950688069257" lon="9.681474563817705"><ele>1144.6000000000001</ele><time>2026-04-06T09:08:19Z</time></trkpt><trkpt lat="44.69505135467857" lon="9.68160860987974"><ele>1142.4</ele><time>2026-04-06T09:08:21Z</time></trkpt><trkpt lat="44.695055570322765" lon="9.681762567658263"><ele>1140.2</ele><time>2026-04-06T09:08:23Z</time></trkpt><trkpt lat="44.69506370225546" lon="9.68189886800144"><ele>1138.0</ele><time>2026-04-06T09:08:25Z</time></trkpt><trkpt lat="44.69511309334967" lon="9.681991957080328"><ele>1138.0000000000002</ele><time>2026-04-06T09:08:27Z</time></trkpt><trkpt lat="44.69517561614517" lon="9.6820816862306"><ele>1138.0</ele><time>2026-04-06T09:08:29Z</time></trkpt><trkpt lat="44.69519705380434" lon="9.68216951644392"><ele>1138.0</ele><time>2026-04-06T09:08:31Z</time></trkpt><trkpt lat="44.695165483797766" lon="9.682083305221903"><ele>1138.0</ele><time>2026-04-06T09:09:14.001Z</time></trkpt><trkpt lat="44.69513956007085" lon="9.681987094140238"><ele>1138.0</ele><time>2026-04-06T09:09:16.001Z</time></trkpt><trkpt lat="44.69509311511026" lon="9.681922284479699"><ele>1138.0000000000002</ele><time>2026-04-06T09:09:18.001Z</time></trkpt><trkpt lat="44.695056017731254" lon="9.68182580245543"><ele>1138.0</ele><time>2026-04-06T09:09:20.001Z</time></trkpt><trkpt lat="44.69504810248284" lon="9.681721882739616"><ele>1138.0</ele><time>2026-04-06T09:09:22.001Z</time></trkpt><trkpt lat="44.69504974543415" lon="9.6816045249326"><ele>1138.0</ele><time>2026-04-06T09:09:24.001Z</time></trkpt><trkpt lat="44.695057057283584" lon="9.681486907265676"><ele>1138.0</ele><time>2026-04-06T09:09:26.001Z</time></trkpt><trkpt lat="44.69507334995849" lon="9.681363848608791"><ele>1138.0</ele><time>2026-04-06T09:09:28.001Z</time></trkpt><trkpt lat="44.6950828632873" lon="9.681209569724784"><ele>1138.0</ele><time>2026-04-06T09:09:30.001Z</time></trkpt><trkpt lat="44.695100491594154" lon="9.681077931854297"><ele>1140.2</ele><time>2026-04-06T09:09:32.001Z</time></trkpt><trkpt lat="44.695113503121945" lon="9.680942732451092"><ele>1142.4</ele><time>2026-04-06T09:09:34.001Z</time></trkpt><trkpt lat="44.69513301634789" lon="9.680817386232606"><ele>1144.6000000000001</ele><time>2026-04-06T09:09:36.001Z</time></trkpt><trkpt lat="44.695108506285415" lon="9.680683805763037"><ele>1146.8</ele><time>2026-04-06T09:09:38.001Z</time></trkpt><trkpt lat="44.69503751980855" lon="9.680552979693042"><ele>1149.0</ele><time>2026-04-06T09:09:40.001Z</time></trkpt><trkpt lat="44.69501274617849" lon="9.680436022832454"><ele>1149.0</ele><time>2026-04-06T09:09:42.001Z</time></trkpt><trkpt lat="44.695038468227935" lon="9.68034945073126"><ele>1149.0</ele><time>2026-04-06T09:09:44.001Z</time></trkpt><trkpt lat="44.69505922924444" lon="9.6802273209932"><ele>1149.0</ele><time>2026-04-06T09:09:47.001Z</time></trkpt><trkpt lat="44.695079283877554" lon="9.680115293971545"><ele>1149.0</ele><time>2026-04-06T09:09:49.001Z</time></trkpt><trkpt lat="44.69506951299861" lon="9.680011367051842"><ele>1149.0</ele><time>2026-04-06T09:09:51.001Z</time></trkpt><trkpt lat="44.695010451181204" lon="9.679946386635264"><ele>1149.0</ele><time>2026-04-06T09:09:53.001Z</time></trkpt><trkpt lat="44.694979762399676" lon="9.679864363492944"><ele>1151.0</ele><time>2026-04-06T09:09:55.001Z</time></trkpt><trkpt lat="44.69500194647599" lon="9.67973522888024"><ele>1153.0</ele><time>2026-04-06T09:09:58.001Z</time></trkpt><trkpt lat="44.695011357621325" lon="9.679612257122828"><ele>1155.0</ele><time>2026-04-06T09:10:00.001Z</time></trkpt><trkpt lat="44.69503846728817" lon="9.67949632172832"><ele>1157.0</ele><time>2026-04-06T09:10:02.001Z</time></trkpt><trkpt lat="44.695038562060105" lon="9.679404488904723"><ele>1159.0</ele><time>2026-04-06T09:10:05.001Z</time></trkpt><trkpt lat="44.69497638669911" lon="9.67925681319855"><ele>1160.4</ele><time>2026-04-06T09:11:59.001Z</time></trkpt><trkpt lat="44.69496308027319" lon="9.679155779134064"><ele>1161.8000000000002</ele><time>2026-04-06T09:12:01.001Z</time></trkpt><trkpt lat="44.69498014162417" lon="9.67902512397477"><ele>1163.1999999999998</ele><time>2026-04-06T09:12:03.001Z</time></trkpt><trkpt lat="44.695000863938155" lon="9.678911130352466"><ele>1164.6</ele><time>2026-04-06T09:12:05.001Z</time></trkpt><trkpt lat="44.69495679648164" lon="9.67877085331555"><ele>1166.0</ele><time>2026-04-06T09:12:08.001Z</time></trkpt><trkpt lat="44.694909835548756" lon="9.678651913832686"><ele>1168.1666666666667</ele><time>2026-04-06T09:12:10.001Z</time></trkpt><trkpt lat="44.694894085863176" lon="9.678563843570059"><ele>1170.3333333333335</ele><time>2026-04-06T09:12:11.001Z</time></trkpt><trkpt lat="44.694883303578436" lon="9.67844707037313"><ele>1172.5</ele><time>2026-04-06T09:12:12.001Z</time></trkpt><trkpt lat="44.694866476406226" lon="9.678352212658549"><ele>1174.6666666666667</ele><time>2026-04-06T09:12:13.001Z</time></trkpt><trkpt lat="44.69483967633799" lon="9.678239743979006"><ele>1176.8333333333333</ele><time>2026-04-06T09:12:15.001Z</time></trkpt><trkpt lat="44.69479582920914" lon="9.678145421251594"><ele>1179.0</ele><time>2026-04-06T09:12:17.001Z</time></trkpt><trkpt lat="44.69471342925699" lon="9.678087245842214"><ele>1179.0</ele><time>2026-04-06T09:12:19.001Z</time></trkpt><trkpt lat="44.69464095831917" lon="9.67800728165182"><ele>1179.0</ele><time>2026-04-06T09:12:21.001Z</time></trkpt><trkpt lat="44.69462830840356" lon="9.677877084427712"><ele>1179.0</ele><time>2026-04-06T09:12:23.001Z</time></trkpt><trkpt lat="44.69464255293893" lon="9.677717811798745"><ele>1179.0</ele><time>2026-04-06T09:12:25.001Z</time></trkpt><trkpt lat="44.69461550361898" lon="9.677577455117424"><ele>1179.0</ele><time>2026-04-06T09:12:26.999Z</time></trkpt><trkpt lat="44.694690935347055" lon="9.677463376905397"><ele>1181.8333333333333</ele><time>2026-04-06T09:12:28.999Z</time></trkpt><trkpt lat="44.694728555566975" lon="9.677385266215584"><ele>1184.6666666666667</ele><time>2026-04-06T09:12:29.999Z</time></trkpt><trkpt lat="44.69474092159131" lon="9.677231478877154"><ele>1187.5</ele><time>2026-04-06T09:12:31.999Z</time></trkpt><trkpt lat="44.694693739543084" lon="9.677139812617979"><ele>1190.3333333333335</ele><time>2026-04-06T09:12:34Z</time></trkpt><trkpt lat="44.69464508099078" lon="9.677080491567022"><ele>1193.1666666666667</ele><time>2026-04-06T09:12:35Z</time></trkpt><trkpt lat="44.69457369704732" lon="9.67703768263184"><ele>1196.0</ele><time>2026-04-06T09:12:36Z</time></trkpt><trkpt lat="44.6945122145045" lon="9.676981899474907"><ele>1194.8</ele><time>2026-04-06T09:12:37Z</time></trkpt><trkpt lat="44.69445078065289" lon="9.676914355040989"><ele>1193.6</ele><time>2026-04-06T09:12:38Z</time></trkpt><trkpt lat="44.694402403791734" lon="9.676822350274106"><ele>1192.4</ele><time>2026-04-06T09:12:39Z</time></trkpt><trkpt lat="44.69438436903665" lon="9.676691655214311"><ele>1191.2</ele><time>2026-04-06T09:12:41Z</time></trkpt><trkpt lat="44.69432328410947" lon="9.676650881659524"><ele>1190.0</ele><time>2026-04-06T09:12:43Z</time></trkpt><trkpt lat="44.69419554168809" lon="9.676577544186387"><ele>1190.0</ele><time>2026-04-06T09:12:45Z</time></trkpt><trkpt lat="44.69414788195421" lon="9.676516373024475"><ele>1190.0</ele><time>2026-04-06T09:12:46Z</time></trkpt><trkpt lat="44.694087058959774" lon="9.676395648224814"><ele>1190.0</ele><time>2026-04-06T09:12:48Z</time></trkpt><trkpt lat="44.694029132822855" lon="9.676319119843912"><ele>1190.0</ele><time>2026-04-06T09:12:50Z</time></trkpt><trkpt lat="44.69393700835299" lon="9.676299096582824"><ele>1190.0</ele><time>2026-04-06T09:12:52Z</time></trkpt><trkpt lat="44.69384152424702" lon="9.676212384169855"><ele>1190.0</ele><time>2026-04-06T09:12:54Z</time></trkpt><trkpt lat="44.6937686231542" lon="9.67613187679315"><ele>1190.0</ele><time>2026-04-06T09:12:56Z</time></trkpt><trkpt lat="44.69374503026981" lon="9.676010472007858"><ele>1190.0</ele><time>2026-04-06T09:12:58Z</time></trkpt><trkpt lat="44.69373229365918" lon="9.675864437009105"><ele>1190.0</ele><time>2026-04-06T09:13:00Z</time></trkpt><trkpt lat="44.69364753266048" lon="9.675791940600964"><ele>1190.0</ele><time>2026-04-06T09:13:02Z</time></trkpt><trkpt lat="44.69361201207498" lon="9.675711173185588"><ele>1193.6</ele><time>2026-04-06T09:13:03Z</time></trkpt><trkpt lat="44.693498953110804" lon="9.675661230512548"><ele>1197.2</ele><time>2026-04-06T09:13:05Z</time></trkpt><trkpt lat="44.693386477296606" lon="9.675603541031169"><ele>1200.8</ele><time>2026-04-06T09:13:07Z</time></trkpt><trkpt lat="44.69333580972861" lon="9.675532335460243"><ele>1204.4</ele><time>2026-04-06T09:13:08Z</time></trkpt><trkpt lat="44.69327432266794" lon="9.67541273473327"><ele>1208.0</ele><time>2026-04-06T09:13:10Z</time></trkpt><trkpt lat="44.69324161422717" lon="9.675257254100435"><ele>1210.6</ele><time>2026-04-06T09:13:12Z</time></trkpt><trkpt lat="44.69316110217791" lon="9.675175621872498"><ele>1213.1999999999998</ele><time>2026-04-06T09:13:14Z</time></trkpt><trkpt lat="44.69311989881613" lon="9.675101896540278"><ele>1215.8</ele><time>2026-04-06T09:13:15Z</time></trkpt><trkpt lat="44.69310168429455" lon="9.674972196700306"><ele>1218.3999999999999</ele><time>2026-04-06T09:13:17Z</time></trkpt><trkpt lat="44.69307978603064" lon="9.674829371224936"><ele>1221.0</ele><time>2026-04-06T09:13:19Z</time></trkpt><trkpt lat="44.693035853180476" lon="9.67472083322902"><ele>1221.0</ele><time>2026-04-06T09:13:21Z</time></trkpt><trkpt lat="44.693023212884604" lon="9.674607837436564"><ele>1221.0</ele><time>2026-04-06T09:13:22Z</time></trkpt><trkpt lat="44.6929665386674" lon="9.674481896039438"><ele>1221.0</ele><time>2026-04-06T09:13:24Z</time></trkpt><trkpt lat="44.69294459348037" lon="9.674360878562064"><ele>1221.0</ele><time>2026-04-06T09:13:26Z</time></trkpt><trkpt lat="44.6928920676491" lon="9.674278126181864"><ele>1221.0</ele><time>2026-04-06T09:13:29Z</time></trkpt><trkpt lat="44.69279537516952" lon="9.674204547428339"><ele>1222.5</ele><time>2026-04-06T09:13:32Z</time></trkpt><trkpt lat="44.6926902039336" lon="9.67420011231853"><ele>1224.0</ele><time>2026-04-06T09:13:34Z</time></trkpt><trkpt lat="44.69254937811188" lon="9.674136412236443"><ele>1225.5</ele><time>2026-04-06T09:13:38Z</time></trkpt><trkpt lat="44.69246129743107" lon="9.674105586535758"><ele>1227.0</ele><time>2026-04-06T09:13:40Z</time></trkpt><trkpt lat="44.69237074888757" lon="9.674024874695021"><ele>1227.0</ele><time>2026-04-06T09:13:43Z</time></trkpt><trkpt lat="44.69226793843773" lon="9.673885029714434"><ele>1227.0</ele><time>2026-04-06T09:13:45Z</time></trkpt><trkpt lat="44.69221983229174" lon="9.673814389810271"><ele>1227.0</ele><time>2026-04-06T09:13:46Z</time></trkpt><trkpt lat="44.69218403964738" lon="9.673706074998469"><ele>1227.0</ele><time>2026-04-06T09:13:47Z</time></trkpt><trkpt lat="44.69218205204788" lon="9.673576443257744"><ele>1227.0</ele><time>2026-04-06T09:13:49Z</time></trkpt><trkpt lat="44.69212943473743" lon="9.673423587468394"><ele>1226.0</ele><time>2026-04-06T09:13:51Z</time></trkpt><trkpt lat="44.69205818202796" lon="9.673396618399924"><ele>1225.0</ele><time>2026-04-06T09:13:52Z</time></trkpt><trkpt lat="44.69198256736321" lon="9.673369328584183"><ele>1224.0</ele><time>2026-04-06T09:13:53Z</time></trkpt><trkpt lat="44.69190073964428" lon="9.673330904383425"><ele>1223.0</ele><time>2026-04-06T09:13:54Z</time></trkpt><trkpt lat="44.69177812212429" lon="9.673321972607003"><ele>1222.0</ele><time>2026-04-06T09:13:56Z</time></trkpt><trkpt lat="44.69170604441965" lon="9.673306011928876"><ele>1221.0</ele><time>2026-04-06T09:13:57Z</time></trkpt><trkpt lat="44.69164454004978" lon="9.673286504346935"><ele>1221.0</ele><time>2026-04-06T09:13:58Z</time></trkpt><trkpt lat="44.69158228226513" lon="9.67326378900357"><ele>1221.0</ele><time>2026-04-06T09:13:59Z</time></trkpt><trkpt lat="44.6915076310471" lon="9.673265087672227"><ele>1221.0</ele><time>2026-04-06T09:14:00Z</time></trkpt><trkpt lat="44.69142908559809" lon="9.673272781040486"><ele>1221.0</ele><time>2026-04-06T09:14:01Z</time></trkpt><trkpt lat="44.69133309281475" lon="9.673351762661357"><ele>1221.0</ele><time>2026-04-06T09:14:03Z</time></trkpt><trkpt lat="44.69125764703663" lon="9.67343525160343"><ele>1221.0</ele><time>2026-04-06T09:14:05Z</time></trkpt><trkpt lat="44.691202697402424" lon="9.673515680672713"><ele>1221.0</ele><time>2026-04-06T09:14:07Z</time></trkpt><trkpt lat="44.6912739335021" lon="9.67355215782027"><ele>1221.0</ele><time>2026-04-06T09:14:10Z</time></trkpt><trkpt lat="44.6912287233921" lon="9.673637224551923"><ele>1221.0</ele><time>2026-04-06T09:15:17Z</time></trkpt><trkpt lat="44.69116643734783" lon="9.67360180694475"><ele>1221.0</ele><time>2026-04-06T09:15:41.001Z</time></trkpt><trkpt lat="44.691066385619216" lon="9.673678678345704"><ele>1221.0</ele><time>2026-04-06T09:16:01.001Z</time></trkpt><trkpt lat="44.690998175810726" lon="9.673655326507456"><ele>1221.0</ele><time>2026-04-06T09:16:06.001Z</time></trkpt><trkpt lat="44.690930990843306" lon="9.673633767339677"><ele>1219.3333333333333</ele><time>2026-04-06T09:16:09.001Z</time></trkpt><trkpt lat="44.690865587169306" lon="9.673606574319619"><ele>1217.6666666666667</ele><time>2026-04-06T09:16:16.001Z</time></trkpt><trkpt lat="44.69077687892729" lon="9.673588656230436"><ele>1216.0</ele><time>2026-04-06T09:16:37.001Z</time></trkpt><trkpt lat="44.69070567542681" lon="9.673628292439542"><ele>1214.3333333333335</ele><time>2026-04-06T09:16:40.001Z</time></trkpt><trkpt lat="44.69062412940373" lon="9.673635899671432"><ele>1212.6666666666667</ele><time>2026-04-06T09:16:42.001Z</time></trkpt><trkpt lat="44.69055089964984" lon="9.67363350992311"><ele>1211.0</ele><time>2026-04-06T09:16:44.001Z</time></trkpt><trkpt lat="44.69048315440278" lon="9.673718123618999"><ele>1214.1666666666667</ele><time>2026-04-06T09:16:47.001Z</time></trkpt><trkpt lat="44.69044826862233" lon="9.673813740437504"><ele>1217.3333333333335</ele><time>2026-04-06T09:16:51.001Z</time></trkpt><trkpt lat="44.69037287215315" lon="9.673821633577827"><ele>1220.5</ele><time>2026-04-06T09:16:53.001Z</time></trkpt><trkpt lat="44.69027022187044" lon="9.67380831333438"><ele>1223.6666666666667</ele><time>2026-04-06T09:16:55.001Z</time></trkpt><trkpt lat="44.69019403455041" lon="9.67378875395928"><ele>1226.8333333333333</ele><time>2026-04-06T09:16:57.001Z</time></trkpt><trkpt lat="44.69012249153951" lon="9.673795318956257"><ele>1230.0</ele><time>2026-04-06T09:16:59.001Z</time></trkpt><trkpt lat="44.69008156343149" lon="9.673888712710108"><ele>1230.0</ele><time>2026-04-06T09:17:02.001Z</time></trkpt><trkpt lat="44.6899783501748" lon="9.673892294763426"><ele>1230.0</ele><time>2026-04-06T09:17:04.001Z</time></trkpt><trkpt lat="44.68986672726796" lon="9.67384390089217"><ele>1230.0</ele><time>2026-04-06T09:17:06.001Z</time></trkpt><trkpt lat="44.68980227426988" lon="9.673801200123604"><ele>1230.0</ele><time>2026-04-06T09:17:07.001Z</time></trkpt><trkpt lat="44.68969362339959" lon="9.673800328334018"><ele>1230.0</ele><time>2026-04-06T09:17:09.001Z</time></trkpt><trkpt lat="44.689568417974776" lon="9.673855739189529"><ele>1230.0</ele><time>2026-04-06T09:17:11.001Z</time></trkpt><trkpt lat="44.68948030872025" lon="9.673892972137404"><ele>1230.0</ele><time>2026-04-06T09:17:13.001Z</time></trkpt><trkpt lat="44.68936353134764" lon="9.673910009332234"><ele>1230.0</ele><time>2026-04-06T09:17:15.001Z</time></trkpt><trkpt lat="44.689275338823805" lon="9.67394262038857"><ele>1230.0</ele><time>2026-04-06T09:17:17.001Z</time></trkpt><trkpt lat="44.68921523795085" lon="9.673986515943662"><ele>1230.0</ele><time>2026-04-06T09:17:20.001Z</time></trkpt><trkpt lat="44.689170636790266" lon="9.67406343437461"><ele>1230.0</ele><time>2026-04-06T09:17:23.001Z</time></trkpt><trkpt lat="44.689091354037814" lon="9.674175275660689"><ele>1228.857142857143</ele><time>2026-04-06T09:17:25.001Z</time></trkpt><trkpt lat="44.68901741535032" lon="9.674202196044739"><ele>1227.7142857142858</ele><time>2026-04-06T09:17:26.001Z</time></trkpt><trkpt lat="44.68894742630024" lon="9.674226546099483"><ele>1226.5714285714287</ele><time>2026-04-06T09:17:27.001Z</time></trkpt><trkpt lat="44.688878936281945" lon="9.674241065443553"><ele>1225.4285714285716</ele><time>2026-04-06T09:17:28.001Z</time></trkpt><trkpt lat="44.68878777937823" lon="9.674250606866023"><ele>1224.2857142857142</ele><time>2026-04-06T09:17:29.001Z</time></trkpt><trkpt lat="44.68872540882974" lon="9.674221162523303"><ele>1223.1428571428573</ele><time>2026-04-06T09:17:31.001Z</time></trkpt><trkpt lat="44.68866061932967" lon="9.67417067225559"><ele>1222.0</ele><time>2026-04-06T09:17:39.001Z</time></trkpt><trkpt lat="44.68854850942109" lon="9.674156452968573"><ele>1222.0000000000002</ele><time>2026-04-06T09:17:42.001Z</time></trkpt><trkpt lat="44.68848847103977" lon="9.67412155468939"><ele>1222.0</ele><time>2026-04-06T09:17:44.001Z</time></trkpt><trkpt lat="44.688428866296405" lon="9.67408945508181"><ele>1222.0</ele><time>2026-04-06T09:17:48.001Z</time></trkpt><trkpt lat="44.688356582486854" lon="9.674090961438269"><ele>1222.0</ele><time>2026-04-06T09:17:53.001Z</time></trkpt><trkpt lat="44.68827426690321" lon="9.674059750063792"><ele>1222.0</ele><time>2026-04-06T09:18:03.001Z</time></trkpt><trkpt lat="44.68822043501068" lon="9.673982974752047"><ele>1222.0000000000002</ele><time>2026-04-06T09:18:06.001Z</time></trkpt><trkpt lat="44.688180870416346" lon="9.673901007174802"><ele>1222.0</ele><time>2026-04-06T09:18:08.001Z</time></trkpt><trkpt lat="44.68810794509412" lon="9.67382663207782"><ele>1222.0</ele><time>2026-04-06T09:18:10.001Z</time></trkpt><trkpt lat="44.688030187372625" lon="9.67381281031772"><ele>1222.0</ele><time>2026-04-06T09:18:12.001Z</time></trkpt><trkpt lat="44.68797415144796" lon="9.67376869948931"><ele>1222.0</ele><time>2026-04-06T09:18:14.001Z</time></trkpt><trkpt lat="44.6878743968318" lon="9.673767114417231"><ele>1222.0</ele><time>2026-04-06T09:18:16.001Z</time></trkpt><trkpt lat="44.687775545712" lon="9.673759176926467"><ele>1222.0</ele><time>2026-04-06T09:18:18.001Z</time></trkpt><trkpt lat="44.68769764632555" lon="9.673705311555544"><ele>1222.0</ele><time>2026-04-06T09:18:20.001Z</time></trkpt><trkpt lat="44.68761613872918" lon="9.673648693301098"><ele>1222.5</ele><time>2026-04-06T09:18:23.001Z</time></trkpt><trkpt lat="44.68752330873435" lon="9.673636058401613"><ele>1223.0</ele><time>2026-04-06T09:18:25.001Z</time></trkpt><trkpt lat="44.687443803266376" lon="9.67366413453326"><ele>1223.5</ele><time>2026-04-06T09:18:26.001Z</time></trkpt><trkpt lat="44.687365063942934" lon="9.673695954248462"><ele>1224.0</ele><time>2026-04-06T09:18:27.001Z</time></trkpt><trkpt lat="44.687297239761534" lon="9.673723383508642"><ele>1224.5</ele><time>2026-04-06T09:18:28.001Z</time></trkpt><trkpt lat="44.687199891698256" lon="9.6737525397611"><ele>1225.0</ele><time>2026-04-06T09:18:30.001Z</time></trkpt><trkpt lat="44.68710789761553" lon="9.673732764998627"><ele>1225.0</ele><time>2026-04-06T09:18:32.001Z</time></trkpt><trkpt lat="44.68701096388012" lon="9.673792583620736"><ele>1225.0</ele><time>2026-04-06T09:18:34.001Z</time></trkpt><trkpt lat="44.68696295741038" lon="9.673874676405745"><ele>1225.0</ele><time>2026-04-06T09:18:36.001Z</time></trkpt><trkpt lat="44.68691938990982" lon="9.673954886958654"><ele>1225.0</ele><time>2026-04-06T09:18:37.001Z</time></trkpt><trkpt lat="44.686843408894894" lon="9.674014991214547"><ele>1225.0</ele><time>2026-04-06T09:18:39.001Z</time></trkpt><trkpt lat="44.68675803364492" lon="9.67399569700103"><ele>1225.0</ele><time>2026-04-06T09:18:41.001Z</time></trkpt><trkpt lat="44.68667802115136" lon="9.673969005303531"><ele>1226.3333333333333</ele><time>2026-04-06T09:18:45.001Z</time></trkpt><trkpt lat="44.68663208564213" lon="9.674034672672667"><ele>1227.6666666666665</ele><time>2026-04-06T09:18:52.001Z</time></trkpt><trkpt lat="44.68659717912642" lon="9.674113111696487"><ele>1229.0</ele><time>2026-04-06T09:18:57.001Z</time></trkpt><trkpt lat="44.68661095190621" lon="9.674248647235416"><ele>1230.3333333333333</ele><time>2026-04-06T09:19:16.001Z</time></trkpt><trkpt lat="44.68659784814186" lon="9.674391460397295"><ele>1231.6666666666667</ele><time>2026-04-06T09:19:20.001Z</time></trkpt><trkpt lat="44.68661712602864" lon="9.674495361520894"><ele>1233.0</ele><time>2026-04-06T09:19:23.001Z</time></trkpt><trkpt lat="44.68662039609371" lon="9.67458830429583"><ele>1233.3333333333333</ele><time>2026-04-06T09:19:25.001Z</time></trkpt><trkpt lat="44.68665694232209" lon="9.674678673642724"><ele>1233.6666666666667</ele><time>2026-04-06T09:19:28.001Z</time></trkpt><trkpt lat="44.68668190135313" lon="9.67477578766978"><ele>1234.0</ele><time>2026-04-06T09:19:30.001Z</time></trkpt><trkpt lat="44.686666071089405" lon="9.674891197100521"><ele>1234.3333333333335</ele><time>2026-04-06T09:19:33.001Z</time></trkpt><trkpt lat="44.68665205049437" lon="9.674979891072887"><ele>1234.6666666666667</ele><time>2026-04-06T09:19:35.001Z</time></trkpt><trkpt lat="44.686613653851055" lon="9.675055581626022"><ele>1235.0</ele><time>2026-04-06T09:19:38.001Z</time></trkpt><trkpt lat="44.686542495731004" lon="9.675147119585418"><ele>1234.3333333333335</ele><time>2026-04-06T09:19:41.001Z</time></trkpt><trkpt lat="44.6864957071273" lon="9.675271083078899"><ele>1233.6666666666667</ele><time>2026-04-06T09:19:43.001Z</time></trkpt><trkpt lat="44.686448542771636" lon="9.675347816639093"><ele>1233.0</ele><time>2026-04-06T09:19:46.001Z</time></trkpt><trkpt lat="44.68637778990804" lon="9.675397213475014"><ele>1232.3333333333333</ele><time>2026-04-06T09:19:49.001Z</time></trkpt><trkpt lat="44.686311271556974" lon="9.675445548339281"><ele>1231.6666666666665</ele><time>2026-04-06T09:19:52.001Z</time></trkpt><trkpt lat="44.68623137733438" lon="9.675511020262206"><ele>1231.0</ele><time>2026-04-06T09:19:56.001Z</time></trkpt><trkpt lat="44.68617931485997" lon="9.675568345675464"><ele>1231.0</ele><time>2026-04-06T09:19:58.001Z</time></trkpt><trkpt lat="44.686141971343034" lon="9.675658261371073"><ele>1231.0</ele><time>2026-04-06T09:20:02.001Z</time></trkpt><trkpt lat="44.686135037820755" lon="9.675798822863456"><ele>1231.0</ele><time>2026-04-06T09:20:06.001Z</time></trkpt><trkpt lat="44.686106403320245" lon="9.67590017183608"><ele>1231.0</ele><time>2026-04-06T09:20:08.001Z</time></trkpt><trkpt lat="44.686060565280926" lon="9.676007868250698"><ele>1231.0</ele><time>2026-04-06T09:20:10.001Z</time></trkpt><trkpt lat="44.68596872457235" lon="9.676147730379606"><ele>1228.6</ele><time>2026-04-06T09:20:12.001Z</time></trkpt><trkpt lat="44.68589472901014" lon="9.67623531886732"><ele>1226.1999999999998</ele><time>2026-04-06T09:20:13.001Z</time></trkpt><trkpt lat="44.685851902000316" lon="9.676396840407035"><ele>1223.8000000000002</ele><time>2026-04-06T09:20:15.001Z</time></trkpt><trkpt lat="44.68577643598376" lon="9.676426002123925"><ele>1221.4</ele><time>2026-04-06T09:20:19.001Z</time></trkpt><trkpt lat="44.685718123596224" lon="9.676510606284554"><ele>1219.0</ele><time>2026-04-06T09:20:22.001Z</time></trkpt><trkpt lat="44.6856882305789" lon="9.676597244444118"><ele>1219.0</ele><time>2026-04-06T09:20:24.001Z</time></trkpt><trkpt lat="44.685619494404655" lon="9.67666609200742"><ele>1219.0</ele><time>2026-04-06T09:20:26.001Z</time></trkpt><trkpt lat="44.68550208376861" lon="9.676818176304872"><ele>1219.0</ele><time>2026-04-06T09:20:28.001Z</time></trkpt><trkpt lat="44.68539709630704" lon="9.676858883029395"><ele>1219.0</ele><time>2026-04-06T09:20:30.001Z</time></trkpt><trkpt lat="44.68530533216768" lon="9.676874483336423"><ele>1219.0</ele><time>2026-04-06T09:20:32.001Z</time></trkpt><trkpt lat="44.6852501975362" lon="9.676937136795885"><ele>1220.2</ele><time>2026-04-06T09:20:34.001Z</time></trkpt><trkpt lat="44.68522437237365" lon="9.677043460066535"><ele>1221.4</ele><time>2026-04-06T09:20:36.001Z</time></trkpt><trkpt lat="44.68514457995529" lon="9.67716517394901"><ele>1222.6</ele><time>2026-04-06T09:20:38.001Z</time></trkpt><trkpt lat="44.68508316343791" lon="9.677192197851992"><ele>1223.8</ele><time>2026-04-06T09:20:39.001Z</time></trkpt><trkpt lat="44.68494724977005" lon="9.677215988034503"><ele>1225.0</ele><time>2026-04-06T09:20:41.001Z</time></trkpt><trkpt lat="44.684875051663376" lon="9.677247875223262"><ele>1225.0</ele><time>2026-04-06T09:20:42.001Z</time></trkpt><trkpt lat="44.68483099609671" lon="9.677313428262167"><ele>1225.0</ele><time>2026-04-06T09:20:43.001Z</time></trkpt><trkpt lat="44.684788303641255" lon="9.677429173134787"><ele>1225.0</ele><time>2026-04-06T09:20:45.001Z</time></trkpt><trkpt lat="44.68470466190659" lon="9.677491045491545"><ele>1225.0</ele><time>2026-04-06T09:20:48.001Z</time></trkpt><trkpt lat="44.68463508074208" lon="9.677531847875166"><ele>1225.0</ele><time>2026-04-06T09:20:49.001Z</time></trkpt><trkpt lat="44.68454475066037" lon="9.677567460695839"><ele>1225.0</ele><time>2026-04-06T09:20:50.001Z</time></trkpt><trkpt lat="44.68448251067307" lon="9.677639453485234"><ele>1224.6666666666665</ele><time>2026-04-06T09:20:53.001Z</time></trkpt><trkpt lat="44.68440647039421" lon="9.677750407185682"><ele>1224.3333333333333</ele><time>2026-04-06T09:20:55.001Z</time></trkpt><trkpt lat="44.68438289048413" lon="9.67784118079332"><ele>1224.0</ele><time>2026-04-06T09:20:58.001Z</time></trkpt><trkpt lat="44.6843784570942" lon="9.67794920077008"><ele>1223.6666666666667</ele><time>2026-04-06T09:21:01.001Z</time></trkpt><trkpt lat="44.684393150529445" lon="9.67805616159649"><ele>1223.3333333333335</ele><time>2026-04-06T09:21:03.001Z</time></trkpt><trkpt lat="44.68446576379373" lon="9.678111173615388"><ele>1223.0</ele><time>2026-04-06T09:21:05.001Z</time></trkpt><trkpt lat="44.68445467092437" lon="9.678304291717849"><ele>1223.0</ele><time>2026-04-06T09:21:07.001Z</time></trkpt><trkpt lat="44.68451638959236" lon="9.678414181248238"><ele>1223.0</ele><time>2026-04-06T09:21:09.001Z</time></trkpt><trkpt lat="44.68452732763347" lon="9.678529872483441"><ele>1223.0</ele><time>2026-04-06T09:21:10.001Z</time></trkpt><trkpt lat="44.684547431395714" lon="9.678624551435668"><ele>1223.0</ele><time>2026-04-06T09:21:11.001Z</time></trkpt><trkpt lat="44.68458616259904" lon="9.678742984679753"><ele>1223.0</ele><time>2026-04-06T09:21:13.001Z</time></trkpt><trkpt lat="44.684520423350925" lon="9.678730841760153"><ele>1223.0</ele><time>2026-04-06T09:21:41.001Z</time></trkpt><trkpt lat="44.68444500806947" lon="9.678745219577577"><ele>1227.7142857142856</ele><time>2026-04-06T09:21:46.001Z</time></trkpt><trkpt lat="44.68437260733257" lon="9.678798690444797"><ele>1232.4285714285716</ele><time>2026-04-06T09:21:50.001Z</time></trkpt><trkpt lat="44.68431087914397" lon="9.678869655902439"><ele>1237.142857142857</ele><time>2026-04-06T09:21:53.001Z</time></trkpt><trkpt lat="44.68424502385966" lon="9.678900241673228"><ele>1241.8571428571427</ele><time>2026-04-06T09:21:57.001Z</time></trkpt><trkpt lat="44.68422057343494" lon="9.678986793667288"><ele>1246.5714285714284</ele><time>2026-04-06T09:22:03.001Z</time></trkpt><trkpt lat="44.68423480831594" lon="9.6790794625562"><ele>1251.2857142857142</ele><time>2026-04-06T09:22:41.001Z</time></trkpt><trkpt lat="44.684240036492255" lon="9.67917968803408"><ele>1256.0</ele><time>2026-04-06T09:22:45.001Z</time></trkpt><trkpt lat="44.68428034405103" lon="9.679262578241245"><ele>1256.0</ele><time>2026-04-06T09:22:48.001Z</time></trkpt><trkpt lat="44.684280666385014" lon="9.67936746375707"><ele>1256.0</ele><time>2026-04-06T09:22:50.001Z</time></trkpt><trkpt lat="44.68428253742102" lon="9.679472371659793"><ele>1256.0</ele><time>2026-04-06T09:22:52.001Z</time></trkpt><trkpt lat="44.684201622927915" lon="9.679571502169889"><ele>1256.0</ele><time>2026-04-06T09:22:55.001Z</time></trkpt><trkpt lat="44.68410811306633" lon="9.67961884120729"><ele>1256.0</ele><time>2026-04-06T09:22:57.001Z</time></trkpt><trkpt lat="44.68403090665846" lon="9.67962835932538"><ele>1256.0</ele><time>2026-04-06T09:23:00.001Z</time></trkpt><trkpt lat="44.68396610002295" lon="9.679623263576675"><ele>1258.1666666666667</ele><time>2026-04-06T09:23:02.001Z</time></trkpt><trkpt lat="44.68389689758675" lon="9.6796030306046"><ele>1260.3333333333335</ele><time>2026-04-06T09:23:05.001Z</time></trkpt><trkpt lat="44.68383324098411" lon="9.679567754372828"><ele>1262.5</ele><time>2026-04-06T09:23:08.001Z</time></trkpt><trkpt lat="44.68375967395216" lon="9.679577806845025"><ele>1264.6666666666667</ele><time>2026-04-06T09:23:10.001Z</time></trkpt><trkpt lat="44.683687798226345" lon="9.67962975726052"><ele>1266.8333333333333</ele><time>2026-04-06T09:23:16.001Z</time></trkpt><trkpt lat="44.68362351954236" lon="9.679718622894262"><ele>1269.0</ele><time>2026-04-06T09:23:19.001Z</time></trkpt><trkpt lat="44.683670391702165" lon="9.679792449032682"><ele>1269.0</ele><time>2026-04-06T09:23:34.001Z</time></trkpt><trkpt lat="44.683618476640305" lon="9.679859636701634"><ele>1269.0</ele><time>2026-04-06T09:23:37.001Z</time></trkpt><trkpt lat="44.68355917808817" lon="9.679897170600322"><ele>1269.0</ele><time>2026-04-06T09:23:49.001Z</time></trkpt><trkpt lat="44.68352801486713" lon="9.679991638814164"><ele>1269.0</ele><time>2026-04-06T09:23:51.001Z</time></trkpt><trkpt lat="44.68349809193291" lon="9.68007076932538"><ele>1269.0</ele><time>2026-04-06T09:23:55.001Z</time></trkpt><trkpt lat="44.68354949209136" lon="9.680148589140943"><ele>1269.0</ele><time>2026-04-06T09:23:58.001Z</time></trkpt><trkpt lat="44.6835007075783" lon="9.680210957929294"><ele>1269.0</ele><time>2026-04-06T09:24:03.001Z</time></trkpt><trkpt lat="44.683463333129886" lon="9.680296135702438"><ele>1277.7142857142858</ele><time>2026-04-06T09:24:06.001Z</time></trkpt><trkpt lat="44.6833990734898" lon="9.680311231519353"><ele>1286.4285714285713</ele><time>2026-04-06T09:24:13.001Z</time></trkpt><trkpt lat="44.68332759069008" lon="9.680323515978513"><ele>1295.142857142857</ele><time>2026-04-06T09:24:18.001Z</time></trkpt><trkpt lat="44.683277823729796" lon="9.68037799176082"><ele>1303.857142857143</ele><time>2026-04-06T09:24:40.001Z</time></trkpt><trkpt lat="44.68319052184886" lon="9.680373805214249"><ele>1312.5714285714284</ele><time>2026-04-06T09:27:41Z</time></trkpt><trkpt lat="44.68321523537126" lon="9.68046991446601"><ele>1321.2857142857142</ele><time>2026-04-06T09:28:12Z</time></trkpt><trkpt lat="44.68319317388964" lon="9.680374336342682"><ele>1330.0</ele><time>2026-04-06T09:28:33Z</time></trkpt><trkpt lat="44.68327401582892" lon="9.68044040003654"><ele>1330.0</ele><time>2026-04-06T09:29:26Z</time></trkpt><trkpt lat="44.683256302841855" lon="9.680312835700507"><ele>1330.0</ele><time>2026-04-06T09:31:12Z</time></trkpt><trkpt lat="44.68327132505823" lon="9.68043747265123"><ele>1330.0</ele><time>2026-04-06T09:32:33Z</time></trkpt><trkpt lat="44.683191245827544" lon="9.68045865012348"><ele>1330.0</ele><time>2026-04-06T09:40:21Z</time></trkpt><trkpt lat="44.683252393904205" lon="9.680434106790623"><ele>1330.0</ele><time>2026-04-06T09:40:55Z</time></trkpt><trkpt lat="44.683311208286135" lon="9.680350404925312"><ele>1330.0</ele><time>2026-04-06T09:41:17Z</time></trkpt><trkpt lat="44.683378709075214" lon="9.680298280342114"><ele>1324.5</ele><time>2026-04-06T09:41:21Z</time></trkpt><trkpt lat="44.683454708305625" lon="9.680266005957918"><ele>1319.0</ele><time>2026-04-06T09:41:25Z</time></trkpt><trkpt lat="44.68350374245519" lon="9.680182295140959"><ele>1313.5</ele><time>2026-04-06T09:41:28Z</time></trkpt><trkpt lat="44.68352354900354" lon="9.68008994881526"><ele>1308.0</ele><time>2026-04-06T09:41:36Z</time></trkpt><trkpt lat="44.683531473510335" lon="9.679970203639954"><ele>1302.5</ele><time>2026-04-06T09:41:39Z</time></trkpt><trkpt lat="44.683584043724345" lon="9.679903269429662"><ele>1297.0</ele><time>2026-04-06T09:41:42Z</time></trkpt><trkpt lat="44.68365568022391" lon="9.679862324362393"><ele>1293.0</ele><time>2026-04-06T09:43:23Z</time></trkpt><trkpt lat="44.68366696660815" lon="9.67977264535653"><ele>1289.0</ele><time>2026-04-06T09:43:44Z</time></trkpt><trkpt lat="44.68362651570665" lon="9.67969339502434"><ele>1285.0</ele><time>2026-04-06T09:43:59Z</time></trkpt><trkpt lat="44.68368044035201" lon="9.679639211938872"><ele>1281.0</ele><time>2026-04-06T09:44:02Z</time></trkpt><trkpt lat="44.683736820655504" lon="9.679592842755614"><ele>1277.0</ele><time>2026-04-06T09:44:09Z</time></trkpt><trkpt lat="44.683800755301405" lon="9.679591655371594"><ele>1273.0</ele><time>2026-04-06T09:44:13Z</time></trkpt><trkpt lat="44.68386944730196" lon="9.679594475571944"><ele>1269.0</ele><time>2026-04-06T09:44:15Z</time></trkpt><trkpt lat="44.68393037988571" lon="9.67964343174567"><ele>1269.0</ele><time>2026-04-06T09:44:18Z</time></trkpt><trkpt lat="44.684017642453945" lon="9.679662102177627"><ele>1269.0</ele><time>2026-04-06T09:44:23Z</time></trkpt><trkpt lat="44.684098913330345" lon="9.679675376763393"><ele>1269.0</ele><time>2026-04-06T09:44:27Z</time></trkpt><trkpt lat="44.68417260058267" lon="9.679643400057028"><ele>1269.0</ele><time>2026-04-06T09:44:31Z</time></trkpt><trkpt lat="44.68422080290695" lon="9.679545030255442"><ele>1269.0</ele><time>2026-04-06T09:44:35Z</time></trkpt><trkpt lat="44.68422830491963" lon="9.679446478289474"><ele>1269.0</ele><time>2026-04-06T09:44:39Z</time></trkpt><trkpt lat="44.684247754241696" lon="9.679354799939025"><ele>1266.8333333333333</ele><time>2026-04-06T09:44:46Z</time></trkpt><trkpt lat="44.68423046138911" lon="9.679242981502538"><ele>1264.6666666666667</ele><time>2026-04-06T09:45:53Z</time></trkpt><trkpt lat="44.684227964609576" lon="9.679149570892728"><ele>1262.5</ele><time>2026-04-06T09:45:57Z</time></trkpt><trkpt lat="44.684240051911566" lon="9.679062167309642"><ele>1260.3333333333335</ele><time>2026-04-06T09:46:01Z</time></trkpt><trkpt lat="44.68429005563687" lon="9.678928463036788"><ele>1258.1666666666667</ele><time>2026-04-06T09:46:04Z</time></trkpt><trkpt lat="44.68436648164467" lon="9.678817145467187"><ele>1256.0</ele><time>2026-04-06T09:46:06Z</time></trkpt><trkpt lat="44.68443054775046" lon="9.678812958932111"><ele>1251.3333333333335</ele><time>2026-04-06T09:46:08Z</time></trkpt><trkpt lat="44.68450797624414" lon="9.678761230190899"><ele>1246.6666666666667</ele><time>2026-04-06T09:46:10Z</time></trkpt><trkpt lat="44.684576734889596" lon="9.678734351080342"><ele>1242.0</ele><time>2026-04-06T09:46:14Z</time></trkpt><trkpt lat="44.68454717633893" lon="9.678630698157619"><ele>1237.3333333333333</ele><time>2026-04-06T09:46:27Z</time></trkpt><trkpt lat="44.684523079382984" lon="9.678520840364166"><ele>1232.6666666666665</ele><time>2026-04-06T09:46:29Z</time></trkpt><trkpt lat="44.684486006023036" lon="9.678433722837225"><ele>1228.0</ele><time>2026-04-06T09:46:33Z</time></trkpt><trkpt lat="44.684438103676484" lon="9.67834075777645"><ele>1227.5</ele><time>2026-04-06T09:46:36Z</time></trkpt><trkpt lat="44.68437238848994" lon="9.678282072604858"><ele>1227.0</ele><time>2026-04-06T09:46:39Z</time></trkpt><trkpt lat="44.68437455163593" lon="9.678187853067062"><ele>1226.5</ele><time>2026-04-06T09:46:43Z</time></trkpt><trkpt lat="44.68436187720501" lon="9.678083181802679"><ele>1226.0</ele><time>2026-04-06T09:46:46Z</time></trkpt><trkpt lat="44.68436852693688" lon="9.677979759747837"><ele>1225.5</ele><time>2026-04-06T09:46:49Z</time></trkpt><trkpt lat="44.68436319643021" lon="9.677871110864714"><ele>1225.0</ele><time>2026-04-06T09:46:51Z</time></trkpt><trkpt lat="44.684432406238045" lon="9.677726707250843"><ele>1225.0</ele><time>2026-04-06T09:46:53Z</time></trkpt><trkpt lat="44.684466339099046" lon="9.677642962036078"><ele>1225.0</ele><time>2026-04-06T09:46:55Z</time></trkpt><trkpt lat="44.68454766338721" lon="9.677562948166958"><ele>1225.0</ele><time>2026-04-06T09:46:57Z</time></trkpt><trkpt lat="44.68464843077783" lon="9.677494602780314"><ele>1225.0</ele><time>2026-04-06T09:46:59Z</time></trkpt><trkpt lat="44.68471968243049" lon="9.677445184116706"><ele>1225.0</ele><time>2026-04-06T09:47:00Z</time></trkpt><trkpt lat="44.6848173857676" lon="9.677379526204934"><ele>1225.0</ele><time>2026-04-06T09:47:02Z</time></trkpt><trkpt lat="44.68482770586413" lon="9.67723643828238"><ele>1225.0</ele><time>2026-04-06T09:47:05Z</time></trkpt><trkpt lat="44.684909399151756" lon="9.677191405850145"><ele>1225.0</ele><time>2026-04-06T09:47:07Z</time></trkpt><trkpt lat="44.6850131346564" lon="9.677179547017873"><ele>1225.0</ele><time>2026-04-06T09:47:08Z</time></trkpt><trkpt lat="44.68509248805454" lon="9.677175292688949"><ele>1225.0</ele><time>2026-04-06T09:47:09Z</time></trkpt><trkpt lat="44.68517214338709" lon="9.677106092122187"><ele>1225.0</ele><time>2026-04-06T09:47:11Z</time></trkpt><trkpt lat="44.685219537472875" lon="9.677007958107671"><ele>1225.0</ele><time>2026-04-06T09:47:13Z</time></trkpt><trkpt lat="44.685259242624525" lon="9.676917011275213"><ele>1225.0</ele><time>2026-04-06T09:47:15Z</time></trkpt><trkpt lat="44.68533197242874" lon="9.676911673310304"><ele>1225.0</ele><time>2026-04-06T09:47:17Z</time></trkpt><trkpt lat="44.68539270474688" lon="9.676852966480253"><ele>1225.0</ele><time>2026-04-06T09:47:19Z</time></trkpt><trkpt lat="44.68544771021536" lon="9.676799115355887"><ele>1225.0</ele><time>2026-04-06T09:47:20Z</time></trkpt><trkpt lat="44.68551580316972" lon="9.676745075597907"><ele>1223.5</ele><time>2026-04-06T09:47:21Z</time></trkpt><trkpt lat="44.685563417139704" lon="9.67664112613313"><ele>1222.0</ele><time>2026-04-06T09:47:23Z</time></trkpt><trkpt lat="44.68563952962903" lon="9.676499870320649"><ele>1220.5</ele><time>2026-04-06T09:47:25Z</time></trkpt><trkpt lat="44.685738496384594" lon="9.676404231590965"><ele>1219.0</ele><time>2026-04-06T09:47:27Z</time></trkpt><trkpt lat="44.68585911520271" lon="9.676376613014709"><ele>1219.0</ele><time>2026-04-06T09:47:29Z</time></trkpt><trkpt lat="44.68593360034006" lon="9.676255297078814"><ele>1219.0</ele><time>2026-04-06T09:47:31Z</time></trkpt><trkpt lat="44.685992177640834" lon="9.676139653301881"><ele>1219.0</ele><time>2026-04-06T09:47:33Z</time></trkpt><trkpt lat="44.6860590700716" lon="9.676015993899096"><ele>1219.0</ele><time>2026-04-06T09:47:35Z</time></trkpt><trkpt lat="44.68612568259225" lon="9.675904359764033"><ele>1219.0</ele><time>2026-04-06T09:47:37Z</time></trkpt><trkpt lat="44.68616535117779" lon="9.675785446032974"><ele>1221.0</ele><time>2026-04-06T09:47:39Z</time></trkpt><trkpt lat="44.68620051140908" lon="9.675680857633411"><ele>1223.0</ele><time>2026-04-06T09:47:41Z</time></trkpt><trkpt lat="44.686246672885886" lon="9.675588631163915"><ele>1225.0</ele><time>2026-04-06T09:47:44Z</time></trkpt><trkpt lat="44.68630192218498" lon="9.675524449106863"><ele>1227.0</ele><time>2026-04-06T09:47:46Z</time></trkpt><trkpt lat="44.68637061274895" lon="9.67543094327251"><ele>1229.0</ele><time>2026-04-06T09:47:50Z</time></trkpt><trkpt lat="44.68642930053879" lon="9.675339911888251"><ele>1231.0</ele><time>2026-04-06T09:47:53Z</time></trkpt><trkpt lat="44.68648629960569" lon="9.675261965875826"><ele>1231.6666666666665</ele><time>2026-04-06T09:47:55Z</time></trkpt><trkpt lat="44.68654949313988" lon="9.675198341663233"><ele>1232.3333333333333</ele><time>2026-04-06T09:47:57Z</time></trkpt><trkpt lat="44.68661309086481" lon="9.675106373890445"><ele>1233.0</ele><time>2026-04-06T09:48:00Z</time></trkpt><trkpt lat="44.686632836123266" lon="9.674993079245505"><ele>1233.6666666666667</ele><time>2026-04-06T09:48:03Z</time></trkpt><trkpt lat="44.686634001536184" lon="9.67489904056308"><ele>1234.3333333333335</ele><time>2026-04-06T09:48:05Z</time></trkpt><trkpt lat="44.68662292766611" lon="9.674791158067771"><ele>1235.0</ele><time>2026-04-06T09:48:08Z</time></trkpt><trkpt lat="44.68659738072175" lon="9.674686867464954"><ele>1235.0</ele><time>2026-04-06T09:48:12Z</time></trkpt><trkpt lat="44.686614958099646" lon="9.674559956180103"><ele>1235.0</ele><time>2026-04-06T09:48:15Z</time></trkpt><trkpt lat="44.68661341587169" lon="9.674434598181826"><ele>1235.0</ele><time>2026-04-06T09:48:18Z</time></trkpt><trkpt lat="44.68661760515193" lon="9.674314157663428"><ele>1235.0</ele><time>2026-04-06T09:48:20Z</time></trkpt><trkpt lat="44.68659714955481" lon="9.67417885458412"><ele>1235.0</ele><time>2026-04-06T09:48:23Z</time></trkpt><trkpt lat="44.686618480454236" lon="9.674087339560497"><ele>1235.0</ele><time>2026-04-06T09:48:27Z</time></trkpt><trkpt lat="44.686671754275764" lon="9.673976754288784"><ele>1234.6666666666667</ele><time>2026-04-06T09:48:28Z</time></trkpt><trkpt lat="44.68673010814569" lon="9.674025204260094"><ele>1234.3333333333335</ele><time>2026-04-06T09:48:32Z</time></trkpt><trkpt lat="44.68682876529216" lon="9.674011427465652"><ele>1234.0</ele><time>2026-04-06T09:48:36Z</time></trkpt><trkpt lat="44.686905732582005" lon="9.673974086615358"><ele>1233.6666666666667</ele><time>2026-04-06T09:48:38Z</time></trkpt><trkpt lat="44.68696596779234" lon="9.673917887041494"><ele>1233.3333333333333</ele><time>2026-04-06T09:48:40Z</time></trkpt><trkpt lat="44.687007428788284" lon="9.673829211734148"><ele>1233.0</ele><time>2026-04-06T09:48:42Z</time></trkpt><trkpt lat="44.68706307325062" lon="9.673760070646434"><ele>1231.4</ele><time>2026-04-06T09:48:45Z</time></trkpt><trkpt lat="44.687123957294716" lon="9.673736433768992"><ele>1229.8</ele><time>2026-04-06T09:48:49Z</time></trkpt><trkpt lat="44.68721791346456" lon="9.67372546807513"><ele>1228.2</ele><time>2026-04-06T09:48:52Z</time></trkpt><trkpt lat="44.687323267097426" lon="9.673659320936812"><ele>1226.6</ele><time>2026-04-06T09:48:54Z</time></trkpt><trkpt lat="44.687388081255804" lon="9.67362858404065"><ele>1225.0</ele><time>2026-04-06T09:48:55Z</time></trkpt><trkpt lat="44.687526812659655" lon="9.673586149054188"><ele>1225.0</ele><time>2026-04-06T09:48:57Z</time></trkpt><trkpt lat="44.687605658653695" lon="9.673625079448568"><ele>1225.0</ele><time>2026-04-06T09:49:01Z</time></trkpt><trkpt lat="44.68766773774476" lon="9.67367536793707"><ele>1225.0</ele><time>2026-04-06T09:49:03Z</time></trkpt><trkpt lat="44.687753161279836" lon="9.673708354010346"><ele>1225.0</ele><time>2026-04-06T09:49:04Z</time></trkpt><trkpt lat="44.68785514489758" lon="9.673691105873381"><ele>1225.0</ele><time>2026-04-06T09:49:06Z</time></trkpt><trkpt lat="44.687925059546544" lon="9.673761341681008"><ele>1225.0</ele><time>2026-04-06T09:49:08Z</time></trkpt><trkpt lat="44.68801833588905" lon="9.673790263045275"><ele>1224.4</ele><time>2026-04-06T09:49:09Z</time></trkpt><trkpt lat="44.688102612583286" lon="9.673824439542718"><ele>1223.8</ele><time>2026-04-06T09:49:10Z</time></trkpt><trkpt lat="44.6882067729209" lon="9.6738881561433"><ele>1223.2</ele><time>2026-04-06T09:49:12Z</time></trkpt><trkpt lat="44.68828135963866" lon="9.67398047797505"><ele>1222.6</ele><time>2026-04-06T09:49:14Z</time></trkpt><trkpt lat="44.68834404566681" lon="9.67403961266056"><ele>1222.0</ele><time>2026-04-06T09:49:17Z</time></trkpt><trkpt lat="44.68845331243548" lon="9.674083388900831"><ele>1222.0000000000002</ele><time>2026-04-06T09:49:20Z</time></trkpt><trkpt lat="44.688522067501346" lon="9.67410896505475"><ele>1222.0</ele><time>2026-04-06T09:49:22Z</time></trkpt><trkpt lat="44.6885896381753" lon="9.67411551245028"><ele>1222.0</ele><time>2026-04-06T09:49:25Z</time></trkpt><trkpt lat="44.68866449917894" lon="9.674154701455606"><ele>1222.0</ele><time>2026-04-06T09:49:29Z</time></trkpt><trkpt lat="44.68873850174351" lon="9.67418274983348"><ele>1222.0</ele><time>2026-04-06T09:49:33Z</time></trkpt><trkpt lat="44.68881003136853" lon="9.67415469659746"><ele>1222.0000000000002</ele><time>2026-04-06T09:49:36Z</time></trkpt><trkpt lat="44.688885893930774" lon="9.674152514259498"><ele>1222.0</ele><time>2026-04-06T09:49:40Z</time></trkpt><trkpt lat="44.68895042092289" lon="9.674167234012565"><ele>1222.0</ele><time>2026-04-06T09:49:43Z</time></trkpt><trkpt lat="44.689071965247" lon="9.67417924464151"><ele>1222.0</ele><time>2026-04-06T09:50:21Z</time></trkpt><trkpt lat="44.6891349922808" lon="9.674128593151401"><ele>1222.0</ele><time>2026-04-06T09:50:23Z</time></trkpt><trkpt lat="44.68918425858753" lon="9.674045341918644"><ele>1222.0</ele><time>2026-04-06T09:50:25Z</time></trkpt><trkpt lat="44.68921632181514" lon="9.673958740469876"><ele>1222.0</ele><time>2026-04-06T09:50:27Z</time></trkpt><trkpt lat="44.68934569515338" lon="9.673905510441545"><ele>1222.0</ele><time>2026-04-06T09:50:29Z</time></trkpt><trkpt lat="44.689411154663645" lon="9.673875337386464"><ele>1222.0</ele><time>2026-04-06T09:50:30Z</time></trkpt><trkpt lat="44.68949798920208" lon="9.673867926458442"><ele>1222.0</ele><time>2026-04-06T09:50:33Z</time></trkpt><trkpt lat="44.68955590906332" lon="9.67382384168795"><ele>1222.0</ele><time>2026-04-06T09:50:35Z</time></trkpt><trkpt lat="44.6896570997499" lon="9.673751582336855"><ele>1222.0</ele><time>2026-04-06T09:50:37Z</time></trkpt><trkpt lat="44.68972677613282" lon="9.673725107343596"><ele>1222.0</ele><time>2026-04-06T09:50:40Z</time></trkpt><trkpt lat="44.68979195120982" lon="9.67377339178009"><ele>1223.1428571428573</ele><time>2026-04-06T09:51:35Z</time></trkpt><trkpt lat="44.68985866819495" lon="9.673798047546445"><ele>1224.2857142857142</ele><time>2026-04-06T09:51:46Z</time></trkpt><trkpt lat="44.68990288164396" lon="9.673903516611546"><ele>1225.4285714285716</ele><time>2026-04-06T09:51:48Z</time></trkpt><trkpt lat="44.68995570525469" lon="9.673969405886691"><ele>1226.5714285714287</ele><time>2026-04-06T09:51:50Z</time></trkpt><trkpt lat="44.68999714419647" lon="9.674042395704282"><ele>1227.7142857142858</ele><time>2026-04-06T09:51:51Z</time></trkpt><trkpt lat="44.690035813016735" lon="9.67411398998017"><ele>1228.857142857143</ele><time>2026-04-06T09:51:52Z</time></trkpt><trkpt lat="44.690085415650366" lon="9.674195869075639"><ele>1230.0</ele><time>2026-04-06T09:51:54Z</time></trkpt><trkpt lat="44.69006134290902" lon="9.674101824907835"><ele>1230.0</ele><time>2026-04-06T09:54:21Z</time></trkpt><trkpt lat="44.690037773398814" lon="9.6740118615175"><ele>1230.0</ele><time>2026-04-06T09:54:23Z</time></trkpt><trkpt lat="44.69002845678251" lon="9.673912361731293"><ele>1230.0</ele><time>2026-04-06T09:54:26Z</time></trkpt><trkpt lat="44.68996331996794" lon="9.673893738076996"><ele>1230.0</ele><time>2026-04-06T09:54:30Z</time></trkpt><trkpt lat="44.68990207990251" lon="9.673871328168453"><ele>1230.0</ele><time>2026-04-06T09:54:33Z</time></trkpt><trkpt lat="44.68983942418241" lon="9.673831541481041"><ele>1230.0</ele><time>2026-04-06T09:54:36Z</time></trkpt><trkpt lat="44.68977431128256" lon="9.673792900536052"><ele>1230.0</ele><time>2026-04-06T09:54:40Z</time></trkpt><trkpt lat="44.68986965997709" lon="9.673866231192607"><ele>1230.0</ele><time>2026-04-06T09:55:04Z</time></trkpt><trkpt lat="44.68994806061592" lon="9.673877391023613"><ele>1230.0</ele><time>2026-04-06T09:55:07Z</time></trkpt><trkpt lat="44.69003568142287" lon="9.673826231817015"><ele>1230.0</ele><time>2026-04-06T09:55:09Z</time></trkpt><trkpt lat="44.69008888928085" lon="9.673769510191573"><ele>1230.0</ele><time>2026-04-06T09:55:14Z</time></trkpt><trkpt lat="44.690153655248714" lon="9.673780760199588"><ele>1230.0</ele><time>2026-04-06T09:55:16Z</time></trkpt><trkpt lat="44.69023346824184" lon="9.673806533257029"><ele>1230.0</ele><time>2026-04-06T09:55:19Z</time></trkpt><trkpt lat="44.69030448037262" lon="9.67379163599077"><ele>1231.0</ele><time>2026-04-06T09:55:21Z</time></trkpt><trkpt lat="44.6903403121424" lon="9.673717314717578"><ele>1232.0</ele><time>2026-04-06T09:55:23Z</time></trkpt><trkpt lat="44.69040591465312" lon="9.673656473662149"><ele>1233.0</ele><time>2026-04-06T09:55:25Z</time></trkpt><trkpt lat="44.69050710624463" lon="9.673633853514271"><ele>1234.0</ele><time>2026-04-06T09:55:28Z</time></trkpt><trkpt lat="44.69059676581642" lon="9.673643058439731"><ele>1235.0</ele><time>2026-04-06T09:55:30Z</time></trkpt><trkpt lat="44.69068395727685" lon="9.673645415296678"><ele>1236.0</ele><time>2026-04-06T09:55:32Z</time></trkpt><trkpt lat="44.69075467520429" lon="9.673589281568955"><ele>1236.0000000000002</ele><time>2026-04-06T09:55:34Z</time></trkpt><trkpt lat="44.6908181986689" lon="9.673576872664"><ele>1236.0</ele><time>2026-04-06T09:55:40Z</time></trkpt><trkpt lat="44.690904100007074" lon="9.67359615344044"><ele>1236.0</ele><time>2026-04-06T09:55:45Z</time></trkpt><trkpt lat="44.6909637166014" lon="9.67363111618198"><ele>1236.0</ele><time>2026-04-06T09:55:47Z</time></trkpt><trkpt lat="44.691030550519464" lon="9.673668995856763"><ele>1236.0</ele><time>2026-04-06T09:55:51Z</time></trkpt><trkpt lat="44.69109536757993" lon="9.673685715559095"><ele>1236.0000000000002</ele><time>2026-04-06T09:55:57Z</time></trkpt><trkpt lat="44.69117576025255" lon="9.673653469733532"><ele>1236.0</ele><time>2026-04-06T09:56:06.999Z</time></trkpt><trkpt lat="44.69123973379552" lon="9.673613892320276"><ele>1233.857142857143</ele><time>2026-04-06T09:56:08.999Z</time></trkpt><trkpt lat="44.69121605380724" lon="9.673530705929872"><ele>1231.7142857142858</ele><time>2026-04-06T09:56:17.999Z</time></trkpt><trkpt lat="44.6912166025857" lon="9.673429517761324"><ele>1229.5714285714284</ele><time>2026-04-06T09:56:21.999Z</time></trkpt><trkpt lat="44.69128222595539" lon="9.67339218454774"><ele>1227.4285714285716</ele><time>2026-04-06T09:56:26.999Z</time></trkpt><trkpt lat="44.69134554560328" lon="9.673358202905971"><ele>1225.2857142857142</ele><time>2026-04-06T09:56:31Z</time></trkpt><trkpt lat="44.69140493217569" lon="9.673302937457633"><ele>1223.142857142857</ele><time>2026-04-06T09:56:35Z</time></trkpt><trkpt lat="44.69147790859754" lon="9.673278923385608"><ele>1221.0</ele><time>2026-04-06T09:56:39Z</time></trkpt><trkpt lat="44.691585065790186" lon="9.673270339196419"><ele>1221.0</ele><time>2026-04-06T09:56:45Z</time></trkpt><trkpt lat="44.69165465005568" lon="9.67331412552337"><ele>1221.0</ele><time>2026-04-06T09:56:48Z</time></trkpt><trkpt lat="44.69173751035003" lon="9.673309822483677"><ele>1221.0</ele><time>2026-04-06T09:56:50Z</time></trkpt><trkpt lat="44.69181865527169" lon="9.673325159021898"><ele>1221.0</ele><time>2026-04-06T09:56:52Z</time></trkpt><trkpt lat="44.691891006413506" lon="9.67336307707647"><ele>1221.0</ele><time>2026-04-06T09:56:55Z</time></trkpt><trkpt lat="44.691977854465506" lon="9.67337685976206"><ele>1221.0</ele><time>2026-04-06T09:56:57Z</time></trkpt><trkpt lat="44.692044002321" lon="9.673390023984236"><ele>1220.0</ele><time>2026-04-06T09:56:58Z</time></trkpt><trkpt lat="44.69210231895743" lon="9.673430640634885"><ele>1219.0</ele><time>2026-04-06T09:56:59Z</time></trkpt><trkpt lat="44.69213959050068" lon="9.673544707883797"><ele>1218.0</ele><time>2026-04-06T09:57:01Z</time></trkpt><trkpt lat="44.692095697356244" lon="9.673640550508358"><ele>1217.0</ele><time>2026-04-06T09:57:02Z</time></trkpt><trkpt lat="44.6921897193437" lon="9.673727717534204"><ele>1216.0</ele><time>2026-04-06T09:57:05Z</time></trkpt><trkpt lat="44.69223720877429" lon="9.673793737325907"><ele>1215.0</ele><time>2026-04-06T09:57:06Z</time></trkpt><trkpt lat="44.692291396487384" lon="9.673884394953054"><ele>1217.0</ele><time>2026-04-06T09:57:07Z</time></trkpt><trkpt lat="44.692350075551374" lon="9.673974031677519"><ele>1219.0</ele><time>2026-04-06T09:57:09Z</time></trkpt><trkpt lat="44.69244007120507" lon="9.674047869581443"><ele>1221.0</ele><time>2026-04-06T09:57:12Z</time></trkpt><trkpt lat="44.69252734045545" lon="9.674069550163154"><ele>1223.0</ele><time>2026-04-06T09:57:14Z</time></trkpt><trkpt lat="44.69259878883618" lon="9.67409567383627"><ele>1225.0</ele><time>2026-04-06T09:57:16Z</time></trkpt><trkpt lat="44.692664571004535" lon="9.67412281246488"><ele>1227.0</ele><time>2026-04-06T09:57:18Z</time></trkpt><trkpt lat="44.69272918634858" lon="9.674131547534138"><ele>1227.0</ele><time>2026-04-06T09:57:21Z</time></trkpt><trkpt lat="44.69272698056545" lon="9.674033238794783"><ele>1227.0</ele><time>2026-04-06T09:57:24Z</time></trkpt><trkpt lat="44.69271058659353" lon="9.673872831337636"><ele>1227.0</ele><time>2026-04-06T09:57:26Z</time></trkpt><trkpt lat="44.69273726648554" lon="9.673726941726724"><ele>1227.0</ele><time>2026-04-06T09:57:28Z</time></trkpt><trkpt lat="44.6927619091821" lon="9.6736240004803"><ele>1227.0</ele><time>2026-04-06T09:57:30Z</time></trkpt><trkpt lat="44.69278662141591" lon="9.673497827332456"><ele>1227.75</ele><time>2026-04-06T09:57:34Z</time></trkpt><trkpt lat="44.692834546674604" lon="9.673221764167232"><ele>1228.5</ele><time>2026-04-06T09:57:36Z</time></trkpt><trkpt lat="44.69284131098917" lon="9.6731249619473"><ele>1229.25</ele><time>2026-04-06T09:57:37Z</time></trkpt><trkpt lat="44.692871945464425" lon="9.672972027635375"><ele>1230.0</ele><time>2026-04-06T09:57:39Z</time></trkpt><trkpt lat="44.692935036538614" lon="9.672888959411742"><ele>1230.0</ele><time>2026-04-06T09:57:41Z</time></trkpt><trkpt lat="44.69297761314622" lon="9.67296495899079"><ele>1230.0</ele><time>2026-04-06T09:57:44Z</time></trkpt><trkpt lat="44.693036429883946" lon="9.672999247125547"><ele>1230.0</ele><time>2026-04-06T09:57:45Z</time></trkpt><trkpt lat="44.693129117192356" lon="9.672994083929996"><ele>1230.0</ele><time>2026-04-06T09:57:46.999Z</time></trkpt><trkpt lat="44.693152998294735" lon="9.672894484539782"><ele>1230.0</ele><time>2026-04-06T09:57:50.999Z</time></trkpt><trkpt lat="44.693157808343" lon="9.672804893718888"><ele>1230.0</ele><time>2026-04-06T09:57:54.999Z</time></trkpt><trkpt lat="44.6931547769867" lon="9.672715632800834"><ele>1230.0</ele><time>2026-04-06T09:57:57.999Z</time></trkpt><trkpt lat="44.693141322529776" lon="9.67261919773319"><ele>1228.6666666666667</ele><time>2026-04-06T09:58:16.999Z</time></trkpt><trkpt lat="44.69313722628211" lon="9.672498000204582"><ele>1227.3333333333333</ele><time>2026-04-06T09:58:18.999Z</time></trkpt><trkpt lat="44.69317576268117" lon="9.672371878596623"><ele>1226.0</ele><time>2026-04-06T09:58:20.999Z</time></trkpt><trkpt lat="44.693234359330795" lon="9.672245429597577"><ele>1224.6666666666665</ele><time>2026-04-06T09:58:22.999Z</time></trkpt><trkpt lat="44.693286758317065" lon="9.672192722340428"><ele>1223.3333333333333</ele><time>2026-04-06T09:58:24.999Z</time></trkpt><trkpt lat="44.693352676556174" lon="9.672160648325288"><ele>1222.0</ele><time>2026-04-06T09:58:26.999Z</time></trkpt><trkpt lat="44.69342940280454" lon="9.672166773224546"><ele>1222.0</ele><time>2026-04-06T09:58:28.999Z</time></trkpt><trkpt lat="44.69347718697998" lon="9.672079353266737"><ele>1222.0</ele><time>2026-04-06T09:58:30.999Z</time></trkpt><trkpt lat="44.69354302711692" lon="9.671983505499037"><ele>1222.0</ele><time>2026-04-06T09:58:32.999Z</time></trkpt><trkpt lat="44.69359511786918" lon="9.671902635826287"><ele>1222.0</ele><time>2026-04-06T09:58:36Z</time></trkpt><trkpt lat="44.69363256338746" lon="9.671752225520972"><ele>1222.0</ele><time>2026-04-06T09:58:39Z</time></trkpt><trkpt lat="44.693692394664275" lon="9.671684077554339"><ele>1222.0</ele><time>2026-04-06T09:58:40Z</time></trkpt><trkpt lat="44.69372551594561" lon="9.671601206477892"><ele>1223.6</ele><time>2026-04-06T09:58:41Z</time></trkpt><trkpt lat="44.69376760322964" lon="9.671506269849953"><ele>1225.2</ele><time>2026-04-06T09:58:45Z</time></trkpt><trkpt lat="44.69380258494544" lon="9.671402088083356"><ele>1226.8</ele><time>2026-04-06T09:58:47Z</time></trkpt><trkpt lat="44.6939196395097" lon="9.67139475746548"><ele>1228.4</ele><time>2026-04-06T09:58:50Z</time></trkpt><trkpt lat="44.693965494817725" lon="9.671294832819362"><ele>1230.0</ele><time>2026-04-06T09:58:52Z</time></trkpt><trkpt lat="44.694060610215956" lon="9.67126460939562"><ele>1230.0</ele><time>2026-04-06T09:58:55Z</time></trkpt><trkpt lat="44.694162030156285" lon="9.671265567055187"><ele>1230.0</ele><time>2026-04-06T09:58:57Z</time></trkpt><trkpt lat="44.694244100777595" lon="9.67124272958653"><ele>1230.0</ele><time>2026-04-06T09:58:59Z</time></trkpt><trkpt lat="44.69432342810404" lon="9.671219594322194"><ele>1230.0</ele><time>2026-04-06T09:59:01Z</time></trkpt><trkpt lat="44.6944113421189" lon="9.671215303001611"><ele>1230.0</ele><time>2026-04-06T09:59:03Z</time></trkpt><trkpt lat="44.69446747600236" lon="9.671173541607736"><ele>1230.0</ele><time>2026-04-06T09:59:05Z</time></trkpt><trkpt lat="44.694495769857916" lon="9.671071994853571"><ele>1230.0</ele><time>2026-04-06T09:59:07Z</time></trkpt><trkpt lat="44.694577126518936" lon="9.671066161383223"><ele>1230.0</ele><time>2026-04-06T09:59:10Z</time></trkpt><trkpt lat="44.69467571276623" lon="9.671052009239698"><ele>1230.0</ele><time>2026-04-06T09:59:12Z</time></trkpt><trkpt lat="44.69477200026974" lon="9.67098132626527"><ele>1230.0</ele><time>2026-04-06T09:59:14Z</time></trkpt><trkpt lat="44.694857995515235" lon="9.670921421338365"><ele>1230.0</ele><time>2026-04-06T09:59:16Z</time></trkpt><trkpt lat="44.69491715157615" lon="9.670860046767878"><ele>1230.0</ele><time>2026-04-06T09:59:18Z</time></trkpt><trkpt lat="44.6949790587373" lon="9.670810060047891"><ele>1230.0</ele><time>2026-04-06T09:59:20Z</time></trkpt><trkpt lat="44.695054756582564" lon="9.670803393287875"><ele>1230.0</ele><time>2026-04-06T09:59:25Z</time></trkpt><trkpt lat="44.69511504256041" lon="9.670767246530685"><ele>1230.0</ele><time>2026-04-06T09:59:27Z</time></trkpt><trkpt lat="44.69516233700239" lon="9.670684844973175"><ele>1230.0</ele><time>2026-04-06T09:59:34Z</time></trkpt><trkpt lat="44.695211357885725" lon="9.670577922891194"><ele>1230.0</ele><time>2026-04-06T09:59:37Z</time></trkpt><trkpt lat="44.69525394196256" lon="9.670459441597613"><ele>1234.5</ele><time>2026-04-06T09:59:40Z</time></trkpt><trkpt lat="44.695305106905344" lon="9.670362778823193"><ele>1239.0</ele><time>2026-04-06T09:59:43Z</time></trkpt><trkpt lat="44.69536668371801" lon="9.670301248357694"><ele>1243.5</ele><time>2026-04-06T10:00:24.999Z</time></trkpt><trkpt lat="44.695449941187185" lon="9.670242841533423"><ele>1248.0</ele><time>2026-04-06T10:00:26.999Z</time></trkpt><trkpt lat="44.695490636396265" lon="9.670170025605286"><ele>1252.5</ele><time>2026-04-06T10:00:28.999Z</time></trkpt><trkpt lat="44.69551094410512" lon="9.670053460392161"><ele>1257.0</ele><time>2026-04-06T10:00:30.999Z</time></trkpt><trkpt lat="44.69556500510101" lon="9.669938793747477"><ele>1257.0</ele><time>2026-04-06T10:00:32.999Z</time></trkpt><trkpt lat="44.69556145967013" lon="9.669807576759633"><ele>1257.0</ele><time>2026-04-06T10:00:35.999Z</time></trkpt><trkpt lat="44.695591645580095" lon="9.669708532577593"><ele>1257.0</ele><time>2026-04-06T10:00:39.999Z</time></trkpt><trkpt lat="44.695671987615945" lon="9.669629337209443"><ele>1257.0</ele><time>2026-04-06T10:00:44Z</time></trkpt><trkpt lat="44.69572340477437" lon="9.669547770700785"><ele>1257.0</ele><time>2026-04-06T10:00:46Z</time></trkpt><trkpt lat="44.69576986937445" lon="9.669483453096305"><ele>1257.0</ele><time>2026-04-06T10:00:49Z</time></trkpt><trkpt lat="44.69582861618649" lon="9.66940885519725"><ele>1254.3333333333333</ele><time>2026-04-06T10:00:51Z</time></trkpt><trkpt lat="44.69584098426667" lon="9.669296080119048"><ele>1251.6666666666667</ele><time>2026-04-06T10:00:53Z</time></trkpt><trkpt lat="44.695902526554995" lon="9.669237536709586"><ele>1249.0</ele><time>2026-04-06T10:00:56Z</time></trkpt><trkpt lat="44.69593858851261" lon="9.669152000698253"><ele>1246.3333333333335</ele><time>2026-04-06T10:00:59Z</time></trkpt><trkpt lat="44.69596351592636" lon="9.669067792753676"><ele>1243.6666666666667</ele><time>2026-04-06T10:01:02Z</time></trkpt><trkpt lat="44.695968521888574" lon="9.668958067031769"><ele>1241.0</ele><time>2026-04-06T10:01:04Z</time></trkpt><trkpt lat="44.696027346460895" lon="9.668839834175943"><ele>1241.0</ele><time>2026-04-06T10:01:05Z</time></trkpt><trkpt lat="44.69603971717243" lon="9.668692782807218"><ele>1241.0</ele><time>2026-04-06T10:01:07Z</time></trkpt><trkpt lat="44.69603548172937" lon="9.668593565716971"><ele>1241.0</ele><time>2026-04-06T10:01:09Z</time></trkpt><trkpt lat="44.69605750583391" lon="9.668488617816221"><ele>1241.0</ele><time>2026-04-06T10:01:11Z</time></trkpt><trkpt lat="44.69605926830554" lon="9.668392043268222"><ele>1241.0</ele><time>2026-04-06T10:01:13Z</time></trkpt><trkpt lat="44.69611805123499" lon="9.66834435199727"><ele>1241.0</ele><time>2026-04-06T10:01:16Z</time></trkpt><trkpt lat="44.69617573176214" lon="9.668272186701062"><ele>1242.6</ele><time>2026-04-06T10:01:19Z</time></trkpt><trkpt lat="44.6962772737255" lon="9.668257561816146"><ele>1244.1999999999998</ele><time>2026-04-06T10:01:21Z</time></trkpt><trkpt lat="44.696371982160315" lon="9.668285354383725"><ele>1245.8000000000002</ele><time>2026-04-06T10:01:23Z</time></trkpt><trkpt lat="44.696452852926946" lon="9.668299925385908"><ele>1247.4</ele><time>2026-04-06T10:01:24Z</time></trkpt><trkpt lat="44.69653500996703" lon="9.668322776396089"><ele>1249.0</ele><time>2026-04-06T10:01:26Z</time></trkpt><trkpt lat="44.696616937483284" lon="9.668266930136435"><ele>1249.0</ele><time>2026-04-06T10:01:28Z</time></trkpt><trkpt lat="44.6966918454853" lon="9.668281862694696"><ele>1249.0</ele><time>2026-04-06T10:01:30Z</time></trkpt><trkpt lat="44.69678048665744" lon="9.668312422727052"><ele>1249.0</ele><time>2026-04-06T10:01:31.999Z</time></trkpt><trkpt lat="44.69684287541704" lon="9.668367465555088"><ele>1249.0</ele><time>2026-04-06T10:01:33.999Z</time></trkpt><trkpt lat="44.696938067758175" lon="9.668429625183839"><ele>1249.0</ele><time>2026-04-06T10:01:35.999Z</time></trkpt><trkpt lat="44.69701304552076" lon="9.6684199099768"><ele>1249.0</ele><time>2026-04-06T10:01:36.999Z</time></trkpt><trkpt lat="44.69709641491447" lon="9.668406658753785"><ele>1249.2</ele><time>2026-04-06T10:01:37.999Z</time></trkpt><trkpt lat="44.69717292003324" lon="9.668406722330628"><ele>1249.4</ele><time>2026-04-06T10:01:38.999Z</time></trkpt><trkpt lat="44.69727807234923" lon="9.66841437129443"><ele>1249.6</ele><time>2026-04-06T10:01:40.999Z</time></trkpt><trkpt lat="44.69740503450058" lon="9.668478635465304"><ele>1249.8</ele><time>2026-04-06T10:01:42.999Z</time></trkpt><trkpt lat="44.69746862700894" lon="9.668489459953422"><ele>1250.0</ele><time>2026-04-06T10:01:43.999Z</time></trkpt><trkpt lat="44.697538441542406" lon="9.668473392786321"><ele>1250.0</ele><time>2026-04-06T10:01:46.999Z</time></trkpt><trkpt lat="44.69760492807436" lon="9.668517704934242"><ele>1250.0</ele><time>2026-04-06T10:01:48.999Z</time></trkpt><trkpt lat="44.697654821106696" lon="9.668588122332915"><ele>1250.0</ele><time>2026-04-06T10:01:50.999Z</time></trkpt><trkpt lat="44.6977334363555" lon="9.668557623090607"><ele>1250.0</ele><time>2026-04-06T10:01:53.999Z</time></trkpt><trkpt lat="44.69781447593029" lon="9.668589287057443"><ele>1250.0</ele><time>2026-04-06T10:01:57.999Z</time></trkpt><trkpt lat="44.69787984937581" lon="9.668686002065982"><ele>1250.0</ele><time>2026-04-06T10:02:00.999Z</time></trkpt><trkpt lat="44.69794228453328" lon="9.668731789183909"><ele>1251.5</ele><time>2026-04-06T10:02:02.999Z</time></trkpt><trkpt lat="44.69802158186218" lon="9.66876676071498"><ele>1253.0</ele><time>2026-04-06T10:02:04.999Z</time></trkpt><trkpt lat="44.698095072930904" lon="9.668796682600043"><ele>1254.5</ele><time>2026-04-06T10:02:06.999Z</time></trkpt><trkpt lat="44.69817083160537" lon="9.668812873660372"><ele>1256.0</ele><time>2026-04-06T10:02:07.999Z</time></trkpt><trkpt lat="44.69826418977933" lon="9.668825588807962"><ele>1257.5</ele><time>2026-04-06T10:02:10.999Z</time></trkpt><trkpt lat="44.698377752944" lon="9.668830793005233"><ele>1259.0</ele><time>2026-04-06T10:02:12.999Z</time></trkpt><trkpt lat="44.6984545416567" lon="9.668886912216632"><ele>1259.0</ele><time>2026-04-06T10:02:14.999Z</time></trkpt><trkpt lat="44.69851515141821" lon="9.668926477555535"><ele>1259.0</ele><time>2026-04-06T10:02:16.999Z</time></trkpt><trkpt lat="44.69861682144904" lon="9.668929319813579"><ele>1259.0</ele><time>2026-04-06T10:02:19.999Z</time></trkpt><trkpt lat="44.698681456074375" lon="9.668980240013004"><ele>1259.0</ele><time>2026-04-06T10:02:21.999Z</time></trkpt><trkpt lat="44.69876153375287" lon="9.669069547328652"><ele>1259.0</ele><time>2026-04-06T10:02:24.999Z</time></trkpt><trkpt lat="44.69882273157742" lon="9.669168692023339"><ele>1259.0</ele><time>2026-04-06T10:02:26.999Z</time></trkpt><trkpt lat="44.698879486993974" lon="9.669239729849474"><ele>1258.1666666666667</ele><time>2026-04-06T10:02:28.999Z</time></trkpt><trkpt lat="44.69896611620528" lon="9.669274890392789"><ele>1257.3333333333335</ele><time>2026-04-06T10:02:30.999Z</time></trkpt><trkpt lat="44.69903401555276" lon="9.669301217802145"><ele>1256.5</ele><time>2026-04-06T10:02:32.999Z</time></trkpt><trkpt lat="44.69910745789254" lon="9.669317533637388"><ele>1255.6666666666667</ele><time>2026-04-06T10:02:35.999Z</time></trkpt><trkpt lat="44.69919207830405" lon="9.669320170656187"><ele>1254.8333333333333</ele><time>2026-04-06T10:02:38.999Z</time></trkpt><trkpt lat="44.699253735758795" lon="9.669360371499712"><ele>1254.0</ele><time>2026-04-06T10:02:41.999Z</time></trkpt><trkpt lat="44.699330760408756" lon="9.669453175992997"><ele>1254.0</ele><time>2026-04-06T10:02:43.999Z</time></trkpt><trkpt lat="44.69939765690157" lon="9.669524547263043"><ele>1254.0</ele><time>2026-04-06T10:02:44.999Z</time></trkpt><trkpt lat="44.69946069789896" lon="9.66961329089873"><ele>1254.0</ele><time>2026-04-06T10:02:47Z</time></trkpt><trkpt lat="44.69952580248995" lon="9.669621844410615"><ele>1254.0</ele><time>2026-04-06T10:02:51Z</time></trkpt><trkpt lat="44.699614972522454" lon="9.669664522670685"><ele>1254.0</ele><time>2026-04-06T10:02:54Z</time></trkpt><trkpt lat="44.69969016595229" lon="9.669722681783194"><ele>1254.0</ele><time>2026-04-06T10:02:57Z</time></trkpt><trkpt lat="44.69975609623499" lon="9.669751733879806"><ele>1248.75</ele><time>2026-04-06T10:03:00Z</time></trkpt><trkpt lat="44.69983668758821" lon="9.669755392801074"><ele>1243.5</ele><time>2026-04-06T10:03:04Z</time></trkpt><trkpt lat="44.69992224200286" lon="9.669751045556762"><ele>1238.25</ele><time>2026-04-06T10:03:06Z</time></trkpt><trkpt lat="44.69998985677368" lon="9.669783740688231"><ele>1233.0</ele><time>2026-04-06T10:03:08Z</time></trkpt><trkpt lat="44.700209658914915" lon="9.66983239345089"><ele>1230.1666666666667</ele><time>2026-04-06T10:03:10Z</time></trkpt><trkpt lat="44.70028801326961" lon="9.66987542864009"><ele>1227.3333333333333</ele><time>2026-04-06T10:03:12Z</time></trkpt><trkpt lat="44.70035892823642" lon="9.669923126315638"><ele>1224.5</ele><time>2026-04-06T10:03:14Z</time></trkpt><trkpt lat="44.700442212095695" lon="9.669915987633226"><ele>1221.6666666666665</ele><time>2026-04-06T10:03:17Z</time></trkpt><trkpt lat="44.700497038865315" lon="9.66985963351873"><ele>1218.8333333333333</ele><time>2026-04-06T10:03:19.999Z</time></trkpt><trkpt lat="44.70054157774198" lon="9.669689550799365"><ele>1216.0</ele><time>2026-04-06T10:03:21.999Z</time></trkpt><trkpt lat="44.70057436739193" lon="9.66957777022848"><ele>1216.0</ele><time>2026-04-06T10:03:23.999Z</time></trkpt><trkpt lat="44.700607291156" lon="9.669484530893476"><ele>1216.0</ele><time>2026-04-06T10:03:25.999Z</time></trkpt><trkpt lat="44.70066104548795" lon="9.669417854005175"><ele>1216.0</ele><time>2026-04-06T10:03:27.999Z</time></trkpt><trkpt lat="44.70072702286306" lon="9.669367733168734"><ele>1216.0</ele><time>2026-04-06T10:03:28.999Z</time></trkpt><trkpt lat="44.700807024001776" lon="9.669293411222025"><ele>1216.0</ele><time>2026-04-06T10:03:30.999Z</time></trkpt><trkpt lat="44.7008889915559" lon="9.669214898258918"><ele>1216.0</ele><time>2026-04-06T10:03:32.999Z</time></trkpt><trkpt lat="44.70096446842725" lon="9.669192187203832"><ele>1216.3333333333333</ele><time>2026-04-06T10:03:34.999Z</time></trkpt><trkpt lat="44.701025357190616" lon="9.66914854254491"><ele>1216.6666666666665</ele><time>2026-04-06T10:03:36.999Z</time></trkpt><trkpt lat="44.701090743866544" lon="9.669112467472248"><ele>1217.0</ele><time>2026-04-06T10:03:38.999Z</time></trkpt><trkpt lat="44.70118558734087" lon="9.66901128350064"><ele>1217.3333333333333</ele><time>2026-04-06T10:03:40.999Z</time></trkpt><trkpt lat="44.701232314251" lon="9.668932501813725"><ele>1217.6666666666667</ele><time>2026-04-06T10:03:43.999Z</time></trkpt><trkpt lat="44.70129770040034" lon="9.66889420010694"><ele>1218.0</ele><time>2026-04-06T10:03:45.999Z</time></trkpt><trkpt lat="44.701369474347885" lon="9.668852555616121"><ele>1215.8333333333333</ele><time>2026-04-06T10:03:48.999Z</time></trkpt><trkpt lat="44.701437288680694" lon="9.668893889170574"><ele>1213.6666666666667</ele><time>2026-04-06T10:03:54.999Z</time></trkpt><trkpt lat="44.70151276059406" lon="9.668936594290708"><ele>1211.5</ele><time>2026-04-06T10:03:59.999Z</time></trkpt><trkpt lat="44.70157690248623" lon="9.668832716724179"><ele>1209.3333333333335</ele><time>2026-04-06T10:04:02.999Z</time></trkpt><trkpt lat="44.701574251450644" lon="9.668713843365973"><ele>1207.1666666666667</ele><time>2026-04-06T10:04:04.999Z</time></trkpt><trkpt lat="44.701650358525995" lon="9.668679540480284"><ele>1205.0</ele><time>2026-04-06T10:04:06.999Z</time></trkpt><trkpt lat="44.70173317225778" lon="9.668662775647457"><ele>1205.0</ele><time>2026-04-06T10:04:08.999Z</time></trkpt><trkpt lat="44.7018308852894" lon="9.668614252783374"><ele>1205.0</ele><time>2026-04-06T10:04:11.999Z</time></trkpt><trkpt lat="44.70191507149315" lon="9.668553482749083"><ele>1205.0</ele><time>2026-04-06T10:04:17Z</time></trkpt><trkpt lat="44.70197952290282" lon="9.668490145971829"><ele>1205.0</ele><time>2026-04-06T10:04:20Z</time></trkpt><trkpt lat="44.70205568188747" lon="9.668386811117937"><ele>1205.0</ele><time>2026-04-06T10:04:23Z</time></trkpt><trkpt lat="44.702114350482475" lon="9.66827008974379"><ele>1204.0</ele><time>2026-04-06T10:04:27Z</time></trkpt><trkpt lat="44.70216041977123" lon="9.668188038044978"><ele>1203.0</ele><time>2026-04-06T10:04:29Z</time></trkpt><trkpt lat="44.70222697627268" lon="9.668181489755161"><ele>1202.0</ele><time>2026-04-06T10:04:31Z</time></trkpt><trkpt lat="44.70229396107047" lon="9.668165753561707"><ele>1201.0</ele><time>2026-04-06T10:04:33Z</time></trkpt><trkpt lat="44.702362591295284" lon="9.66808477235849"><ele>1200.0</ele><time>2026-04-06T10:04:35Z</time></trkpt><trkpt lat="44.70242823063135" lon="9.667999892287176"><ele>1199.0</ele><time>2026-04-06T10:04:37Z</time></trkpt><trkpt lat="44.70250784042533" lon="9.66794639332263"><ele>1199.0</ele><time>2026-04-06T10:04:39Z</time></trkpt><trkpt lat="44.70260762785937" lon="9.667905837348272"><ele>1199.0</ele><time>2026-04-06T10:04:41Z</time></trkpt><trkpt lat="44.702664688178146" lon="9.6678641350076"><ele>1199.0</ele><time>2026-04-06T10:04:42Z</time></trkpt><trkpt lat="44.70272813811309" lon="9.667770678222785"><ele>1199.0</ele><time>2026-04-06T10:04:45Z</time></trkpt><trkpt lat="44.70279425052108" lon="9.667710970059916"><ele>1199.0</ele><time>2026-04-06T10:04:48Z</time></trkpt><trkpt lat="44.70284957759424" lon="9.667655031466468"><ele>1199.0</ele><time>2026-04-06T10:04:51Z</time></trkpt><trkpt lat="44.70289839094464" lon="9.667592607392013"><ele>1199.0</ele><time>2026-04-06T10:04:56.001Z</time></trkpt><trkpt lat="44.7029534265417" lon="9.667529432808989"><ele>1199.0</ele><time>2026-04-06T10:05:00.001Z</time></trkpt><trkpt lat="44.70303325724522" lon="9.66750318657411"><ele>1199.0</ele><time>2026-04-06T10:05:03.001Z</time></trkpt><trkpt lat="44.703100193111915" lon="9.66749807312404"><ele>1199.0</ele><time>2026-04-06T10:05:06.001Z</time></trkpt><trkpt lat="44.703187529694446" lon="9.6674939643945"><ele>1199.0</ele><time>2026-04-06T10:05:08.001Z</time></trkpt><trkpt lat="44.703269699685826" lon="9.667425965210239"><ele>1199.0</ele><time>2026-04-06T10:05:11.001Z</time></trkpt><trkpt lat="44.703316510643496" lon="9.667358171193024"><ele>1199.0</ele><time>2026-04-06T10:05:12.001Z</time></trkpt><trkpt lat="44.70338135734406" lon="9.6673220988435"><ele>1199.0</ele><time>2026-04-06T10:05:14.001Z</time></trkpt><trkpt lat="44.7034477971671" lon="9.66732117746405"><ele>1199.0</ele><time>2026-04-06T10:05:17.001Z</time></trkpt><trkpt lat="44.703529640446504" lon="9.667299938616127"><ele>1199.0</ele><time>2026-04-06T10:05:19.001Z</time></trkpt><trkpt lat="44.70360090006804" lon="9.667298989627016"><ele>1199.0</ele><time>2026-04-06T10:05:21.001Z</time></trkpt><trkpt lat="44.70367431283599" lon="9.667250367223701"><ele>1199.0</ele><time>2026-04-06T10:05:23Z</time></trkpt><trkpt lat="44.70378335913163" lon="9.667160336124615"><ele>1200.3333333333335</ele><time>2026-04-06T10:05:25Z</time></trkpt><trkpt lat="44.703839664258474" lon="9.667082030721435"><ele>1201.6666666666667</ele><time>2026-04-06T10:05:27Z</time></trkpt><trkpt lat="44.70386693172278" lon="9.66699514903395"><ele>1203.0</ele><time>2026-04-06T10:05:29Z</time></trkpt><trkpt lat="44.703918171972155" lon="9.66690732397844"><ele>1204.3333333333333</ele><time>2026-04-06T10:05:31Z</time></trkpt><trkpt lat="44.703992951233" lon="9.666889263592404"><ele>1205.6666666666665</ele><time>2026-04-06T10:05:33Z</time></trkpt><trkpt lat="44.70410613781943" lon="9.666814052398431"><ele>1207.0</ele><time>2026-04-06T10:05:35Z</time></trkpt><trkpt lat="44.70415526722831" lon="9.66673085568443"><ele>1208.0</ele><time>2026-04-06T10:05:37Z</time></trkpt><trkpt lat="44.70420850129807" lon="9.666669868738039"><ele>1209.0</ele><time>2026-04-06T10:05:40Z</time></trkpt><trkpt lat="44.70424684534954" lon="9.666594827951355"><ele>1210.0</ele><time>2026-04-06T10:06:06Z</time></trkpt><trkpt lat="44.70431947616029" lon="9.66656193047303"><ele>1211.0</ele><time>2026-04-06T10:06:31Z</time></trkpt><trkpt lat="44.70438626940992" lon="9.666529566485538"><ele>1212.0</ele><time>2026-04-06T10:06:35Z</time></trkpt><trkpt lat="44.704431316216635" lon="9.666445094069687"><ele>1213.0</ele><time>2026-04-06T10:07:14.001Z</time></trkpt><trkpt lat="44.704461511137005" lon="9.66629284574488"><ele>1214.0</ele><time>2026-04-06T10:09:38Z</time></trkpt><trkpt lat="44.70447439542897" lon="9.666199730776201"><ele>1215.0</ele><time>2026-04-06T10:09:41Z</time></trkpt><trkpt lat="44.70451634454033" lon="9.666129557369487"><ele>1216.0</ele><time>2026-04-06T10:09:44Z</time></trkpt><trkpt lat="44.704559944089134" lon="9.666030185447788"><ele>1217.0</ele><time>2026-04-06T10:09:45Z</time></trkpt><trkpt lat="44.70457595780649" lon="9.665938172378327"><ele>1218.0</ele><time>2026-04-06T10:09:47Z</time></trkpt><trkpt lat="44.704593626823886" lon="9.665824829254383"><ele>1219.0</ele><time>2026-04-06T10:09:49Z</time></trkpt><trkpt lat="44.70461851926933" lon="9.665739413965829"><ele>1220.0</ele><time>2026-04-06T10:09:51Z</time></trkpt><trkpt lat="44.704638784769834" lon="9.66561236653438"><ele>1221.0</ele><time>2026-04-06T10:09:53Z</time></trkpt><trkpt lat="44.704670072893826" lon="9.665524447317162"><ele>1222.0</ele><time>2026-04-06T10:09:55Z</time></trkpt><trkpt lat="44.70470881171962" lon="9.665426209113965"><ele>1223.0</ele><time>2026-04-06T10:09:57Z</time></trkpt><trkpt lat="44.704740291452055" lon="9.665345960546873"><ele>1224.0</ele><time>2026-04-06T10:09:59Z</time></trkpt><trkpt lat="44.70479639203531" lon="9.665209874208372"><ele>1225.0</ele><time>2026-04-06T10:10:01Z</time></trkpt><trkpt lat="44.70482748364332" lon="9.665129118183003"><ele>1226.0</ele><time>2026-04-06T10:10:03Z</time></trkpt><trkpt lat="44.70486285273033" lon="9.665001350374919"><ele>1226.8333333333335</ele><time>2026-04-06T10:10:05Z</time></trkpt><trkpt lat="44.70491550365602" lon="9.664943711175516"><ele>1227.6666666666667</ele><time>2026-04-06T10:10:07Z</time></trkpt><trkpt lat="44.70493614997167" lon="9.664817735358152"><ele>1228.5</ele><time>2026-04-06T10:10:09Z</time></trkpt><trkpt lat="44.704949570627036" lon="9.66465424689307"><ele>1229.3333333333333</ele><time>2026-04-06T10:10:11Z</time></trkpt><trkpt lat="44.7049373299652" lon="9.664526555654968"><ele>1230.1666666666665</ele><time>2026-04-06T10:10:13Z</time></trkpt><trkpt lat="44.704954785144515" lon="9.664436903838274"><ele>1231.0</ele><time>2026-04-06T10:10:15Z</time></trkpt><trkpt lat="44.70496009256562" lon="9.664324880915384"><ele>1231.6</ele><time>2026-04-06T10:10:17Z</time></trkpt><trkpt lat="44.70490988259647" lon="9.664257565545745"><ele>1232.1999999999998</ele><time>2026-04-06T10:10:20Z</time></trkpt><trkpt lat="44.70492341852721" lon="9.664147452941508"><ele>1232.8000000000002</ele><time>2026-04-06T10:10:22Z</time></trkpt><trkpt lat="44.70488875065806" lon="9.664000494043899"><ele>1233.4</ele><time>2026-04-06T10:10:24Z</time></trkpt><trkpt lat="44.704925704731174" lon="9.663912114780977"><ele>1234.0</ele><time>2026-04-06T10:10:27Z</time></trkpt><trkpt lat="44.70500838297467" lon="9.66377795931556"><ele>1233.6666666666665</ele><time>2026-04-06T10:10:28Z</time></trkpt><trkpt lat="44.705041388103744" lon="9.663607965379107"><ele>1233.3333333333333</ele><time>2026-04-06T10:10:30Z</time></trkpt><trkpt lat="44.70504958444645" lon="9.663511231370853"><ele>1233.0</ele><time>2026-04-06T10:10:31Z</time></trkpt><trkpt lat="44.705057514415756" lon="9.663416697632366"><ele>1232.6666666666667</ele><time>2026-04-06T10:10:32Z</time></trkpt><trkpt lat="44.70506687977571" lon="9.663324980811499"><ele>1232.3333333333335</ele><time>2026-04-06T10:10:33Z</time></trkpt><trkpt lat="44.70507465545053" lon="9.663233219733122"><ele>1232.0</ele><time>2026-04-06T10:10:34Z</time></trkpt><trkpt lat="44.70507041257957" lon="9.663067572330858"><ele>1232.0</ele><time>2026-04-06T10:10:36Z</time></trkpt><trkpt lat="44.70510103503116" lon="9.662923712284817"><ele>1232.0</ele><time>2026-04-06T10:10:38Z</time></trkpt><trkpt lat="44.70509446278745" lon="9.662770796293263"><ele>1232.0</ele><time>2026-04-06T10:10:39Z</time></trkpt><trkpt lat="44.70517630900017" lon="9.662605438817225"><ele>1232.0</ele><time>2026-04-06T10:10:41Z</time></trkpt><trkpt lat="44.705205629827766" lon="9.662521262752275"><ele>1232.0</ele><time>2026-04-06T10:10:42Z</time></trkpt><trkpt lat="44.70528415270211" lon="9.66240995510404"><ele>1234.2</ele><time>2026-04-06T10:10:44Z</time></trkpt><trkpt lat="44.705335741014096" lon="9.662338259703075"><ele>1236.4</ele><time>2026-04-06T10:10:45Z</time></trkpt><trkpt lat="44.705381603748904" lon="9.662251171112976"><ele>1238.6</ele><time>2026-04-06T10:10:46Z</time></trkpt><trkpt lat="44.70542791297435" lon="9.662168727219937"><ele>1240.8</ele><time>2026-04-06T10:10:47Z</time></trkpt><trkpt lat="44.70547034264005" lon="9.662020413018146"><ele>1243.0</ele><time>2026-04-06T10:10:49Z</time></trkpt><trkpt lat="44.70552399477205" lon="9.661864882583194"><ele>1243.0</ele><time>2026-04-06T10:10:51Z</time></trkpt><trkpt lat="44.70556438261624" lon="9.661759372058158"><ele>1243.0</ele><time>2026-04-06T10:10:52Z</time></trkpt><trkpt lat="44.70561930098403" lon="9.661660450072223"><ele>1243.0</ele><time>2026-04-06T10:10:53Z</time></trkpt><trkpt lat="44.70567076454793" lon="9.661577399391359"><ele>1243.0</ele><time>2026-04-06T10:10:54Z</time></trkpt><trkpt lat="44.70564943158908" lon="9.66142890860109"><ele>1243.0</ele><time>2026-04-06T10:10:56Z</time></trkpt><trkpt lat="44.70560322068696" lon="9.6613424960625"><ele>1243.0</ele><time>2026-04-06T10:10:58Z</time></trkpt><trkpt lat="44.705552203311896" lon="9.6612289402516"><ele>1243.0</ele><time>2026-04-06T10:11:00Z</time></trkpt><trkpt lat="44.70552166398898" lon="9.661149345484915"><ele>1243.0</ele><time>2026-04-06T10:11:01Z</time></trkpt><trkpt lat="44.70549854193589" lon="9.66102800929441"><ele>1243.0</ele><time>2026-04-06T10:11:03Z</time></trkpt><trkpt lat="44.70548417719222" lon="9.660933610111115"><ele>1243.0</ele><time>2026-04-06T10:11:04Z</time></trkpt><trkpt lat="44.70549980677957" lon="9.66081748366063"><ele>1243.0</ele><time>2026-04-06T10:11:06Z</time></trkpt><trkpt lat="44.70546897345539" lon="9.660681762890109"><ele>1243.0</ele><time>2026-04-06T10:11:08Z</time></trkpt><trkpt lat="44.70548433088839" lon="9.660582057466039"><ele>1243.1666666666665</ele><time>2026-04-06T10:11:09Z</time></trkpt><trkpt lat="44.70555369694409" lon="9.660417626720813"><ele>1243.3333333333333</ele><time>2026-04-06T10:11:11Z</time></trkpt><trkpt lat="44.70556878571764" lon="9.660310707857672"><ele>1243.5</ele><time>2026-04-06T10:11:12Z</time></trkpt><trkpt lat="44.70557334855288" lon="9.66020856454674"><ele>1243.6666666666667</ele><time>2026-04-06T10:11:13Z</time></trkpt><trkpt lat="44.70557550695936" lon="9.660087320435364"><ele>1243.8333333333335</ele><time>2026-04-06T10:11:14Z</time></trkpt><trkpt lat="44.70558390134237" lon="9.659985915055424"><ele>1244.0</ele><time>2026-04-06T10:11:15Z</time></trkpt><trkpt lat="44.705594393697055" lon="9.659878216212647"><ele>1242.4</ele><time>2026-04-06T10:11:16Z</time></trkpt><trkpt lat="44.70566556921411" lon="9.659745013479617"><ele>1240.8000000000002</ele><time>2026-04-06T10:11:18Z</time></trkpt><trkpt lat="44.705759125880746" lon="9.659613951539251"><ele>1239.1999999999998</ele><time>2026-04-06T10:11:20Z</time></trkpt><trkpt lat="44.70578909873958" lon="9.659516172031834"><ele>1237.6</ele><time>2026-04-06T10:11:22Z</time></trkpt><trkpt lat="44.705791779114996" lon="9.659408287296392"><ele>1236.0</ele><time>2026-04-06T10:11:24Z</time></trkpt><trkpt lat="44.705787445737165" lon="9.659196038461666"><ele>1235.6666666666667</ele><time>2026-04-06T10:11:26Z</time></trkpt><trkpt lat="44.70579170166502" lon="9.659074397033587"><ele>1235.3333333333333</ele><time>2026-04-06T10:11:27Z</time></trkpt><trkpt lat="44.70579264099372" lon="9.658966208181905"><ele>1235.0</ele><time>2026-04-06T10:11:28Z</time></trkpt><trkpt lat="44.705841173382304" lon="9.65883018484808"><ele>1234.6666666666665</ele><time>2026-04-06T10:11:30Z</time></trkpt><trkpt lat="44.70590331857358" lon="9.65879253313236"><ele>1234.3333333333333</ele><time>2026-04-06T10:11:31Z</time></trkpt><trkpt lat="44.70595272923352" lon="9.658681260707883"><ele>1234.0</ele><time>2026-04-06T10:11:33Z</time></trkpt><trkpt lat="44.70597990404366" lon="9.658570431704108"><ele>1234.6666666666665</ele><time>2026-04-06T10:11:35Z</time></trkpt><trkpt lat="44.70600437525983" lon="9.65846159273425"><ele>1235.3333333333333</ele><time>2026-04-06T10:11:37Z</time></trkpt><trkpt lat="44.70603939916322" lon="9.658339786096818"><ele>1236.0</ele><time>2026-04-06T10:11:39Z</time></trkpt><trkpt lat="44.70606869526555" lon="9.658230794278275"><ele>1236.6666666666667</ele><time>2026-04-06T10:11:41Z</time></trkpt><trkpt lat="44.70610139177033" lon="9.65811754539508"><ele>1237.3333333333335</ele><time>2026-04-06T10:11:43Z</time></trkpt><trkpt lat="44.706138902983014" lon="9.65802579270925"><ele>1238.0</ele><time>2026-04-06T10:11:45Z</time></trkpt><trkpt lat="44.70616540675947" lon="9.657884863809489"><ele>1240.8</ele><time>2026-04-06T10:11:47Z</time></trkpt><trkpt lat="44.70620364457748" lon="9.657742790377478"><ele>1243.6</ele><time>2026-04-06T10:11:49Z</time></trkpt><trkpt lat="44.706248648070414" lon="9.65758052857338"><ele>1246.4</ele><time>2026-04-06T10:11:51Z</time></trkpt><trkpt lat="44.70627834435449" lon="9.657496667972843"><ele>1249.2</ele><time>2026-04-06T10:11:52Z</time></trkpt><trkpt lat="44.70631883815387" lon="9.657357508358798"><ele>1252.0</ele><time>2026-04-06T10:11:54Z</time></trkpt><trkpt lat="44.70635566515548" lon="9.657273065157918"><ele>1252.0</ele><time>2026-04-06T10:11:55Z</time></trkpt><trkpt lat="44.70638032086466" lon="9.657181449299552"><ele>1252.0</ele><time>2026-04-06T10:11:56Z</time></trkpt><trkpt lat="44.706422462592286" lon="9.6571115965457"><ele>1252.0</ele><time>2026-04-06T10:11:57Z</time></trkpt><trkpt lat="44.70646703482125" lon="9.657045552786313"><ele>1252.0</ele><time>2026-04-06T10:11:58Z</time></trkpt><trkpt lat="44.70654118317456" lon="9.657011746009694"><ele>1252.0</ele><time>2026-04-06T10:11:59Z</time></trkpt><trkpt lat="44.706614734245264" lon="9.65688899622479"><ele>1252.0</ele><time>2026-04-06T10:12:01Z</time></trkpt><trkpt lat="44.70666979699569" lon="9.656750781010121"><ele>1251.0</ele><time>2026-04-06T10:12:03Z</time></trkpt><trkpt lat="44.70671948277572" lon="9.656671730409506"><ele>1250.0</ele><time>2026-04-06T10:12:04Z</time></trkpt><trkpt lat="44.7067746882271" lon="9.656575118108915"><ele>1249.0</ele><time>2026-04-06T10:12:06Z</time></trkpt><trkpt lat="44.70677347111366" lon="9.656471561529722"><ele>1248.0</ele><time>2026-04-06T10:12:09Z</time></trkpt><trkpt lat="44.70680566575938" lon="9.656333371118633"><ele>1247.0</ele><time>2026-04-06T10:12:12Z</time></trkpt><trkpt lat="44.70681979199561" lon="9.656169849391675"><ele>1246.0</ele><time>2026-04-06T10:12:15Z</time></trkpt><trkpt lat="44.7068399838205" lon="9.656051159041947"><ele>1245.0</ele><time>2026-04-06T10:12:16Z</time></trkpt><trkpt lat="44.70685487996808" lon="9.655932133294032"><ele>1244.0</ele><time>2026-04-06T10:12:17Z</time></trkpt><trkpt lat="44.70687051829603" lon="9.655834506525549"><ele>1243.0</ele><time>2026-04-06T10:12:18Z</time></trkpt><trkpt lat="44.70690893088501" lon="9.655672278122667"><ele>1242.0</ele><time>2026-04-06T10:12:20Z</time></trkpt><trkpt lat="44.70692899252926" lon="9.65554154562036"><ele>1242.0</ele><time>2026-04-06T10:12:22Z</time></trkpt><trkpt lat="44.70692510368876" lon="9.655447357862162"><ele>1242.0</ele><time>2026-04-06T10:12:26Z</time></trkpt><trkpt lat="44.70695604260537" lon="9.655350579604821"><ele>1242.0</ele><time>2026-04-06T10:12:28Z</time></trkpt><trkpt lat="44.706953833165066" lon="9.655240151079523"><ele>1242.0</ele><time>2026-04-06T10:12:30Z</time></trkpt><trkpt lat="44.70694509061996" lon="9.655111317001333"><ele>1242.0</ele><time>2026-04-06T10:12:33Z</time></trkpt><trkpt lat="44.70696169508079" lon="9.654977933881476"><ele>1242.0</ele><time>2026-04-06T10:12:35Z</time></trkpt><trkpt lat="44.70698814784671" lon="9.654877196266806"><ele>1242.0</ele><time>2026-04-06T10:12:37Z</time></trkpt><trkpt lat="44.707074921497664" lon="9.654708703822736"><ele>1242.0</ele><time>2026-04-06T10:12:39Z</time></trkpt><trkpt lat="44.70707898374807" lon="9.654612660729228"><ele>1242.0</ele><time>2026-04-06T10:12:41Z</time></trkpt><trkpt lat="44.70707678597748" lon="9.654466921961678"><ele>1242.0</ele><time>2026-04-06T10:12:43Z</time></trkpt><trkpt lat="44.707085042874745" lon="9.654335452527482"><ele>1242.0</ele><time>2026-04-06T10:12:45Z</time></trkpt><trkpt lat="44.707115024696975" lon="9.65422563008974"><ele>1242.2</ele><time>2026-04-06T10:12:47Z</time></trkpt><trkpt lat="44.707155829477564" lon="9.65405305071806"><ele>1242.4</ele><time>2026-04-06T10:12:49Z</time></trkpt><trkpt lat="44.70718854072556" lon="9.653966346940853"><ele>1242.6</ele><time>2026-04-06T10:12:50Z</time></trkpt><trkpt lat="44.707222747904524" lon="9.653878856077935"><ele>1242.8</ele><time>2026-04-06T10:12:51Z</time></trkpt><trkpt lat="44.70722201348889" lon="9.653665655337678"><ele>1243.0</ele><time>2026-04-06T10:12:52Z</time></trkpt><trkpt lat="44.707271690485015" lon="9.653517084045141"><ele>1242.0</ele><time>2026-04-06T10:12:54Z</time></trkpt><trkpt lat="44.70734006730753" lon="9.653395322960405"><ele>1241.0</ele><time>2026-04-06T10:12:56Z</time></trkpt><trkpt lat="44.70741774680014" lon="9.6532442926536"><ele>1240.0</ele><time>2026-04-06T10:12:58Z</time></trkpt><trkpt lat="44.70750324661303" lon="9.653183528757788"><ele>1239.0</ele><time>2026-04-06T10:13:00Z</time></trkpt><trkpt lat="44.70755145281162" lon="9.653264958005243"><ele>1238.0</ele><time>2026-04-06T10:13:03Z</time></trkpt><trkpt lat="44.70770139961334" lon="9.653243212792237"><ele>1238.0</ele><time>2026-04-06T10:13:05Z</time></trkpt><trkpt lat="44.70776634799358" lon="9.65323559674045"><ele>1238.0</ele><time>2026-04-06T10:13:07Z</time></trkpt><trkpt lat="44.70784182277377" lon="9.65322783318982"><ele>1238.0</ele><time>2026-04-06T10:13:11Z</time></trkpt><trkpt lat="44.70793093908554" lon="9.653251662763301"><ele>1238.0</ele><time>2026-04-06T10:13:13Z</time></trkpt><trkpt lat="44.708015300390855" lon="9.653239080529769"><ele>1238.0</ele><time>2026-04-06T10:13:15Z</time></trkpt><trkpt lat="44.708132284965174" lon="9.65321670172069"><ele>1238.0</ele><time>2026-04-06T10:13:17Z</time></trkpt><trkpt lat="44.70821084412057" lon="9.653240792513836"><ele>1238.0</ele><time>2026-04-06T10:13:18Z</time></trkpt><trkpt lat="44.70828827448835" lon="9.653291684623685"><ele>1238.0</ele><time>2026-04-06T10:13:19Z</time></trkpt><trkpt lat="44.708389251631566" lon="9.653322248992362"><ele>1238.0</ele><time>2026-04-06T10:13:21Z</time></trkpt><trkpt lat="44.708500208548" lon="9.653294442676362"><ele>1238.0</ele><time>2026-04-06T10:13:22Z</time></trkpt><trkpt lat="44.708580449413475" lon="9.653304033697362"><ele>1238.0</ele><time>2026-04-06T10:13:23Z</time></trkpt><trkpt lat="44.70867299089812" lon="9.653305432549253"><ele>1238.2</ele><time>2026-04-06T10:13:24Z</time></trkpt><trkpt lat="44.708750410328314" lon="9.65327884300778"><ele>1238.4</ele><time>2026-04-06T10:13:25Z</time></trkpt><trkpt lat="44.70882192967252" lon="9.653229038495505"><ele>1238.6000000000001</ele><time>2026-04-06T10:13:26Z</time></trkpt><trkpt lat="44.7089134856625" lon="9.653195821494753"><ele>1238.8</ele><time>2026-04-06T10:13:27Z</time></trkpt><trkpt lat="44.709055015962974" lon="9.653137007742627"><ele>1239.0</ele><time>2026-04-06T10:13:29Z</time></trkpt><trkpt lat="44.70914941213511" lon="9.653123206793977"><ele>1239.0</ele><time>2026-04-06T10:13:31Z</time></trkpt><trkpt lat="44.709215126573575" lon="9.653208885758534"><ele>1239.0</ele><time>2026-04-06T10:13:33Z</time></trkpt><trkpt lat="44.70932522378892" lon="9.653336747618988"><ele>1239.0</ele><time>2026-04-06T10:13:35Z</time></trkpt><trkpt lat="44.709456542547514" lon="9.653359179040077"><ele>1239.0</ele><time>2026-04-06T10:13:37Z</time></trkpt><trkpt lat="44.709510804393645" lon="9.653430650201493"><ele>1239.0</ele><time>2026-04-06T10:13:39Z</time></trkpt><trkpt lat="44.70951922479671" lon="9.653520719931887"><ele>1240.3333333333333</ele><time>2026-04-06T10:13:45Z</time></trkpt><trkpt lat="44.709602817905356" lon="9.653459212050269"><ele>1241.6666666666667</ele><time>2026-04-06T10:16:13Z</time></trkpt><trkpt lat="44.70963824378355" lon="9.653342085676641"><ele>1243.0</ele><time>2026-04-06T10:16:17Z</time></trkpt><trkpt lat="44.70965831663104" lon="9.653239782558439"><ele>1244.3333333333335</ele><time>2026-04-06T10:16:19Z</time></trkpt><trkpt lat="44.709673760363174" lon="9.65311902042399"><ele>1245.6666666666667</ele><time>2026-04-06T10:16:21Z</time></trkpt><trkpt lat="44.709751490021844" lon="9.653033689501406"><ele>1247.0</ele><time>2026-04-06T10:16:23Z</time></trkpt><trkpt lat="44.709807317321044" lon="9.652961434910463"><ele>1247.0</ele><time>2026-04-06T10:16:26Z</time></trkpt><trkpt lat="44.709887558726805" lon="9.65286941129593"><ele>1247.0</ele><time>2026-04-06T10:16:28Z</time></trkpt><trkpt lat="44.709955145044155" lon="9.652797977253638"><ele>1247.0</ele><time>2026-04-06T10:16:30Z</time></trkpt><trkpt lat="44.710142803801695" lon="9.652780916014542"><ele>1247.0</ele><time>2026-04-06T10:16:40Z</time></trkpt><trkpt lat="44.71021171152227" lon="9.65282889944557"><ele>1248.6</ele><time>2026-04-06T10:16:42Z</time></trkpt><trkpt lat="44.710287746018274" lon="9.652812052980254"><ele>1250.2</ele><time>2026-04-06T10:16:44Z</time></trkpt><trkpt lat="44.710377546546994" lon="9.65274828622955"><ele>1251.8</ele><time>2026-04-06T10:16:46Z</time></trkpt><trkpt lat="44.710501538371176" lon="9.65274421086308"><ele>1253.4</ele><time>2026-04-06T10:16:48Z</time></trkpt><trkpt lat="44.71057859978522" lon="9.652794684780414"><ele>1255.0</ele><time>2026-04-06T10:16:50Z</time></trkpt><trkpt lat="44.71064471201612" lon="9.652796382912255"><ele>1255.0</ele><time>2026-04-06T10:16:51Z</time></trkpt><trkpt lat="44.710748028177406" lon="9.652782750485352"><ele>1255.0</ele><time>2026-04-06T10:16:53Z</time></trkpt><trkpt lat="44.710813794362366" lon="9.652797751707414"><ele>1255.0</ele><time>2026-04-06T10:16:54Z</time></trkpt><trkpt lat="44.71087522964816" lon="9.652827002633195"><ele>1255.0</ele><time>2026-04-06T10:16:55Z</time></trkpt><trkpt lat="44.71097046855626" lon="9.652809003763261"><ele>1255.0</ele><time>2026-04-06T10:16:56Z</time></trkpt><trkpt lat="44.71104226019597" lon="9.65277237116176"><ele>1255.0</ele><time>2026-04-06T10:16:57Z</time></trkpt><trkpt lat="44.71112735265037" lon="9.65275970147857"><ele>1252.1666666666665</ele><time>2026-04-06T10:16:58Z</time></trkpt><trkpt lat="44.71119699861637" lon="9.652695795962025"><ele>1249.3333333333333</ele><time>2026-04-06T10:17:00Z</time></trkpt><trkpt lat="44.71123941357235" lon="9.652629643762518"><ele>1246.5</ele><time>2026-04-06T10:17:01Z</time></trkpt><trkpt lat="44.71132469132435" lon="9.65256423879262"><ele>1243.6666666666667</ele><time>2026-04-06T10:17:03Z</time></trkpt><trkpt lat="44.71141365386834" lon="9.652510333202972"><ele>1240.8333333333335</ele><time>2026-04-06T10:17:06Z</time></trkpt><trkpt lat="44.71147746753281" lon="9.652503740623375"><ele>1238.0</ele><time>2026-04-06T10:17:07Z</time></trkpt><trkpt lat="44.71153956657652" lon="9.65251853005805"><ele>1238.0</ele><time>2026-04-06T10:17:08Z</time></trkpt><trkpt lat="44.71162955208667" lon="9.652554620004013"><ele>1238.0</ele><time>2026-04-06T10:17:09Z</time></trkpt><trkpt lat="44.71171094522018" lon="9.652593046453585"><ele>1238.0</ele><time>2026-04-06T10:17:10Z</time></trkpt><trkpt lat="44.711780449976196" lon="9.65262517635956"><ele>1238.0</ele><time>2026-04-06T10:17:11Z</time></trkpt><trkpt lat="44.71184013294382" lon="9.652659092930975"><ele>1238.0</ele><time>2026-04-06T10:17:12Z</time></trkpt><trkpt lat="44.7119575948456" lon="9.652724746698048"><ele>1238.0</ele><time>2026-04-06T10:17:14Z</time></trkpt><trkpt lat="44.712061273368235" lon="9.65274435416516"><ele>1237.4</ele><time>2026-04-06T10:17:15Z</time></trkpt><trkpt lat="44.71214848941304" lon="9.65276623193941"><ele>1236.8</ele><time>2026-04-06T10:17:16Z</time></trkpt><trkpt lat="44.71220742096687" lon="9.652814160552726"><ele>1236.2</ele><time>2026-04-06T10:17:17Z</time></trkpt><trkpt lat="44.712298511826575" lon="9.652921303956912"><ele>1235.6</ele><time>2026-04-06T10:17:19Z</time></trkpt><trkpt lat="44.71235965630788" lon="9.652988878133986"><ele>1235.0</ele><time>2026-04-06T10:17:20Z</time></trkpt><trkpt lat="44.712415800095066" lon="9.653101973538874"><ele>1236.8333333333335</ele><time>2026-04-06T10:17:21Z</time></trkpt><trkpt lat="44.71250242848975" lon="9.653166446361537"><ele>1238.6666666666667</ele><time>2026-04-06T10:17:23Z</time></trkpt><trkpt lat="44.71256293388224" lon="9.653208192613539"><ele>1240.5</ele><time>2026-04-06T10:17:24Z</time></trkpt><trkpt lat="44.71263831590766" lon="9.653243020010839"><ele>1242.3333333333333</ele><time>2026-04-06T10:17:25Z</time></trkpt><trkpt lat="44.7126931084144" lon="9.653287418660444"><ele>1244.1666666666665</ele><time>2026-04-06T10:17:26Z</time></trkpt><trkpt lat="44.7127517398757" lon="9.653356558685218"><ele>1246.0</ele><time>2026-04-06T10:17:27Z</time></trkpt><trkpt lat="44.712823272498156" lon="9.653432852682153"><ele>1246.6666666666665</ele><time>2026-04-06T10:17:27.999Z</time></trkpt><trkpt lat="44.71289531554933" lon="9.653495170384463"><ele>1247.3333333333333</ele><time>2026-04-06T10:17:28.999Z</time></trkpt><trkpt lat="44.712979583771066" lon="9.653529120887626"><ele>1248.0</ele><time>2026-04-06T10:17:29.999Z</time></trkpt><trkpt lat="44.713071591740324" lon="9.653553233709427"><ele>1248.6666666666667</ele><time>2026-04-06T10:17:30.999Z</time></trkpt><trkpt lat="44.713160485313345" lon="9.653589710208607"><ele>1249.3333333333335</ele><time>2026-04-06T10:17:31.999Z</time></trkpt><trkpt lat="44.71322316813364" lon="9.653617795226037"><ele>1250.0</ele><time>2026-04-06T10:17:32.999Z</time></trkpt><trkpt lat="44.7133062752237" lon="9.653621471178775"><ele>1250.0</ele><time>2026-04-06T10:17:33.999Z</time></trkpt><trkpt lat="44.71339301406413" lon="9.653593669720358"><ele>1250.0</ele><time>2026-04-06T10:17:34.999Z</time></trkpt><trkpt lat="44.71347708069561" lon="9.653591745302117"><ele>1250.0</ele><time>2026-04-06T10:17:35.999Z</time></trkpt><trkpt lat="44.71356320643328" lon="9.65363192423067"><ele>1250.0</ele><time>2026-04-06T10:17:36.999Z</time></trkpt><trkpt lat="44.71365818754001" lon="9.653665228609306"><ele>1250.0</ele><time>2026-04-06T10:17:37.999Z</time></trkpt><trkpt lat="44.713750736397536" lon="9.653686742760879"><ele>1253.5</ele><time>2026-04-06T10:17:39Z</time></trkpt><trkpt lat="44.71382326693785" lon="9.653684524732386"><ele>1257.0</ele><time>2026-04-06T10:17:40Z</time></trkpt><trkpt lat="44.71389540024731" lon="9.653641527042423"><ele>1260.5</ele><time>2026-04-06T10:17:41Z</time></trkpt><trkpt lat="44.71396712999426" lon="9.653628415015184"><ele>1264.0</ele><time>2026-04-06T10:17:42Z</time></trkpt><trkpt lat="44.71407277927136" lon="9.653676287815017"><ele>1267.5</ele><time>2026-04-06T10:17:44Z</time></trkpt><trkpt lat="44.714172625320444" lon="9.653750409876436"><ele>1271.0</ele><time>2026-04-06T10:17:46Z</time></trkpt><trkpt lat="44.71426808624037" lon="9.653767809808464"><ele>1271.0</ele><time>2026-04-06T10:17:48Z</time></trkpt><trkpt lat="44.71435228683012" lon="9.65375065188504"><ele>1271.0</ele><time>2026-04-06T10:17:50Z</time></trkpt><trkpt lat="44.71441255566073" lon="9.65366822700005"><ele>1271.0</ele><time>2026-04-06T10:17:52Z</time></trkpt><trkpt lat="44.71446750923969" lon="9.653615556346614"><ele>1271.0</ele><time>2026-04-06T10:17:54Z</time></trkpt><trkpt lat="44.71452592702638" lon="9.653487747657692"><ele>1271.0</ele><time>2026-04-06T10:17:56Z</time></trkpt><trkpt lat="44.71458976804876" lon="9.653414855318479"><ele>1271.0</ele><time>2026-04-06T10:17:58Z</time></trkpt><trkpt lat="44.71464894489713" lon="9.653363331952015"><ele>1271.5</ele><time>2026-04-06T10:17:59Z</time></trkpt><trkpt lat="44.71471493280758" lon="9.653312478415913"><ele>1272.0</ele><time>2026-04-06T10:18:00Z</time></trkpt><trkpt lat="44.71477557216321" lon="9.6532839071505"><ele>1272.5</ele><time>2026-04-06T10:18:01Z</time></trkpt><trkpt lat="44.71484347574375" lon="9.653278990074723"><ele>1273.0</ele><time>2026-04-06T10:18:02Z</time></trkpt><trkpt lat="44.71490445246837" lon="9.653334157102023"><ele>1273.5</ele><time>2026-04-06T10:18:04Z</time></trkpt><trkpt lat="44.71493699179935" lon="9.653508278457199"><ele>1274.0</ele><time>2026-04-06T10:18:06Z</time></trkpt><trkpt lat="44.71497999174117" lon="9.653679494221246"><ele>1274.5</ele><time>2026-04-06T10:18:08Z</time></trkpt><trkpt lat="44.71502150591721" lon="9.653807990976771"><ele>1275.0</ele><time>2026-04-06T10:18:09Z</time></trkpt><trkpt lat="44.71505220975836" lon="9.653930567784268"><ele>1275.5</ele><time>2026-04-06T10:18:10Z</time></trkpt><trkpt lat="44.71506111755439" lon="9.65402718234345"><ele>1276.0</ele><time>2026-04-06T10:18:11Z</time></trkpt><trkpt lat="44.71510465776161" lon="9.65410870099457"><ele>1276.5</ele><time>2026-04-06T10:18:14Z</time></trkpt><trkpt lat="44.715193312058325" lon="9.654045699891721"><ele>1277.0</ele><time>2026-04-06T10:18:17Z</time></trkpt><trkpt lat="44.71530485911295" lon="9.65401000757874"><ele>1278.0</ele><time>2026-04-06T10:18:19Z</time></trkpt><trkpt lat="44.71538108800986" lon="9.653995631425952"><ele>1279.0</ele><time>2026-04-06T10:18:20Z</time></trkpt><trkpt lat="44.7154503680707" lon="9.653979241982332"><ele>1280.0</ele><time>2026-04-06T10:18:21Z</time></trkpt><trkpt lat="44.71552157437214" lon="9.653971716829076"><ele>1281.0</ele><time>2026-04-06T10:18:24Z</time></trkpt><trkpt lat="44.71558828792507" lon="9.65402038887125"><ele>1282.0</ele><time>2026-04-06T10:18:29Z</time></trkpt><trkpt lat="44.715660524615444" lon="9.654004940595302"><ele>1283.0</ele><time>2026-04-06T10:18:31Z</time></trkpt><trkpt lat="44.715747641022176" lon="9.654065108776575"><ele>1283.0</ele><time>2026-04-06T10:18:35Z</time></trkpt><trkpt lat="44.715838426226355" lon="9.654101533366163"><ele>1283.0</ele><time>2026-04-06T10:18:37Z</time></trkpt><trkpt lat="44.715932037848496" lon="9.65411507816552"><ele>1283.0</ele><time>2026-04-06T10:18:39Z</time></trkpt><trkpt lat="44.71602428499082" lon="9.654185982540042"><ele>1283.0</ele><time>2026-04-06T10:18:42Z</time></trkpt><trkpt lat="44.716109993647876" lon="9.654248103304624"><ele>1283.0</ele><time>2026-04-06T10:18:43Z</time></trkpt><trkpt lat="44.71622385925779" lon="9.654278829860187"><ele>1282.2</ele><time>2026-04-06T10:18:45Z</time></trkpt><trkpt lat="44.71630391956541" lon="9.654318905909602"><ele>1281.4</ele><time>2026-04-06T10:18:47Z</time></trkpt><trkpt lat="44.71638986307727" lon="9.65440374986274"><ele>1280.6000000000001</ele><time>2026-04-06T10:18:49Z</time></trkpt><trkpt lat="44.716482666927796" lon="9.654468895934865"><ele>1279.8000000000002</ele><time>2026-04-06T10:18:51Z</time></trkpt><trkpt lat="44.71654954615106" lon="9.654511671744807"><ele>1279.0</ele><time>2026-04-06T10:18:53Z</time></trkpt><trkpt lat="44.71662480769446" lon="9.654564173131769"><ele>1279.0</ele><time>2026-04-06T10:18:55Z</time></trkpt><trkpt lat="44.71667625410993" lon="9.654620897887893"><ele>1279.0</ele><time>2026-04-06T10:18:58Z</time></trkpt><trkpt lat="44.71674623460466" lon="9.654639153397"><ele>1279.0</ele><time>2026-04-06T10:19:01Z</time></trkpt><trkpt lat="44.7168427614547" lon="9.654717032755126"><ele>1279.0</ele><time>2026-04-06T10:19:03Z</time></trkpt><trkpt lat="44.716959876069254" lon="9.65470950234282"><ele>1279.0</ele><time>2026-04-06T10:19:05Z</time></trkpt><trkpt lat="44.71712349866939" lon="9.654779956509843"><ele>1280.2</ele><time>2026-04-06T10:19:06Z</time></trkpt><trkpt lat="44.7171868099952" lon="9.654857126099662"><ele>1281.4</ele><time>2026-04-06T10:19:08Z</time></trkpt><trkpt lat="44.717238443387295" lon="9.654955058394572"><ele>1282.6</ele><time>2026-04-06T10:19:11Z</time></trkpt><trkpt lat="44.71731705209044" lon="9.655062365563587"><ele>1283.8</ele><time>2026-04-06T10:19:13Z</time></trkpt><trkpt lat="44.71739951424871" lon="9.655177919522572"><ele>1285.0</ele><time>2026-04-06T10:19:15Z</time></trkpt><trkpt lat="44.7174916646768" lon="9.655255373413375"><ele>1283.1666666666665</ele><time>2026-04-06T10:19:17Z</time></trkpt><trkpt lat="44.71758716133837" lon="9.655315915878479"><ele>1281.3333333333333</ele><time>2026-04-06T10:19:19Z</time></trkpt><trkpt lat="44.71765245548573" lon="9.655348967615943"><ele>1279.5</ele><time>2026-04-06T10:19:20Z</time></trkpt><trkpt lat="44.717711421592156" lon="9.655380489293849"><ele>1277.6666666666667</ele><time>2026-04-06T10:19:21Z</time></trkpt><trkpt lat="44.71778066586242" lon="9.655423001857619"><ele>1275.8333333333335</ele><time>2026-04-06T10:19:22Z</time></trkpt><trkpt lat="44.71785236340509" lon="9.655448464584797"><ele>1274.0</ele><time>2026-04-06T10:19:23Z</time></trkpt><trkpt lat="44.717913480129155" lon="9.65547114925256"><ele>1273.3333333333335</ele><time>2026-04-06T10:19:24Z</time></trkpt><trkpt lat="44.71797384670387" lon="9.655510141719281"><ele>1272.6666666666667</ele><time>2026-04-06T10:19:25Z</time></trkpt><trkpt lat="44.71802611731273" lon="9.655574269319029"><ele>1272.0</ele><time>2026-04-06T10:19:26Z</time></trkpt><trkpt lat="44.71797379711902" lon="9.655652544764301"><ele>1271.3333333333333</ele><time>2026-04-06T10:19:30Z</time></trkpt><trkpt lat="44.71798639137324" lon="9.65576272542954"><ele>1270.6666666666665</ele><time>2026-04-06T10:19:33Z</time></trkpt><trkpt lat="44.71806770029033" lon="9.655847953690719"><ele>1270.0</ele><time>2026-04-06T10:19:35Z</time></trkpt><trkpt lat="44.71815168539127" lon="9.655891924641328"><ele>1270.0</ele><time>2026-04-06T10:19:37Z</time></trkpt><trkpt lat="44.7181821925346" lon="9.655990111828372"><ele>1270.0</ele><time>2026-04-06T10:19:39Z</time></trkpt><trkpt lat="44.71815426765148" lon="9.656084304062455"><ele>1270.0</ele><time>2026-04-06T10:19:41Z</time></trkpt><trkpt lat="44.71819042955585" lon="9.656238255949356"><ele>1270.0</ele><time>2026-04-06T10:19:43Z</time></trkpt><trkpt lat="44.71821494302076" lon="9.656326445996555"><ele>1270.0</ele><time>2026-04-06T10:19:44Z</time></trkpt><trkpt lat="44.718287297602956" lon="9.65642948893228"><ele>1270.0</ele><time>2026-04-06T10:19:46Z</time></trkpt><trkpt lat="44.71835056451331" lon="9.656469319957134"><ele>1268.7142857142856</ele><time>2026-04-06T10:19:47Z</time></trkpt><trkpt lat="44.71841973631175" lon="9.656535009456556"><ele>1267.4285714285713</ele><time>2026-04-06T10:19:48Z</time></trkpt><trkpt lat="44.718485586511875" lon="9.65658444200274"><ele>1266.142857142857</ele><time>2026-04-06T10:19:49Z</time></trkpt><trkpt lat="44.718545177732146" lon="9.656638556149979"><ele>1264.8571428571427</ele><time>2026-04-06T10:19:50Z</time></trkpt><trkpt lat="44.718595507004906" lon="9.656718144828709"><ele>1263.5714285714284</ele><time>2026-04-06T10:19:51Z</time></trkpt><trkpt lat="44.718631376119426" lon="9.656796784561267"><ele>1262.2857142857142</ele><time>2026-04-06T10:19:52Z</time></trkpt><trkpt lat="44.718662507776145" lon="9.656888896788091"><ele>1261.0</ele><time>2026-04-06T10:19:53Z</time></trkpt><trkpt lat="44.718665831986456" lon="9.65698950685231"><ele>1255.6</ele><time>2026-04-06T10:19:54Z</time></trkpt><trkpt lat="44.718683739348116" lon="9.65717182225208"><ele>1250.1999999999998</ele><time>2026-04-06T10:19:56Z</time></trkpt><trkpt lat="44.71867389666993" lon="9.657273716790716"><ele>1244.8000000000002</ele><time>2026-04-06T10:19:57Z</time></trkpt><trkpt lat="44.71869556638681" lon="9.65742863938345"><ele>1239.4</ele><time>2026-04-06T10:19:59Z</time></trkpt><trkpt lat="44.71872166421777" lon="9.657545690364142"><ele>1234.0</ele><time>2026-04-06T10:20:00Z</time></trkpt><trkpt lat="44.71873368837653" lon="9.657647267883878"><ele>1234.0</ele><time>2026-04-06T10:20:01Z</time></trkpt><trkpt lat="44.718757947734275" lon="9.65774284576127"><ele>1234.0</ele><time>2026-04-06T10:20:02Z</time></trkpt><trkpt lat="44.71876541504362" lon="9.657862096917244"><ele>1234.0</ele><time>2026-04-06T10:20:04Z</time></trkpt><trkpt lat="44.71883179167681" lon="9.658021846464068"><ele>1234.0</ele><time>2026-04-06T10:20:06Z</time></trkpt><trkpt lat="44.718869261902114" lon="9.658106264040068"><ele>1234.0</ele><time>2026-04-06T10:20:07Z</time></trkpt><trkpt lat="44.718907236095234" lon="9.658191008474343"><ele>1234.0</ele><time>2026-04-06T10:20:08Z</time></trkpt><trkpt lat="44.718949688970454" lon="9.658288568423236"><ele>1232.8</ele><time>2026-04-06T10:20:09Z</time></trkpt><trkpt lat="44.71899031072235" lon="9.658424621098375"><ele>1231.6000000000001</ele><time>2026-04-06T10:20:10Z</time></trkpt><trkpt lat="44.71902293921135" lon="9.658557202979411"><ele>1230.4</ele><time>2026-04-06T10:20:11Z</time></trkpt><trkpt lat="44.7190538722231" lon="9.658699066983603"><ele>1229.2</ele><time>2026-04-06T10:20:12Z</time></trkpt><trkpt lat="44.719076662585394" lon="9.65884656106057"><ele>1228.0</ele><time>2026-04-06T10:20:13Z</time></trkpt><trkpt lat="44.71909772572116" lon="9.658987795535602"><ele>1227.4</ele><time>2026-04-06T10:20:14Z</time></trkpt><trkpt lat="44.719123913441344" lon="9.659125460924319"><ele>1226.8</ele><time>2026-04-06T10:20:15Z</time></trkpt><trkpt lat="44.719151370701894" lon="9.659262993575071"><ele>1226.2</ele><time>2026-04-06T10:20:16Z</time></trkpt><trkpt lat="44.719180867418395" lon="9.659398558798493"><ele>1225.6</ele><time>2026-04-06T10:20:17Z</time></trkpt><trkpt lat="44.719209533716935" lon="9.659531356647374"><ele>1225.0</ele><time>2026-04-06T10:20:18Z</time></trkpt><trkpt lat="44.71923846647036" lon="9.659659809597471"><ele>1223.4</ele><time>2026-04-06T10:20:19Z</time></trkpt><trkpt lat="44.71927078474983" lon="9.659784849755582"><ele>1221.8</ele><time>2026-04-06T10:20:20Z</time></trkpt><trkpt lat="44.71930824052223" lon="9.659908860109796"><ele>1220.2</ele><time>2026-04-06T10:20:21Z</time></trkpt><trkpt lat="44.71934449769441" lon="9.660027665655834"><ele>1218.6</ele><time>2026-04-06T10:20:22Z</time></trkpt><trkpt lat="44.719378910807286" lon="9.66015055599403"><ele>1217.0</ele><time>2026-04-06T10:20:23Z</time></trkpt><trkpt lat="44.71941785873837" lon="9.660271871004618"><ele>1214.2</ele><time>2026-04-06T10:20:24Z</time></trkpt><trkpt lat="44.71945792353402" lon="9.660396131184655"><ele>1211.4</ele><time>2026-04-06T10:20:25Z</time></trkpt><trkpt lat="44.719501107850256" lon="9.660520323920473"><ele>1208.6</ele><time>2026-04-06T10:20:26Z</time></trkpt><trkpt lat="44.719544425058736" lon="9.660642165370694"><ele>1205.8</ele><time>2026-04-06T10:20:27Z</time></trkpt><trkpt lat="44.71959001228099" lon="9.660761670286327"><ele>1203.0</ele><time>2026-04-06T10:20:28Z</time></trkpt><trkpt lat="44.71963482780243" lon="9.660884228852206"><ele>1203.0</ele><time>2026-04-06T10:20:29Z</time></trkpt><trkpt lat="44.71967834747991" lon="9.661004692702836"><ele>1203.0</ele><time>2026-04-06T10:20:30Z</time></trkpt><trkpt lat="44.71972208125347" lon="9.661125166440453"><ele>1203.0</ele><time>2026-04-06T10:20:31Z</time></trkpt><trkpt lat="44.71976440773926" lon="9.661251154713307"><ele>1203.0</ele><time>2026-04-06T10:20:32Z</time></trkpt><trkpt lat="44.719817606354994" lon="9.661366992211695"><ele>1203.0</ele><time>2026-04-06T10:20:33Z</time></trkpt><trkpt lat="44.71987848998449" lon="9.66147142192732"><ele>1202.5</ele><time>2026-04-06T10:20:34Z</time></trkpt><trkpt lat="44.719942305489596" lon="9.661563785649856"><ele>1202.0</ele><time>2026-04-06T10:20:35Z</time></trkpt><trkpt lat="44.720003460933164" lon="9.661653922002724"><ele>1201.5</ele><time>2026-04-06T10:20:36Z</time></trkpt><trkpt lat="44.72004672582107" lon="9.661755217272415"><ele>1201.0</ele><time>2026-04-06T10:20:37Z</time></trkpt><trkpt lat="44.72003522409427" lon="9.661873589571666"><ele>1200.5</ele><time>2026-04-06T10:20:38Z</time></trkpt><trkpt lat="44.72002512762609" lon="9.66198269633001"><ele>1200.0</ele><time>2026-04-06T10:20:39Z</time></trkpt><trkpt lat="44.719995846558206" lon="9.662071749176999"><ele>1199.25</ele><time>2026-04-06T10:20:40Z</time></trkpt><trkpt lat="44.71998961329359" lon="9.662210113736263"><ele>1198.5</ele><time>2026-04-06T10:20:42Z</time></trkpt><trkpt lat="44.719948407576425" lon="9.662371879247043"><ele>1197.75</ele><time>2026-04-06T10:20:44Z</time></trkpt><trkpt lat="44.7199239725615" lon="9.66253832717946"><ele>1197.0</ele><time>2026-04-06T10:20:46Z</time></trkpt><trkpt lat="44.7199181059676" lon="9.66271745001"><ele>1195.8</ele><time>2026-04-06T10:20:48Z</time></trkpt><trkpt lat="44.719927535959556" lon="9.662817091040113"><ele>1194.6</ele><time>2026-04-06T10:20:49Z</time></trkpt><trkpt lat="44.71992376921944" lon="9.662945903690566"><ele>1193.3999999999999</ele><time>2026-04-06T10:20:50Z</time></trkpt><trkpt lat="44.7199469018624" lon="9.663081966451173"><ele>1192.2</ele><time>2026-04-06T10:20:51Z</time></trkpt><trkpt lat="44.71998608549328" lon="9.66321147838198"><ele>1191.0</ele><time>2026-04-06T10:20:52Z</time></trkpt><trkpt lat="44.72000180733262" lon="9.663349049900058"><ele>1191.0</ele><time>2026-04-06T10:20:53Z</time></trkpt><trkpt lat="44.72001803038146" lon="9.663485172516342"><ele>1191.0</ele><time>2026-04-06T10:20:54Z</time></trkpt><trkpt lat="44.72003672879997" lon="9.663620371312255"><ele>1191.0</ele><time>2026-04-06T10:20:55Z</time></trkpt><trkpt lat="44.720070070162706" lon="9.663751039229362"><ele>1191.0</ele><time>2026-04-06T10:20:56Z</time></trkpt><trkpt lat="44.72012114825897" lon="9.663863094701208"><ele>1191.0</ele><time>2026-04-06T10:20:57Z</time></trkpt><trkpt lat="44.72019489197379" lon="9.663936016267478"><ele>1188.1666666666667</ele><time>2026-04-06T10:20:58Z</time></trkpt><trkpt lat="44.720251581774924" lon="9.664001299345092"><ele>1185.3333333333333</ele><time>2026-04-06T10:20:59Z</time></trkpt><trkpt lat="44.720304670174585" lon="9.664074519051685"><ele>1182.5</ele><time>2026-04-06T10:21:01Z</time></trkpt><trkpt lat="44.72037656010668" lon="9.664104982303815"><ele>1179.6666666666665</ele><time>2026-04-06T10:21:57Z</time></trkpt><trkpt lat="44.720469923450786" lon="9.664168197428674"><ele>1176.8333333333333</ele><time>2026-04-06T10:22:00Z</time></trkpt><trkpt lat="44.720555155157086" lon="9.664240824402796"><ele>1174.0</ele><time>2026-04-06T10:22:02Z</time></trkpt><trkpt lat="44.720711553933754" lon="9.664374469718641"><ele>1174.0</ele><time>2026-04-06T10:22:04Z</time></trkpt><trkpt lat="44.720786667184846" lon="9.664427038757994"><ele>1174.0</ele><time>2026-04-06T10:22:05Z</time></trkpt><trkpt lat="44.72085355256731" lon="9.664480663045046"><ele>1174.0</ele><time>2026-04-06T10:22:06Z</time></trkpt><trkpt lat="44.720922729652365" lon="9.664526654590912"><ele>1174.0</ele><time>2026-04-06T10:22:07Z</time></trkpt><trkpt lat="44.72099122536015" lon="9.664570220863196"><ele>1174.0</ele><time>2026-04-06T10:22:08Z</time></trkpt><trkpt lat="44.72106332777529" lon="9.664606704457814"><ele>1174.0</ele><time>2026-04-06T10:22:09Z</time></trkpt><trkpt lat="44.7211379819083" lon="9.664646892782423"><ele>1170.0</ele><time>2026-04-06T10:22:10Z</time></trkpt><trkpt lat="44.721211350028554" lon="9.664682378839588"><ele>1166.0</ele><time>2026-04-06T10:22:11Z</time></trkpt><trkpt lat="44.72129035442766" lon="9.664720710738328"><ele>1162.0</ele><time>2026-04-06T10:22:12Z</time></trkpt><trkpt lat="44.72137832807647" lon="9.664751912976614"><ele>1158.0</ele><time>2026-04-06T10:22:13Z</time></trkpt><trkpt lat="44.72145155094843" lon="9.664782628731748"><ele>1154.0</ele><time>2026-04-06T10:22:14Z</time></trkpt><trkpt lat="44.72151411577119" lon="9.664812639472366"><ele>1150.0</ele><time>2026-04-06T10:22:15Z</time></trkpt><trkpt lat="44.721578675893475" lon="9.664849828804847"><ele>1150.0</ele><time>2026-04-06T10:22:16Z</time></trkpt><trkpt lat="44.721644606281814" lon="9.664886400705479"><ele>1150.0</ele><time>2026-04-06T10:22:17Z</time></trkpt><trkpt lat="44.72170278406525" lon="9.664922267713393"><ele>1150.0</ele><time>2026-04-06T10:22:18Z</time></trkpt><trkpt lat="44.7218151509139" lon="9.664970663909644"><ele>1150.0</ele><time>2026-04-06T10:22:20Z</time></trkpt><trkpt lat="44.721852605136334" lon="9.665063223701962"><ele>1150.0</ele><time>2026-04-06T10:22:21Z</time></trkpt><trkpt lat="44.721820412743625" lon="9.66515997856118"><ele>1150.0</ele><time>2026-04-06T10:22:24Z</time></trkpt><trkpt lat="44.721735583355816" lon="9.665240473679463"><ele>1146.8333333333333</ele><time>2026-04-06T10:22:27Z</time></trkpt><trkpt lat="44.72168610464045" lon="9.665378785034866"><ele>1143.6666666666665</ele><time>2026-04-06T10:22:29Z</time></trkpt><trkpt lat="44.72166710845712" lon="9.665479563384695"><ele>1140.5</ele><time>2026-04-06T10:22:30Z</time></trkpt><trkpt lat="44.72166635904077" lon="9.665570034476035"><ele>1137.3333333333333</ele><time>2026-04-06T10:22:32Z</time></trkpt><trkpt lat="44.72178617480852" lon="9.665603295156929"><ele>1134.1666666666667</ele><time>2026-04-06T10:22:34Z</time></trkpt><trkpt lat="44.72186047947601" lon="9.665574104736617"><ele>1131.0</ele><time>2026-04-06T10:22:35Z</time></trkpt><trkpt lat="44.72195823488052" lon="9.665608851833488"><ele>1130.1666666666667</ele><time>2026-04-06T10:22:36Z</time></trkpt><trkpt lat="44.72202538482474" lon="9.66553622253076"><ele>1129.3333333333333</ele><time>2026-04-06T10:22:37Z</time></trkpt><trkpt lat="44.72213462475521" lon="9.665488977197402"><ele>1128.5</ele><time>2026-04-06T10:22:39Z</time></trkpt><trkpt lat="44.72218988439918" lon="9.665425762591326"><ele>1127.6666666666665</ele><time>2026-04-06T10:22:40Z</time></trkpt><trkpt lat="44.72226122809661" lon="9.665350333591244"><ele>1126.8333333333333</ele><time>2026-04-06T10:22:41Z</time></trkpt><trkpt lat="44.72231183374305" lon="9.665265568213062"><ele>1126.0</ele><time>2026-04-06T10:22:42Z</time></trkpt><trkpt lat="44.72238031033418" lon="9.66517956595834"><ele>1126.0</ele><time>2026-04-06T10:22:43Z</time></trkpt><trkpt lat="44.7224572182298" lon="9.665090165157112"><ele>1126.0</ele><time>2026-04-06T10:22:44Z</time></trkpt><trkpt lat="44.722511967912205" lon="9.664987582732618"><ele>1126.0</ele><time>2026-04-06T10:22:45Z</time></trkpt><trkpt lat="44.72254751396879" lon="9.664903263573164"><ele>1126.0</ele><time>2026-04-06T10:22:46Z</time></trkpt><trkpt lat="44.722561394688405" lon="9.664799743604053"><ele>1126.0</ele><time>2026-04-06T10:22:47Z</time></trkpt><trkpt lat="44.72255769800672" lon="9.664706594122656"><ele>1126.0</ele><time>2026-04-06T10:22:48Z</time></trkpt><trkpt lat="44.72253708279127" lon="9.664605541160244"><ele>1125.1666666666665</ele><time>2026-04-06T10:22:49Z</time></trkpt><trkpt lat="44.722515563697556" lon="9.664431461191914"><ele>1124.3333333333333</ele><time>2026-04-06T10:22:51Z</time></trkpt><trkpt lat="44.722496446585744" lon="9.66434125829649"><ele>1123.5</ele><time>2026-04-06T10:22:52Z</time></trkpt><trkpt lat="44.7224946046144" lon="9.664249794090408"><ele>1122.6666666666667</ele><time>2026-04-06T10:22:54Z</time></trkpt><trkpt lat="44.72258808468907" lon="9.664276723394298"><ele>1121.8333333333335</ele><time>2026-04-06T10:22:57Z</time></trkpt><trkpt lat="44.722662367583425" lon="9.66435100376927"><ele>1121.0</ele><time>2026-04-06T10:23:01Z</time></trkpt><trkpt lat="44.72276977749589" lon="9.66444283510886"><ele>1115.8</ele><time>2026-04-06T10:23:05Z</time></trkpt><trkpt lat="44.72283865479515" lon="9.66452894010161"><ele>1110.6</ele><time>2026-04-06T10:23:07Z</time></trkpt><trkpt lat="44.72290746005031" lon="9.664548374553481"><ele>1105.4</ele><time>2026-04-06T10:23:09Z</time></trkpt><trkpt lat="44.72309868785917" lon="9.664474741563257"><ele>1100.2</ele><time>2026-04-06T10:23:11Z</time></trkpt><trkpt lat="44.72312503537712" lon="9.664370350899832"><ele>1095.0</ele><time>2026-04-06T10:23:12Z</time></trkpt><trkpt lat="44.72315042878115" lon="9.664245738863992"><ele>1095.0</ele><time>2026-04-06T10:23:13Z</time></trkpt><trkpt lat="44.72318010306165" lon="9.664127822986384"><ele>1095.0</ele><time>2026-04-06T10:23:14Z</time></trkpt><trkpt lat="44.72321241348974" lon="9.664022715020531"><ele>1095.0</ele><time>2026-04-06T10:23:15Z</time></trkpt><trkpt lat="44.72324778786762" lon="9.663937843738431"><ele>1095.0</ele><time>2026-04-06T10:23:16Z</time></trkpt><trkpt lat="44.72330264967397" lon="9.663797656274006"><ele>1095.0</ele><time>2026-04-06T10:23:18Z</time></trkpt><trkpt lat="44.723379860638985" lon="9.663778565034763"><ele>1095.0</ele><time>2026-04-06T10:23:20Z</time></trkpt><trkpt lat="44.72344146684823" lon="9.663813751999045"><ele>1095.0</ele><time>2026-04-06T10:23:21Z</time></trkpt><trkpt lat="44.72354614546246" lon="9.663883278866109"><ele>1095.0</ele><time>2026-04-06T10:23:23Z</time></trkpt><trkpt lat="44.723609665314605" lon="9.663869069273385"><ele>1095.0</ele><time>2026-04-06T10:23:24Z</time></trkpt><trkpt lat="44.723674447191286" lon="9.66380431992814"><ele>1095.0</ele><time>2026-04-06T10:23:26Z</time></trkpt><trkpt lat="44.72372291381885" lon="9.663679373270563"><ele>1095.0</ele><time>2026-04-06T10:23:28Z</time></trkpt><trkpt lat="44.72381928102535" lon="9.663679624728127"><ele>1090.0</ele><time>2026-04-06T10:23:30Z</time></trkpt><trkpt lat="44.723885127050394" lon="9.663749318257054"><ele>1085.0</ele><time>2026-04-06T10:23:31Z</time></trkpt><trkpt lat="44.7239605132948" lon="9.663854148649262"><ele>1080.0</ele><time>2026-04-06T10:23:33Z</time></trkpt><trkpt lat="44.723955599558074" lon="9.663959030958845"><ele>1075.0</ele><time>2026-04-06T10:23:34Z</time></trkpt><trkpt lat="44.724022934252034" lon="9.664095375378087"><ele>1070.0</ele><time>2026-04-06T10:23:36Z</time></trkpt><trkpt lat="44.7241294903425" lon="9.664190732451091"><ele>1070.0</ele><time>2026-04-06T10:23:38Z</time></trkpt><trkpt lat="44.72423447579736" lon="9.664158813954435"><ele>1070.0</ele><time>2026-04-06T10:23:40Z</time></trkpt><trkpt lat="44.724280743169935" lon="9.664070591144403"><ele>1070.0</ele><time>2026-04-06T10:23:42Z</time></trkpt><trkpt lat="44.724284093620405" lon="9.663965335033462"><ele>1070.0</ele><time>2026-04-06T10:23:44Z</time></trkpt><trkpt lat="44.72428535054978" lon="9.663848737066694"><ele>1070.0</ele><time>2026-04-06T10:23:46Z</time></trkpt><trkpt lat="44.72429440467631" lon="9.663708695370694"><ele>1070.0</ele><time>2026-04-06T10:23:48Z</time></trkpt><trkpt lat="44.72432127649525" lon="9.663585175009485"><ele>1070.0</ele><time>2026-04-06T10:23:50Z</time></trkpt><trkpt lat="44.72435898586035" lon="9.663455976773461"><ele>1070.0</ele><time>2026-04-06T10:23:52Z</time></trkpt><trkpt lat="44.72441046392825" lon="9.663367217840896"><ele>1070.0</ele><time>2026-04-06T10:23:54Z</time></trkpt><trkpt lat="44.72446962893414" lon="9.663292852628544"><ele>1070.0</ele><time>2026-04-06T10:23:57Z</time></trkpt><trkpt lat="44.72454898616189" lon="9.663223619040686"><ele>1070.0</ele><time>2026-04-06T10:23:59Z</time></trkpt><trkpt lat="44.724703671549555" lon="9.663177620084694"><ele>1066.8333333333335</ele><time>2026-04-06T10:24:01Z</time></trkpt><trkpt lat="44.72476628685439" lon="9.66312983419806"><ele>1063.6666666666667</ele><time>2026-04-06T10:24:02Z</time></trkpt><trkpt lat="44.724855162638534" lon="9.663065827252742"><ele>1060.5</ele><time>2026-04-06T10:24:04Z</time></trkpt><trkpt lat="44.7249190772048" lon="9.663009144242325"><ele>1057.3333333333333</ele><time>2026-04-06T10:24:05Z</time></trkpt><trkpt lat="44.724982806121815" lon="9.662972336768803"><ele>1054.1666666666665</ele><time>2026-04-06T10:24:06Z</time></trkpt><trkpt lat="44.72505001966707" lon="9.662970990768216"><ele>1051.0</ele><time>2026-04-06T10:24:08Z</time></trkpt><trkpt lat="44.72515671533115" lon="9.662968008811465"><ele>1047.7142857142858</ele><time>2026-04-06T10:24:10Z</time></trkpt><trkpt lat="44.725230013214976" lon="9.662932062007163"><ele>1044.4285714285713</ele><time>2026-04-06T10:24:11Z</time></trkpt><trkpt lat="44.72529962874216" lon="9.662895434396958"><ele>1041.142857142857</ele><time>2026-04-06T10:24:12Z</time></trkpt><trkpt lat="44.725365007345005" lon="9.662838610713003"><ele>1037.857142857143</ele><time>2026-04-06T10:24:13Z</time></trkpt><trkpt lat="44.725418111362124" lon="9.662781838382541"><ele>1034.5714285714287</ele><time>2026-04-06T10:24:14Z</time></trkpt><trkpt lat="44.72546334918792" lon="9.662718820856348"><ele>1031.2857142857142</ele><time>2026-04-06T10:24:15Z</time></trkpt><trkpt lat="44.725497683501374" lon="9.662643347813141"><ele>1028.0</ele><time>2026-04-06T10:24:16Z</time></trkpt><trkpt lat="44.725561512988165" lon="9.662505030379592"><ele>1028.0</ele><time>2026-04-06T10:24:18Z</time></trkpt><trkpt lat="44.7255907976273" lon="9.662404650291554"><ele>1028.0</ele><time>2026-04-06T10:24:19Z</time></trkpt><trkpt lat="44.72560122395189" lon="9.662300197299059"><ele>1028.0</ele><time>2026-04-06T10:24:20Z</time></trkpt><trkpt lat="44.72563163949578" lon="9.662215772991354"><ele>1028.0</ele><time>2026-04-06T10:24:21Z</time></trkpt><trkpt lat="44.72572211314498" lon="9.662144463354819"><ele>1028.0</ele><time>2026-04-06T10:24:23Z</time></trkpt><trkpt lat="44.72579273753212" lon="9.66218130856835"><ele>1028.0</ele><time>2026-04-06T10:24:24Z</time></trkpt><trkpt lat="44.725873562594174" lon="9.66219102091332"><ele>1028.0</ele><time>2026-04-06T10:24:25Z</time></trkpt><trkpt lat="44.725949573218" lon="9.662262285459532"><ele>1028.0</ele><time>2026-04-06T10:24:26Z</time></trkpt><trkpt lat="44.72602940993684" lon="9.662324209362591"><ele>1028.0</ele><time>2026-04-06T10:24:27Z</time></trkpt><trkpt lat="44.72610332097092" lon="9.66237831219053"><ele>1028.0</ele><time>2026-04-06T10:24:28Z</time></trkpt><trkpt lat="44.72612243436795" lon="9.662488955869469"><ele>1028.0</ele><time>2026-04-06T10:24:29Z</time></trkpt><trkpt lat="44.72617155658711" lon="9.662554935318228"><ele>1028.0</ele><time>2026-04-06T10:24:30Z</time></trkpt><trkpt lat="44.72626750420328" lon="9.662590801849841"><ele>1025.0</ele><time>2026-04-06T10:24:32Z</time></trkpt><trkpt lat="44.72633112297459" lon="9.662569294327904"><ele>1022.0</ele><time>2026-04-06T10:24:33Z</time></trkpt><trkpt lat="44.72643411696823" lon="9.662513385906825"><ele>1019.0</ele><time>2026-04-06T10:24:35Z</time></trkpt><trkpt lat="44.72650113154875" lon="9.662471225401726"><ele>1016.0</ele><time>2026-04-06T10:24:36Z</time></trkpt><trkpt lat="44.72658038930738" lon="9.662543793207451"><ele>1013.0000000000001</ele><time>2026-04-06T10:24:39Z</time></trkpt><trkpt lat="44.72659672866993" lon="9.66264690252775"><ele>1010.0</ele><time>2026-04-06T10:24:41Z</time></trkpt><trkpt lat="44.72663962781261" lon="9.66275154358889"><ele>1008.4</ele><time>2026-04-06T10:24:52Z</time></trkpt><trkpt lat="44.726704920723485" lon="9.662905134576135"><ele>1006.8</ele><time>2026-04-06T10:24:54Z</time></trkpt><trkpt lat="44.72674856453384" lon="9.662976455276098"><ele>1005.2</ele><time>2026-04-06T10:24:55Z</time></trkpt><trkpt lat="44.72686454916532" lon="9.662985966385714"><ele>1003.6</ele><time>2026-04-06T10:24:56Z</time></trkpt><trkpt lat="44.726982146904845" lon="9.663090673746602"><ele>1002.0</ele><time>2026-04-06T10:24:57Z</time></trkpt><trkpt lat="44.72707777131641" lon="9.66318151427064"><ele>1001.2</ele><time>2026-04-06T10:24:58Z</time></trkpt><trkpt lat="44.72717487166423" lon="9.663251728907895"><ele>1000.4000000000001</ele><time>2026-04-06T10:24:59Z</time></trkpt><trkpt lat="44.72726363857206" lon="9.663311229090779"><ele>999.5999999999999</ele><time>2026-04-06T10:25:00Z</time></trkpt><trkpt lat="44.72735402198614" lon="9.663362147133373"><ele>998.8</ele><time>2026-04-06T10:25:01Z</time></trkpt><trkpt lat="44.72745025979486" lon="9.663396794095435"><ele>998.0</ele><time>2026-04-06T10:25:02Z</time></trkpt><trkpt lat="44.72754107904586" lon="9.6634268255117"><ele>998.0</ele><time>2026-04-06T10:25:03Z</time></trkpt><trkpt lat="44.72763225972511" lon="9.663441404017828"><ele>998.0</ele><time>2026-04-06T10:25:04Z</time></trkpt><trkpt lat="44.727724682641664" lon="9.663464816476415"><ele>998.0</ele><time>2026-04-06T10:25:05Z</time></trkpt><trkpt lat="44.72781434822968" lon="9.663506476222542"><ele>998.0</ele><time>2026-04-06T10:25:06Z</time></trkpt><trkpt lat="44.72790306439672" lon="9.663564588663991"><ele>998.0</ele><time>2026-04-06T10:25:07Z</time></trkpt><trkpt lat="44.72797910664465" lon="9.66364394521002"><ele>995.4</ele><time>2026-04-06T10:25:08Z</time></trkpt><trkpt lat="44.72804127035421" lon="9.663743593416932"><ele>992.8</ele><time>2026-04-06T10:25:09Z</time></trkpt><trkpt lat="44.728089883254945" lon="9.663862206145263"><ele>990.2</ele><time>2026-04-06T10:25:10Z</time></trkpt><trkpt lat="44.7281389371274" lon="9.663975178291967"><ele>987.6</ele><time>2026-04-06T10:25:11Z</time></trkpt><trkpt lat="44.728201743726174" lon="9.664062611707495"><ele>985.0</ele><time>2026-04-06T10:25:12Z</time></trkpt><trkpt lat="44.72828495109581" lon="9.66412020018639"><ele>985.0</ele><time>2026-04-06T10:25:13Z</time></trkpt><trkpt lat="44.72837989273006" lon="9.664145189372139"><ele>985.0</ele><time>2026-04-06T10:25:14Z</time></trkpt><trkpt lat="44.72848261104501" lon="9.664155340105653"><ele>985.0</ele><time>2026-04-06T10:25:15Z</time></trkpt><trkpt lat="44.728581000198396" lon="9.664194521606241"><ele>985.0</ele><time>2026-04-06T10:25:16Z</time></trkpt><trkpt lat="44.7286794469121" lon="9.66418997562335"><ele>985.0</ele><time>2026-04-06T10:25:17Z</time></trkpt><trkpt lat="44.72878004946034" lon="9.664186310593392"><ele>983.6666666666666</ele><time>2026-04-06T10:25:18Z</time></trkpt><trkpt lat="44.72887856848731" lon="9.66419849175903"><ele>982.3333333333333</ele><time>2026-04-06T10:25:19Z</time></trkpt><trkpt lat="44.72897176787359" lon="9.664185424405147"><ele>981.0</ele><time>2026-04-06T10:25:20Z</time></trkpt><trkpt lat="44.72905913584965" lon="9.664177283904024"><ele>979.6666666666667</ele><time>2026-04-06T10:25:21Z</time></trkpt><trkpt lat="44.72913969667178" lon="9.664192407204133"><ele>978.3333333333334</ele><time>2026-04-06T10:25:22Z</time></trkpt><trkpt lat="44.729211517869125" lon="9.66423333338287"><ele>977.0</ele><time>2026-04-06T10:25:23Z</time></trkpt><trkpt lat="44.72926935516925" lon="9.664320825685213"><ele>977.0</ele><time>2026-04-06T10:25:24Z</time></trkpt><trkpt lat="44.72929759328552" lon="9.664426616964953"><ele>977.0</ele><time>2026-04-06T10:25:25Z</time></trkpt><trkpt lat="44.72933193574265" lon="9.664514518376848"><ele>977.0</ele><time>2026-04-06T10:25:26Z</time></trkpt><trkpt lat="44.729320908274" lon="9.664636659527796"><ele>977.0</ele><time>2026-04-06T10:25:27Z</time></trkpt><trkpt lat="44.729358196314344" lon="9.664810297965758"><ele>977.0</ele><time>2026-04-06T10:25:28Z</time></trkpt><trkpt lat="44.7293683245533" lon="9.664931193466836"><ele>978.2</ele><time>2026-04-06T10:25:29Z</time></trkpt><trkpt lat="44.72939587631581" lon="9.665034833282384"><ele>979.4000000000001</ele><time>2026-04-06T10:25:30Z</time></trkpt><trkpt lat="44.72951997332143" lon="9.665192105344119"><ele>980.5999999999999</ele><time>2026-04-06T10:25:31Z</time></trkpt><trkpt lat="44.72957861281681" lon="9.665305326427426"><ele>981.8</ele><time>2026-04-06T10:25:32Z</time></trkpt><trkpt lat="44.72963755165098" lon="9.665415420824843"><ele>983.0</ele><time>2026-04-06T10:25:33Z</time></trkpt><trkpt lat="44.7296956811347" lon="9.665518515760816"><ele>983.0</ele><time>2026-04-06T10:25:34Z</time></trkpt><trkpt lat="44.729759821803604" lon="9.665625046920043"><ele>983.0</ele><time>2026-04-06T10:25:35Z</time></trkpt><trkpt lat="44.729827555669644" lon="9.665731081854977"><ele>983.0</ele><time>2026-04-06T10:25:36Z</time></trkpt><trkpt lat="44.72990446925761" lon="9.665823379770089"><ele>983.0</ele><time>2026-04-06T10:25:37Z</time></trkpt><trkpt lat="44.72997724084077" lon="9.665929883499915"><ele>983.0</ele><time>2026-04-06T10:25:38Z</time></trkpt><trkpt lat="44.730057039045654" lon="9.666033648300775"><ele>984.0</ele><time>2026-04-06T10:25:39Z</time></trkpt><trkpt lat="44.73013437529033" lon="9.66613539480278"><ele>985.0</ele><time>2026-04-06T10:25:40Z</time></trkpt><trkpt lat="44.730214248026954" lon="9.666228938151592"><ele>986.0</ele><time>2026-04-06T10:25:41Z</time></trkpt><trkpt lat="44.73029554286016" lon="9.666336572164122"><ele>987.0</ele><time>2026-04-06T10:25:42Z</time></trkpt><trkpt lat="44.73035080178376" lon="9.666467469583258"><ele>988.0</ele><time>2026-04-06T10:25:43Z</time></trkpt><trkpt lat="44.730382098083055" lon="9.666620152303397"><ele>987.9999999999999</ele><time>2026-04-06T10:25:44Z</time></trkpt><trkpt lat="44.73042105551709" lon="9.666758364913283"><ele>988.0</ele><time>2026-04-06T10:25:45Z</time></trkpt><trkpt lat="44.73047629084714" lon="9.666871046841958"><ele>988.0</ele><time>2026-04-06T10:25:46Z</time></trkpt><trkpt lat="44.730518618605046" lon="9.666977301202726"><ele>988.0</ele><time>2026-04-06T10:25:47Z</time></trkpt><trkpt lat="44.73056516925639" lon="9.667063570143092"><ele>987.9999999999999</ele><time>2026-04-06T10:25:48Z</time></trkpt><trkpt lat="44.73063369547339" lon="9.66711984387489"><ele>988.0</ele><time>2026-04-06T10:25:49Z</time></trkpt><trkpt lat="44.73071526719228" lon="9.667155511067355"><ele>987.5999999999999</ele><time>2026-04-06T10:25:50Z</time></trkpt><trkpt lat="44.73080010663436" lon="9.667190576669096"><ele>987.1999999999999</ele><time>2026-04-06T10:25:51Z</time></trkpt><trkpt lat="44.73088771313173" lon="9.667226987508206"><ele>986.8</ele><time>2026-04-06T10:25:52Z</time></trkpt><trkpt lat="44.73097626924046" lon="9.66727616288747"><ele>986.4</ele><time>2026-04-06T10:25:53Z</time></trkpt><trkpt lat="44.731053972985535" lon="9.667349755971362"><ele>986.0</ele><time>2026-04-06T10:25:54Z</time></trkpt><trkpt lat="44.731087875208594" lon="9.667471218427606"><ele>985.5</ele><time>2026-04-06T10:25:55Z</time></trkpt><trkpt lat="44.73111152348426" lon="9.66778887844606"><ele>985.0</ele><time>2026-04-06T10:25:57Z</time></trkpt><trkpt lat="44.7311757697961" lon="9.667916756815897"><ele>984.5</ele><time>2026-04-06T10:26:01Z</time></trkpt><trkpt lat="44.73123346294175" lon="9.667998934512235"><ele>984.0</ele><time>2026-04-06T10:26:02Z</time></trkpt><trkpt lat="44.73130487940248" lon="9.668047978957384"><ele>984.0</ele><time>2026-04-06T10:26:03Z</time></trkpt><trkpt lat="44.73139785723831" lon="9.66806591222438"><ele>984.0000000000001</ele><time>2026-04-06T10:26:04Z</time></trkpt><trkpt lat="44.73147701404576" lon="9.668114282292604"><ele>984.0000000000001</ele><time>2026-04-06T10:26:05Z</time></trkpt><trkpt lat="44.73156137617659" lon="9.668151300652013"><ele>984.0</ele><time>2026-04-06T10:26:06Z</time></trkpt><trkpt lat="44.731660011067326" lon="9.668212599913835"><ele>984.0</ele><time>2026-04-06T10:26:07Z</time></trkpt><trkpt lat="44.731783911280736" lon="9.66833873316252"><ele>984.0</ele><time>2026-04-06T10:26:08Z</time></trkpt><trkpt lat="44.73188058823411" lon="9.668468893040014"><ele>984.0</ele><time>2026-04-06T10:26:09Z</time></trkpt><trkpt lat="44.73195796390195" lon="9.6685948743086"><ele>984.0</ele><time>2026-04-06T10:26:10Z</time></trkpt><trkpt lat="44.73203121040791" lon="9.668733709964988"><ele>984.0</ele><time>2026-04-06T10:26:11Z</time></trkpt><trkpt lat="44.73209910722022" lon="9.66888604807189"><ele>984.5</ele><time>2026-04-06T10:26:12Z</time></trkpt><trkpt lat="44.732171931724174" lon="9.669056848651106"><ele>985.0</ele><time>2026-04-06T10:26:13Z</time></trkpt><trkpt lat="44.732243014043" lon="9.669224606627163"><ele>985.5</ele><time>2026-04-06T10:26:14Z</time></trkpt><trkpt lat="44.73230708411729" lon="9.669364894038415"><ele>986.0</ele><time>2026-04-06T10:26:15Z</time></trkpt><trkpt lat="44.73238507297483" lon="9.669493704396087"><ele>986.0</ele><time>2026-04-06T10:26:16Z</time></trkpt><trkpt lat="44.7324726540143" lon="9.669615104299833"><ele>986.0</ele><time>2026-04-06T10:26:17Z</time></trkpt><trkpt lat="44.73255234627094" lon="9.669739494919627"><ele>986.0</ele><time>2026-04-06T10:26:18Z</time></trkpt><trkpt lat="44.73265425218304" lon="9.669812266514956"><ele>986.0</ele><time>2026-04-06T10:26:19Z</time></trkpt><trkpt lat="44.73274656913679" lon="9.669888102617012"><ele>986.4</ele><time>2026-04-06T10:26:20Z</time></trkpt><trkpt lat="44.73283919893339" lon="9.669957012620559"><ele>986.8</ele><time>2026-04-06T10:26:21Z</time></trkpt><trkpt lat="44.73293786449488" lon="9.669998967698573"><ele>987.1999999999999</ele><time>2026-04-06T10:26:22Z</time></trkpt><trkpt lat="44.73303992176181" lon="9.670016661441108"><ele>987.5999999999999</ele><time>2026-04-06T10:26:23Z</time></trkpt><trkpt lat="44.73315263811335" lon="9.67004339064809"><ele>988.0</ele><time>2026-04-06T10:26:24Z</time></trkpt><trkpt lat="44.73326165810175" lon="9.670046389671672"><ele>987.9999999999999</ele><time>2026-04-06T10:26:25Z</time></trkpt><trkpt lat="44.73336164134454" lon="9.67004882236065"><ele>988.0</ele><time>2026-04-06T10:26:26Z</time></trkpt><trkpt lat="44.73345041454031" lon="9.670050394082944"><ele>988.0</ele><time>2026-04-06T10:26:27Z</time></trkpt><trkpt lat="44.73353588450234" lon="9.670027068786585"><ele>988.0</ele><time>2026-04-06T10:26:28Z</time></trkpt><trkpt lat="44.73361528741395" lon="9.670023706414472"><ele>987.9999999999999</ele><time>2026-04-06T10:26:29Z</time></trkpt><trkpt lat="44.73367727522753" lon="9.669998614898237"><ele>988.0</ele><time>2026-04-06T10:26:30Z</time></trkpt><trkpt lat="44.73378732442334" lon="9.669988540840738"><ele>988.2</ele><time>2026-04-06T10:26:32Z</time></trkpt><trkpt lat="44.73388970484329" lon="9.669993458644482"><ele>988.4</ele><time>2026-04-06T10:26:34Z</time></trkpt><trkpt lat="44.73397862559477" lon="9.66998069419703"><ele>988.6000000000001</ele><time>2026-04-06T10:26:36Z</time></trkpt><trkpt lat="44.73405080742821" lon="9.669957458592059"><ele>988.8000000000001</ele><time>2026-04-06T10:26:38Z</time></trkpt><trkpt lat="44.73417291160261" lon="9.669998570386861"><ele>989.0</ele><time>2026-04-06T10:26:40Z</time></trkpt><trkpt lat="44.73422844547365" lon="9.670045586823242"><ele>989.0</ele><time>2026-04-06T10:26:41Z</time></trkpt><trkpt lat="44.73432226478924" lon="9.670129565339339"><ele>989.0000000000001</ele><time>2026-04-06T10:26:43Z</time></trkpt><trkpt lat="44.734381406607255" lon="9.670163938592722"><ele>989.0000000000001</ele><time>2026-04-06T10:26:44Z</time></trkpt><trkpt lat="44.73445316114639" lon="9.670201135586172"><ele>989.0</ele><time>2026-04-06T10:26:45Z</time></trkpt><trkpt lat="44.734579502450195" lon="9.67019375054336"><ele>989.0</ele><time>2026-04-06T10:26:47Z</time></trkpt><trkpt lat="44.734650903227816" lon="9.670167073158701"><ele>988.0</ele><time>2026-04-06T10:26:48Z</time></trkpt><trkpt lat="44.734722947956215" lon="9.670119806211005"><ele>986.9999999999999</ele><time>2026-04-06T10:26:49Z</time></trkpt><trkpt lat="44.7347894537266" lon="9.670110083261134"><ele>986.0</ele><time>2026-04-06T10:26:50Z</time></trkpt><trkpt lat="44.734851819957704" lon="9.67013583637905"><ele>985.0</ele><time>2026-04-06T10:26:51Z</time></trkpt><trkpt lat="44.73491930423698" lon="9.670130852651761"><ele>983.9999999999999</ele><time>2026-04-06T10:26:52Z</time></trkpt><trkpt lat="44.73499200692754" lon="9.67009776270032"><ele>983.0</ele><time>2026-04-06T10:26:53Z</time></trkpt><trkpt lat="44.735075523033565" lon="9.670054496039391"><ele>982.0</ele><time>2026-04-06T10:26:54Z</time></trkpt><trkpt lat="44.735163196989014" lon="9.670033197604587"><ele>980.4000000000001</ele><time>2026-04-06T10:26:55Z</time></trkpt><trkpt lat="44.735248360712944" lon="9.670012774528224"><ele>978.8000000000001</ele><time>2026-04-06T10:26:56Z</time></trkpt><trkpt lat="44.7353201376866" lon="9.669974754783613"><ele>977.2</ele><time>2026-04-06T10:26:57Z</time></trkpt><trkpt lat="44.73538843922284" lon="9.669954516823427"><ele>975.6</ele><time>2026-04-06T10:26:58Z</time></trkpt><trkpt lat="44.73547321396885" lon="9.669877324569732"><ele>974.0</ele><time>2026-04-06T10:27:00Z</time></trkpt><trkpt lat="44.73555615654992" lon="9.669749412575186"><ele>974.0000000000001</ele><time>2026-04-06T10:27:02Z</time></trkpt><trkpt lat="44.735605114125995" lon="9.669680827930831"><ele>974.0</ele><time>2026-04-06T10:27:04Z</time></trkpt><trkpt lat="44.73567431399873" lon="9.6697013579953"><ele>974.0</ele><time>2026-04-06T10:27:07Z</time></trkpt><trkpt lat="44.73575101549046" lon="9.669718620586572"><ele>974.0</ele><time>2026-04-06T10:27:09Z</time></trkpt><trkpt lat="44.735862634756515" lon="9.669713061941438"><ele>974.0000000000001</ele><time>2026-04-06T10:27:11Z</time></trkpt><trkpt lat="44.73594116289524" lon="9.66971439461947"><ele>974.0</ele><time>2026-04-06T10:27:12Z</time></trkpt><trkpt lat="44.736048187736316" lon="9.669690013877918"><ele>970.5</ele><time>2026-04-06T10:27:13Z</time></trkpt><trkpt lat="44.73616017730155" lon="9.66966058181708"><ele>967.0</ele><time>2026-04-06T10:27:14Z</time></trkpt><trkpt lat="44.73625987149274" lon="9.66961884501501"><ele>963.5</ele><time>2026-04-06T10:27:15Z</time></trkpt><trkpt lat="44.73635308758137" lon="9.669553489931092"><ele>960.0</ele><time>2026-04-06T10:27:16Z</time></trkpt><trkpt lat="44.736464392662626" lon="9.669462024704865"><ele>960.75</ele><time>2026-04-06T10:27:17Z</time></trkpt><trkpt lat="44.736576627391884" lon="9.669365584149489"><ele>961.5</ele><time>2026-04-06T10:27:18Z</time></trkpt><trkpt lat="44.73669414068172" lon="9.66927792562532"><ele>962.25</ele><time>2026-04-06T10:27:19Z</time></trkpt><trkpt lat="44.73680635491099" lon="9.669195864059725"><ele>963.0</ele><time>2026-04-06T10:27:20Z</time></trkpt><trkpt lat="44.73692303001883" lon="9.669114980389809"><ele>960.25</ele><time>2026-04-06T10:27:21Z</time></trkpt><trkpt lat="44.73704622379455" lon="9.669023641544012"><ele>957.5</ele><time>2026-04-06T10:27:22Z</time></trkpt><trkpt lat="44.73717071822324" lon="9.668928898584332"><ele>954.75</ele><time>2026-04-06T10:27:23Z</time></trkpt><trkpt lat="44.737283209364435" lon="9.668831805783302"><ele>952.0</ele><time>2026-04-06T10:27:24Z</time></trkpt><trkpt lat="44.73738621005577" lon="9.66873191649228"><ele>952.0</ele><time>2026-04-06T10:27:25Z</time></trkpt><trkpt lat="44.73748273742403" lon="9.668632122935074"><ele>952.0</ele><time>2026-04-06T10:27:26Z</time></trkpt><trkpt lat="44.737577620066624" lon="9.668529018565124"><ele>952.0</ele><time>2026-04-06T10:27:27Z</time></trkpt><trkpt lat="44.73767734216235" lon="9.668431124896186"><ele>952.0</ele><time>2026-04-06T10:27:28Z</time></trkpt><trkpt lat="44.7377877221822" lon="9.668352193123745"><ele>951.0</ele><time>2026-04-06T10:27:29Z</time></trkpt><trkpt lat="44.73789494378751" lon="9.668272706128018"><ele>950.0</ele><time>2026-04-06T10:27:30Z</time></trkpt><trkpt lat="44.73799723559435" lon="9.668192113282858"><ele>949.0</ele><time>2026-04-06T10:27:31Z</time></trkpt><trkpt lat="44.73809680617917" lon="9.668114216191075"><ele>948.0</ele><time>2026-04-06T10:27:32Z</time></trkpt><trkpt lat="44.73819977663463" lon="9.668049417863006"><ele>948.0</ele><time>2026-04-06T10:27:33Z</time></trkpt><trkpt lat="44.73828619244809" lon="9.667984782196868"><ele>948.0</ele><time>2026-04-06T10:27:34Z</time></trkpt><trkpt lat="44.738343739546934" lon="9.66790061646965"><ele>948.0</ele><time>2026-04-06T10:27:35Z</time></trkpt><trkpt lat="44.73837449368261" lon="9.667796182962721"><ele>948.0</ele><time>2026-04-06T10:27:36Z</time></trkpt><trkpt lat="44.73836179475135" lon="9.66766065885184"><ele>948.0</ele><time>2026-04-06T10:27:37Z</time></trkpt><trkpt lat="44.738348236258325" lon="9.66752407832841"><ele>947.5999999999999</ele><time>2026-04-06T10:27:38Z</time></trkpt><trkpt lat="44.73834096555387" lon="9.667390108343907"><ele>947.1999999999999</ele><time>2026-04-06T10:27:39Z</time></trkpt><trkpt lat="44.73835761069871" lon="9.667281501134019"><ele>946.8</ele><time>2026-04-06T10:27:40Z</time></trkpt><trkpt lat="44.738385535751604" lon="9.66718782439218"><ele>946.4</ele><time>2026-04-06T10:27:41Z</time></trkpt><trkpt lat="44.73845596859387" lon="9.66704203647524"><ele>946.0</ele><time>2026-04-06T10:27:43Z</time></trkpt><trkpt lat="44.73850652715292" lon="9.666953818873983"><ele>943.4</ele><time>2026-04-06T10:27:45Z</time></trkpt><trkpt lat="44.73855654693334" lon="9.66685199674901"><ele>940.8</ele><time>2026-04-06T10:28:21Z</time></trkpt><trkpt lat="44.738620051634626" lon="9.666778578202422"><ele>938.1999999999999</ele><time>2026-04-06T10:28:22Z</time></trkpt><trkpt lat="44.73869029927885" lon="9.666689425062213"><ele>935.5999999999999</ele><time>2026-04-06T10:28:23Z</time></trkpt><trkpt lat="44.7387715272894" lon="9.666589578020586"><ele>933.0</ele><time>2026-04-06T10:28:24Z</time></trkpt><trkpt lat="44.738843329349585" lon="9.666463834258549"><ele>933.0</ele><time>2026-04-06T10:28:25Z</time></trkpt><trkpt lat="44.738933825244075" lon="9.666343209185419"><ele>933.0</ele><time>2026-04-06T10:28:26Z</time></trkpt><trkpt lat="44.739013286955384" lon="9.666220539597079"><ele>933.0</ele><time>2026-04-06T10:28:27Z</time></trkpt><trkpt lat="44.73908248151047" lon="9.666090164177499"><ele>933.0</ele><time>2026-04-06T10:28:28Z</time></trkpt><trkpt lat="44.739163675734645" lon="9.665981952332837"><ele>933.5999999999999</ele><time>2026-04-06T10:28:29Z</time></trkpt><trkpt lat="44.739243124292955" lon="9.665872167920725"><ele>934.1999999999999</ele><time>2026-04-06T10:28:30Z</time></trkpt><trkpt lat="44.73931633721292" lon="9.665758737859086"><ele>934.8</ele><time>2026-04-06T10:28:31Z</time></trkpt><trkpt lat="44.73937925069817" lon="9.665636412986533"><ele>935.4</ele><time>2026-04-06T10:28:32Z</time></trkpt><trkpt lat="44.73943895682458" lon="9.665512074947848"><ele>936.0</ele><time>2026-04-06T10:28:33Z</time></trkpt><trkpt lat="44.73950784347455" lon="9.66539523643998"><ele>934.1999999999999</ele><time>2026-04-06T10:28:34Z</time></trkpt><trkpt lat="44.739590332052295" lon="9.66529529881425"><ele>932.3999999999999</ele><time>2026-04-06T10:28:35Z</time></trkpt><trkpt lat="44.73968040646685" lon="9.665212069955535"><ele>930.6</ele><time>2026-04-06T10:28:36Z</time></trkpt><trkpt lat="44.739768962730125" lon="9.665161415832998"><ele>928.8</ele><time>2026-04-06T10:28:37Z</time></trkpt><trkpt lat="44.73984561347785" lon="9.665174194202402"><ele>927.0</ele><time>2026-04-06T10:28:38Z</time></trkpt><trkpt lat="44.73991490461087" lon="9.665147678599181"><ele>927.0</ele><time>2026-04-06T10:28:39Z</time></trkpt><trkpt lat="44.74002852753926" lon="9.665114879821697"><ele>927.0</ele><time>2026-04-06T10:28:41Z</time></trkpt><trkpt lat="44.74011913365251" lon="9.66512516428377"><ele>927.0</ele><time>2026-04-06T10:28:43Z</time></trkpt><trkpt lat="44.74022915895251" lon="9.665049241803448"><ele>927.0</ele><time>2026-04-06T10:28:45Z</time></trkpt><trkpt lat="44.740297983767256" lon="9.665004923062005"><ele>927.0</ele><time>2026-04-06T10:28:46Z</time></trkpt><trkpt lat="44.74039604673274" lon="9.664943494050526"><ele>926.75</ele><time>2026-04-06T10:28:47Z</time></trkpt><trkpt lat="44.74050426091952" lon="9.664879316226465"><ele>926.5</ele><time>2026-04-06T10:28:48Z</time></trkpt><trkpt lat="44.74061840645051" lon="9.664812941464932"><ele>926.25</ele><time>2026-04-06T10:28:49Z</time></trkpt><trkpt lat="44.74074801292406" lon="9.664745677091055"><ele>926.0</ele><time>2026-04-06T10:28:50Z</time></trkpt><trkpt lat="44.74086386168802" lon="9.66467550869635"><ele>926.0</ele><time>2026-04-06T10:28:51Z</time></trkpt><trkpt lat="44.740969754905365" lon="9.664619241725823"><ele>925.9999999999999</ele><time>2026-04-06T10:28:52Z</time></trkpt><trkpt lat="44.741069694061224" lon="9.664557236199746"><ele>925.9999999999999</ele><time>2026-04-06T10:28:53Z</time></trkpt><trkpt lat="44.74117061192314" lon="9.664497281952787"><ele>926.0</ele><time>2026-04-06T10:28:54Z</time></trkpt><trkpt lat="44.741270233814525" lon="9.66443573626873"><ele>926.0</ele><time>2026-04-06T10:28:55Z</time></trkpt><trkpt lat="44.74137010063616" lon="9.664371184788845"><ele>925.5</ele><time>2026-04-06T10:28:56Z</time></trkpt><trkpt lat="44.741474978221554" lon="9.66431218843466"><ele>925.0</ele><time>2026-04-06T10:28:57Z</time></trkpt><trkpt lat="44.741579849787854" lon="9.664255383497158"><ele>924.5</ele><time>2026-04-06T10:28:58Z</time></trkpt><trkpt lat="44.74168725672833" lon="9.664193378323516"><ele>924.0</ele><time>2026-04-06T10:28:59Z</time></trkpt><trkpt lat="44.741793000674186" lon="9.664119142012762"><ele>922.75</ele><time>2026-04-06T10:29:00Z</time></trkpt><trkpt lat="44.741895001107906" lon="9.664026924721462"><ele>921.5</ele><time>2026-04-06T10:29:01Z</time></trkpt><trkpt lat="44.7419910331613" lon="9.663912985651375"><ele>920.25</ele><time>2026-04-06T10:29:02Z</time></trkpt><trkpt lat="44.74208356787066" lon="9.663784807322148"><ele>919.0</ele><time>2026-04-06T10:29:03Z</time></trkpt><trkpt lat="44.74217815632526" lon="9.66365163541867"><ele>919.75</ele><time>2026-04-06T10:29:04Z</time></trkpt><trkpt lat="44.74228260430995" lon="9.663529925032753"><ele>920.5</ele><time>2026-04-06T10:29:05Z</time></trkpt><trkpt lat="44.74239329342966" lon="9.663421964666863"><ele>921.25</ele><time>2026-04-06T10:29:06Z</time></trkpt><trkpt lat="44.742511307191144" lon="9.663334608073031"><ele>922.0</ele><time>2026-04-06T10:29:07Z</time></trkpt><trkpt lat="44.742619806351556" lon="9.663267521686032"><ele>922.4000000000001</ele><time>2026-04-06T10:29:08Z</time></trkpt><trkpt lat="44.74272298050512" lon="9.66320910534337"><ele>922.8000000000001</ele><time>2026-04-06T10:29:09Z</time></trkpt><trkpt lat="44.74281711838136" lon="9.663154055622272"><ele>923.2</ele><time>2026-04-06T10:29:10Z</time></trkpt><trkpt lat="44.74290325154501" lon="9.663105122713032"><ele>923.6</ele><time>2026-04-06T10:29:11Z</time></trkpt><trkpt lat="44.74299384045548" lon="9.66307549729689"><ele>924.0</ele><time>2026-04-06T10:29:12Z</time></trkpt><trkpt lat="44.74308201019216" lon="9.663071991185817"><ele>924.0</ele><time>2026-04-06T10:29:13Z</time></trkpt><trkpt lat="44.74315109775579" lon="9.663081660724416"><ele>924.0</ele><time>2026-04-06T10:29:14Z</time></trkpt><trkpt lat="44.74321265607213" lon="9.663112196445342"><ele>924.0</ele><time>2026-04-06T10:29:15Z</time></trkpt><trkpt lat="44.74329969883174" lon="9.66317732227086"><ele>924.0</ele><time>2026-04-06T10:29:17Z</time></trkpt><trkpt lat="44.74330174297239" lon="9.662822001463311"><ele>923.6666666666666</ele><time>2026-04-06T10:29:21Z</time></trkpt><trkpt lat="44.743289681659725" lon="9.662725636629323"><ele>923.3333333333333</ele><time>2026-04-06T10:29:22Z</time></trkpt><trkpt lat="44.743351940399506" lon="9.662598538976738"><ele>923.0</ele><time>2026-04-06T10:29:24Z</time></trkpt><trkpt lat="44.74342190152818" lon="9.66256053556244"><ele>922.6666666666666</ele><time>2026-04-06T10:29:25Z</time></trkpt><trkpt lat="44.74350372697358" lon="9.662525397909233"><ele>922.3333333333333</ele><time>2026-04-06T10:29:26Z</time></trkpt><trkpt lat="44.743599498685626" lon="9.662486470502392"><ele>922.0</ele><time>2026-04-06T10:29:27Z</time></trkpt><trkpt lat="44.743715650795245" lon="9.662432901089899"><ele>922.6666666666666</ele><time>2026-04-06T10:29:28Z</time></trkpt><trkpt lat="44.743824564200104" lon="9.662380305873604"><ele>923.3333333333333</ele><time>2026-04-06T10:29:29Z</time></trkpt><trkpt lat="44.74390896828237" lon="9.66233406533088"><ele>924.0</ele><time>2026-04-06T10:29:30Z</time></trkpt><trkpt lat="44.743975458723696" lon="9.6622954196305"><ele>924.6666666666667</ele><time>2026-04-06T10:29:31Z</time></trkpt><trkpt lat="44.74403620915168" lon="9.662259857252154"><ele>925.3333333333334</ele><time>2026-04-06T10:29:32Z</time></trkpt><trkpt lat="44.74409738642733" lon="9.662219586553114"><ele>926.0</ele><time>2026-04-06T10:29:33Z</time></trkpt><trkpt lat="44.74417718910518" lon="9.662165440380681"><ele>926.0</ele><time>2026-04-06T10:29:34Z</time></trkpt><trkpt lat="44.744267487232825" lon="9.66211744463462"><ele>925.9999999999999</ele><time>2026-04-06T10:29:35Z</time></trkpt><trkpt lat="44.7443493144576" lon="9.662054529023631"><ele>925.9999999999999</ele><time>2026-04-06T10:29:36Z</time></trkpt><trkpt lat="44.74442919997464" lon="9.662019088617468"><ele>926.0</ele><time>2026-04-06T10:29:37Z</time></trkpt><trkpt lat="44.74453492580362" lon="9.66200414597319"><ele>926.0</ele><time>2026-04-06T10:29:38Z</time></trkpt><trkpt lat="44.744652382108676" lon="9.66193839053381"><ele>927.5999999999999</ele><time>2026-04-06T10:29:39Z</time></trkpt><trkpt lat="44.744764611839074" lon="9.661883957331453"><ele>929.1999999999999</ele><time>2026-04-06T10:29:40Z</time></trkpt><trkpt lat="44.74486104059369" lon="9.661858251102963"><ele>930.8000000000001</ele><time>2026-04-06T10:29:41Z</time></trkpt><trkpt lat="44.744973592449014" lon="9.66184497751398"><ele>932.4000000000001</ele><time>2026-04-06T10:29:42Z</time></trkpt><trkpt lat="44.745082986006246" lon="9.661839111435125"><ele>934.0</ele><time>2026-04-06T10:29:43Z</time></trkpt><trkpt lat="44.74518914584564" lon="9.661837037236946"><ele>935.6</ele><time>2026-04-06T10:29:44Z</time></trkpt><trkpt lat="44.74528745107947" lon="9.661832409604207"><ele>937.2</ele><time>2026-04-06T10:29:45Z</time></trkpt><trkpt lat="44.74537961828153" lon="9.661808026437196"><ele>938.8000000000001</ele><time>2026-04-06T10:29:46Z</time></trkpt><trkpt lat="44.7454841559913" lon="9.661772682514627"><ele>940.4000000000001</ele><time>2026-04-06T10:29:47Z</time></trkpt><trkpt lat="44.7455905683159" lon="9.66173394020583"><ele>942.0</ele><time>2026-04-06T10:29:48Z</time></trkpt><trkpt lat="44.74567743927494" lon="9.661720755528451"><ele>942.0</ele><time>2026-04-06T10:29:49Z</time></trkpt><trkpt lat="44.74575317647888" lon="9.661696140417082"><ele>942.0</ele><time>2026-04-06T10:29:50Z</time></trkpt><trkpt lat="44.745813109969994" lon="9.661659353485081"><ele>942.0</ele><time>2026-04-06T10:29:51Z</time></trkpt><trkpt lat="44.745943871401636" lon="9.661620950609015"><ele>942.0</ele><time>2026-04-06T10:29:53Z</time></trkpt><trkpt lat="44.74601201413342" lon="9.6615973606221"><ele>942.0</ele><time>2026-04-06T10:29:54Z</time></trkpt><trkpt lat="44.74610617911232" lon="9.661573659271193"><ele>942.0</ele><time>2026-04-06T10:29:55Z</time></trkpt><trkpt lat="44.74620813207436" lon="9.661524747542245"><ele>944.0</ele><time>2026-04-06T10:29:56Z</time></trkpt><trkpt lat="44.746298140920025" lon="9.661473945699976"><ele>946.0</ele><time>2026-04-06T10:29:57Z</time></trkpt><trkpt lat="44.74636354608413" lon="9.661417536614886"><ele>948.0</ele><time>2026-04-06T10:29:58Z</time></trkpt><trkpt lat="44.746440142854084" lon="9.661355245941978"><ele>950.0</ele><time>2026-04-06T10:29:59Z</time></trkpt><trkpt lat="44.746509468791864" lon="9.661288088291714"><ele>952.0</ele><time>2026-04-06T10:30:00Z</time></trkpt><trkpt lat="44.74656645588418" lon="9.661227801219304"><ele>954.0</ele><time>2026-04-06T10:30:01Z</time></trkpt><trkpt lat="44.74665856933092" lon="9.661158431819285"><ele>955.3333333333334</ele><time>2026-04-06T10:30:03Z</time></trkpt><trkpt lat="44.74671545428775" lon="9.66111173531826"><ele>956.6666666666667</ele><time>2026-04-06T10:30:04Z</time></trkpt><trkpt lat="44.74677219712377" lon="9.661059821605614"><ele>958.0</ele><time>2026-04-06T10:30:05Z</time></trkpt><trkpt lat="44.746833937231266" lon="9.660992923260341"><ele>959.3333333333334</ele><time>2026-04-06T10:30:07Z</time></trkpt><trkpt lat="44.746914594267075" lon="9.660924779846974"><ele>960.6666666666667</ele><time>2026-04-06T10:30:10Z</time></trkpt><trkpt lat="44.74697557435811" lon="9.66087762143957"><ele>962.0</ele><time>2026-04-06T10:30:13Z</time></trkpt><trkpt lat="44.74710849850762" lon="9.660829911645106"><ele>965.6</ele><time>2026-04-06T10:30:14Z</time></trkpt><trkpt lat="44.74721935311518" lon="9.66076942020737"><ele>969.2</ele><time>2026-04-06T10:30:16Z</time></trkpt><trkpt lat="44.74730292159654" lon="9.660681242750815"><ele>972.8</ele><time>2026-04-06T10:30:18Z</time></trkpt><trkpt lat="44.747342752435216" lon="9.660592173839378"><ele>976.4</ele><time>2026-04-06T10:30:21Z</time></trkpt><trkpt lat="44.74741058588506" lon="9.660534880725434"><ele>980.0</ele><time>2026-04-06T10:30:24Z</time></trkpt><trkpt lat="44.74742866121787" lon="9.660432932403273"><ele>980.0</ele><time>2026-04-06T10:30:27Z</time></trkpt><trkpt lat="44.74747767356014" lon="9.6603171571476"><ele>980.0</ele><time>2026-04-06T10:30:29Z</time></trkpt><trkpt lat="44.74749978039703" lon="9.66020698743683"><ele>980.0</ele><time>2026-04-06T10:30:31Z</time></trkpt><trkpt lat="44.74756433141319" lon="9.660063773474906"><ele>980.0</ele><time>2026-04-06T10:31:21Z</time></trkpt><trkpt lat="44.747630170077336" lon="9.660011157730802"><ele>980.0</ele><time>2026-04-06T10:31:22Z</time></trkpt><trkpt lat="44.74773207849454" lon="9.659952867293338"><ele>983.0000000000001</ele><time>2026-04-06T10:31:24Z</time></trkpt><trkpt lat="44.747837229278616" lon="9.659868465814366"><ele>986.0</ele><time>2026-04-06T10:31:26Z</time></trkpt><trkpt lat="44.74793813225836" lon="9.659816667004277"><ele>989.0</ele><time>2026-04-06T10:31:28Z</time></trkpt><trkpt lat="44.74801299916438" lon="9.659788299461457"><ele>992.0</ele><time>2026-04-06T10:31:30Z</time></trkpt><trkpt lat="44.74807685996964" lon="9.65976110339577"><ele>995.0000000000001</ele><time>2026-04-06T10:31:32Z</time></trkpt><trkpt lat="44.748142673267154" lon="9.659750740062313"><ele>998.0</ele><time>2026-04-06T10:31:36Z</time></trkpt><trkpt lat="44.74820776205043" lon="9.659717276820283"><ele>998.0000000000001</ele><time>2026-04-06T10:31:41Z</time></trkpt><trkpt lat="44.74823565090265" lon="9.659624026133006"><ele>998.0</ele><time>2026-04-06T10:31:44Z</time></trkpt><trkpt lat="44.74823154530036" lon="9.659522349115615"><ele>998.0000000000001</ele><time>2026-04-06T10:31:49Z</time></trkpt><trkpt lat="44.74823489615831" lon="9.659624910379398"><ele>998.0000000000001</ele><time>2026-04-06T10:33:10Z</time></trkpt><trkpt lat="44.748200681418844" lon="9.659704796013974"><ele>998.0</ele><time>2026-04-06T10:34:25Z</time></trkpt><trkpt lat="44.748176268180934" lon="9.659799711954701"><ele>998.0000000000001</ele><time>2026-04-06T10:34:28Z</time></trkpt><trkpt lat="44.74823885264916" lon="9.659788627028062"><ele>998.0000000000001</ele><time>2026-04-06T10:34:37Z</time></trkpt><trkpt lat="44.748214948407" lon="9.659690393688013"><ele>998.0000000000001</ele><time>2026-04-06T10:35:11Z</time></trkpt><trkpt lat="44.7482212990726" lon="9.659559551229426"><ele>998.0</ele><time>2026-04-06T10:35:14Z</time></trkpt><trkpt lat="44.74823889194796" lon="9.659463284806366"><ele>998.0</ele><time>2026-04-06T10:35:16Z</time></trkpt><trkpt lat="44.748262059074825" lon="9.65936713583182"><ele>998.0</ele><time>2026-04-06T10:35:18Z</time></trkpt><trkpt lat="44.74829637212326" lon="9.65926821320625"><ele>998.0000000000001</ele><time>2026-04-06T10:35:20Z</time></trkpt><trkpt lat="44.74831697640539" lon="9.659163020065437"><ele>998.0</ele><time>2026-04-06T10:35:22Z</time></trkpt><trkpt lat="44.74832343878796" lon="9.659053169240494"><ele>997.6666666666667</ele><time>2026-04-06T10:35:24Z</time></trkpt><trkpt lat="44.748313349447685" lon="9.658924280029543"><ele>997.3333333333334</ele><time>2026-04-06T10:35:26Z</time></trkpt><trkpt lat="44.74830767809928" lon="9.658810058351714"><ele>997.0</ele><time>2026-04-06T10:35:28Z</time></trkpt><trkpt lat="44.748313531985104" lon="9.65870800581564"><ele>996.6666666666667</ele><time>2026-04-06T10:35:30Z</time></trkpt><trkpt lat="44.748356101500875" lon="9.65861106287802"><ele>996.3333333333334</ele><time>2026-04-06T10:35:33Z</time></trkpt><trkpt lat="44.74844371821673" lon="9.658539752803811"><ele>996.0</ele><time>2026-04-06T10:35:35Z</time></trkpt><trkpt lat="44.748509114756125" lon="9.658489434208693"><ele>998.3333333333334</ele><time>2026-04-06T10:35:36Z</time></trkpt><trkpt lat="44.74860088753038" lon="9.658412591468334"><ele>1000.6666666666667</ele><time>2026-04-06T10:35:38Z</time></trkpt><trkpt lat="44.74865957071222" lon="9.65830654286509"><ele>1003.0</ele><time>2026-04-06T10:35:40Z</time></trkpt><trkpt lat="44.748703295440855" lon="9.658199350623024"><ele>1005.3333333333334</ele><time>2026-04-06T10:35:42Z</time></trkpt><trkpt lat="44.748700531291924" lon="9.658103405286754"><ele>1007.6666666666667</ele><time>2026-04-06T10:35:45Z</time></trkpt><trkpt lat="44.74864045602635" lon="9.658070352991851"><ele>1010.0</ele><time>2026-04-06T10:35:47Z</time></trkpt><trkpt lat="44.748567626534076" lon="9.658044450974808"><ele>1009.3333333333334</ele><time>2026-04-06T10:35:48Z</time></trkpt><trkpt lat="44.74848108927443" lon="9.65798528065046"><ele>1008.6666666666667</ele><time>2026-04-06T10:35:50Z</time></trkpt><trkpt lat="44.74847050463519" lon="9.657861649390814"><ele>1008.0</ele><time>2026-04-06T10:35:52Z</time></trkpt><trkpt lat="44.74850451379764" lon="9.657735026067606"><ele>1007.3333333333333</ele><time>2026-04-06T10:35:55Z</time></trkpt><trkpt lat="44.74852502298197" lon="9.657644736398698"><ele>1006.6666666666666</ele><time>2026-04-06T10:35:57Z</time></trkpt><trkpt lat="44.748574157717975" lon="9.657555653014839"><ele>1006.0</ele><time>2026-04-06T10:35:59Z</time></trkpt><trkpt lat="44.74863135611547" lon="9.657426027127734"><ele>1005.9999999999999</ele><time>2026-04-06T10:36:01Z</time></trkpt><trkpt lat="44.74866461781046" lon="9.657338327401316"><ele>1006.0</ele><time>2026-04-06T10:36:02Z</time></trkpt><trkpt lat="44.74869505773834" lon="9.657231100949943"><ele>1006.0</ele><time>2026-04-06T10:36:03Z</time></trkpt><trkpt lat="44.748745529393155" lon="9.657095219732813"><ele>1006.0</ele><time>2026-04-06T10:36:05Z</time></trkpt><trkpt lat="44.74878616920194" lon="9.657016456391402"><ele>1005.9999999999999</ele><time>2026-04-06T10:36:06Z</time></trkpt><trkpt lat="44.74883476490319" lon="9.656921937659337"><ele>1006.0</ele><time>2026-04-06T10:36:07Z</time></trkpt><trkpt lat="44.74888048778759" lon="9.656830687491109"><ele>1004.6666666666666</ele><time>2026-04-06T10:36:08Z</time></trkpt><trkpt lat="44.74893080475782" lon="9.656725046498575"><ele>1003.3333333333333</ele><time>2026-04-06T10:36:09Z</time></trkpt><trkpt lat="44.74899375865067" lon="9.656642136318661"><ele>1002.0</ele><time>2026-04-06T10:36:10Z</time></trkpt><trkpt lat="44.74904073244149" lon="9.656547201270351"><ele>1000.6666666666667</ele><time>2026-04-06T10:36:11Z</time></trkpt><trkpt lat="44.74909689547382" lon="9.656452837157909"><ele>999.3333333333334</ele><time>2026-04-06T10:36:12Z</time></trkpt><trkpt lat="44.74915797536902" lon="9.656365148677239"><ele>998.0</ele><time>2026-04-06T10:36:13Z</time></trkpt><trkpt lat="44.74922366992597" lon="9.656293031748662"><ele>998.0000000000001</ele><time>2026-04-06T10:36:14Z</time></trkpt><trkpt lat="44.74928182301045" lon="9.656217848748435"><ele>998.0</ele><time>2026-04-06T10:36:15Z</time></trkpt><trkpt lat="44.74933410167182" lon="9.656134572204019"><ele>998.0</ele><time>2026-04-06T10:36:16Z</time></trkpt><trkpt lat="44.749383720781864" lon="9.656062389437075"><ele>998.0</ele><time>2026-04-06T10:36:17Z</time></trkpt><trkpt lat="44.74942988719804" lon="9.656000738350642"><ele>998.0000000000001</ele><time>2026-04-06T10:36:18Z</time></trkpt><trkpt lat="44.749519011012005" lon="9.655853403148198"><ele>998.0</ele><time>2026-04-06T10:36:20Z</time></trkpt><trkpt lat="44.749564767728" lon="9.655748836062058"><ele>998.5000000000001</ele><time>2026-04-06T10:36:21Z</time></trkpt><trkpt lat="44.74961077857994" lon="9.655628145448668"><ele>999.0</ele><time>2026-04-06T10:36:22Z</time></trkpt><trkpt lat="44.74963992429032" lon="9.655503284486517"><ele>999.5</ele><time>2026-04-06T10:36:23Z</time></trkpt><trkpt lat="44.749633840239035" lon="9.655376304582235"><ele>1000.0</ele><time>2026-04-06T10:36:24Z</time></trkpt><trkpt lat="44.749632257048496" lon="9.655267490133841"><ele>1000.5000000000001</ele><time>2026-04-06T10:36:25Z</time></trkpt><trkpt lat="44.749639125945535" lon="9.655168821704507"><ele>1001.0</ele><time>2026-04-06T10:36:26Z</time></trkpt><trkpt lat="44.74965653577046" lon="9.65506048649225"><ele>1001.0000000000001</ele><time>2026-04-06T10:36:27Z</time></trkpt><trkpt lat="44.749675830019754" lon="9.654957699187841"><ele>1001.0</ele><time>2026-04-06T10:36:28Z</time></trkpt><trkpt lat="44.74971286063558" lon="9.654853571699613"><ele>1001.0</ele><time>2026-04-06T10:36:29Z</time></trkpt><trkpt lat="44.749746381431954" lon="9.654752223460578"><ele>1001.0</ele><time>2026-04-06T10:36:30Z</time></trkpt><trkpt lat="44.74977439583261" lon="9.654626577775613"><ele>1001.0000000000001</ele><time>2026-04-06T10:36:31Z</time></trkpt><trkpt lat="44.74979761311718" lon="9.654492578608254"><ele>1001.0</ele><time>2026-04-06T10:36:32Z</time></trkpt><trkpt lat="44.74983607004561" lon="9.65438341335216"><ele>999.3333333333334</ele><time>2026-04-06T10:36:33Z</time></trkpt><trkpt lat="44.749872844380064" lon="9.654278333086356"><ele>997.6666666666667</ele><time>2026-04-06T10:36:34Z</time></trkpt><trkpt lat="44.74990944890352" lon="9.654166729517462"><ele>996.0</ele><time>2026-04-06T10:36:35Z</time></trkpt><trkpt lat="44.749933299474996" lon="9.654062640644193"><ele>994.3333333333333</ele><time>2026-04-06T10:36:36Z</time></trkpt><trkpt lat="44.74995413497038" lon="9.653956778555232"><ele>992.6666666666666</ele><time>2026-04-06T10:36:37Z</time></trkpt><trkpt lat="44.7499865585359" lon="9.653854688278656"><ele>991.0</ele><time>2026-04-06T10:36:38Z</time></trkpt><trkpt lat="44.75002782975621" lon="9.653763172725572"><ele>991.0</ele><time>2026-04-06T10:36:39Z</time></trkpt><trkpt lat="44.75005923808335" lon="9.653629150610168"><ele>990.9999999999999</ele><time>2026-04-06T10:36:40Z</time></trkpt><trkpt lat="44.75007581533689" lon="9.65349672488555"><ele>990.9999999999999</ele><time>2026-04-06T10:36:41Z</time></trkpt><trkpt lat="44.750097984240384" lon="9.653361782169204"><ele>991.0</ele><time>2026-04-06T10:36:42Z</time></trkpt><trkpt lat="44.750130015972516" lon="9.653240027447023"><ele>991.0</ele><time>2026-04-06T10:36:43Z</time></trkpt><trkpt lat="44.75017098482816" lon="9.6531380654143"><ele>989.9999999999999</ele><time>2026-04-06T10:36:44Z</time></trkpt><trkpt lat="44.75021095145175" lon="9.653045219840873"><ele>989.0</ele><time>2026-04-06T10:36:45Z</time></trkpt><trkpt lat="44.75025684269337" lon="9.652960357711468"><ele>988.0</ele><time>2026-04-06T10:36:46Z</time></trkpt><trkpt lat="44.75031148760314" lon="9.652885748878413"><ele>987.0</ele><time>2026-04-06T10:36:47Z</time></trkpt><trkpt lat="44.750376634170756" lon="9.652822295332816"><ele>985.9999999999999</ele><time>2026-04-06T10:36:48Z</time></trkpt><trkpt lat="44.75043699499278" lon="9.652769361538935"><ele>985.0</ele><time>2026-04-06T10:36:49Z</time></trkpt><trkpt lat="44.75048803654556" lon="9.652700058382795"><ele>984.9999999999999</ele><time>2026-04-06T10:36:50Z</time></trkpt><trkpt lat="44.75053132677852" lon="9.652599765007302"><ele>985.0</ele><time>2026-04-06T10:36:51Z</time></trkpt><trkpt lat="44.750575209252226" lon="9.652511033147121"><ele>985.0</ele><time>2026-04-06T10:36:52Z</time></trkpt><trkpt lat="44.75063721493886" lon="9.65245431837209"><ele>985.0</ele><time>2026-04-06T10:36:53Z</time></trkpt><trkpt lat="44.750703429153795" lon="9.652386060560683"><ele>984.9999999999999</ele><time>2026-04-06T10:36:54Z</time></trkpt><trkpt lat="44.750773234154906" lon="9.652324620778057"><ele>985.0</ele><time>2026-04-06T10:36:55Z</time></trkpt><trkpt lat="44.750839634307724" lon="9.65224956726137"><ele>984.9999999999999</ele><time>2026-04-06T10:36:56Z</time></trkpt><trkpt lat="44.750910364246636" lon="9.652182050480643"><ele>985.0</ele><time>2026-04-06T10:36:57Z</time></trkpt><trkpt lat="44.750983118966985" lon="9.652104201027296"><ele>985.0</ele><time>2026-04-06T10:36:58Z</time></trkpt><trkpt lat="44.75104726276812" lon="9.652040780659181"><ele>985.0</ele><time>2026-04-06T10:36:59Z</time></trkpt><trkpt lat="44.75111773465173" lon="9.652013006118533"><ele>984.9999999999999</ele><time>2026-04-06T10:37:00Z</time></trkpt><trkpt lat="44.75119192805633" lon="9.652025377411224"><ele>985.0</ele><time>2026-04-06T10:37:01Z</time></trkpt><trkpt lat="44.75126168377523" lon="9.65204034024971"><ele>985.4</ele><time>2026-04-06T10:37:02Z</time></trkpt><trkpt lat="44.75139098048871" lon="9.651924135030209"><ele>985.8</ele><time>2026-04-06T10:37:04Z</time></trkpt><trkpt lat="44.75146156476453" lon="9.651827753768224"><ele>986.2</ele><time>2026-04-06T10:37:05Z</time></trkpt><trkpt lat="44.75151543310233" lon="9.651728719735413"><ele>986.6</ele><time>2026-04-06T10:37:06Z</time></trkpt><trkpt lat="44.75157090766011" lon="9.651601813003875"><ele>987.0</ele><time>2026-04-06T10:37:07Z</time></trkpt><trkpt lat="44.75165676591716" lon="9.651443222156779"><ele>987.0</ele><time>2026-04-06T10:37:09Z</time></trkpt><trkpt lat="44.751718019867475" lon="9.651384783340704"><ele>987.0</ele><time>2026-04-06T10:37:10Z</time></trkpt><trkpt lat="44.75179191165242" lon="9.651318669732053"><ele>987.0</ele><time>2026-04-06T10:37:11Z</time></trkpt><trkpt lat="44.75183227151818" lon="9.65123191893079"><ele>987.0</ele><time>2026-04-06T10:37:12Z</time></trkpt><trkpt lat="44.751882596747826" lon="9.651173823618407"><ele>987.0</ele><time>2026-04-06T10:37:13Z</time></trkpt><trkpt lat="44.75194189352077" lon="9.651105282096012"><ele>987.0</ele><time>2026-04-06T10:37:15Z</time></trkpt><trkpt lat="44.75201702483858" lon="9.651189704660604"><ele>988.8333333333334</ele><time>2026-04-06T10:37:22Z</time></trkpt><trkpt lat="44.75206373131" lon="9.651323359914816"><ele>990.6666666666667</ele><time>2026-04-06T10:37:24Z</time></trkpt><trkpt lat="44.752103901806784" lon="9.651409700618355"><ele>992.5</ele><time>2026-04-06T10:37:28Z</time></trkpt><trkpt lat="44.75217208510571" lon="9.6514260894036"><ele>994.3333333333334</ele><time>2026-04-06T10:37:30Z</time></trkpt><trkpt lat="44.75221838813023" lon="9.651539655168616"><ele>996.1666666666667</ele><time>2026-04-06T10:37:33Z</time></trkpt><trkpt lat="44.752231413879464" lon="9.651677880585748"><ele>998.0</ele><time>2026-04-06T10:37:35Z</time></trkpt><trkpt lat="44.752231999887684" lon="9.651785649583793"><ele>998.0000000000001</ele><time>2026-04-06T10:37:37Z</time></trkpt><trkpt lat="44.75219953178678" lon="9.651869132507157"><ele>998.0</ele><time>2026-04-06T10:37:39Z</time></trkpt><trkpt lat="44.75218663047963" lon="9.652001812524006"><ele>998.0</ele><time>2026-04-06T10:37:41Z</time></trkpt><trkpt lat="44.752192175014955" lon="9.65210399321565"><ele>998.0</ele><time>2026-04-06T10:37:42Z</time></trkpt><trkpt lat="44.75219581746783" lon="9.65220621246697"><ele>998.0000000000001</ele><time>2026-04-06T10:37:43Z</time></trkpt><trkpt lat="44.752141050235025" lon="9.652271245006247"><ele>998.0</ele><time>2026-04-06T10:37:45Z</time></trkpt><trkpt lat="44.75207796655802" lon="9.652320113070203"><ele>998.8333333333334</ele><time>2026-04-06T10:37:47Z</time></trkpt><trkpt lat="44.75202071792502" lon="9.6524134313951"><ele>999.6666666666667</ele><time>2026-04-06T10:37:49Z</time></trkpt><trkpt lat="44.75192030750183" lon="9.65246318768971"><ele>1000.5</ele><time>2026-04-06T10:37:51Z</time></trkpt><trkpt lat="44.751870002568914" lon="9.652557874334699"><ele>1001.3333333333333</ele><time>2026-04-06T10:37:54Z</time></trkpt><trkpt lat="44.751816030892726" lon="9.65266773444372"><ele>1002.1666666666666</ele><time>2026-04-06T10:37:59Z</time></trkpt><trkpt lat="44.75174450087909" lon="9.652675099644334"><ele>1003.0</ele><time>2026-04-06T10:38:01Z</time></trkpt><trkpt lat="44.75169007414313" lon="9.652740852254384"><ele>1005.3333333333333</ele><time>2026-04-06T10:38:03Z</time></trkpt><trkpt lat="44.751643896291924" lon="9.652817025120724"><ele>1007.6666666666666</ele><time>2026-04-06T10:38:06Z</time></trkpt><trkpt lat="44.75161286109287" lon="9.652910877178115"><ele>1010.0</ele><time>2026-04-06T10:38:08Z</time></trkpt><trkpt lat="44.751592397559975" lon="9.653014523988102"><ele>1012.3333333333333</ele><time>2026-04-06T10:38:11Z</time></trkpt><trkpt lat="44.75158949088802" lon="9.653186833102774"><ele>1014.6666666666666</ele><time>2026-04-06T10:38:13Z</time></trkpt><trkpt lat="44.751556149744694" lon="9.653284276847911"><ele>1017.0</ele><time>2026-04-06T10:38:15Z</time></trkpt><trkpt lat="44.7515112109288" lon="9.653371734695808"><ele>1017.0</ele><time>2026-04-06T10:38:18.999Z</time></trkpt><trkpt lat="44.75152930059699" lon="9.653486468821582"><ele>1017.0</ele><time>2026-04-06T10:38:21.999Z</time></trkpt><trkpt lat="44.751533308164426" lon="9.653579251935275"><ele>1017.0</ele><time>2026-04-06T10:38:23.999Z</time></trkpt><trkpt lat="44.75151630603367" lon="9.653685038758864"><ele>1017.0</ele><time>2026-04-06T10:38:24.999Z</time></trkpt><trkpt lat="44.75149347378664" lon="9.653806958139839"><ele>1017.0</ele><time>2026-04-06T10:38:25.999Z</time></trkpt><trkpt lat="44.75145733314072" lon="9.653893617209143"><ele>1017.0</ele><time>2026-04-06T10:38:27Z</time></trkpt><trkpt lat="44.75144865968613" lon="9.653987917407312"><ele>1020.4000000000001</ele><time>2026-04-06T10:38:28Z</time></trkpt><trkpt lat="44.75144814521162" lon="9.654089100447745"><ele>1023.8000000000001</ele><time>2026-04-06T10:38:29Z</time></trkpt><trkpt lat="44.75139255949772" lon="9.654215780532391"><ele>1027.2</ele><time>2026-04-06T10:38:31Z</time></trkpt><trkpt lat="44.751367830240326" lon="9.654322906395683"><ele>1030.6000000000001</ele><time>2026-04-06T10:38:33Z</time></trkpt><trkpt lat="44.75133103558546" lon="9.6544470662758"><ele>1034.0</ele><time>2026-04-06T10:38:35Z</time></trkpt><trkpt lat="44.751286438765256" lon="9.654604301449764"><ele>1037.0</ele><time>2026-04-06T10:38:37Z</time></trkpt><trkpt lat="44.7512631252803" lon="9.654687432545098"><ele>1040.0</ele><time>2026-04-06T10:38:40Z</time></trkpt><trkpt lat="44.75122059207385" lon="9.654773142005444"><ele>1043.0</ele><time>2026-04-06T10:38:43Z</time></trkpt><trkpt lat="44.751207100414724" lon="9.654919485224621"><ele>1046.0</ele><time>2026-04-06T10:38:46Z</time></trkpt><trkpt lat="44.75133516952996" lon="9.655068243841518"><ele>1049.0</ele><time>2026-04-06T10:38:49Z</time></trkpt><trkpt lat="44.751401544738876" lon="9.655148461056644"><ele>1049.0</ele><time>2026-04-06T10:38:50Z</time></trkpt><trkpt lat="44.75144403263002" lon="9.65522826330101"><ele>1049.0</ele><time>2026-04-06T10:38:51Z</time></trkpt><trkpt lat="44.75145972401699" lon="9.655322023221975"><ele>1049.0</ele><time>2026-04-06T10:38:52Z</time></trkpt><trkpt lat="44.751452165032426" lon="9.655445745600147"><ele>1049.0</ele><time>2026-04-06T10:38:53Z</time></trkpt><trkpt lat="44.75145833219522" lon="9.655554216398476"><ele>1049.0</ele><time>2026-04-06T10:38:54Z</time></trkpt><trkpt lat="44.75146661168267" lon="9.655672353473646"><ele>1049.0</ele><time>2026-04-06T10:38:55Z</time></trkpt><trkpt lat="44.75145423229062" lon="9.655804211125986"><ele>1050.5</ele><time>2026-04-06T10:38:56Z</time></trkpt><trkpt lat="44.75141949102579" lon="9.655925286219478"><ele>1052.0</ele><time>2026-04-06T10:38:57Z</time></trkpt><trkpt lat="44.751384613280344" lon="9.656009942204557"><ele>1053.5</ele><time>2026-04-06T10:38:58Z</time></trkpt><trkpt lat="44.75142319101756" lon="9.656106075316677"><ele>1055.0</ele><time>2026-04-06T10:38:59Z</time></trkpt><trkpt lat="44.75146955330622" lon="9.656192522238355"><ele>1056.5</ele><time>2026-04-06T10:39:00Z</time></trkpt><trkpt lat="44.751524372116364" lon="9.656251847978197"><ele>1058.0</ele><time>2026-04-06T10:39:01Z</time></trkpt><trkpt lat="44.751604459661756" lon="9.65628339440837"><ele>1061.0</ele><time>2026-04-06T10:39:03Z</time></trkpt><trkpt lat="44.75167437630568" lon="9.65619737662479"><ele>1064.0</ele><time>2026-04-06T10:39:05Z</time></trkpt><trkpt lat="44.75173494564741" lon="9.656225168997086"><ele>1067.0</ele><time>2026-04-06T10:39:07Z</time></trkpt><trkpt lat="44.75180472607048" lon="9.656323894689903"><ele>1070.0</ele><time>2026-04-06T10:39:09Z</time></trkpt><trkpt lat="44.75200030775388" lon="9.656287541318978"><ele>1072.0</ele><time>2026-04-06T10:39:16Z</time></trkpt><trkpt lat="44.75202741320151" lon="9.656191585210841"><ele>1074.0</ele><time>2026-04-06T10:39:19Z</time></trkpt><trkpt lat="44.752060834568034" lon="9.656043405892802"><ele>1076.0</ele><time>2026-04-06T10:39:23Z</time></trkpt><trkpt lat="44.75214593273047" lon="9.655907480119009"><ele>1078.0</ele><time>2026-04-06T10:39:27Z</time></trkpt><trkpt lat="44.752177631491456" lon="9.655786892886985"><ele>1080.0</ele><time>2026-04-06T10:39:28Z</time></trkpt><trkpt lat="44.752198120369265" lon="9.655688119127024"><ele>1080.0</ele><time>2026-04-06T10:39:29Z</time></trkpt><trkpt lat="44.75224214767178" lon="9.655569803417727"><ele>1080.0</ele><time>2026-04-06T10:39:30Z</time></trkpt><trkpt lat="44.75230900510148" lon="9.655490351756724"><ele>1080.0</ele><time>2026-04-06T10:39:31Z</time></trkpt><trkpt lat="44.752351913484354" lon="9.65537914277107"><ele>1080.0</ele><time>2026-04-06T10:39:32Z</time></trkpt><trkpt lat="44.75241000474707" lon="9.655224895561897"><ele>1080.0</ele><time>2026-04-06T10:39:33Z</time></trkpt><trkpt lat="44.75246056306316" lon="9.65514565597909"><ele>1077.4</ele><time>2026-04-06T10:39:34Z</time></trkpt><trkpt lat="44.75249722826815" lon="9.655026681891"><ele>1074.8</ele><time>2026-04-06T10:39:35Z</time></trkpt><trkpt lat="44.75254363765843" lon="9.654895337690505"><ele>1072.2</ele><time>2026-04-06T10:39:36Z</time></trkpt><trkpt lat="44.752564627418614" lon="9.654763418540643"><ele>1069.6</ele><time>2026-04-06T10:39:37Z</time></trkpt><trkpt lat="44.75257906358687" lon="9.654651399188149"><ele>1067.0</ele><time>2026-04-06T10:39:38Z</time></trkpt><trkpt lat="44.75264157720017" lon="9.654531196383743"><ele>1066.0</ele><time>2026-04-06T10:39:39Z</time></trkpt><trkpt lat="44.75265596588664" lon="9.654428748400223"><ele>1065.0</ele><time>2026-04-06T10:39:40Z</time></trkpt><trkpt lat="44.752732708258826" lon="9.654348287300229"><ele>1064.0</ele><time>2026-04-06T10:39:41Z</time></trkpt><trkpt lat="44.75277438053148" lon="9.654241474184404"><ele>1063.0</ele><time>2026-04-06T10:39:42Z</time></trkpt><trkpt lat="44.752841439723426" lon="9.654175540232304"><ele>1062.0</ele><time>2026-04-06T10:39:44Z</time></trkpt><trkpt lat="44.752857497987115" lon="9.65407360112757"><ele>1061.0</ele><time>2026-04-06T10:39:45Z</time></trkpt><trkpt lat="44.753115684433006" lon="9.654058207356153"><ele>1061.0</ele><time>2026-04-06T10:39:51.999Z</time></trkpt><trkpt lat="44.753188737843615" lon="9.654060571018968"><ele>1061.0</ele><time>2026-04-06T10:39:52.999Z</time></trkpt><trkpt lat="44.75333140755525" lon="9.653936924248328"><ele>1061.0</ele><time>2026-04-06T10:39:55.999Z</time></trkpt><trkpt lat="44.75342105174657" lon="9.653855454290861"><ele>1061.0</ele><time>2026-04-06T10:39:57.999Z</time></trkpt><trkpt lat="44.75349826523172" lon="9.653763556679353"><ele>1061.0</ele><time>2026-04-06T10:39:59.999Z</time></trkpt><trkpt lat="44.753558648121576" lon="9.65366555076098"><ele>1056.6</ele><time>2026-04-06T10:40:01.999Z</time></trkpt><trkpt lat="44.75364818513559" lon="9.653668693879618"><ele>1052.1999999999998</ele><time>2026-04-06T10:40:08.999Z</time></trkpt><trkpt lat="44.75363002066437" lon="9.65376398360062"><ele>1047.8000000000002</ele><time>2026-04-06T10:40:17.999Z</time></trkpt><trkpt lat="44.75359965109904" lon="9.653938974618162"><ele>1043.4</ele><time>2026-04-06T10:40:19.999Z</time></trkpt><trkpt lat="44.75359763787911" lon="9.654041682714633"><ele>1039.0</ele><time>2026-04-06T10:40:20.999Z</time></trkpt><trkpt lat="44.753539341606704" lon="9.654137756690517"><ele>1042.6666666666665</ele><time>2026-04-06T10:40:22.999Z</time></trkpt><trkpt lat="44.75352203682992" lon="9.654280828187229"><ele>1046.3333333333333</ele><time>2026-04-06T10:40:24.999Z</time></trkpt><trkpt lat="44.753510086568355" lon="9.654391148449836"><ele>1050.0</ele><time>2026-04-06T10:40:26.999Z</time></trkpt><trkpt lat="44.753431215163076" lon="9.654442001901677"><ele>1053.6666666666667</ele><time>2026-04-06T10:40:29.999Z</time></trkpt><trkpt lat="44.753366660240985" lon="9.654502769981994"><ele>1057.3333333333335</ele><time>2026-04-06T10:40:31.999Z</time></trkpt><trkpt lat="44.753360496363356" lon="9.654603634186024"><ele>1061.0</ele><time>2026-04-06T10:40:35Z</time></trkpt><trkpt lat="44.75332986085519" lon="9.654705292592565"><ele>1061.0</ele><time>2026-04-06T10:40:37Z</time></trkpt><trkpt lat="44.75328274414237" lon="9.654789924998365"><ele>1061.0</ele><time>2026-04-06T10:40:40Z</time></trkpt><trkpt lat="44.75335489425265" lon="9.654759674883316"><ele>1061.0</ele><time>2026-04-06T10:41:35Z</time></trkpt><trkpt lat="44.7533825045199" lon="9.654679176912655"><ele>1061.0</ele><time>2026-04-06T10:41:43Z</time></trkpt><trkpt lat="44.753352855611034" lon="9.654596097418965"><ele>1061.0</ele><time>2026-04-06T10:41:48Z</time></trkpt><trkpt lat="44.753383604000355" lon="9.65447577169885"><ele>1061.0</ele><time>2026-04-06T10:41:51Z</time></trkpt><trkpt lat="44.753437758367916" lon="9.654393159979962"><ele>1056.6</ele><time>2026-04-06T10:41:53.999Z</time></trkpt><trkpt lat="44.75354775056327" lon="9.65422304439639"><ele>1052.1999999999998</ele><time>2026-04-06T10:41:59.999Z</time></trkpt><trkpt lat="44.753553695222905" lon="9.654094087105019"><ele>1047.8000000000002</ele><time>2026-04-06T10:42:01.999Z</time></trkpt><trkpt lat="44.753590861910425" lon="9.653991316917987"><ele>1043.4</ele><time>2026-04-06T10:42:03.999Z</time></trkpt><trkpt lat="44.75359220607041" lon="9.653900102837197"><ele>1039.0</ele><time>2026-04-06T10:42:04.999Z</time></trkpt><trkpt lat="44.753596325715435" lon="9.653789523703658"><ele>1039.0</ele><time>2026-04-06T10:42:05.999Z</time></trkpt><trkpt lat="44.75362304164276" lon="9.653653256606813"><ele>1039.0</ele><time>2026-04-06T10:42:07.999Z</time></trkpt><trkpt lat="44.7536270741474" lon="9.653510510073522"><ele>1039.0</ele><time>2026-04-06T10:42:09.999Z</time></trkpt><trkpt lat="44.75365842907983" lon="9.653426715894433"><ele>1039.0</ele><time>2026-04-06T10:42:11.999Z</time></trkpt><trkpt lat="44.75369427267134" lon="9.653315425788296"><ele>1039.0</ele><time>2026-04-06T10:42:14.999Z</time></trkpt><trkpt lat="44.75376013599903" lon="9.653306541976482"><ele>1039.0</ele><time>2026-04-06T10:42:17.999Z</time></trkpt><trkpt lat="44.75377134265052" lon="9.65320974984537"><ele>1037.0</ele><time>2026-04-06T10:42:20.999Z</time></trkpt><trkpt lat="44.75378480452412" lon="9.653091597384128"><ele>1035.0</ele><time>2026-04-06T10:42:23.999Z</time></trkpt><trkpt lat="44.75378607628286" lon="9.652989339966783"><ele>1033.0</ele><time>2026-04-06T10:42:26.999Z</time></trkpt><trkpt lat="44.753915890820835" lon="9.652509168387606"><ele>1030.8</ele><time>2026-04-06T10:42:31.999Z</time></trkpt><trkpt lat="44.75396653962456" lon="9.652325731259284"><ele>1028.6</ele><time>2026-04-06T10:42:33.999Z</time></trkpt><trkpt lat="44.75395552901743" lon="9.652224360175136"><ele>1026.4</ele><time>2026-04-06T10:42:35.999Z</time></trkpt><trkpt lat="44.75397441033385" lon="9.652125398750368"><ele>1024.2</ele><time>2026-04-06T10:42:39Z</time></trkpt><trkpt lat="44.75399899162609" lon="9.651976235238688"><ele>1022.0</ele><time>2026-04-06T10:42:42Z</time></trkpt><trkpt lat="44.75405054316757" lon="9.651708268018636"><ele>1020.0</ele><time>2026-04-06T10:42:44Z</time></trkpt><trkpt lat="44.75408540082021" lon="9.651627274545715"><ele>1018.0</ele><time>2026-04-06T10:42:45Z</time></trkpt><trkpt lat="44.754138468995826" lon="9.651518770906558"><ele>1016.0</ele><time>2026-04-06T10:42:47Z</time></trkpt><trkpt lat="44.754200283824716" lon="9.651402583529519"><ele>1014.0</ele><time>2026-04-06T10:42:49Z</time></trkpt><trkpt lat="44.75426490335764" lon="9.65127917994313"><ele>1012.0</ele><time>2026-04-06T10:42:51Z</time></trkpt><trkpt lat="44.75432758278281" lon="9.651198312658641"><ele>1011.8</ele><time>2026-04-06T10:42:52Z</time></trkpt><trkpt lat="44.75438228687296" lon="9.651124884830166"><ele>1011.6</ele><time>2026-04-06T10:42:53Z</time></trkpt><trkpt lat="44.754454825279495" lon="9.65099194396672"><ele>1011.3999999999999</ele><time>2026-04-06T10:42:55Z</time></trkpt><trkpt lat="44.75449175920001" lon="9.650823190291264"><ele>1011.1999999999999</ele><time>2026-04-06T10:42:57Z</time></trkpt><trkpt lat="44.75453194785701" lon="9.650674970157151"><ele>1011.0</ele><time>2026-04-06T10:42:59Z</time></trkpt><trkpt lat="44.75456198352828" lon="9.65051407740923"><ele>1011.0</ele><time>2026-04-06T10:43:01Z</time></trkpt><trkpt lat="44.75455296870115" lon="9.650354823064564"><ele>1010.9999999999999</ele><time>2026-04-06T10:43:03Z</time></trkpt><trkpt lat="44.754562020318644" lon="9.650253107069437"><ele>1010.9999999999999</ele><time>2026-04-06T10:43:05Z</time></trkpt><trkpt lat="44.7545683096697" lon="9.650083958103927"><ele>1011.0</ele><time>2026-04-06T10:43:07Z</time></trkpt><trkpt lat="44.75454707889044" lon="9.649941139659841"><ele>1011.0</ele><time>2026-04-06T10:43:09Z</time></trkpt><trkpt lat="44.754537423371" lon="9.649793014157257"><ele>1010.25</ele><time>2026-04-06T10:43:11Z</time></trkpt><trkpt lat="44.75453951104602" lon="9.64963699420505"><ele>1009.5</ele><time>2026-04-06T10:43:13Z</time></trkpt><trkpt lat="44.75455648037623" lon="9.649335785743615"><ele>1008.75</ele><time>2026-04-06T10:43:14Z</time></trkpt><trkpt lat="44.75451140970922" lon="9.649236796950055"><ele>1008.0</ele><time>2026-04-06T10:43:17Z</time></trkpt><trkpt lat="44.754570234661166" lon="9.649125834873672"><ele>1005.1666666666666</ele><time>2026-04-06T10:43:20Z</time></trkpt><trkpt lat="44.75456640010635" lon="9.649036632977923"><ele>1002.3333333333333</ele><time>2026-04-06T10:43:21Z</time></trkpt><trkpt lat="44.75455802085379" lon="9.648934693868322"><ele>999.5</ele><time>2026-04-06T10:43:22Z</time></trkpt><trkpt lat="44.75454026049053" lon="9.648834951241563"><ele>996.6666666666666</ele><time>2026-04-06T10:43:23Z</time></trkpt><trkpt lat="44.75454735211537" lon="9.648718031721954"><ele>993.8333333333333</ele><time>2026-04-06T10:43:25Z</time></trkpt><trkpt lat="44.75463383684984" lon="9.648547723390987"><ele>991.0</ele><time>2026-04-06T10:43:28Z</time></trkpt><trkpt lat="44.75468299300491" lon="9.648462997451244"><ele>989.5999999999999</ele><time>2026-04-06T10:43:29Z</time></trkpt><trkpt lat="44.754717859312144" lon="9.648325803108714"><ele>988.1999999999999</ele><time>2026-04-06T10:43:31Z</time></trkpt><trkpt lat="44.75475744644733" lon="9.648157238185414"><ele>986.8000000000001</ele><time>2026-04-06T10:43:33Z</time></trkpt><trkpt lat="44.754765095874795" lon="9.64804599756486"><ele>985.4000000000001</ele><time>2026-04-06T10:43:34Z</time></trkpt><trkpt lat="44.754781182321274" lon="9.647959744805526"><ele>984.0</ele><time>2026-04-06T10:43:35Z</time></trkpt><trkpt lat="44.75477698097332" lon="9.647841261477268"><ele>984.0</ele><time>2026-04-06T10:43:38Z</time></trkpt><trkpt lat="44.75494685833483" lon="9.647867771953582"><ele>984.0</ele><time>2026-04-06T10:43:42Z</time></trkpt><trkpt lat="44.75506858294087" lon="9.647851404399791"><ele>984.0</ele><time>2026-04-06T10:43:43.999Z</time></trkpt><trkpt lat="44.755176853830854" lon="9.647836134370017"><ele>984.0</ele><time>2026-04-06T10:43:45.999Z</time></trkpt><trkpt lat="44.75529016873967" lon="9.647847895566187"><ele>980.25</ele><time>2026-04-06T10:43:47.999Z</time></trkpt><trkpt lat="44.75540468977021" lon="9.647844968176308"><ele>976.5</ele><time>2026-04-06T10:43:49.999Z</time></trkpt><trkpt lat="44.75552577348807" lon="9.64785350784683"><ele>972.75</ele><time>2026-04-06T10:43:50.999Z</time></trkpt><trkpt lat="44.75560188232037" lon="9.647870038216764"><ele>969.0</ele><time>2026-04-06T10:43:52.999Z</time></trkpt><trkpt lat="44.75578089607218" lon="9.647931083030482"><ele>969.0</ele><time>2026-04-06T10:43:55.999Z</time></trkpt><trkpt lat="44.75590544507369" lon="9.647899730665392"><ele>969.0</ele><time>2026-04-06T10:43:57.999Z</time></trkpt><trkpt lat="44.7560234607715" lon="9.647835407443157"><ele>969.0</ele><time>2026-04-06T10:43:58.999Z</time></trkpt><trkpt lat="44.75619376616021" lon="9.648311112093815"><ele>968.6</ele><time>2026-04-06T10:44:03.999Z</time></trkpt><trkpt lat="44.75626777326205" lon="9.648401782059496"><ele>968.2</ele><time>2026-04-06T10:44:06.999Z</time></trkpt><trkpt lat="44.75632288747028" lon="9.64850724017421"><ele>967.8000000000001</ele><time>2026-04-06T10:44:08.999Z</time></trkpt><trkpt lat="44.756372958066095" lon="9.648660233412942"><ele>967.4000000000001</ele><time>2026-04-06T10:44:12.999Z</time></trkpt><trkpt lat="44.756446500522514" lon="9.648674517618337"><ele>967.0</ele><time>2026-04-06T10:44:13.999Z</time></trkpt><trkpt lat="44.756751836516194" lon="9.648662311708279"><ele>956.5</ele><time>2026-04-06T10:44:19.999Z</time></trkpt><trkpt lat="44.75700300976085" lon="9.64867107375059"><ele>946.0</ele><time>2026-04-06T10:44:22.999Z</time></trkpt><trkpt lat="44.75726407599224" lon="9.648691342013802"><ele>945.9999999999999</ele><time>2026-04-06T10:44:26.999Z</time></trkpt><trkpt lat="44.75733313066796" lon="9.648705043094804"><ele>946.0</ele><time>2026-04-06T10:44:27.999Z</time></trkpt><trkpt lat="44.75740778503658" lon="9.648675508797579"><ele>946.0</ele><time>2026-04-06T10:44:30.999Z</time></trkpt><trkpt lat="44.75748782552182" lon="9.648580840803618"><ele>946.0</ele><time>2026-04-06T10:44:31.999Z</time></trkpt><trkpt lat="44.757536819875064" lon="9.64848502920881"><ele>945.9999999999999</ele><time>2026-04-06T10:44:33.999Z</time></trkpt><trkpt lat="44.75758165582452" lon="9.648359398265594"><ele>946.0</ele><time>2026-04-06T10:44:35.999Z</time></trkpt><trkpt lat="44.757649036778496" lon="9.64833455650174"><ele>942.0</ele><time>2026-04-06T10:44:36.999Z</time></trkpt><trkpt lat="44.75771480965003" lon="9.64830774810384"><ele>937.9999999999999</ele><time>2026-04-06T10:44:37.999Z</time></trkpt><trkpt lat="44.75780261311743" lon="9.64838543752671"><ele>933.9999999999999</ele><time>2026-04-06T10:44:39.999Z</time></trkpt><trkpt lat="44.757721486011874" lon="9.648369468532081"><ele>930.0</ele><time>2026-04-06T10:44:40.999Z</time></trkpt><trkpt lat="44.75782121090936" lon="9.648424074598292"><ele>926.0</ele><time>2026-04-06T10:44:42.999Z</time></trkpt><trkpt lat="44.757917594026836" lon="9.648466230738073"><ele>926.0</ele><time>2026-04-06T10:44:45Z</time></trkpt><trkpt lat="44.75799083745294" lon="9.64847935379538"><ele>926.0</ele><time>2026-04-06T10:44:46Z</time></trkpt><trkpt lat="44.75809910863085" lon="9.64847302572031"><ele>926.0</ele><time>2026-04-06T10:44:48Z</time></trkpt><trkpt lat="44.758256020399465" lon="9.64847127847705"><ele>926.0</ele><time>2026-04-06T10:44:52Z</time></trkpt><trkpt lat="44.758442504805075" lon="9.64842780402195"><ele>926.0</ele><time>2026-04-06T10:44:55Z</time></trkpt><trkpt lat="44.75853197606753" lon="9.648424915652132"><ele>925.9999999999999</ele><time>2026-04-06T10:44:56Z</time></trkpt><trkpt lat="44.75864932248544" lon="9.648397342445225"><ele>925.9999999999999</ele><time>2026-04-06T10:44:57Z</time></trkpt><trkpt lat="44.75875556457811" lon="9.648340047473768"><ele>926.0</ele><time>2026-04-06T10:44:58Z</time></trkpt><trkpt lat="44.758840679224136" lon="9.648285635236435"><ele>926.0</ele><time>2026-04-06T10:44:59Z</time></trkpt><trkpt lat="44.758919361381245" lon="9.648263997538109"><ele>924.0</ele><time>2026-04-06T10:45:00Z</time></trkpt><trkpt lat="44.75902995798105" lon="9.648271946837555"><ele>921.9999999999999</ele><time>2026-04-06T10:45:01Z</time></trkpt><trkpt lat="44.75910429388997" lon="9.648265120879367"><ele>919.9999999999999</ele><time>2026-04-06T10:45:02Z</time></trkpt><trkpt lat="44.759175594239586" lon="9.648245475009508"><ele>918.0</ele><time>2026-04-06T10:45:03Z</time></trkpt><trkpt lat="44.75924868565439" lon="9.64821228164524"><ele>916.0</ele><time>2026-04-06T10:45:04Z</time></trkpt><trkpt lat="44.75936831635883" lon="9.64817831448905"><ele>914.8</ele><time>2026-04-06T10:45:06Z</time></trkpt><trkpt lat="44.75948151991001" lon="9.648141274037233"><ele>913.5999999999999</ele><time>2026-04-06T10:45:08Z</time></trkpt><trkpt lat="44.759597887502494" lon="9.648116784234468"><ele>912.4</ele><time>2026-04-06T10:45:10Z</time></trkpt><trkpt lat="44.75973368977588" lon="9.648113543824687"><ele>911.2</ele><time>2026-04-06T10:45:12Z</time></trkpt><trkpt lat="44.759812446197955" lon="9.648108535711993"><ele>910.0</ele><time>2026-04-06T10:45:13Z</time></trkpt><trkpt lat="44.759877679484866" lon="9.648082502431206"><ele>909.9999999999999</ele><time>2026-04-06T10:45:14Z</time></trkpt><trkpt lat="44.75993510353601" lon="9.648033045999572"><ele>910.0</ele><time>2026-04-06T10:45:15Z</time></trkpt><trkpt lat="44.75999308594023" lon="9.647941548387847"><ele>910.0</ele><time>2026-04-06T10:45:16Z</time></trkpt><trkpt lat="44.76004834915611" lon="9.647863527148138"><ele>910.0</ele><time>2026-04-06T10:45:17Z</time></trkpt><trkpt lat="44.76012491997031" lon="9.647805498591287"><ele>909.9999999999999</ele><time>2026-04-06T10:45:19Z</time></trkpt><trkpt lat="44.76011127819733" lon="9.647679407105807"><ele>910.0</ele><time>2026-04-06T10:45:22Z</time></trkpt><trkpt lat="44.760067555058676" lon="9.647607147315842"><ele>908.8333333333333</ele><time>2026-04-06T10:45:23Z</time></trkpt><trkpt lat="44.7600215857386" lon="9.647530718399658"><ele>907.6666666666666</ele><time>2026-04-06T10:45:24Z</time></trkpt><trkpt lat="44.759980392334214" lon="9.647444241960228"><ele>906.5</ele><time>2026-04-06T10:45:25Z</time></trkpt><trkpt lat="44.75994210354938" lon="9.647365008608787"><ele>905.3333333333333</ele><time>2026-04-06T10:45:26Z</time></trkpt><trkpt lat="44.7598911554276" lon="9.647258941632684"><ele>904.1666666666666</ele><time>2026-04-06T10:45:27Z</time></trkpt><trkpt lat="44.7598471138859" lon="9.64716864646512"><ele>903.0</ele><time>2026-04-06T10:45:28Z</time></trkpt><trkpt lat="44.75983080287084" lon="9.647028778128098"><ele>899.8</ele><time>2026-04-06T10:45:30Z</time></trkpt><trkpt lat="44.759912932390044" lon="9.64691839936965"><ele>896.5999999999999</ele><time>2026-04-06T10:45:32Z</time></trkpt><trkpt lat="44.75995650173164" lon="9.646852958104125"><ele>893.4000000000001</ele><time>2026-04-06T10:45:33Z</time></trkpt><trkpt lat="44.760016822609536" lon="9.646739534420957"><ele>890.2</ele><time>2026-04-06T10:45:35Z</time></trkpt><trkpt lat="44.760081021029215" lon="9.646593146015539"><ele>887.0</ele><time>2026-04-06T10:45:37Z</time></trkpt><trkpt lat="44.760139727886596" lon="9.646482609253907"><ele>887.0000000000001</ele><time>2026-04-06T10:45:39Z</time></trkpt><trkpt lat="44.76011884353016" lon="9.646336090351145"><ele>887.0</ele><time>2026-04-06T10:45:41Z</time></trkpt><trkpt lat="44.760070273482974" lon="9.646244548623383"><ele>887.0</ele><time>2026-04-06T10:45:42Z</time></trkpt><trkpt lat="44.760031469981925" lon="9.646150384916844"><ele>887.0</ele><time>2026-04-06T10:45:43Z</time></trkpt><trkpt lat="44.75999611131698" lon="9.646044416609495"><ele>887.0000000000001</ele><time>2026-04-06T10:45:44Z</time></trkpt><trkpt lat="44.75996901992262" lon="9.645946353467922"><ele>887.0</ele><time>2026-04-06T10:45:45Z</time></trkpt><trkpt lat="44.75993734393603" lon="9.645844017498428"><ele>884.7142857142857</ele><time>2026-04-06T10:45:46Z</time></trkpt><trkpt lat="44.75991892463075" lon="9.64574982877406"><ele>882.4285714285714</ele><time>2026-04-06T10:45:47Z</time></trkpt><trkpt lat="44.75989957965109" lon="9.645662104830599"><ele>880.1428571428571</ele><time>2026-04-06T10:45:48Z</time></trkpt><trkpt lat="44.75987695999861" lon="9.645572907346594"><ele>877.8571428571429</ele><time>2026-04-06T10:45:49Z</time></trkpt><trkpt lat="44.759858138055044" lon="9.645485573253984"><ele>875.5714285714286</ele><time>2026-04-06T10:45:50Z</time></trkpt><trkpt lat="44.759827743793934" lon="9.64539361022584"><ele>873.2857142857142</ele><time>2026-04-06T10:45:51Z</time></trkpt><trkpt lat="44.75980393436735" lon="9.645307154780776"><ele>871.0</ele><time>2026-04-06T10:45:52Z</time></trkpt><trkpt lat="44.75976677427564" lon="9.645211019255084"><ele>868.5999999999999</ele><time>2026-04-06T10:45:53Z</time></trkpt><trkpt lat="44.75972713004901" lon="9.645116358425161"><ele>866.1999999999999</ele><time>2026-04-06T10:45:53.999Z</time></trkpt><trkpt lat="44.75972337394847" lon="9.645000462204342"><ele>863.8000000000001</ele><time>2026-04-06T10:45:55.999Z</time></trkpt><trkpt lat="44.75978912059466" lon="9.644963818086936"><ele>861.4000000000001</ele><time>2026-04-06T10:45:57.999Z</time></trkpt><trkpt lat="44.75985728353945" lon="9.644882135450317"><ele>859.0</ele><time>2026-04-06T10:46:01.999Z</time></trkpt><trkpt lat="44.76006739780366" lon="9.644745991890156"><ele>858.9999999999999</ele><time>2026-04-06T10:46:04.999Z</time></trkpt><trkpt lat="44.760155121816766" lon="9.644721803472947"><ele>859.0</ele><time>2026-04-06T10:46:05.999Z</time></trkpt><trkpt lat="44.76023645623171" lon="9.644691666365546"><ele>859.0</ele><time>2026-04-06T10:46:06.999Z</time></trkpt><trkpt lat="44.760309774456935" lon="9.644673073589333"><ele>859.0</ele><time>2026-04-06T10:46:07.999Z</time></trkpt><trkpt lat="44.76041052846655" lon="9.644664826502328"><ele>858.9999999999999</ele><time>2026-04-06T10:46:09.999Z</time></trkpt><trkpt lat="44.760476807771646" lon="9.644620664032912"><ele>859.0</ele><time>2026-04-06T10:46:11.999Z</time></trkpt><trkpt lat="44.76046336411937" lon="9.644527892454029"><ele>858.0</ele><time>2026-04-06T10:46:13.999Z</time></trkpt><trkpt lat="44.76042889237633" lon="9.644361426088086"><ele>857.0000000000001</ele><time>2026-04-06T10:46:15.999Z</time></trkpt><trkpt lat="44.76039197304655" lon="9.644201303832656"><ele>856.0000000000001</ele><time>2026-04-06T10:46:17.999Z</time></trkpt><trkpt lat="44.760362018201526" lon="9.64405785712766"><ele>855.0</ele><time>2026-04-06T10:46:19.999Z</time></trkpt><trkpt lat="44.760331616327534" lon="9.643927592097887"><ele>854.0</ele><time>2026-04-06T10:46:21.999Z</time></trkpt><trkpt lat="44.7603211496846" lon="9.643815511246334"><ele>854.0000000000001</ele><time>2026-04-06T10:46:23.999Z</time></trkpt><trkpt lat="44.76030995047014" lon="9.643689802717367"><ele>854.0</ele><time>2026-04-06T10:46:25.999Z</time></trkpt><trkpt lat="44.760288331882116" lon="9.643591051093399"><ele>854.0</ele><time>2026-04-06T10:46:27.999Z</time></trkpt><trkpt lat="44.760239503693406" lon="9.643500253117821"><ele>854.0</ele><time>2026-04-06T10:46:30.999Z</time></trkpt><trkpt lat="44.76016188571297" lon="9.643462905899508"><ele>854.0000000000001</ele><time>2026-04-06T10:46:33.999Z</time></trkpt><trkpt lat="44.76006995846583" lon="9.643463925651304"><ele>854.0</ele><time>2026-04-06T10:46:35.999Z</time></trkpt><trkpt lat="44.760134551782556" lon="9.643461859711874"><ele>851.4000000000001</ele><time>2026-04-06T10:46:36.999Z</time></trkpt><trkpt lat="44.76004857112418" lon="9.643488365755278"><ele>848.8000000000001</ele><time>2026-04-06T10:50:51.999Z</time></trkpt><trkpt lat="44.76010717422482" lon="9.643569257434368"><ele>846.2</ele><time>2026-04-06T10:50:54.999Z</time></trkpt><trkpt lat="44.76020376522946" lon="9.643466687507516"><ele>843.5999999999999</ele><time>2026-04-06T10:50:56.999Z</time></trkpt><trkpt lat="44.76030303779651" lon="9.643441950893088"><ele>841.0</ele><time>2026-04-06T10:50:58.999Z</time></trkpt><trkpt lat="44.76041650722412" lon="9.643516472650553"><ele>840.9999999999999</ele><time>2026-04-06T10:51:00.997Z</time></trkpt><trkpt lat="44.76048080497436" lon="9.643527457115882"><ele>841.0</ele><time>2026-04-06T10:51:01.997Z</time></trkpt><trkpt lat="44.76055207046065" lon="9.64354134306199"><ele>841.0</ele><time>2026-04-06T10:51:02.997Z</time></trkpt><trkpt lat="44.760638678106886" lon="9.64352804752248"><ele>841.0</ele><time>2026-04-06T10:51:03.997Z</time></trkpt><trkpt lat="44.76071750618462" lon="9.64354687666331"><ele>840.9999999999999</ele><time>2026-04-06T10:51:04.997Z</time></trkpt><trkpt lat="44.76079571062396" lon="9.643560924025596"><ele>841.0</ele><time>2026-04-06T10:51:05.997Z</time></trkpt><trkpt lat="44.760893034208664" lon="9.64357285340963"><ele>841.0</ele><time>2026-04-06T10:51:06.997Z</time></trkpt><trkpt lat="44.7609938145097" lon="9.643592466700712"><ele>841.0</ele><time>2026-04-06T10:51:07.997Z</time></trkpt><trkpt lat="44.76110310173994" lon="9.643625542106758"><ele>841.0</ele><time>2026-04-06T10:51:08.997Z</time></trkpt><trkpt lat="44.76119529877242" lon="9.643652842580734"><ele>841.0</ele><time>2026-04-06T10:51:09.997Z</time></trkpt><trkpt lat="44.76127799969046" lon="9.643686256580486"><ele>841.0</ele><time>2026-04-06T10:51:10.997Z</time></trkpt><trkpt lat="44.76135861038908" lon="9.643713052338578"><ele>842.9999999999999</ele><time>2026-04-06T10:51:11.997Z</time></trkpt><trkpt lat="44.76143706952613" lon="9.643727949073323"><ele>845.0</ele><time>2026-04-06T10:51:12.997Z</time></trkpt><trkpt lat="44.761521999137265" lon="9.643709194157282"><ele>847.0</ele><time>2026-04-06T10:51:13.997Z</time></trkpt><trkpt lat="44.76159988954835" lon="9.643678279646162"><ele>849.0</ele><time>2026-04-06T10:51:14.998Z</time></trkpt><trkpt lat="44.761668683402036" lon="9.64365059093379"><ele>850.9999999999999</ele><time>2026-04-06T10:51:15.998Z</time></trkpt><trkpt lat="44.76176780572043" lon="9.643568090575036"><ele>853.0</ele><time>2026-04-06T10:51:17.998Z</time></trkpt><trkpt lat="44.76180564228462" lon="9.643479763087905"><ele>852.9999999999999</ele><time>2026-04-06T10:51:18.998Z</time></trkpt><trkpt lat="44.761850083999065" lon="9.643379198124318"><ele>853.0</ele><time>2026-04-06T10:51:19.998Z</time></trkpt><trkpt lat="44.761893165441634" lon="9.643260477220574"><ele>853.0</ele><time>2026-04-06T10:51:20.998Z</time></trkpt><trkpt lat="44.76194332625516" lon="9.64317730022594"><ele>853.0</ele><time>2026-04-06T10:51:21.998Z</time></trkpt><trkpt lat="44.76200946723101" lon="9.64310694953566"><ele>852.9999999999999</ele><time>2026-04-06T10:51:22.998Z</time></trkpt><trkpt lat="44.762101685315926" lon="9.643065160116201"><ele>853.0</ele><time>2026-04-06T10:51:23.998Z</time></trkpt><trkpt lat="44.76218606358278" lon="9.643055863548884"><ele>854.4</ele><time>2026-04-06T10:51:24.998Z</time></trkpt><trkpt lat="44.76228222389343" lon="9.64300208717836"><ele>855.8</ele><time>2026-04-06T10:51:25.998Z</time></trkpt><trkpt lat="44.7623738339491" lon="9.642951969520157"><ele>857.2</ele><time>2026-04-06T10:51:26.998Z</time></trkpt><trkpt lat="44.76247245078807" lon="9.642919818217107"><ele>858.6</ele><time>2026-04-06T10:51:27.998Z</time></trkpt><trkpt lat="44.762581895841905" lon="9.642884672693981"><ele>860.0</ele><time>2026-04-06T10:51:28.998Z</time></trkpt><trkpt lat="44.76268958473129" lon="9.642879231714813"><ele>861.8</ele><time>2026-04-06T10:51:29.998Z</time></trkpt><trkpt lat="44.76279395841033" lon="9.642879357196517"><ele>863.6</ele><time>2026-04-06T10:51:30.998Z</time></trkpt><trkpt lat="44.762895200733325" lon="9.642849773452387"><ele>865.4000000000001</ele><time>2026-04-06T10:51:31.998Z</time></trkpt><trkpt lat="44.76298865689138" lon="9.642783345463428"><ele>867.2</ele><time>2026-04-06T10:51:32.998Z</time></trkpt><trkpt lat="44.76307086729631" lon="9.642685511200378"><ele>869.0</ele><time>2026-04-06T10:51:33.998Z</time></trkpt><trkpt lat="44.763141897171145" lon="9.642580382143057"><ele>862.8000000000001</ele><time>2026-04-06T10:51:34.998Z</time></trkpt><trkpt lat="44.76321249659163" lon="9.642480720144412"><ele>856.6000000000001</ele><time>2026-04-06T10:51:35.998Z</time></trkpt><trkpt lat="44.76329585930383" lon="9.64238269988469"><ele>850.4</ele><time>2026-04-06T10:51:36.998Z</time></trkpt><trkpt lat="44.763370328823335" lon="9.642293620288278"><ele>844.2</ele><time>2026-04-06T10:51:37.998Z</time></trkpt><trkpt lat="44.76341874128037" lon="9.642209145413034"><ele>838.0</ele><time>2026-04-06T10:51:38.998Z</time></trkpt><trkpt lat="44.76344462902708" lon="9.642118640422268"><ele>838.0</ele><time>2026-04-06T10:51:39.998Z</time></trkpt><trkpt lat="44.76348341616667" lon="9.641994137781579"><ele>838.0</ele><time>2026-04-06T10:51:41.998Z</time></trkpt><trkpt lat="44.763599114389386" lon="9.641873417162428"><ele>838.0</ele><time>2026-04-06T10:51:43.998Z</time></trkpt><trkpt lat="44.76369281378734" lon="9.64180655392919"><ele>838.0</ele><time>2026-04-06T10:51:44.998Z</time></trkpt><trkpt lat="44.76380113638078" lon="9.641725680770335"><ele>836.2</ele><time>2026-04-06T10:51:45.998Z</time></trkpt><trkpt lat="44.763914308191694" lon="9.641636638318127"><ele>834.4</ele><time>2026-04-06T10:51:46.998Z</time></trkpt><trkpt lat="44.76401253561378" lon="9.641542304271491"><ele>832.6</ele><time>2026-04-06T10:51:47.998Z</time></trkpt><trkpt lat="44.764097478264894" lon="9.641456593803566"><ele>830.8000000000001</ele><time>2026-04-06T10:51:48.998Z</time></trkpt><trkpt lat="44.76418224534659" lon="9.641400771685811"><ele>829.0</ele><time>2026-04-06T10:51:49.998Z</time></trkpt><trkpt lat="44.764271477922634" lon="9.641387416570597"><ele>827.25</ele><time>2026-04-06T10:51:50.998Z</time></trkpt><trkpt lat="44.76436755530624" lon="9.641409436048098"><ele>825.5</ele><time>2026-04-06T10:51:51.998Z</time></trkpt><trkpt lat="44.764477347656666" lon="9.64148328895644"><ele>823.75</ele><time>2026-04-06T10:51:52.998Z</time></trkpt><trkpt lat="44.764592383313385" lon="9.641550022258052"><ele>822.0</ele><time>2026-04-06T10:51:53.998Z</time></trkpt><trkpt lat="44.76472799637963" lon="9.641562077831296"><ele>822.0</ele><time>2026-04-06T10:51:54.998Z</time></trkpt><trkpt lat="44.76484860107514" lon="9.641554363266515"><ele>822.0</ele><time>2026-04-06T10:51:55.998Z</time></trkpt><trkpt lat="44.764963307982875" lon="9.641550767942611"><ele>822.0</ele><time>2026-04-06T10:51:56.998Z</time></trkpt><trkpt lat="44.765078839252666" lon="9.641564328698585"><ele>822.0</ele><time>2026-04-06T10:51:57.998Z</time></trkpt><trkpt lat="44.76518457584337" lon="9.64160682450776"><ele>819.5</ele><time>2026-04-06T10:51:58.998Z</time></trkpt><trkpt lat="44.76529244404161" lon="9.641675869494232"><ele>817.0</ele><time>2026-04-06T10:51:59.998Z</time></trkpt><trkpt lat="44.76541344323895" lon="9.64172651427738"><ele>814.5</ele><time>2026-04-06T10:52:00.998Z</time></trkpt><trkpt lat="44.76552563328792" lon="9.641788681882662"><ele>812.0</ele><time>2026-04-06T10:52:01.998Z</time></trkpt><trkpt lat="44.76563691919246" lon="9.641860807947863"><ele>812.0</ele><time>2026-04-06T10:52:02.998Z</time></trkpt><trkpt lat="44.765755031831596" lon="9.641949353536182"><ele>812.0</ele><time>2026-04-06T10:52:03.998Z</time></trkpt><trkpt lat="44.7658775346671" lon="9.642056587180026"><ele>812.0</ele><time>2026-04-06T10:52:04.998Z</time></trkpt><trkpt lat="44.76598452907392" lon="9.642202206259261"><ele>812.0</ele><time>2026-04-06T10:52:05.998Z</time></trkpt><trkpt lat="44.76610431133293" lon="9.642301739247172"><ele>813.5</ele><time>2026-04-06T10:52:06.999Z</time></trkpt><trkpt lat="44.76621360568057" lon="9.642394441482468"><ele>815.0</ele><time>2026-04-06T10:52:07.999Z</time></trkpt><trkpt lat="44.7663276097016" lon="9.64247109638339"><ele>816.5</ele><time>2026-04-06T10:52:08.999Z</time></trkpt><trkpt lat="44.76643309469196" lon="9.642541846429767"><ele>818.0</ele><time>2026-04-06T10:52:09.999Z</time></trkpt><trkpt lat="44.76653393151988" lon="9.642604148088287"><ele>818.0</ele><time>2026-04-06T10:52:10.999Z</time></trkpt><trkpt lat="44.766630056719684" lon="9.642671151244775"><ele>818.0</ele><time>2026-04-06T10:52:11.999Z</time></trkpt><trkpt lat="44.76670071631007" lon="9.642760154767972"><ele>818.0</ele><time>2026-04-06T10:52:12.999Z</time></trkpt><trkpt lat="44.76674309039197" lon="9.642883316652837"><ele>818.0</ele><time>2026-04-06T10:52:13.999Z</time></trkpt><trkpt lat="44.766737433367" lon="9.643014706396649"><ele>818.0</ele><time>2026-04-06T10:52:14.999Z</time></trkpt><trkpt lat="44.76672937283438" lon="9.64313321646051"><ele>818.4</ele><time>2026-04-06T10:52:15.999Z</time></trkpt><trkpt lat="44.76670798207768" lon="9.643246151952003"><ele>818.8</ele><time>2026-04-06T10:52:16.999Z</time></trkpt><trkpt lat="44.7666752612789" lon="9.6433687494821"><ele>819.2</ele><time>2026-04-06T10:52:17.999Z</time></trkpt><trkpt lat="44.766632196783256" lon="9.64350335316821"><ele>819.6</ele><time>2026-04-06T10:52:18.999Z</time></trkpt><trkpt lat="44.766584910309085" lon="9.643652797883023"><ele>820.0</ele><time>2026-04-06T10:52:19.999Z</time></trkpt><trkpt lat="44.766541278674396" lon="9.643818701214293"><ele>818.5</ele><time>2026-04-06T10:52:20.999Z</time></trkpt><trkpt lat="44.76650815913279" lon="9.643999495703643"><ele>817.0</ele><time>2026-04-06T10:52:21.999Z</time></trkpt><trkpt lat="44.766479118328796" lon="9.644173820759335"><ele>815.5</ele><time>2026-04-06T10:52:22.999Z</time></trkpt><trkpt lat="44.766459980746" lon="9.64435387494215"><ele>814.0</ele><time>2026-04-06T10:52:23.999Z</time></trkpt><trkpt lat="44.766461631084745" lon="9.644542840943895"><ele>813.5</ele><time>2026-04-06T10:52:24.999Z</time></trkpt><trkpt lat="44.766464382833874" lon="9.644729380601202"><ele>813.0</ele><time>2026-04-06T10:52:25.999Z</time></trkpt><trkpt lat="44.76646607654408" lon="9.644908112434273"><ele>812.5</ele><time>2026-04-06T10:52:26.999Z</time></trkpt><trkpt lat="44.76645946675249" lon="9.64507356649113"><ele>812.0</ele><time>2026-04-06T10:52:27.999Z</time></trkpt><trkpt lat="44.76645073940355" lon="9.645233685543554"><ele>811.8</ele><time>2026-04-06T10:52:28.999Z</time></trkpt><trkpt lat="44.76644772712957" lon="9.645386574055358"><ele>811.6</ele><time>2026-04-06T10:52:29.999Z</time></trkpt><trkpt lat="44.766462144066296" lon="9.645541380690444"><ele>811.4</ele><time>2026-04-06T10:52:30.999Z</time></trkpt><trkpt lat="44.76649395751448" lon="9.645678719084133"><ele>811.1999999999999</ele><time>2026-04-06T10:52:31.999Z</time></trkpt><trkpt lat="44.76652699276406" lon="9.64580837286044"><ele>811.0</ele><time>2026-04-06T10:52:32.999Z</time></trkpt><trkpt lat="44.766566698978004" lon="9.645925965158389"><ele>810.9999999999999</ele><time>2026-04-06T10:52:33.999Z</time></trkpt><trkpt lat="44.76657229951335" lon="9.646040574595816"><ele>811.0</ele><time>2026-04-06T10:52:34.999Z</time></trkpt><trkpt lat="44.7665315922509" lon="9.646136537597933"><ele>811.0</ele><time>2026-04-06T10:52:35.999Z</time></trkpt><trkpt lat="44.766500105190296" lon="9.646252252164043"><ele>811.0</ele><time>2026-04-06T10:52:36.999Z</time></trkpt><trkpt lat="44.766464952399645" lon="9.646369149136367"><ele>810.9999999999999</ele><time>2026-04-06T10:52:37.999Z</time></trkpt><trkpt lat="44.76643241600638" lon="9.646494240485456"><ele>811.0</ele><time>2026-04-06T10:52:38.999Z</time></trkpt><trkpt lat="44.766406557528974" lon="9.646618607407428"><ele>810.4</ele><time>2026-04-06T10:52:39.999Z</time></trkpt><trkpt lat="44.76638651508521" lon="9.646754204035561"><ele>809.8</ele><time>2026-04-06T10:52:40.999Z</time></trkpt><trkpt lat="44.76638623068196" lon="9.646893430676808"><ele>809.1999999999999</ele><time>2026-04-06T10:52:41.999Z</time></trkpt><trkpt lat="44.766403354603256" lon="9.64702127949519"><ele>808.5999999999999</ele><time>2026-04-06T10:52:42.999Z</time></trkpt><trkpt lat="44.766431616166976" lon="9.64713293395423"><ele>808.0</ele><time>2026-04-06T10:52:43.999Z</time></trkpt><trkpt lat="44.76647118966621" lon="9.647236530949561"><ele>807.8</ele><time>2026-04-06T10:52:44.999Z</time></trkpt><trkpt lat="44.76651863183633" lon="9.647331784499377"><ele>807.5999999999999</ele><time>2026-04-06T10:52:45.999Z</time></trkpt><trkpt lat="44.76657733298827" lon="9.647424916948635"><ele>807.4000000000001</ele><time>2026-04-06T10:52:46.999Z</time></trkpt><trkpt lat="44.7666435713708" lon="9.647510925477526"><ele>807.2</ele><time>2026-04-06T10:52:47.999Z</time></trkpt><trkpt lat="44.766720117191475" lon="9.647591368052947"><ele>807.0</ele><time>2026-04-06T10:52:48.999Z</time></trkpt><trkpt lat="44.76679853452776" lon="9.647668786865685"><ele>805.4000000000001</ele><time>2026-04-06T10:52:49.999Z</time></trkpt><trkpt lat="44.766882974632" lon="9.64775107677959"><ele>803.8000000000001</ele><time>2026-04-06T10:52:50.999Z</time></trkpt><trkpt lat="44.76696549621445" lon="9.647830922409563"><ele>802.2</ele><time>2026-04-06T10:52:51.999Z</time></trkpt><trkpt lat="44.76705372165363" lon="9.647887933472514"><ele>800.6</ele><time>2026-04-06T10:52:52.999Z</time></trkpt><trkpt lat="44.76712060427702" lon="9.647971603372874"><ele>799.0</ele><time>2026-04-06T10:52:53.999Z</time></trkpt><trkpt lat="44.767197560726615" lon="9.648027730118098"><ele>798.2</ele><time>2026-04-06T10:52:54.999Z</time></trkpt><trkpt lat="44.767263887052074" lon="9.648087922150525"><ele>797.4000000000001</ele><time>2026-04-06T10:52:55.999Z</time></trkpt><trkpt lat="44.767319053774756" lon="9.648148519853452"><ele>796.6</ele><time>2026-04-06T10:52:56.999Z</time></trkpt><trkpt lat="44.767376280689774" lon="9.648273929442043"><ele>795.8</ele><time>2026-04-06T10:52:58.999Z</time></trkpt><trkpt lat="44.76740041704771" lon="9.648361435650488"><ele>795.0</ele><time>2026-04-06T10:53:01.999Z</time></trkpt><trkpt lat="44.767393767414525" lon="9.648550427056726"><ele>792.6</ele><time>2026-04-06T10:53:41.999Z</time></trkpt><trkpt lat="44.76736102145443" lon="9.648648192634015"><ele>790.2</ele><time>2026-04-06T10:53:42.999Z</time></trkpt><trkpt lat="44.767318599555146" lon="9.648757705172239"><ele>787.8</ele><time>2026-04-06T10:53:43.999Z</time></trkpt><trkpt lat="44.76726213985904" lon="9.648865682968854"><ele>785.4</ele><time>2026-04-06T10:53:44.999Z</time></trkpt><trkpt lat="44.7671712009004" lon="9.648973998319924"><ele>783.0</ele><time>2026-04-06T10:53:45.999Z</time></trkpt><trkpt lat="44.767064680090776" lon="9.649096624246427"><ele>783.0</ele><time>2026-04-06T10:53:46.999Z</time></trkpt><trkpt lat="44.766959907246566" lon="9.649202457347767"><ele>783.0</ele><time>2026-04-06T10:53:47.999Z</time></trkpt><trkpt lat="44.766865429834084" lon="9.64930915659221"><ele>783.0</ele><time>2026-04-06T10:53:48.999Z</time></trkpt><trkpt lat="44.76676793399165" lon="9.64942477828909"><ele>783.0</ele><time>2026-04-06T10:53:49.999Z</time></trkpt><trkpt lat="44.76667199073932" lon="9.64953809348157"><ele>782.25</ele><time>2026-04-06T10:53:50.999Z</time></trkpt><trkpt lat="44.76657771103612" lon="9.649649592146993"><ele>781.5</ele><time>2026-04-06T10:53:51.999Z</time></trkpt><trkpt lat="44.76648502498046" lon="9.649753532577398"><ele>780.75</ele><time>2026-04-06T10:53:52.999Z</time></trkpt><trkpt lat="44.76639980165331" lon="9.649852340632815"><ele>780.0</ele><time>2026-04-06T10:53:53.999Z</time></trkpt><trkpt lat="44.76632251206467" lon="9.649950143785617"><ele>780.0</ele><time>2026-04-06T10:53:54.999Z</time></trkpt><trkpt lat="44.766250006073726" lon="9.650044248025042"><ele>780.0</ele><time>2026-04-06T10:53:55.999Z</time></trkpt><trkpt lat="44.76617195045007" lon="9.650118392934022"><ele>780.0</ele><time>2026-04-06T10:53:56.999Z</time></trkpt><trkpt lat="44.76608448605732" lon="9.650183509548654"><ele>780.0</ele><time>2026-04-06T10:53:57.999Z</time></trkpt><trkpt lat="44.76599260426567" lon="9.650236162738704"><ele>780.0</ele><time>2026-04-06T10:53:58.999Z</time></trkpt><trkpt lat="44.76590331356132" lon="9.650286180814176"><ele>779.3333333333334</ele><time>2026-04-06T10:53:59.999Z</time></trkpt><trkpt lat="44.765826053166776" lon="9.650357136081439"><ele>778.6666666666667</ele><time>2026-04-06T10:54:00.999Z</time></trkpt><trkpt lat="44.76576415707768" lon="9.650439577143754"><ele>778.0</ele><time>2026-04-06T10:54:01.999Z</time></trkpt><trkpt lat="44.76572245729685" lon="9.650542896744023"><ele>777.3333333333334</ele><time>2026-04-06T10:54:02.999Z</time></trkpt><trkpt lat="44.7657167696533" lon="9.650643503242218"><ele>776.6666666666667</ele><time>2026-04-06T10:54:03.999Z</time></trkpt><trkpt lat="44.76574119231554" lon="9.650730324340378"><ele>776.0</ele><time>2026-04-06T10:54:04.999Z</time></trkpt><trkpt lat="44.76580400933871" lon="9.650786737972258"><ele>776.0</ele><time>2026-04-06T10:54:05.999Z</time></trkpt><trkpt lat="44.7658824150262" lon="9.650812174475224"><ele>776.0</ele><time>2026-04-06T10:54:06.999Z</time></trkpt><trkpt lat="44.765946142844776" lon="9.650846892579247"><ele>776.0</ele><time>2026-04-06T10:54:07.999Z</time></trkpt><trkpt lat="44.765950073827916" lon="9.651025279387033"><ele>776.0</ele><time>2026-04-06T10:54:10.999Z</time></trkpt><trkpt lat="44.76594384014346" lon="9.651196223538598"><ele>776.0</ele><time>2026-04-06T10:54:12.999Z</time></trkpt><trkpt lat="44.76593697808499" lon="9.651325276197154"><ele>775.75</ele><time>2026-04-06T10:54:13.999Z</time></trkpt><trkpt lat="44.76592743856028" lon="9.651480629410624"><ele>775.5</ele><time>2026-04-06T10:54:14.999Z</time></trkpt><trkpt lat="44.76592674432685" lon="9.651644760090075"><ele>775.25</ele><time>2026-04-06T10:54:15.999Z</time></trkpt><trkpt lat="44.765935759623055" lon="9.651819714461725"><ele>775.0</ele><time>2026-04-06T10:54:16.999Z</time></trkpt><trkpt lat="44.765979226270254" lon="9.651991462209788"><ele>772.5</ele><time>2026-04-06T10:54:17.999Z</time></trkpt><trkpt lat="44.76605692962837" lon="9.652137113688969"><ele>770.0</ele><time>2026-04-06T10:54:18.999Z</time></trkpt><trkpt lat="44.76615075856706" lon="9.65227642831802"><ele>767.5</ele><time>2026-04-06T10:54:19.999Z</time></trkpt><trkpt lat="44.766238184665006" lon="9.652418107387817"><ele>765.0</ele><time>2026-04-06T10:54:20.999Z</time></trkpt><trkpt lat="44.766318716115215" lon="9.652549474701678"><ele>765.0</ele><time>2026-04-06T10:54:21.999Z</time></trkpt><trkpt lat="44.76639119887178" lon="9.652691491085738"><ele>765.0</ele><time>2026-04-06T10:54:22.999Z</time></trkpt><trkpt lat="44.766449599676065" lon="9.652846513356653"><ele>765.0</ele><time>2026-04-06T10:54:23.999Z</time></trkpt><trkpt lat="44.76648140429515" lon="9.653016615714087"><ele>765.0</ele><time>2026-04-06T10:54:24.999Z</time></trkpt><trkpt lat="44.76649188065848" lon="9.653196267786713"><ele>765.5</ele><time>2026-04-06T10:54:25.999Z</time></trkpt><trkpt lat="44.766507554039634" lon="9.653386840203837"><ele>766.0</ele><time>2026-04-06T10:54:26.999Z</time></trkpt><trkpt lat="44.76652453675114" lon="9.653581453560255"><ele>766.5</ele><time>2026-04-06T10:54:27.999Z</time></trkpt><trkpt lat="44.76654468357857" lon="9.653790285198847"><ele>767.0</ele><time>2026-04-06T10:54:28.999Z</time></trkpt><trkpt lat="44.76656026098947" lon="9.654011952565567"><ele>767.0</ele><time>2026-04-06T10:54:29.999Z</time></trkpt><trkpt lat="44.76658103489248" lon="9.654224991034619"><ele>767.0</ele><time>2026-04-06T10:54:30.999Z</time></trkpt><trkpt lat="44.76661665945312" lon="9.654430058392075"><ele>767.0</ele><time>2026-04-06T10:54:31.999Z</time></trkpt><trkpt lat="44.766678511143006" lon="9.654616040426092"><ele>767.0</ele><time>2026-04-06T10:54:32.999Z</time></trkpt><trkpt lat="44.76673184399398" lon="9.654801940331813"><ele>767.5</ele><time>2026-04-06T10:54:33.999Z</time></trkpt><trkpt lat="44.76678653963724" lon="9.654981725883362"><ele>768.0</ele><time>2026-04-06T10:54:34.999Z</time></trkpt><trkpt lat="44.76684115368066" lon="9.65516829417334"><ele>768.5</ele><time>2026-04-06T10:54:35.999Z</time></trkpt><trkpt lat="44.76689890583552" lon="9.655365218822892"><ele>769.0</ele><time>2026-04-06T10:54:36.999Z</time></trkpt><trkpt lat="44.766943806180514" lon="9.655545401304904"><ele>766.5</ele><time>2026-04-06T10:54:37.999Z</time></trkpt><trkpt lat="44.766966710081086" lon="9.655724360890778"><ele>764.0</ele><time>2026-04-06T10:54:38.999Z</time></trkpt><trkpt lat="44.76694054805868" lon="9.655894760524257"><ele>761.5</ele><time>2026-04-06T10:54:39.999Z</time></trkpt><trkpt lat="44.7669152237638" lon="9.6560947426345"><ele>759.0</ele><time>2026-04-06T10:54:40.999Z</time></trkpt><trkpt lat="44.766898538054214" lon="9.656316832204421"><ele>758.75</ele><time>2026-04-06T10:54:41.999Z</time></trkpt><trkpt lat="44.76691124345542" lon="9.656511250793697"><ele>758.5</ele><time>2026-04-06T10:54:42.999Z</time></trkpt><trkpt lat="44.766918719430386" lon="9.656697135441286"><ele>758.25</ele><time>2026-04-06T10:54:43.999Z</time></trkpt><trkpt lat="44.76693791179409" lon="9.656887255440253"><ele>758.0</ele><time>2026-04-06T10:54:44.999Z</time></trkpt><trkpt lat="44.76697255031109" lon="9.657080755095915"><ele>758.5</ele><time>2026-04-06T10:54:45.999Z</time></trkpt><trkpt lat="44.767018200309536" lon="9.657277495801182"><ele>759.0</ele><time>2026-04-06T10:54:46.999Z</time></trkpt><trkpt lat="44.7670658155314" lon="9.657447084113892"><ele>759.5</ele><time>2026-04-06T10:54:47.999Z</time></trkpt><trkpt lat="44.767136328482536" lon="9.657601730395076"><ele>760.0</ele><time>2026-04-06T10:54:48.999Z</time></trkpt><trkpt lat="44.76721870630503" lon="9.65774656830041"><ele>761.2</ele><time>2026-04-06T10:54:49.999Z</time></trkpt><trkpt lat="44.767286277598316" lon="9.657879798937959"><ele>762.4</ele><time>2026-04-06T10:54:50.999Z</time></trkpt><trkpt lat="44.76731794873125" lon="9.658014167908483"><ele>763.5999999999999</ele><time>2026-04-06T10:54:51.999Z</time></trkpt><trkpt lat="44.7673197221886" lon="9.658161255399481"><ele>764.8</ele><time>2026-04-06T10:54:52.999Z</time></trkpt><trkpt lat="44.767302908723074" lon="9.658338137753725"><ele>766.0</ele><time>2026-04-06T10:54:53.999Z</time></trkpt><trkpt lat="44.76729378350326" lon="9.658535962594934"><ele>765.75</ele><time>2026-04-06T10:54:54.999Z</time></trkpt><trkpt lat="44.76728742068878" lon="9.65873493672051"><ele>765.5</ele><time>2026-04-06T10:54:55.999Z</time></trkpt><trkpt lat="44.767266183362416" lon="9.658909383171757"><ele>765.25</ele><time>2026-04-06T10:54:56.999Z</time></trkpt><trkpt lat="44.767201391984734" lon="9.659064941262724"><ele>765.0</ele><time>2026-04-06T10:54:57.999Z</time></trkpt><trkpt lat="44.76714701362684" lon="9.659227305063958"><ele>765.0</ele><time>2026-04-06T10:54:58.999Z</time></trkpt><trkpt lat="44.767104330402205" lon="9.659382174726273"><ele>765.0</ele><time>2026-04-06T10:55:00Z</time></trkpt><trkpt lat="44.767104240442585" lon="9.659551719840648"><ele>765.0</ele><time>2026-04-06T10:55:01Z</time></trkpt><trkpt lat="44.76714916704948" lon="9.65973118956028"><ele>765.0</ele><time>2026-04-06T10:55:02Z</time></trkpt><trkpt lat="44.76719263863274" lon="9.659943303336407"><ele>765.75</ele><time>2026-04-06T10:55:03Z</time></trkpt><trkpt lat="44.76721362168558" lon="9.660140755762015"><ele>766.5</ele><time>2026-04-06T10:55:04Z</time></trkpt><trkpt lat="44.76722032479804" lon="9.66032101478766"><ele>767.25</ele><time>2026-04-06T10:55:05Z</time></trkpt><trkpt lat="44.76721443249206" lon="9.660498559181404"><ele>768.0</ele><time>2026-04-06T10:55:06Z</time></trkpt><trkpt lat="44.76719803297777" lon="9.660653688164992"><ele>768.0</ele><time>2026-04-06T10:55:07Z</time></trkpt><trkpt lat="44.767158154958025" lon="9.660794487813524"><ele>768.0</ele><time>2026-04-06T10:55:08Z</time></trkpt><trkpt lat="44.76708199447899" lon="9.66090473418254"><ele>768.0</ele><time>2026-04-06T10:55:09Z</time></trkpt><trkpt lat="44.766979939088635" lon="9.661007325356339"><ele>768.0</ele><time>2026-04-06T10:55:10Z</time></trkpt><trkpt lat="44.76687668261271" lon="9.661116673983347"><ele>770.0</ele><time>2026-04-06T10:55:11Z</time></trkpt><trkpt lat="44.76677134608294" lon="9.661240186402013"><ele>772.0</ele><time>2026-04-06T10:55:12Z</time></trkpt><trkpt lat="44.766681456779835" lon="9.661370050679194"><ele>774.0</ele><time>2026-04-06T10:55:12.999Z</time></trkpt><trkpt lat="44.76662658525586" lon="9.661517777150612"><ele>776.0</ele><time>2026-04-06T10:55:13.999Z</time></trkpt><trkpt lat="44.76660722835501" lon="9.661699837612192"><ele>776.0</ele><time>2026-04-06T10:55:14.999Z</time></trkpt><trkpt lat="44.76657792581073" lon="9.661880726965993"><ele>776.0</ele><time>2026-04-06T10:55:15.999Z</time></trkpt><trkpt lat="44.76649076411884" lon="9.66202228014657"><ele>776.0</ele><time>2026-04-06T10:55:16.999Z</time></trkpt><trkpt lat="44.76641185724592" lon="9.662212457831632"><ele>776.0</ele><time>2026-04-06T10:55:17.999Z</time></trkpt><trkpt lat="44.76635967089396" lon="9.662421333420102"><ele>776.25</ele><time>2026-04-06T10:55:18.999Z</time></trkpt><trkpt lat="44.766296066464804" lon="9.66262061261354"><ele>776.5</ele><time>2026-04-06T10:55:19.999Z</time></trkpt><trkpt lat="44.766235872874795" lon="9.662804158063238"><ele>776.75</ele><time>2026-04-06T10:55:20.999Z</time></trkpt><trkpt lat="44.76618122805751" lon="9.662965398708614"><ele>777.0</ele><time>2026-04-06T10:55:21.999Z</time></trkpt><trkpt lat="44.766151660038595" lon="9.66312110756827"><ele>777.0</ele><time>2026-04-06T10:55:22.999Z</time></trkpt><trkpt lat="44.76616428109522" lon="9.663288013263799"><ele>777.0</ele><time>2026-04-06T10:55:23.999Z</time></trkpt><trkpt lat="44.766209209652494" lon="9.66345380746822"><ele>777.0</ele><time>2026-04-06T10:55:24.999Z</time></trkpt><trkpt lat="44.766271929583205" lon="9.663618369751521"><ele>777.0</ele><time>2026-04-06T10:55:25.999Z</time></trkpt><trkpt lat="44.76635499500697" lon="9.663781547694406"><ele>778.0</ele><time>2026-04-06T10:55:26.999Z</time></trkpt><trkpt lat="44.766449798378304" lon="9.663943256848539"><ele>779.0</ele><time>2026-04-06T10:55:27.999Z</time></trkpt><trkpt lat="44.76654829039868" lon="9.664100590148086"><ele>780.0</ele><time>2026-04-06T10:55:28.999Z</time></trkpt><trkpt lat="44.76664741378689" lon="9.664256666002034"><ele>781.0</ele><time>2026-04-06T10:55:29.999Z</time></trkpt><trkpt lat="44.76673206364652" lon="9.664399949142604"><ele>782.1999999999999</ele><time>2026-04-06T10:55:30.999Z</time></trkpt><trkpt lat="44.766801467738084" lon="9.664540816653272"><ele>783.4</ele><time>2026-04-06T10:55:31.999Z</time></trkpt><trkpt lat="44.76684103165199" lon="9.664678382058131"><ele>784.6</ele><time>2026-04-06T10:55:32.999Z</time></trkpt><trkpt lat="44.76683839958678" lon="9.664817919241933"><ele>785.8</ele><time>2026-04-06T10:55:33.999Z</time></trkpt><trkpt lat="44.76681212654249" lon="9.664972288841714"><ele>787.0</ele><time>2026-04-06T10:55:34.999Z</time></trkpt><trkpt lat="44.766783785739044" lon="9.665139069882434"><ele>787.6</ele><time>2026-04-06T10:55:35.999Z</time></trkpt><trkpt lat="44.76679485031765" lon="9.665299777000842"><ele>788.2</ele><time>2026-04-06T10:55:36.999Z</time></trkpt><trkpt lat="44.76681907969691" lon="9.665459581200285"><ele>788.8</ele><time>2026-04-06T10:55:37.999Z</time></trkpt><trkpt lat="44.76689579124717" lon="9.665571767296584"><ele>789.4</ele><time>2026-04-06T10:55:38.999Z</time></trkpt><trkpt lat="44.76694909012268" lon="9.665680919579547"><ele>790.0</ele><time>2026-04-06T10:55:39.999Z</time></trkpt><trkpt lat="44.76697549693913" lon="9.665791900806832"><ele>788.6</ele><time>2026-04-06T10:55:40.999Z</time></trkpt><trkpt lat="44.76698226324737" lon="9.665887396254448"><ele>787.2</ele><time>2026-04-06T10:55:41.999Z</time></trkpt><trkpt lat="44.76710478383378" lon="9.665949850572215"><ele>785.8</ele><time>2026-04-06T10:55:42.999Z</time></trkpt><trkpt lat="44.76719873098395" lon="9.666040634229748"><ele>784.4</ele><time>2026-04-06T10:55:43.999Z</time></trkpt><trkpt lat="44.7672980806287" lon="9.666132485591303"><ele>783.0</ele><time>2026-04-06T10:55:44.999Z</time></trkpt><trkpt lat="44.76741232585198" lon="9.66625659173092"><ele>782.25</ele><time>2026-04-06T10:55:45.999Z</time></trkpt><trkpt lat="44.76751855330459" lon="9.6663903139465"><ele>781.5</ele><time>2026-04-06T10:55:46.999Z</time></trkpt><trkpt lat="44.76761329076652" lon="9.666521984970217"><ele>780.75</ele><time>2026-04-06T10:55:47.999Z</time></trkpt><trkpt lat="44.767706992963554" lon="9.666639641133338"><ele>780.0</ele><time>2026-04-06T10:55:48.999Z</time></trkpt><trkpt lat="44.76781556528453" lon="9.666734838676602"><ele>780.0</ele><time>2026-04-06T10:55:49.999Z</time></trkpt><trkpt lat="44.767940118310044" lon="9.666790074571047"><ele>780.0</ele><time>2026-04-06T10:55:50.999Z</time></trkpt><trkpt lat="44.76806675919463" lon="9.666833792814169"><ele>780.0</ele><time>2026-04-06T10:55:51.999Z</time></trkpt><trkpt lat="44.76819287490473" lon="9.666837265311283"><ele>780.0</ele><time>2026-04-06T10:55:52.999Z</time></trkpt><trkpt lat="44.768308946483174" lon="9.666820971243187"><ele>780.0</ele><time>2026-04-06T10:55:53.999Z</time></trkpt><trkpt lat="44.768419472434125" lon="9.666836991914934"><ele>780.0</ele><time>2026-04-06T10:55:54.999Z</time></trkpt><trkpt lat="44.768527867051446" lon="9.666872269166923"><ele>780.0</ele><time>2026-04-06T10:55:55.999Z</time></trkpt><trkpt lat="44.768622985165116" lon="9.66694118792613"><ele>780.0</ele><time>2026-04-06T10:55:56.999Z</time></trkpt><trkpt lat="44.76870407557193" lon="9.667033678996889"><ele>780.0</ele><time>2026-04-06T10:55:57.999Z</time></trkpt><trkpt lat="44.768763331033085" lon="9.667135909170174"><ele>779.1666666666666</ele><time>2026-04-06T10:55:58.999Z</time></trkpt><trkpt lat="44.76879782611117" lon="9.667249769127926"><ele>778.3333333333333</ele><time>2026-04-06T10:55:59.999Z</time></trkpt><trkpt lat="44.76884978464425" lon="9.667372257081839"><ele>777.5</ele><time>2026-04-06T10:56:00.999Z</time></trkpt><trkpt lat="44.76890299170906" lon="9.667488633292779"><ele>776.6666666666666</ele><time>2026-04-06T10:56:01.999Z</time></trkpt><trkpt lat="44.76894692816836" lon="9.667587941903662"><ele>775.8333333333333</ele><time>2026-04-06T10:56:03Z</time></trkpt><trkpt lat="44.768985422790706" lon="9.66767797329273"><ele>775.0</ele><time>2026-04-06T10:56:04Z</time></trkpt><trkpt lat="44.769033365539606" lon="9.667813613354205"><ele>774.0</ele><time>2026-04-06T10:56:06Z</time></trkpt><trkpt lat="44.769061838003694" lon="9.667954644304617"><ele>773.0</ele><time>2026-04-06T10:56:08Z</time></trkpt><trkpt lat="44.769077588512346" lon="9.668048371762465"><ele>772.0</ele><time>2026-04-06T10:56:09Z</time></trkpt><trkpt lat="44.76911362480304" lon="9.668143330237134"><ele>771.0</ele><time>2026-04-06T10:56:10Z</time></trkpt><trkpt lat="44.769780251201034" lon="9.668046970391634"><ele>770.8333333333334</ele><time>2026-04-06T10:56:12Z</time></trkpt><trkpt lat="44.76985167942106" lon="9.668113038914615"><ele>770.6666666666667</ele><time>2026-04-06T10:56:13Z</time></trkpt><trkpt lat="44.76992154278782" lon="9.668178536833118"><ele>770.5</ele><time>2026-04-06T10:56:14Z</time></trkpt><trkpt lat="44.769988286144596" lon="9.668244624148548"><ele>770.3333333333334</ele><time>2026-04-06T10:56:15Z</time></trkpt><trkpt lat="44.770051390500434" lon="9.66831454838881"><ele>770.1666666666667</ele><time>2026-04-06T10:56:16Z</time></trkpt><trkpt lat="44.77012082869178" lon="9.668396675416735"><ele>770.0</ele><time>2026-04-06T10:56:17Z</time></trkpt><trkpt lat="44.770198945691135" lon="9.668465295634988"><ele>769.0000000000001</ele><time>2026-04-06T10:56:18Z</time></trkpt><trkpt lat="44.770270386348564" lon="9.668518522066748"><ele>768.0</ele><time>2026-04-06T10:56:19Z</time></trkpt><trkpt lat="44.770345370227126" lon="9.668550477214119"><ele>767.0</ele><time>2026-04-06T10:56:20Z</time></trkpt><trkpt lat="44.77041914060497" lon="9.668601409690027"><ele>766.0</ele><time>2026-04-06T10:56:21Z</time></trkpt><trkpt lat="44.77047502214092" lon="9.668687178961058"><ele>765.0</ele><time>2026-04-06T10:56:22Z</time></trkpt><trkpt lat="44.770515972898274" lon="9.66878504215338"><ele>764.0</ele><time>2026-04-06T10:56:23Z</time></trkpt><trkpt lat="44.77055307834473" lon="9.668868950546518"><ele>764.0</ele><time>2026-04-06T10:56:24Z</time></trkpt><trkpt lat="44.770607912102676" lon="9.668958108264063"><ele>764.0</ele><time>2026-04-06T10:56:26Z</time></trkpt><trkpt lat="44.77054474724853" lon="9.668867781234002"><ele>764.0</ele><time>2026-04-06T10:56:55Z</time></trkpt><trkpt lat="44.7705208299694" lon="9.668782250124917"><ele>764.0</ele><time>2026-04-06T10:56:56Z</time></trkpt><trkpt lat="44.77047593036692" lon="9.668683304796106"><ele>764.0</ele><time>2026-04-06T10:56:57Z</time></trkpt><trkpt lat="44.77041981611594" lon="9.668617730895635"><ele>764.0</ele><time>2026-04-06T10:56:58Z</time></trkpt><trkpt lat="44.770347801250374" lon="9.668552083335022"><ele>763.8571428571429</ele><time>2026-04-06T10:56:59Z</time></trkpt><trkpt lat="44.77027800403102" lon="9.668502460554077"><ele>763.7142857142857</ele><time>2026-04-06T10:57:00Z</time></trkpt><trkpt lat="44.77021717632103" lon="9.66847237683464"><ele>763.5714285714286</ele><time>2026-04-06T10:57:01Z</time></trkpt><trkpt lat="44.7701514067109" lon="9.668468287630663"><ele>763.4285714285714</ele><time>2026-04-06T10:57:02Z</time></trkpt><trkpt lat="44.77007289619571" lon="9.668490522143689"><ele>763.2857142857142</ele><time>2026-04-06T10:57:03Z</time></trkpt><trkpt lat="44.770008627861316" lon="9.668542263310721"><ele>763.1428571428571</ele><time>2026-04-06T10:57:04Z</time></trkpt><trkpt lat="44.769966202136295" lon="9.668626469622533"><ele>763.0</ele><time>2026-04-06T10:57:05Z</time></trkpt><trkpt lat="44.76994525676673" lon="9.668728299333859"><ele>763.8333333333334</ele><time>2026-04-06T10:57:06Z</time></trkpt><trkpt lat="44.76996148773844" lon="9.668883504940785"><ele>764.6666666666667</ele><time>2026-04-06T10:57:08Z</time></trkpt><trkpt lat="44.7699992406643" lon="9.668958870530181"><ele>765.5</ele><time>2026-04-06T10:57:09Z</time></trkpt><trkpt lat="44.7700359306845" lon="9.669045825223778"><ele>766.3333333333334</ele><time>2026-04-06T10:57:10Z</time></trkpt><trkpt lat="44.77006799476492" lon="9.669142893580858"><ele>767.1666666666666</ele><time>2026-04-06T10:57:11Z</time></trkpt><trkpt lat="44.770093471142175" lon="9.669275923552869"><ele>768.0</ele><time>2026-04-06T10:57:13Z</time></trkpt><trkpt lat="44.770103669103904" lon="9.669374162860732"><ele>766.25</ele><time>2026-04-06T10:57:18Z</time></trkpt><trkpt lat="44.77017850462318" lon="9.669487902643287"><ele>764.5</ele><time>2026-04-06T10:57:21Z</time></trkpt><trkpt lat="44.77030278244827" lon="9.669607000928428"><ele>762.75</ele><time>2026-04-06T10:57:22Z</time></trkpt><trkpt lat="44.7703850513735" lon="9.669645034459009"><ele>761.0</ele><time>2026-04-06T10:57:23Z</time></trkpt><trkpt lat="44.770490371206094" lon="9.669666319795443"><ele>759.75</ele><time>2026-04-06T10:57:24Z</time></trkpt><trkpt lat="44.77061750668321" lon="9.66968434003966"><ele>758.5</ele><time>2026-04-06T10:57:25Z</time></trkpt><trkpt lat="44.77075193435274" lon="9.669694384067201"><ele>757.25</ele><time>2026-04-06T10:57:26Z</time></trkpt><trkpt lat="44.77088002218896" lon="9.669703648407076"><ele>756.0</ele><time>2026-04-06T10:57:27Z</time></trkpt><trkpt lat="44.77101392036277" lon="9.66970172766166"><ele>753.25</ele><time>2026-04-06T10:57:28Z</time></trkpt><trkpt lat="44.77114457299375" lon="9.669676429940214"><ele>750.5</ele><time>2026-04-06T10:57:29Z</time></trkpt><trkpt lat="44.771261810012106" lon="9.66968579891905"><ele>747.75</ele><time>2026-04-06T10:57:30Z</time></trkpt><trkpt lat="44.771382551505795" lon="9.669684061042606"><ele>745.0</ele><time>2026-04-06T10:57:31Z</time></trkpt><trkpt lat="44.77150199175559" lon="9.669656619492521"><ele>745.0</ele><time>2026-04-06T10:57:32Z</time></trkpt><trkpt lat="44.77161005408714" lon="9.669586438530832"><ele>745.0</ele><time>2026-04-06T10:57:33.001Z</time></trkpt><trkpt lat="44.77169036545863" lon="9.6694701171071"><ele>745.0</ele><time>2026-04-06T10:57:34.001Z</time></trkpt><trkpt lat="44.77177759540599" lon="9.669367667247478"><ele>745.0</ele><time>2026-04-06T10:57:35.001Z</time></trkpt><trkpt lat="44.77186884570124" lon="9.669284624359554"><ele>743.5</ele><time>2026-04-06T10:57:36.001Z</time></trkpt><trkpt lat="44.7719765930078" lon="9.669245210109594"><ele>742.0</ele><time>2026-04-06T10:57:37.001Z</time></trkpt><trkpt lat="44.77208138999462" lon="9.669231219922587"><ele>740.5</ele><time>2026-04-06T10:57:38.001Z</time></trkpt><trkpt lat="44.77220409286237" lon="9.669302669315952"><ele>739.0</ele><time>2026-04-06T10:57:39.001Z</time></trkpt><trkpt lat="44.77232938638062" lon="9.669384642772215"><ele>738.75</ele><time>2026-04-06T10:57:40.001Z</time></trkpt><trkpt lat="44.77245241717333" lon="9.669459884735618"><ele>738.5</ele><time>2026-04-06T10:57:41.001Z</time></trkpt><trkpt lat="44.772570885993574" lon="9.669515046987529"><ele>738.25</ele><time>2026-04-06T10:57:42.001Z</time></trkpt><trkpt lat="44.77269628481956" lon="9.669575336104113"><ele>738.0</ele><time>2026-04-06T10:57:43.001Z</time></trkpt><trkpt lat="44.77280606292441" lon="9.669662855641214"><ele>737.5</ele><time>2026-04-06T10:57:44.001Z</time></trkpt><trkpt lat="44.77291395314531" lon="9.669746384133983"><ele>737.0</ele><time>2026-04-06T10:57:45.001Z</time></trkpt><trkpt lat="44.773020441347896" lon="9.669828110323593"><ele>736.5</ele><time>2026-04-06T10:57:46.001Z</time></trkpt><trkpt lat="44.77313176925389" lon="9.669883025341425"><ele>736.0</ele><time>2026-04-06T10:57:47.001Z</time></trkpt><trkpt lat="44.773245567010726" lon="9.669920912953149"><ele>736.0</ele><time>2026-04-06T10:57:48.001Z</time></trkpt><trkpt lat="44.77335810671725" lon="9.669950388599336"><ele>736.0</ele><time>2026-04-06T10:57:49.001Z</time></trkpt><trkpt lat="44.77346344400546" lon="9.669987983088847"><ele>736.0</ele><time>2026-04-06T10:57:50.001Z</time></trkpt><trkpt lat="44.773564113789476" lon="9.670034819628171"><ele>736.0</ele><time>2026-04-06T10:57:51.001Z</time></trkpt><trkpt lat="44.77365589102941" lon="9.670096481299911"><ele>736.0</ele><time>2026-04-06T10:57:52.001Z</time></trkpt><trkpt lat="44.77372959406533" lon="9.670186255662937"><ele>734.75</ele><time>2026-04-06T10:57:53.001Z</time></trkpt><trkpt lat="44.773779261451665" lon="9.670263621565898"><ele>733.5</ele><time>2026-04-06T10:57:54.001Z</time></trkpt><trkpt lat="44.773850233624444" lon="9.670360586049176"><ele>732.25</ele><time>2026-04-06T10:57:56.001Z</time></trkpt><trkpt lat="44.773998780329734" lon="9.670136790472725"><ele>731.0</ele><time>2026-04-06T10:57:57.001Z</time></trkpt><trkpt lat="44.773895288496924" lon="9.670469347736988"><ele>731.0</ele><time>2026-04-06T10:57:58.001Z</time></trkpt><trkpt lat="44.773944033620424" lon="9.670538395251143"><ele>731.0</ele><time>2026-04-06T10:57:59.001Z</time></trkpt><trkpt lat="44.773983177821336" lon="9.670630364324573"><ele>731.0</ele><time>2026-04-06T10:58:01.001Z</time></trkpt><trkpt lat="44.774421175106625" lon="9.670411822051236"><ele>729.4</ele><time>2026-04-06T10:58:02.001Z</time></trkpt><trkpt lat="44.77449552621116" lon="9.670487066375713"><ele>727.8</ele><time>2026-04-06T10:58:03.001Z</time></trkpt><trkpt lat="44.7745754215339" lon="9.670559912015097"><ele>726.1999999999999</ele><time>2026-04-06T10:58:04.001Z</time></trkpt><trkpt lat="44.77466116989155" lon="9.670624373190378"><ele>724.5999999999999</ele><time>2026-04-06T10:58:05.001Z</time></trkpt><trkpt lat="44.77474445470695" lon="9.670692539412299"><ele>723.0</ele><time>2026-04-06T10:58:06.001Z</time></trkpt><trkpt lat="44.77482360474976" lon="9.670768892168338"><ele>723.0</ele><time>2026-04-06T10:58:07.001Z</time></trkpt><trkpt lat="44.774902114245826" lon="9.67084371672496"><ele>723.0</ele><time>2026-04-06T10:58:08.001Z</time></trkpt><trkpt lat="44.77497955258396" lon="9.670918819509216"><ele>723.0</ele><time>2026-04-06T10:58:09.001Z</time></trkpt><trkpt lat="44.77505490515065" lon="9.670989870772303"><ele>723.0</ele><time>2026-04-06T10:58:10.001Z</time></trkpt><trkpt lat="44.77511085652586" lon="9.671057322274205"><ele>723.0</ele><time>2026-04-06T10:58:11.001Z</time></trkpt><trkpt lat="44.7751723572286" lon="9.671200546588405"><ele>722.0</ele><time>2026-04-06T10:58:13.001Z</time></trkpt><trkpt lat="44.77518832236106" lon="9.671290297588655"><ele>721.0</ele><time>2026-04-06T10:58:14.001Z</time></trkpt><trkpt lat="44.77525698527249" lon="9.671452159172183"><ele>720.0</ele><time>2026-04-06T10:58:16.001Z</time></trkpt><trkpt lat="44.77530235784834" lon="9.671519741816981"><ele>719.0</ele><time>2026-04-06T10:58:17.001Z</time></trkpt><trkpt lat="44.77538008467515" lon="9.671668110413462"><ele>718.0</ele><time>2026-04-06T10:58:19.001Z</time></trkpt><trkpt lat="44.77543640172568" lon="9.671747738239755"><ele>718.0</ele><time>2026-04-06T10:58:20.001Z</time></trkpt><trkpt lat="44.77550711548068" lon="9.671836041028545"><ele>718.0</ele><time>2026-04-06T10:58:21.001Z</time></trkpt><trkpt lat="44.77558035823944" lon="9.67192943450579"><ele>718.0</ele><time>2026-04-06T10:58:22.001Z</time></trkpt><trkpt lat="44.775663200871875" lon="9.672028803238264"><ele>718.0</ele><time>2026-04-06T10:58:23.001Z</time></trkpt><trkpt lat="44.77574503891298" lon="9.67213730866918"><ele>718.0</ele><time>2026-04-06T10:58:24.001Z</time></trkpt><trkpt lat="44.775831314664316" lon="9.672250597483703"><ele>717.0</ele><time>2026-04-06T10:58:25.001Z</time></trkpt><trkpt lat="44.77591785097746" lon="9.672347541888668"><ele>716.0</ele><time>2026-04-06T10:58:26.001Z</time></trkpt><trkpt lat="44.77600860709635" lon="9.67246768850665"><ele>715.0</ele><time>2026-04-06T10:58:27.001Z</time></trkpt><trkpt lat="44.77609819131994" lon="9.672610342442184"><ele>714.0</ele><time>2026-04-06T10:58:28.001Z</time></trkpt><trkpt lat="44.776181277833324" lon="9.672743963365903"><ele>712.25</ele><time>2026-04-06T10:58:29.001Z</time></trkpt><trkpt lat="44.7762656798439" lon="9.672884972699112"><ele>710.5</ele><time>2026-04-06T10:58:30.001Z</time></trkpt><trkpt lat="44.77633898947534" lon="9.673022603011912"><ele>708.75</ele><time>2026-04-06T10:58:31.001Z</time></trkpt><trkpt lat="44.77640137949394" lon="9.673142319540558"><ele>707.0</ele><time>2026-04-06T10:58:32.001Z</time></trkpt><trkpt lat="44.77646567465488" lon="9.67325502231131"><ele>707.0</ele><time>2026-04-06T10:58:33.001Z</time></trkpt><trkpt lat="44.77654105587115" lon="9.673363621600224"><ele>707.0</ele><time>2026-04-06T10:58:34.001Z</time></trkpt><trkpt lat="44.77661178671575" lon="9.673470909196618"><ele>707.0</ele><time>2026-04-06T10:58:35.001Z</time></trkpt><trkpt lat="44.776678150062786" lon="9.673577121900614"><ele>707.0</ele><time>2026-04-06T10:58:36.001Z</time></trkpt><trkpt lat="44.77673401522055" lon="9.673679484214789"><ele>707.0</ele><time>2026-04-06T10:58:37.001Z</time></trkpt><trkpt lat="44.7767931048014" lon="9.673768250070978"><ele>707.0</ele><time>2026-04-06T10:58:38.001Z</time></trkpt><trkpt lat="44.776875505572775" lon="9.673821722406476"><ele>707.0</ele><time>2026-04-06T10:58:39.001Z</time></trkpt><trkpt lat="44.77698282757022" lon="9.673867134140952"><ele>707.0</ele><time>2026-04-06T10:58:40.001Z</time></trkpt><trkpt lat="44.77707614128055" lon="9.673944725654192"><ele>707.0</ele><time>2026-04-06T10:58:41.001Z</time></trkpt><trkpt lat="44.777169171995325" lon="9.674036787552563"><ele>707.0</ele><time>2026-04-06T10:58:42.001Z</time></trkpt><trkpt lat="44.777273562091345" lon="9.674124641463912"><ele>707.0</ele><time>2026-04-06T10:58:43.001Z</time></trkpt><trkpt lat="44.77738003606452" lon="9.674198721489297"><ele>707.0</ele><time>2026-04-06T10:58:44.001Z</time></trkpt><trkpt lat="44.777491047408894" lon="9.674269808053964"><ele>707.0</ele><time>2026-04-06T10:58:45.001Z</time></trkpt><trkpt lat="44.777615404666385" lon="9.674351152399057"><ele>707.0</ele><time>2026-04-06T10:58:46.001Z</time></trkpt><trkpt lat="44.77774411798544" lon="9.674451027631541"><ele>708.0</ele><time>2026-04-06T10:58:47.001Z</time></trkpt><trkpt lat="44.77786153398165" lon="9.674546498167741"><ele>709.0</ele><time>2026-04-06T10:58:48.001Z</time></trkpt><trkpt lat="44.777960251730335" lon="9.674640248322197"><ele>710.0</ele><time>2026-04-06T10:58:49.001Z</time></trkpt><trkpt lat="44.7780553468559" lon="9.674740380079"><ele>711.0</ele><time>2026-04-06T10:58:50.001Z</time></trkpt><trkpt lat="44.77812819783053" lon="9.674848192497624"><ele>711.0</ele><time>2026-04-06T10:58:51.001Z</time></trkpt><trkpt lat="44.778204499234015" lon="9.674960061491685"><ele>711.0</ele><time>2026-04-06T10:58:52.001Z</time></trkpt><trkpt lat="44.77830099635916" lon="9.675059311029846"><ele>711.0</ele><time>2026-04-06T10:58:53.001Z</time></trkpt><trkpt lat="44.7784104005212" lon="9.6751270367794"><ele>711.0</ele><time>2026-04-06T10:58:54.001Z</time></trkpt><trkpt lat="44.77852591499792" lon="9.67520368029347"><ele>710.4</ele><time>2026-04-06T10:58:55.001Z</time></trkpt><trkpt lat="44.778628085969196" lon="9.67527582000591"><ele>709.8</ele><time>2026-04-06T10:58:56.001Z</time></trkpt><trkpt lat="44.77869726637407" lon="9.675344996357168"><ele>709.1999999999999</ele><time>2026-04-06T10:58:57.001Z</time></trkpt><trkpt lat="44.778748123068446" lon="9.675430088711156"><ele>708.5999999999999</ele><time>2026-04-06T10:58:58.001Z</time></trkpt><trkpt lat="44.778784108856435" lon="9.675562445331053"><ele>708.0</ele><time>2026-04-06T10:58:59.001Z</time></trkpt><trkpt lat="44.77883403560125" lon="9.675673374901912"><ele>708.0</ele><time>2026-04-06T10:59:00.001Z</time></trkpt><trkpt lat="44.77890349308333" lon="9.675761948771898"><ele>708.0</ele><time>2026-04-06T10:59:01.001Z</time></trkpt><trkpt lat="44.77899203759304" lon="9.675843507476827"><ele>708.0</ele><time>2026-04-06T10:59:02.001Z</time></trkpt><trkpt lat="44.779087057685445" lon="9.675925021248434"><ele>708.0</ele><time>2026-04-06T10:59:03.001Z</time></trkpt><trkpt lat="44.77915504041221" lon="9.676023184436417"><ele>708.0</ele><time>2026-04-06T10:59:04.001Z</time></trkpt><trkpt lat="44.77921055572204" lon="9.67610336006912"><ele>707.5999999999999</ele><time>2026-04-06T10:59:05.001Z</time></trkpt><trkpt lat="44.779277074983575" lon="9.67621039437269"><ele>707.1999999999999</ele><time>2026-04-06T10:59:06.001Z</time></trkpt><trkpt lat="44.77935543894743" lon="9.67628552358103"><ele>706.8</ele><time>2026-04-06T10:59:07.001Z</time></trkpt><trkpt lat="44.77943675116032" lon="9.676329076001204"><ele>706.4</ele><time>2026-04-06T10:59:08.001Z</time></trkpt><trkpt lat="44.77951541877679" lon="9.676366476785361"><ele>706.0</ele><time>2026-04-06T10:59:09.001Z</time></trkpt><trkpt lat="44.779607987160865" lon="9.676370756231492"><ele>706.0</ele><time>2026-04-06T10:59:10.001Z</time></trkpt><trkpt lat="44.77971107720758" lon="9.676393024670569"><ele>706.0</ele><time>2026-04-06T10:59:11.001Z</time></trkpt><trkpt lat="44.77982906976566" lon="9.67644463050916"><ele>706.0</ele><time>2026-04-06T10:59:12.001Z</time></trkpt><trkpt lat="44.77994282799357" lon="9.67648242771907"><ele>706.0</ele><time>2026-04-06T10:59:13.001Z</time></trkpt><trkpt lat="44.780042571895656" lon="9.676514883712068"><ele>706.0</ele><time>2026-04-06T10:59:14.001Z</time></trkpt><trkpt lat="44.78012042801386" lon="9.676570158824473"><ele>706.0</ele><time>2026-04-06T10:59:15.001Z</time></trkpt><trkpt lat="44.78018156351294" lon="9.676543435955132"><ele>706.0</ele><time>2026-04-06T10:59:19.001Z</time></trkpt><trkpt lat="44.780281126346814" lon="9.67650439088145"><ele>706.0</ele><time>2026-04-06T10:59:21.001Z</time></trkpt><trkpt lat="44.78035379431474" lon="9.676503686659743"><ele>706.0</ele><time>2026-04-06T10:59:23.001Z</time></trkpt><trkpt lat="44.780368373664565" lon="9.67660064369074"><ele>706.0</ele><time>2026-04-06T10:59:25.001Z</time></trkpt><trkpt lat="44.78036057204988" lon="9.676736985896415"><ele>706.0</ele><time>2026-04-06T10:59:27.001Z</time></trkpt><trkpt lat="44.780383338489614" lon="9.676831261393826"><ele>707.0</ele><time>2026-04-06T10:59:29.001Z</time></trkpt><trkpt lat="44.780438855241925" lon="9.676901634718853"><ele>708.0</ele><time>2026-04-06T10:59:31.001Z</time></trkpt><trkpt lat="44.780516318939995" lon="9.676904454810291"><ele>709.0</ele><time>2026-04-06T10:59:33.001Z</time></trkpt><trkpt lat="44.78059033027041" lon="9.676949285190743"><ele>710.0</ele><time>2026-04-06T10:59:36.001Z</time></trkpt><trkpt lat="44.78069155681111" lon="9.677056057611994"><ele>711.0</ele><time>2026-04-06T10:59:38.001Z</time></trkpt><trkpt lat="44.78075299805062" lon="9.677191623438615"><ele>711.0</ele><time>2026-04-06T10:59:40.001Z</time></trkpt><trkpt lat="44.78076818550843" lon="9.677309372629752"><ele>711.0</ele><time>2026-04-06T10:59:42.001Z</time></trkpt><trkpt lat="44.78084291978523" lon="9.67734450864202"><ele>711.0</ele><time>2026-04-06T10:59:45.001Z</time></trkpt><trkpt lat="44.780908010764506" lon="9.677419012361451"><ele>711.0</ele><time>2026-04-06T10:59:48.001Z</time></trkpt><trkpt lat="44.78097048392949" lon="9.677503453543832"><ele>711.0</ele><time>2026-04-06T10:59:50.001Z</time></trkpt><trkpt lat="44.78109556873799" lon="9.677581897831605"><ele>710.5714285714286</ele><time>2026-04-06T10:59:51.001Z</time></trkpt><trkpt lat="44.78114633369207" lon="9.677635313683231"><ele>710.1428571428571</ele><time>2026-04-06T10:59:52.001Z</time></trkpt><trkpt lat="44.78119328443688" lon="9.677700366864755"><ele>709.7142857142858</ele><time>2026-04-06T10:59:53.001Z</time></trkpt><trkpt lat="44.78122673931301" lon="9.677776864245919"><ele>709.2857142857142</ele><time>2026-04-06T10:59:54.001Z</time></trkpt><trkpt lat="44.78125890479878" lon="9.677865873989672"><ele>708.8571428571428</ele><time>2026-04-06T10:59:55.001Z</time></trkpt><trkpt lat="44.781295924616494" lon="9.677947191495257"><ele>708.4285714285714</ele><time>2026-04-06T10:59:56.001Z</time></trkpt><trkpt lat="44.78134317971093" lon="9.678026266108825"><ele>708.0</ele><time>2026-04-06T10:59:57.001Z</time></trkpt><trkpt lat="44.7813811804789" lon="9.678097285277222"><ele>708.0</ele><time>2026-04-06T10:59:58.001Z</time></trkpt><trkpt lat="44.78144820532856" lon="9.678235735220714"><ele>708.0</ele><time>2026-04-06T11:00:00.001Z</time></trkpt><trkpt lat="44.78148246127842" lon="9.678337987398699"><ele>708.0</ele><time>2026-04-06T11:00:02.001Z</time></trkpt><trkpt lat="44.7815370171271" lon="9.6784086635184"><ele>708.0</ele><time>2026-04-06T11:00:04.001Z</time></trkpt><trkpt lat="44.78159023193811" lon="9.67849763713011"><ele>708.0</ele><time>2026-04-06T11:00:06.001Z</time></trkpt><trkpt lat="44.78163577585391" lon="9.67857845057617"><ele>708.0</ele><time>2026-04-06T11:00:07.001Z</time></trkpt><trkpt lat="44.781678440197965" lon="9.678678108164902"><ele>708.25</ele><time>2026-04-06T11:00:08.001Z</time></trkpt><trkpt lat="44.78172395117563" lon="9.678777978142788"><ele>708.5</ele><time>2026-04-06T11:00:09.001Z</time></trkpt><trkpt lat="44.78178430145828" lon="9.679020868748038"><ele>708.75</ele><time>2026-04-06T11:00:10.001Z</time></trkpt><trkpt lat="44.781806627650624" lon="9.679183576922515"><ele>709.0</ele><time>2026-04-06T11:00:12.001Z</time></trkpt><trkpt lat="44.781928142636026" lon="9.679266443034951"><ele>707.2</ele><time>2026-04-06T11:00:15.001Z</time></trkpt><trkpt lat="44.78198993523349" lon="9.679386492307598"><ele>705.4000000000001</ele><time>2026-04-06T11:00:16.001Z</time></trkpt><trkpt lat="44.78202758088603" lon="9.679478986915813"><ele>703.6</ele><time>2026-04-06T11:00:17.001Z</time></trkpt><trkpt lat="44.7821362105039" lon="9.679599212970903"><ele>701.8</ele><time>2026-04-06T11:00:19.001Z</time></trkpt><trkpt lat="44.7822264540961" lon="9.679726085465102"><ele>700.0</ele><time>2026-04-06T11:00:21.001Z</time></trkpt><trkpt lat="44.78229648902689" lon="9.679896928845613"><ele>698.5</ele><time>2026-04-06T11:00:23.001Z</time></trkpt><trkpt lat="44.78234945650049" lon="9.679968784199646"><ele>697.0</ele><time>2026-04-06T11:00:24.001Z</time></trkpt><trkpt lat="44.782404644777635" lon="9.680039084953105"><ele>695.5</ele><time>2026-04-06T11:00:25.001Z</time></trkpt><trkpt lat="44.78247341388844" lon="9.680112710340996"><ele>694.0</ele><time>2026-04-06T11:00:26.001Z</time></trkpt><trkpt lat="44.782529986227644" lon="9.680207232126065"><ele>692.5</ele><time>2026-04-06T11:00:27.001Z</time></trkpt><trkpt lat="44.78257291516569" lon="9.680330772456978"><ele>691.0</ele><time>2026-04-06T11:00:28.001Z</time></trkpt><trkpt lat="44.78260193063214" lon="9.680452120664127"><ele>689.1666666666667</ele><time>2026-04-06T11:00:29.001Z</time></trkpt><trkpt lat="44.78262065740835" lon="9.680538133242836"><ele>687.3333333333334</ele><time>2026-04-06T11:00:30.001Z</time></trkpt><trkpt lat="44.78263196533997" lon="9.680636779471"><ele>685.5</ele><time>2026-04-06T11:00:31.001Z</time></trkpt><trkpt lat="44.78263010384424" lon="9.680809383305846"><ele>683.6666666666666</ele><time>2026-04-06T11:00:33.001Z</time></trkpt><trkpt lat="44.78255958037297" lon="9.680894752123814"><ele>681.8333333333333</ele><time>2026-04-06T11:00:35.001Z</time></trkpt><trkpt lat="44.78256716645546" lon="9.680988150964883"><ele>680.0</ele><time>2026-04-06T11:00:39.001Z</time></trkpt><trkpt lat="44.78269365858287" lon="9.68115459620057"><ele>676.6666666666666</ele><time>2026-04-06T11:00:42.001Z</time></trkpt><trkpt lat="44.78281972802478" lon="9.68122430329332"><ele>673.3333333333333</ele><time>2026-04-06T11:00:44.001Z</time></trkpt><trkpt lat="44.78288599993802" lon="9.68126983002762"><ele>670.0</ele><time>2026-04-06T11:00:45.001Z</time></trkpt><trkpt lat="44.78296579568756" lon="9.681330436662178"><ele>666.6666666666666</ele><time>2026-04-06T11:00:46.001Z</time></trkpt><trkpt lat="44.7829994094516" lon="9.681423150089678"><ele>663.3333333333334</ele><time>2026-04-06T11:00:47.001Z</time></trkpt><trkpt lat="44.78303290440486" lon="9.681503705107751"><ele>660.0</ele><time>2026-04-06T11:00:48.001Z</time></trkpt><trkpt lat="44.78308658937073" lon="9.681607864969212"><ele>660.0</ele><time>2026-04-06T11:00:50.001Z</time></trkpt><trkpt lat="44.78313929944964" lon="9.681671675107463"><ele>660.0</ele><time>2026-04-06T11:00:51.001Z</time></trkpt><trkpt lat="44.78319760326272" lon="9.681750486841182"><ele>660.0</ele><time>2026-04-06T11:00:52.001Z</time></trkpt><trkpt lat="44.783254969363014" lon="9.681834511482975"><ele>660.0</ele><time>2026-04-06T11:00:53.001Z</time></trkpt><trkpt lat="44.78332195876711" lon="9.681935725905369"><ele>660.0</ele><time>2026-04-06T11:00:54.001Z</time></trkpt><trkpt lat="44.783385819005936" lon="9.682010112714988"><ele>660.0</ele><time>2026-04-06T11:00:55.001Z</time></trkpt><trkpt lat="44.78345351062861" lon="9.68206248634354"><ele>659.0</ele><time>2026-04-06T11:00:56.001Z</time></trkpt><trkpt lat="44.783512488701966" lon="9.682118444457087"><ele>658.0</ele><time>2026-04-06T11:00:57.001Z</time></trkpt><trkpt lat="44.78357199223622" lon="9.68217753858755"><ele>657.0</ele><time>2026-04-06T11:00:58.001Z</time></trkpt><trkpt lat="44.78362710728399" lon="9.68224095156343"><ele>656.0</ele><time>2026-04-06T11:00:59.001Z</time></trkpt><trkpt lat="44.783694580576494" lon="9.68230657088364"><ele>655.0</ele><time>2026-04-06T11:01:00.001Z</time></trkpt><trkpt lat="44.783746062245726" lon="9.682441418993243"><ele>654.0</ele><time>2026-04-06T11:01:01.001Z</time></trkpt><trkpt lat="44.78381058164032" lon="9.682502605475579"><ele>652.5</ele><time>2026-04-06T11:01:02.001Z</time></trkpt><trkpt lat="44.7838827979633" lon="9.682542517039082"><ele>651.0</ele><time>2026-04-06T11:01:04.001Z</time></trkpt><trkpt lat="44.783927292100955" lon="9.68261172377413"><ele>649.5</ele><time>2026-04-06T11:01:06.001Z</time></trkpt><trkpt lat="44.78406081060312" lon="9.682672746856214"><ele>648.0</ele><time>2026-04-06T11:01:08.001Z</time></trkpt><trkpt lat="44.784132206119395" lon="9.682685206518773"><ele>646.5</ele><time>2026-04-06T11:01:09.001Z</time></trkpt><trkpt lat="44.78421407220688" lon="9.682715964214047"><ele>645.0</ele><time>2026-04-06T11:01:10.001Z</time></trkpt><trkpt lat="44.78427620644694" lon="9.682757219934846"><ele>644.5714285714286</ele><time>2026-04-06T11:01:11.001Z</time></trkpt><trkpt lat="44.78433787921668" lon="9.682802735769204"><ele>644.1428571428571</ele><time>2026-04-06T11:01:12.001Z</time></trkpt><trkpt lat="44.784389950505" lon="9.682866377219504"><ele>643.7142857142857</ele><time>2026-04-06T11:01:13.001Z</time></trkpt><trkpt lat="44.784432492832714" lon="9.682938330741548"><ele>643.2857142857142</ele><time>2026-04-06T11:01:14.001Z</time></trkpt><trkpt lat="44.784486824288145" lon="9.682997950029657"><ele>642.8571428571429</ele><time>2026-04-06T11:01:15.001Z</time></trkpt><trkpt lat="44.78454248536616" lon="9.683057938103703"><ele>642.4285714285713</ele><time>2026-04-06T11:01:16.001Z</time></trkpt><trkpt lat="44.78460218208287" lon="9.683125690850039"><ele>642.0</ele><time>2026-04-06T11:01:17.001Z</time></trkpt><trkpt lat="44.78467279017308" lon="9.683211316719703"><ele>640.6</ele><time>2026-04-06T11:01:18.001Z</time></trkpt><trkpt lat="44.78475368563205" lon="9.683302433304275"><ele>639.2</ele><time>2026-04-06T11:01:19.001Z</time></trkpt><trkpt lat="44.784831741725114" lon="9.683397558662907"><ele>637.8</ele><time>2026-04-06T11:01:20.001Z</time></trkpt><trkpt lat="44.784908835165375" lon="9.683503137575935"><ele>636.4</ele><time>2026-04-06T11:01:21.001Z</time></trkpt><trkpt lat="44.78498798268945" lon="9.683625577552906"><ele>635.0</ele><time>2026-04-06T11:01:22.001Z</time></trkpt><trkpt lat="44.785052688077556" lon="9.683745747738131"><ele>635.0</ele><time>2026-04-06T11:01:23.001Z</time></trkpt><trkpt lat="44.785113128531094" lon="9.68386495298162"><ele>635.0</ele><time>2026-04-06T11:01:24.001Z</time></trkpt><trkpt lat="44.78516325961834" lon="9.683997143304973"><ele>635.0</ele><time>2026-04-06T11:01:25.001Z</time></trkpt><trkpt lat="44.78521106857082" lon="9.684135755943398"><ele>635.0</ele><time>2026-04-06T11:01:26.001Z</time></trkpt><trkpt lat="44.78526039330115" lon="9.684275015325811"><ele>635.0</ele><time>2026-04-06T11:01:27.001Z</time></trkpt><trkpt lat="44.785310894685914" lon="9.684416400194388"><ele>632.75</ele><time>2026-04-06T11:01:28.001Z</time></trkpt><trkpt lat="44.78536753809597" lon="9.684567689325558"><ele>630.5</ele><time>2026-04-06T11:01:29.002Z</time></trkpt><trkpt lat="44.78542931499503" lon="9.684718522026545"><ele>628.25</ele><time>2026-04-06T11:01:30.002Z</time></trkpt><trkpt lat="44.78548822127348" lon="9.684862377669708"><ele>626.0</ele><time>2026-04-06T11:01:31.002Z</time></trkpt><trkpt lat="44.78553750991099" lon="9.685003144643368"><ele>626.0</ele><time>2026-04-06T11:01:32.002Z</time></trkpt><trkpt lat="44.78557693650595" lon="9.685142022540377"><ele>626.0</ele><time>2026-04-06T11:01:33.002Z</time></trkpt><trkpt lat="44.78561899118283" lon="9.68527506852921"><ele>626.0</ele><time>2026-04-06T11:01:34.002Z</time></trkpt><trkpt lat="44.78567377472457" lon="9.685395704485963"><ele>626.0</ele><time>2026-04-06T11:01:35.002Z</time></trkpt><trkpt lat="44.785739871778596" lon="9.685495217205101"><ele>626.0</ele><time>2026-04-06T11:01:36.002Z</time></trkpt><trkpt lat="44.785815865212086" lon="9.685583429199767"><ele>625.6</ele><time>2026-04-06T11:01:37.001Z</time></trkpt><trkpt lat="44.78590177645188" lon="9.6856488065561"><ele>625.2</ele><time>2026-04-06T11:01:38.001Z</time></trkpt><trkpt lat="44.78599458426234" lon="9.68570100241129"><ele>624.8</ele><time>2026-04-06T11:01:39.001Z</time></trkpt><trkpt lat="44.78607999306599" lon="9.685745056336623"><ele>624.4</ele><time>2026-04-06T11:01:40.001Z</time></trkpt><trkpt lat="44.786163908117345" lon="9.685788713205621"><ele>624.0</ele><time>2026-04-06T11:01:41.001Z</time></trkpt><trkpt lat="44.78624219436093" lon="9.685833481074607"><ele>624.0</ele><time>2026-04-06T11:01:42.001Z</time></trkpt><trkpt lat="44.78632093721764" lon="9.685878663263114"><ele>624.0</ele><time>2026-04-06T11:01:43.001Z</time></trkpt><trkpt lat="44.786378440396135" lon="9.685952457562973"><ele>624.0</ele><time>2026-04-06T11:01:44.001Z</time></trkpt><trkpt lat="44.78647554106725" lon="9.685939064512368"><ele>624.0</ele><time>2026-04-06T11:01:45.001Z</time></trkpt><trkpt lat="44.78654564356992" lon="9.685970266261293"><ele>624.0</ele><time>2026-04-06T11:01:46.001Z</time></trkpt><trkpt lat="44.786644743552806" lon="9.686021600584734"><ele>624.0</ele><time>2026-04-06T11:01:48.001Z</time></trkpt><trkpt lat="44.786697477084836" lon="9.686075090258017"><ele>624.0</ele><time>2026-04-06T11:01:50.001Z</time></trkpt><trkpt lat="44.78671669764823" lon="9.686163809893962"><ele>624.0</ele><time>2026-04-06T11:01:55.001Z</time></trkpt><trkpt lat="44.78671669764823" lon="9.686163809893962"><ele>624.0</ele><time>2026-04-06T11:01:55.001Z</time></trkpt><trkpt lat="44.78671669764823" lon="9.686163809893962"><ele>624.0</ele><time>2026-04-06T11:01:55.001Z</time></trkpt><trkpt lat="44.78671669764823" lon="9.686163809893962"><ele>624.0</ele><time>2026-04-06T11:01:55.001Z</time></trkpt><trkpt lat="44.78671669764823" lon="9.686163809893962"><ele>624.0</ele><time>2026-04-06T11:01:55.001Z</time></trkpt><trkpt lat="44.78671669764823" lon="9.686163809893962"><ele>624.0</ele><time>2026-04-06T11:01:55.001Z</time></trkpt><trkpt lat="44.78671669764823" lon="9.686163809893962"><ele>624.0</ele><time>2026-04-06T11:01:55.001Z</time></trkpt></trkseg></trk></gpx>